<
# Wetter Temperatur Luftdruck Luftfeuchtigkeit Sichtweite Windgeschwindigkeit Windrichtung Zeit
1 Rain 22 1014 58 10000 8.23 120 08:30 02.10.2022
2 Rain 22 1014 58 10000 8.23 120 08:30 02.10.2022
3 Clear 22 1017 60 10000 4.12 110 05:21 02.10.2022
4 Rain 17 1017 48 10000 2.71 87 01:20 02.10.2022
5 Rain 18 1018 88 6000 1.54 70 00:38 02.10.2022
6 Rain 18 1019 88 5000 2.06 360 23:28 01.10.2022
7 Mist 17 1017 91 4500 1.54 330 21:48 01.10.2022
8 Mist 17 1017 88 4500 0.51 360 18:54 01.10.2022
9 Mist 17 1018 88 4500 1.54 320 17:46 01.10.2022
10 Mist 19 1018 81 3500 1.03 350 15:29 01.10.2022
11 Mist 20 1018 78 3200 2.06 310 13:52 01.10.2022
12 Haze 21 1017 73 4500 2.06 310 12:34 01.10.2022
13 Haze 23 1017 60 4500 2.57 290 11:22 01.10.2022
14 Haze 24 1017 57 4000 2.06 280 10:51 01.10.2022
15 Haze 24 1017 57 4000 2.06 280 10:29 01.10.2022
16 Haze 25 1017 61 3500 3.09 270 09:21 01.10.2022
17 Haze 27 1017 46 4000 3.09 280 08:26 01.10.2022
18 Mist 21 1020 73 4500 0.51 270 03:47 01.10.2022
19 Mist 20 1020 77 4500 0.51 270 03:18 01.10.2022
20 Mist 14 1018 100 2400 0.51 190 23:21 30.09.2022
21 Fog 14 1018 97 200 2.06 10 22:18 30.09.2022
22 Fog 14 1017 97 600 1.03 270 20:53 30.09.2022
23 Fog 13 1017 100 1500 1.54 320 20:20 30.09.2022
24 Fog 15 1017 97 900 1.54 310 18:32 30.09.2022
25 Mist 16 1017 91 1400 1.03 270 16:54 30.09.2022
26 Mist 18 1017 89 2500 2.06 340 14:24 30.09.2022
27 Mist 20 1016 74 4000 1.54 280 12:50 30.09.2022
28 Haze 22 1015 67 5000 3.6 280 11:56 30.09.2022
29 Clouds 27 1015 43 7000 1.54 320 09:24 30.09.2022
30 Clouds 26 1015 41 8000 2.57 350 07:50 30.09.2022
31 Mist 20 1017 78 3500 1.03 340 03:19 30.09.2022
32 Fog 16 1017 100 900 1.03 320 01:23 30.09.2022
33 Fog 14 1017 97 1500 2.06 320 21:40 29.09.2022
34 Fog 14 1017 97 1500 2.06 320 21:19 29.09.2022
35 Mist 15 1016 94 2300 1.03 10 18:56 29.09.2022
36 Mist 15 1016 97 3000 0.51 320 17:49 29.09.2022
37 Mist 16 1016 94 3000 1.54 310 16:29 29.09.2022
38 Mist 16 1016 91 3500 0.51 250 15:37 29.09.2022
39 Mist 17 1016 88 4500 0.51 320 14:59 29.09.2022
40 Clear 20 1015 77 9000 2.06 250 12:22 29.09.2022
41 Haze 26 1014 49 5000 2.57 320 08:44 29.09.2022
42 Haze 22 1016 60 4000 1.03 340 04:22 29.09.2022
43 Mist 17 1016 88 2200 1.54 340 01:47 29.09.2022
44 Mist 16 1015 97 1300 1.03 210 23:20 28.09.2022
45 Fog 16 1014 97 100 1.54 320 21:31 28.09.2022
46 Fog 16 1014 97 100 1.54 310 20:49 28.09.2022
47 Fog 14 1014 97 200 1.54 320 19:48 28.09.2022
48 Fog 17 1014 94 1300 1.54 320 16:27 28.09.2022
49 Mist 19 1013 89 2800 3.09 280 13:28 28.09.2022
50 Clear 22 1013 64 10000 2.57 270 11:43 28.09.2022
51 Clear 26 1012 52 10000 2.06 280 09:34 28.09.2022
52 Clear 25 1013 53 10000 2.06 130 07:41 28.09.2022
53 Clear 22 1014 60 10000 2.06 180 05:31 28.09.2022
54 Clear 16 1014 85 10000 1.03 300 01:40 28.09.2022
55 Clear 14 1014 97 10000 1.54 320 23:31 27.09.2022
56 Clouds 15 1014 94 7000 1.03 340 22:32 27.09.2022
57 Clouds 15 1014 94 7000 0.51 360 20:56 27.09.2022
58 Clouds 15 1014 100 7000 0.51 360 20:19 27.09.2022
59 Clear 15 1014 94 7000 1.54 340 19:36 27.09.2022
60 Clear 16 1015 88 9000 1.03 270 17:46 27.09.2022
61 Clear 16 1015 100 10000 1.03 20 16:20 27.09.2022
62 Clear 18 1015 78 10000 1.54 310 14:59 27.09.2022
63 Clear 19 1014 78 10000 1.54 180 13:32 27.09.2022
64 Clear 20 1014 83 10000 1.54 270 12:23 27.09.2022
65 Clear 27 1014 36 10000 2.06 320 09:49 27.09.2022
66 Clear 27 1015 38 10000 1.54 300 07:38 27.09.2022
67 Clear 18 1017 74 10000 1.54 20 02:59 27.09.2022
68 Clear 15 1017 88 10000 2.06 340 01:35 27.09.2022
69 Clear 12 1017 97 10000 1.54 330 23:38 26.09.2022
70 Clouds 14 1017 56 10000 1.18 55 23:18 26.09.2022
71 Clear 13 1017 97 10000 1.54 330 20:48 26.09.2022
72 Clear 13 1017 94 10000 1.54 320 19:34 26.09.2022
73 Clear 14 1017 88 10000 1.54 310 18:35 26.09.2022
74 Clear 15 1017 80 10000 1.03 50 16:58 26.09.2022
75 Clear 17 1017 70 10000 1.54 320 14:46 26.09.2022
76 Clear 22 1016 46 10000 3.6 290 11:36 26.09.2022
77 Clear 24 1016 43 10000 2.06 280 10:41 26.09.2022
78 Clear 24 1016 43 10000 2.06 280 10:21 26.09.2022
79 Clear 25 1016 29 10000 3.09 330 09:56 26.09.2022
80 Clear 25 1016 33 10000 3.09 330 09:24 26.09.2022
81 Clear 26 1016 28 10000 2.06 340 08:57 26.09.2022
82 Clear 17 1018 77 10000 1.54 360 02:57 26.09.2022
83 Clear 14 1018 91 10000 2.06 330 00:35 26.09.2022
84 Clear 14 1017 94 10000 1.54 340 22:59 25.09.2022
85 Clear 13 1017 94 10000 0.51 340 21:41 25.09.2022
86 Clear 14 1017 91 10000 0.51 270 20:49 25.09.2022
87 Clear 14 1017 91 10000 1.03 320 19:43 25.09.2022
88 Clear 15 1017 85 10000 1.03 310 18:43 25.09.2022
89 Clear 15 1017 88 10000 1.03 310 18:20 25.09.2022
90 Clear 17 1017 77 10000 1.54 340 16:45 25.09.2022
91 Clear 17 1017 75 10000 2.06 330 15:45 25.09.2022
92 Clear 18 1017 68 10000 1.03 360 14:29 25.09.2022
93 Clear 19 1016 60 10000 1.54 280 12:57 25.09.2022
94 Clear 24 1015 41 10000 4.12 330 10:36 25.09.2022
95 Clear 25 1015 44 10000 3.09 340 08:25 25.09.2022
96 Clear 25 1016 36 10000 1.03 110 06:23 25.09.2022
97 Clear 17 1017 80 10000 1.54 340 02:57 25.09.2022
98 Clear 14 1016 94 10000 1.03 320 22:35 24.09.2022
99 Clear 15 1016 94 10000 1.54 330 20:55 24.09.2022
100 Clear 15 1016 100 10000 1.54 290 19:23 24.09.2022
101 Clear 16 1017 85 10000 1.03 360 17:49 24.09.2022
102 Clear 17 1017 82 10000 0.51 310 16:25 24.09.2022
103 Clouds 15 1017 61 10000 0.93 249 15:21 24.09.2022
104 Clear 18 1016 73 10000 2.06 290 13:27 24.09.2022
105 Clear 18 1016 66 10000 2.57 270 12:50 24.09.2022
106 Clouds 23 1016 44 10000 4.12 270 10:54 24.09.2022
107 Clouds 23 1016 44 10000 2.57 330 09:40 24.09.2022
108 Clouds 24 1016 38 10000 5.14 350 08:43 24.09.2022
109 Clouds 24 1017 35 10000 5.66 360 07:24 24.09.2022
110 Clear 21 1018 51 10000 1.54 230 04:40 24.09.2022
111 Clear 17 1018 63 10000 1.03 360 02:19 24.09.2022
112 Clear 11 1017 88 10000 1.54 50 22:28 23.09.2022
113 Clear 11 1017 94 10000 0.51 160 21:28 23.09.2022
114 Clear 11 1017 90 10000 0.51 60 20:55 23.09.2022
115 Mist 15 1015 81 10000 5.66 230 20:19 23.09.2022
116 Clear 12 1017 79 10000 0.51 180 18:26 23.09.2022
117 Clouds 16 1015 59 10000 2.57 290 13:44 23.09.2022
118 Clouds 19 1013 50 10000 5.66 270 10:26 23.09.2022
119 Clouds 20 1012 41 10000 6.69 280 08:57 23.09.2022
120 Clouds 20 1011 77 5000 7.2 280 04:56 23.09.2022
121 Clear 15 1012 91 10000 3.09 160 23:31 22.09.2022
122 Clear 14 1012 88 10000 3.6 140 22:29 22.09.2022
123 Clear 14 1012 91 10000 2.57 150 21:47 22.09.2022
124 Clear 14 1012 91 10000 2.06 180 20:44 22.09.2022
125 Clear 15 1013 88 10000 0.51 360 19:20 22.09.2022
126 Clear 18 1014 77 10000 0.51 20 16:23 22.09.2022
127 Clear 23 1013 44 10000 2.57 200 10:56 22.09.2022
128 Clouds 23 1013 36 10000 3.53 244 10:20 22.09.2022
129 Clear 25 1014 41 10000 2.57 240 08:22 22.09.2022
130 Clear 23 1015 49 10000 2.06 230 06:21 22.09.2022
131 Clear 18 1017 57 10000 4.63 150 02:28 22.09.2022
132 Clear 14 1017 69 10000 2.57 210 22:29 21.09.2022
133 Clear 14 1017 77 10000 2.06 160 21:26 21.09.2022
134 Clear 14 1017 94 10000 0.51 160 19:22 21.09.2022
135 Clear 15 1017 83 10000 1.54 180 17:45 21.09.2022
136 Clear 15 1017 94 10000 0.51 310 16:20 21.09.2022
137 Clear 18 1017 66 10000 1.54 300 13:56 21.09.2022
138 Clear 22 1016 44 10000 3.09 290 11:44 21.09.2022
139 Clear 22 1016 53 10000 3.09 290 11:21 21.09.2022
140 Clear 24 1016 40 10000 2.06 230 09:44 21.09.2022
141 Clear 24 1016 35 10000 3.09 210 08:50 21.09.2022
142 Clear 23 1018 46 10000 1.03 180 04:57 21.09.2022
143 Clear 17 1018 65 10000 1.54 350 02:40 21.09.2022
144 Clear 15 1018 77 10000 1.54 310 01:58 21.09.2022
145 Clear 12 1018 82 10000 1.54 320 00:20 21.09.2022
146 Clear 12 1017 82 10000 0.51 120 21:53 20.09.2022
147 Clear 13 1016 80 10000 2.06 320 20:33 20.09.2022
148 Clear 14 1016 72 10000 1.54 340 18:51 20.09.2022
149 Clear 16 1016 63 10000 3.6 330 15:51 20.09.2022
150 Clear 17 1015 64 10000 2.57 320 14:29 20.09.2022
151 Clear 19 1014 61 10000 3.09 310 12:32 20.09.2022
152 Clear 23 1013 39 10000 1.54 310 08:50 20.09.2022
153 Clear 24 1013 38 10000 1.54 310 08:24 20.09.2022
154 Clear 23 1015 40 10000 2.57 90 04:40 20.09.2022
155 Clear 19 1014 56 10000 3.6 70 02:24 20.09.2022
156 Clear 15 1012 75 10000 3.6 360 22:44 19.09.2022
157 Clear 16 1011 79 10000 2.57 360 21:28 19.09.2022
158 Clear 17 1011 77 10000 4.12 360 20:40 19.09.2022
159 Clear 16 1009 80 10000 3.09 330 18:49 19.09.2022
160 Clear 18 1009 73 10000 3.6 320 17:37 19.09.2022
161 Clouds 21 1005 64 10000 5.14 330 13:49 19.09.2022
162 Clouds 23 1004 56 10000 4.63 20 12:26 19.09.2022
163 Clouds 26 1001 53 10000 5.66 50 10:19 19.09.2022
164 Clear 28 1001 51 10000 7.72 350 08:37 19.09.2022
165 Clear 26 1001 65 10000 7.72 360 03:39 19.09.2022
166 Clear 24 1000 73 10000 7.72 360 00:52 19.09.2022
167 Clear 24 999 76 10000 5.14 360 22:42 18.09.2022
168 Clear 24 999 75 10000 7.2 350 21:26 18.09.2022
169 Clear 24 1000 76 10000 5.66 350 19:40 18.09.2022
170 Clear 25 1001 74 10000 5.66 360 17:52 18.09.2022
171 Rain 25 1001 74 10000 5.14 30 16:49 18.09.2022
172 Rain 27 1002 69 10000 4.63 20 14:51 18.09.2022
173 Rain 27 1002 65 10000 3.6 10 13:35 18.09.2022
174 Clear 28 1002 65 10000 3.09 10 12:20 18.09.2022
175 Clear 31 1002 58 10000 4.63 350 09:25 18.09.2022
176 Clear 23 1007 91 10000 1.54 330 01:43 18.09.2022
177 Clear 23 1007 94 10000 1.54 330 01:20 18.09.2022
178 Clouds 22 1006 94 7000 1.54 20 22:57 17.09.2022
179 Clear 22 1007 97 10000 3.09 340 20:55 17.09.2022
180 Clear 22 1007 94 10000 2.06 330 19:37 17.09.2022
181 Clear 22 1007 94 10000 2.06 330 18:21 17.09.2022
182 Clear 25 1008 83 10000 1.54 310 14:24 17.09.2022
183 Clear 25 1008 83 10000 2.06 320 13:26 17.09.2022
184 Clouds 29 1007 64 10000 3.6 290 10:49 17.09.2022
185 Clouds 28 1009 76 10000 1.54 260 06:53 17.09.2022
186 Clouds 27 1009 80 10000 1.54 310 05:49 17.09.2022
187 Mist 23 1009 94 6000 0.51 230 23:39 16.09.2022
188 Clouds 23 1008 94 7000 1.54 160 21:57 16.09.2022
189 Mist 23 1008 97 7000 1.54 90 20:44 16.09.2022
190 Rain 23 1008 97 8000 1.54 190 18:43 16.09.2022
191 Clouds 24 1008 88 10000 2.57 200 16:22 16.09.2022
192 Mist 24 1008 94 10000 3.6 150 14:51 16.09.2022
193 Rain 25 1007 91 10000 2.06 250 12:52 16.09.2022
194 Rain 28 1006 76 5000 5.14 190 09:55 16.09.2022
195 Clouds 29 1006 65 10000 4.63 170 07:23 16.09.2022
196 Clouds 30 1006 62 10000 7.2 160 06:48 16.09.2022
197 Clouds 30 1007 59 10000 6.69 160 05:55 16.09.2022
198 Clouds 24 1008 69 10000 4.63 120 01:31 16.09.2022
199 Clear 24 1007 65 10000 5.14 130 21:33 15.09.2022
200 Clear 24 1007 65 10000 5.66 110 20:33 15.09.2022
201 Clear 25 1008 67 10000 4.63 120 18:57 15.09.2022
202 Rain 25 1008 67 10000 4.12 110 17:38 15.09.2022
203 Clear 25 1008 69 10000 4.12 110 17:20 15.09.2022
204 Clear 26 1008 63 10000 5.66 120 15:37 15.09.2022
205 Rain 26 1009 67 10000 2.57 80 12:49 15.09.2022
206 Rain 27 1009 65 10000 1.03 50 11:47 15.09.2022
207 Rain 28 1009 58 10000 4.12 100 09:43 15.09.2022
208 Rain 27 1012 54 10000 5.14 120 05:37 15.09.2022
209 Clear 25 1013 61 10000 4.63 100 02:58 15.09.2022
210 Clear 22 1013 70 10000 5.14 100 22:51 14.09.2022
211 Clear 23 1014 64 10000 4.63 100 20:24 14.09.2022
212 Clear 23 1014 62 10000 4.63 100 19:32 14.09.2022
213 Clear 24 1015 55 10000 5.14 110 17:28 14.09.2022
214 Clear 23 1015 57 10000 5.66 100 16:36 14.09.2022
215 Clear 23 1016 55 10000 4.12 80 14:46 14.09.2022
216 Rain 24 1015 50 10000 4.63 80 12:24 14.09.2022
217 Clear 27 1014 47 10000 7.2 80 09:49 14.09.2022
218 Rain 28 1015 52 10000 6.17 80 07:47 14.09.2022
219 Clear 28 1016 54 10000 5.66 70 06:48 14.09.2022
220 Clear 26 1017 61 10000 4.63 70 05:22 14.09.2022
221 Clear 23 1017 61 10000 2.06 340 01:53 14.09.2022
222 Clear 23 1017 61 10000 2.06 340 01:29 14.09.2022
223 Clear 22 1017 68 10000 2.06 20 00:52 14.09.2022
224 Clear 22 1017 76 10000 1.54 30 23:54 13.09.2022
225 Clear 21 1017 76 10000 1.54 30 23:36 13.09.2022
226 Clear 21 1017 88 10000 1.54 30 23:18 13.09.2022
227 Clear 21 1017 88 10000 2.06 330 22:21 13.09.2022
228 Rain 22 1017 88 10000 1.03 330 20:21 13.09.2022
229 Clear 23 1016 78 10000 0.51 10 18:20 13.09.2022
230 Rain 24 1017 76 10000 2.57 30 15:55 13.09.2022
231 Clear 24 1017 78 10000 2.06 360 14:36 13.09.2022
232 Rain 25 1017 73 10000 2.06 40 13:20 13.09.2022
233 Rain 27 1016 61 10000 2.57 80 09:23 13.09.2022
234 Rain 26 1016 65 10000 2.06 60 06:59 13.09.2022
235 Clear 20 1015 100 10000 2.57 330 00:23 13.09.2022
236 Rain 20 1015 97 8000 1.03 330 22:51 12.09.2022
237 Rain 20 1015 100 8000 0.51 330 22:18 12.09.2022
238 Clouds 20 1014 97 8000 1.54 320 20:39 12.09.2022
239 Clear 21 1015 91 10000 1.54 350 18:51 12.09.2022
240 Clear 21 1015 91 10000 2.57 340 17:25 12.09.2022
241 Clear 22 1015 86 10000 2.06 330 14:39 12.09.2022
242 Clear 26 1014 67 10000 2.57 330 11:31 12.09.2022
243 Clear 27 1013 63 10000 3.09 340 09:56 12.09.2022
244 Clouds 26 1015 69 10000 1.54 140 04:54 12.09.2022
245 Clouds 26 1015 69 10000 1.54 140 04:25 12.09.2022
246 Clouds 19 1014 97 7000 1.03 340 23:39 11.09.2022
247 Clouds 19 1014 97 7000 1.03 320 22:28 11.09.2022
248 Clouds 19 1014 100 8000 0.51 290 20:50 11.09.2022
249 Clear 19 1014 97 10000 1.03 320 19:57 11.09.2022
250 Clear 19 1014 97 10000 1.03 320 19:25 11.09.2022
251 Clouds 20 1014 94 10000 1.54 320 18:36 11.09.2022
252 Clouds 20 1015 94 10000 1.54 320 16:47 11.09.2022
253 Clouds 21 1014 94 10000 0.51 310 14:53 11.09.2022
254 Clouds 21 1014 94 10000 2.06 330 12:50 11.09.2022
255 Clear 24 1014 67 10000 2.06 40 09:25 11.09.2022
256 Clear 24 1014 67 10000 2.06 40 09:25 11.09.2022
257 Rain 26 1014 53 10000 2.57 90 07:19 11.09.2022
258 Clear 22 1016 73 10000 1.54 60 01:18 11.09.2022
259 Clear 20 1016 83 10000 1.03 340 23:20 10.09.2022
260 Clear 20 1016 78 10000 2.06 90 21:33 10.09.2022
261 Clear 21 1016 73 10000 2.57 70 19:48 10.09.2022
262 Clear 21 1016 73 10000 2.57 70 19:29 10.09.2022
263 Clear 22 1017 68 10000 3.09 90 18:55 10.09.2022
264 Clear 24 1017 57 10000 4.12 90 16:51 10.09.2022
265 Clear 23 1017 62 10000 3.09 70 14:43 10.09.2022
266 Clear 24 1016 56 10000 1.54 80 12:53 10.09.2022
267 Clear 26 1016 47 10000 2.06 90 11:19 10.09.2022
268 Clear 28 1016 37 10000 4.63 100 09:50 10.09.2022
269 Clear 27 1016 38 10000 4.63 80 08:37 10.09.2022
270 Clear 28 1017 36 10000 3.6 110 07:22 10.09.2022
271 Clear 18 1019 67 10000 1.54 50 00:41 10.09.2022
272 Clear 18 1018 64 10000 2.06 90 23:33 09.09.2022
273 Clear 19 1018 56 10000 1.54 80 22:19 09.09.2022
274 Clear 19 1018 60 10000 2.06 90 20:47 09.09.2022
275 Clear 19 1018 63 10000 1.54 200 19:25 09.09.2022
276 Clear 20 1018 57 10000 3.6 90 18:47 09.09.2022
277 Clear 21 1018 68 10000 2.06 60 16:28 09.09.2022
278 Clear 22 1016 73 10000 1.54 360 13:49 09.09.2022
279 Clear 25 1016 47 10000 1.54 70 12:32 09.09.2022
280 Clear 30 1016 37 10000 3.6 330 09:55 09.09.2022
281 Clear 28 1018 51 10000 1.54 60 05:19 09.09.2022
282 Clear 24 1018 69 10000 1.54 360 03:20 09.09.2022
283 Clouds 18 1017 97 7000 1.54 330 21:53 08.09.2022
284 Clear 19 1017 91 10000 1.03 350 20:51 08.09.2022
285 Clear 19 1017 91 10000 1.03 350 20:31 08.09.2022
286 Clear 19 1017 94 10000 1.54 340 19:56 08.09.2022
287 Clear 19 1017 94 10000 1.03 320 18:22 08.09.2022
288 Clear 20 1018 94 10000 1.54 310 16:19 08.09.2022
289 Clear 21 1018 78 10000 2.06 320 14:40 08.09.2022
290 Clear 22 1017 83 10000 1.03 340 13:26 08.09.2022
291 Clear 26 1017 58 10000 3.6 290 11:57 08.09.2022
292 Clear 28 1016 50 10000 4.63 280 10:52 08.09.2022
293 Clear 29 1017 42 10000 1.54 350 08:21 08.09.2022
294 Clouds 27 1018 44 10000 2.06 150 06:41 08.09.2022
295 Clear 21 1020 71 10000 1.54 350 02:36 08.09.2022
296 Clear 21 1020 73 10000 1.54 350 02:18 08.09.2022
297 Clear 16 1019 91 10000 1.54 350 00:27 08.09.2022
298 Clear 15 1019 97 10000 1.54 10 22:42 07.09.2022
299 Clear 15 1019 94 10000 1.54 340 21:42 07.09.2022
300 Clear 15 1019 94 10000 1.54 340 21:42 07.09.2022
301 Clear 16 1019 94 10000 1.03 10 20:42 07.09.2022
302 Clear 16 1019 94 10000 0.51 290 19:36 07.09.2022
303 Clear 17 1018 88 10000 1.54 360 17:27 07.09.2022
304 Clouds 22 1018 50 10000 3.6 290 12:49 07.09.2022
305 Clear 27 1017 37 10000 4.12 290 10:46 07.09.2022
306 Clear 28 1017 31 10000 4.63 290 08:36 07.09.2022
307 Clouds 28 1017 33 10000 3.09 300 06:51 07.09.2022
308 Mist 19 1017 97 8000 2.06 220 01:50 07.09.2022
309 Fog 16 1015 97 1400 1.54 200 22:35 06.09.2022
310 Mist 17 1014 94 2800 1.54 10 21:38 06.09.2022
311 Clouds 19 1013 94 10000 2.06 270 19:57 06.09.2022
312 Clouds 19 1013 88 10000 3.09 280 18:42 06.09.2022
313 Clear 19 1013 88 10000 2.57 260 17:56 06.09.2022
314 Clear 19 1013 83 10000 3.6 250 16:53 06.09.2022
315 Clear 21 1013 78 10000 3.6 250 16:26 06.09.2022
316 Clear 19 1012 77 10000 1.54 280 14:54 06.09.2022
317 Clear 20 1011 75 10000 2.57 250 13:44 06.09.2022
318 Clear 20 1011 75 10000 2.57 250 13:44 06.09.2022
319 Clear 20 1011 75 10000 2.57 250 13:44 06.09.2022
320 Clear 20 1011 73 10000 2.57 250 13:20 06.09.2022
321 Clear 24 1009 69 10000 5.14 270 11:29 06.09.2022
322 Clear 26 1008 52 10000 5.66 270 10:33 06.09.2022
323 Clear 27 1006 48 10000 6.17 270 08:29 06.09.2022
324 Clouds 25 1004 59 10000 6.17 310 06:58 06.09.2022
325 Rain 18 1000 94 10000 5.66 330 01:23 06.09.2022
326 Rain 17 999 100 10000 5.66 310 23:19 05.09.2022
327 Rain 17 1000 100 6000 4.12 360 21:39 05.09.2022
328 Rain 17 1000 97 7000 4.12 10 20:32 05.09.2022
329 Rain 18 1002 94 7000 8.23 50 18:53 05.09.2022
330 Rain 18 1002 94 7000 8.23 50 18:26 05.09.2022
331 Rain 18 1004 94 7000 8.23 50 17:57 05.09.2022
332 Rain 18 1006 94 8000 6.17 40 15:54 05.09.2022
333 Rain 18 1007 94 9000 7.72 40 14:48 05.09.2022
334 Rain 18 1007 94 5000 4.63 30 12:56 05.09.2022
335 Rain 18 1007 94 5000 4.12 350 11:37 05.09.2022
336 Rain 19 1007 94 4000 5.14 10 08:58 05.09.2022
337 Rain 20 1007 96 2746 3.51 5 05:20 05.09.2022
338 Rain 20 1008 94 10000 3.6 350 01:19 05.09.2022
339 Rain 21 1008 97 10000 3.09 10 22:29 04.09.2022
340 Rain 21 1008 94 10000 2.57 20 21:57 04.09.2022
341 Rain 21 1009 97 10000 1.54 10 20:26 04.09.2022
342 Clouds 22 1009 94 6000 2.06 290 18:35 04.09.2022
343 Clouds 22 1009 100 7000 4.12 300 17:31 04.09.2022
344 Rain 23 1008 94 3500 2.06 180 15:43 04.09.2022
345 Rain 23 1008 94 5000 3.6 240 14:25 04.09.2022
346 Rain 24 1007 94 5000 4.12 210 12:34 04.09.2022
347 Rain 24 1006 88 10000 4.63 140 10:59 04.09.2022
348 Rain 24 1006 83 10000 4.12 140 09:25 04.09.2022
349 Rain 22 1008 91 10000 5.66 140 06:31 04.09.2022
350 Rain 22 1010 78 10000 6.17 120 02:41 04.09.2022
351 Rain 22 1012 66 10000 3.09 90 22:34 03.09.2022
352 Rain 22 1012 66 10000 3.6 90 21:26 03.09.2022
353 Clouds 22 1012 66 10000 4.12 100 20:55 03.09.2022
354 Clouds 23 1014 64 10000 2.06 90 17:37 03.09.2022
355 Clouds 23 1014 64 10000 3.6 90 16:52 03.09.2022
356 Clouds 24 1014 61 10000 6.17 120 14:52 03.09.2022
357 Clouds 24 1014 61 10000 6.17 120 14:30 03.09.2022
358 Clouds 25 1013 61 10000 6.69 110 13:44 03.09.2022
359 Clouds 27 1013 58 10000 4.12 100 11:31 03.09.2022
360 Clouds 28 1013 54 10000 5.14 110 09:22 03.09.2022
361 Clouds 28 1013 51 10000 5.66 90 07:45 03.09.2022
362 Clouds 25 1015 57 10000 4.63 80 04:48 03.09.2022
363 Clouds 23 1015 60 10000 2.57 30 02:35 03.09.2022
364 Clear 18 1015 85 10000 1.54 340 23:35 02.09.2022
365 Clear 19 1015 75 10000 2.06 10 21:46 02.09.2022
366 Clear 20 1015 69 10000 2.06 30 20:40 02.09.2022
367 Clear 21 1015 68 10000 2.06 70 19:47 02.09.2022
368 Clear 21 1016 68 10000 1.54 100 18:50 02.09.2022
369 Clear 21 1016 68 10000 1.54 100 18:24 02.09.2022
370 Clear 23 1017 60 10000 5.14 90 16:56 02.09.2022
371 Clear 23 1017 57 10000 5.14 90 16:22 02.09.2022
372 Clouds 27 1015 52 10000 3.6 80 12:58 02.09.2022
373 Clouds 29 1014 47 10000 4.12 70 10:37 02.09.2022
374 Clouds 30 1014 44 10000 4.12 80 09:41 02.09.2022
375 Clouds 29 1015 43 10000 4.63 80 08:42 02.09.2022
376 Clear 28 1015 46 10000 5.14 100 06:43 02.09.2022
377 Clear 27 1017 47 10000 5.66 110 04:58 02.09.2022
378 Clear 18 1016 94 10000 1.54 340 22:54 01.09.2022
379 Clear 19 1015 94 10000 1.03 320 21:45 01.09.2022
380 Clear 19 1015 94 10000 1.03 320 21:26 01.09.2022
381 Clear 19 1015 91 10000 1.03 360 20:48 01.09.2022
382 Clear 19 1015 91 10000 1.03 320 19:23 01.09.2022
383 Clear 20 1015 86 10000 1.54 330 17:48 01.09.2022
384 Clear 20 1015 86 10000 1.54 190 16:29 01.09.2022
385 Clear 22 1014 73 10000 2.57 300 14:33 01.09.2022
386 Clear 25 1013 63 10000 3.6 330 12:59 01.09.2022
387 Clear 28 1013 53 10000 3.6 320 11:54 01.09.2022
388 Clear 28 1013 53 10000 3.6 320 11:33 01.09.2022
389 Clear 29 1013 50 10000 4.63 330 10:40 01.09.2022
390 Clear 29 1013 50 10000 3.6 320 08:31 01.09.2022
391 Clear 28 1014 57 10000 3.09 340 06:23 01.09.2022
392 Clear 20 1014 88 10000 1.03 40 01:34 01.09.2022
393 Clear 19 1013 100 10000 1.03 320 00:18 01.09.2022
394 Clear 18 1012 97 10000 1.54 340 21:44 31.08.2022
395 Clear 18 1011 100 10000 0.51 360 19:50 31.08.2022
396 Clear 19 1011 94 10000 1.54 60 18:18 31.08.2022
397 Clear 19 1011 97 10000 1.54 330 16:23 31.08.2022
398 Clear 20 1010 91 10000 1.03 50 14:32 31.08.2022
399 Clouds 22 1009 80 10000 2.06 70 12:23 31.08.2022
400 Clouds 24 1008 71 10000 1.54 80 11:26 31.08.2022
401 Clouds 23 1008 78 10000 2.06 330 08:54 31.08.2022
402 Clouds 23 1009 75 10000 1.54 30 05:26 31.08.2022
403 Rain 19 1008 94 10000 2.06 340 23:20 30.08.2022
404 Clouds 19 1008 97 10000 3.6 330 21:41 30.08.2022
405 Clouds 19 1008 97 10000 2.06 300 20:57 30.08.2022
406 Clouds 19 1008 100 10000 2.06 10 18:32 30.08.2022
407 Clouds 20 1009 94 10000 2.06 360 15:23 30.08.2022
408 Rain 20 1009 94 8000 1.03 50 13:24 30.08.2022
409 Rain 20 1010 97 10000 1.67 37 11:21 30.08.2022
410 Rain 20 1009 94 10000 1.54 50 10:40 30.08.2022
411 Rain 19 1012 100 6000 3.09 30 06:51 30.08.2022
412 Rain 18 1013 97 8000 3.6 100 02:32 30.08.2022
413 Rain 18 1013 97 8000 3.09 120 22:58 29.08.2022
414 Rain 18 1013 97 8000 3.09 90 22:24 29.08.2022
415 Rain 18 1014 94 6000 3.09 110 21:25 29.08.2022
416 Rain 18 1014 91 10000 3.6 210 19:51 29.08.2022
417 Clear 20 1015 72 10000 4.63 120 17:50 29.08.2022
418 Clear 21 1015 68 10000 4.63 120 17:24 29.08.2022
419 Rain 21 1015 68 10000 4.63 110 16:22 29.08.2022
420 Clear 20 1016 70 10000 4.63 110 14:44 29.08.2022
421 Clear 21 1015 64 10000 4.12 140 12:52 29.08.2022
422 Clouds 21 1015 64 10000 5.14 140 10:56 29.08.2022
423 Clouds 21 1015 70 10000 4.12 150 09:45 29.08.2022
424 Clouds 22 1015 73 10000 5.14 120 08:28 29.08.2022
425 Rain 19 1016 88 10000 2.57 70 02:49 29.08.2022
426 Rain 20 1015 80 10000 1.54 160 23:55 28.08.2022
427 Rain 20 1015 78 10000 2.06 160 22:36 28.08.2022
428 Rain 21 1015 72 10000 2.57 140 21:40 28.08.2022
429 Rain 21 1015 71 10000 2.57 160 20:43 28.08.2022
430 Rain 21 1014 71 10000 2.06 210 18:51 28.08.2022
431 Clear 21 1014 78 10000 0.51 60 18:20 28.08.2022
432 Rain 21 1015 73 10000 1.54 200 16:57 28.08.2022
433 Clear 21 1015 70 10000 1.54 300 15:50 28.08.2022
434 Clear 22 1014 68 10000 2.57 320 13:47 28.08.2022
435 Clear 23 1014 62 10000 3.09 310 12:31 28.08.2022
436 Clear 28 1013 38 10000 2.06 110 10:27 28.08.2022
437 Clear 27 1014 36 10000 2.57 60 09:40 28.08.2022
438 Clear 27 1014 36 10000 3.09 100 08:32 28.08.2022
439 Clear 27 1014 40 10000 3.09 80 07:34 28.08.2022
440 Clear 19 1016 74 10000 1.54 360 01:28 28.08.2022
441 Clear 17 1016 88 10000 1.03 330 00:20 28.08.2022
442 Clear 15 1015 88 10000 1.54 320 22:27 27.08.2022
443 Clear 16 1014 88 10000 2.06 330 20:53 27.08.2022
444 Clear 16 1014 83 10000 1.54 330 19:38 27.08.2022
445 Clear 19 1013 69 10000 1.03 340 16:37 27.08.2022
446 Clear 19 1013 68 10000 2.57 360 15:31 27.08.2022
447 Clear 20 1012 64 10000 3.09 330 14:18 27.08.2022
448 Clear 22 1011 56 10000 4.12 330 12:22 27.08.2022
449 Clear 25 1010 44 10000 4.63 320 10:30 27.08.2022
450 Clear 25 1010 39 10000 4.12 320 09:39 27.08.2022
451 Clear 24 1010 41 10000 5.66 310 06:54 27.08.2022
452 Clear 21 1011 56 10000 4.63 320 02:24 27.08.2022
453 Clear 18 1010 80 10000 3.09 320 23:49 26.08.2022
454 Clear 20 1009 82 10000 3.09 330 21:53 26.08.2022
455 Mist 21 1008 86 10000 5.66 320 20:22 26.08.2022
456 Rain 22 1007 83 10000 1.54 280 18:19 26.08.2022
457 Clear 23 1008 81 10000 3.09 270 16:36 26.08.2022
458 Clear 23 1008 81 10000 2.57 280 15:24 26.08.2022
459 Clouds 24 1007 78 10000 4.12 280 13:18 26.08.2022
460 Clouds 26 1006 63 10000 4.63 270 11:48 26.08.2022
461 Rain 26 1006 65 10000 4.63 270 11:22 26.08.2022
462 Clouds 28 1005 60 10000 5.14 260 09:45 26.08.2022
463 Clouds 25 1008 69 10000 1.54 310 03:59 26.08.2022
464 Clouds 19 1008 94 10000 1.03 240 00:39 26.08.2022
465 Clouds 19 1008 94 10000 1.54 70 22:39 25.08.2022
466 Clouds 19 1007 94 10000 1.54 40 20:54 25.08.2022
467 Clouds 20 1008 88 10000 1.03 210 19:35 25.08.2022
468 Clouds 20 1008 88 10000 0.51 190 18:29 25.08.2022
469 Rain 20 1009 88 10000 1.54 230 17:31 25.08.2022
470 Clear 20 1009 88 10000 1.03 270 16:40 25.08.2022
471 Rain 20 1009 88 10000 0.51 210 15:29 25.08.2022
472 Clouds 21 1008 83 10000 2.06 290 13:51 25.08.2022
473 Rain 22 1007 78 10000 2.06 280 10:49 25.08.2022
474 Rain 22 1007 76 10000 4.12 290 09:52 25.08.2022
475 Rain 23 1008 69 10000 0.51 250 07:35 25.08.2022
476 Rain 23 1008 78 10000 2.06 180 02:41 25.08.2022
477 Rain 20 1007 88 10000 0.51 220 23:30 24.08.2022
478 Clear 20 1007 85 10000 1.03 220 22:55 24.08.2022
479 Clear 21 1007 83 10000 2.06 190 21:53 24.08.2022
480 Clear 21 1007 83 10000 2.06 190 21:28 24.08.2022
481 Clear 21 1007 83 10000 2.06 160 19:52 24.08.2022
482 Clouds 22 1008 80 10000 2.06 180 16:51 24.08.2022
483 Clouds 23 1008 78 10000 2.06 200 15:53 24.08.2022
484 Clear 24 1008 71 10000 2.06 200 14:58 24.08.2022
485 Clouds 25 1007 67 10000 2.57 170 12:48 24.08.2022
486 Clouds 27 1007 61 10000 2.57 190 11:18 24.08.2022
487 Clouds 26 1008 61 10000 3.09 160 08:38 24.08.2022
488 Clouds 26 1009 59 10000 5.66 120 03:54 24.08.2022
489 Clouds 22 1008 83 10000 1.03 360 23:53 23.08.2022
490 Clouds 21 1007 85 10000 1.03 40 22:35 23.08.2022
491 Clear 21 1008 91 10000 1.54 350 21:46 23.08.2022
492 Clear 20 1007 88 10000 1.54 200 20:40 23.08.2022
493 Clear 21 1007 83 10000 1.03 310 18:55 23.08.2022
494 Clear 21 1008 88 10000 2.57 330 17:53 23.08.2022
495 Clear 20 1008 88 10000 2.57 330 17:18 23.08.2022
496 Clear 20 1008 88 10000 2.57 330 17:18 23.08.2022
497 Clear 22 1008 76 10000 3.09 330 15:52 23.08.2022
498 Clear 25 1007 63 10000 4.12 330 13:50 23.08.2022
499 Clear 26 1006 61 10000 4.12 320 12:45 23.08.2022
500 Clear 29 1005 56 10000 5.14 340 10:53 23.08.2022
501 Clear 29 1005 56 10000 5.14 340 10:32 23.08.2022
502 Clear 29 1005 56 10000 5.14 340 10:32 23.08.2022
503 Clouds 30 1005 54 10000 3.09 300 08:55 23.08.2022
504 Clouds 30 1005 54 10000 3.09 300 08:22 23.08.2022
505 Clouds 29 1005 58 10000 4.12 330 07:48 23.08.2022
506 Clouds 28 1005 65 10000 3.6 340 06:58 23.08.2022
507 Clouds 28 1006 69 10000 3.09 300 05:52 23.08.2022
508 Mist 23 1006 94 7000 3.09 210 01:42 23.08.2022
509 Clouds 22 1005 100 7000 1.54 150 00:26 23.08.2022
510 Clouds 22 1006 97 2500 1.54 360 23:29 22.08.2022
511 Rain 22 1005 94 10000 4.12 340 21:51 22.08.2022
512 Clouds 22 1005 94 10000 1.54 360 19:51 22.08.2022
513 Rain 22 1005 94 10000 1.54 360 19:30 22.08.2022
514 Clouds 25 1005 90 10000 1.58 248 17:59 22.08.2022
515 Rain 24 1006 86 7000 3.09 350 15:40 22.08.2022
516 Clouds 25 1005 71 5000 3.6 220 14:46 22.08.2022
517 Clouds 27 1003 74 10000 4.12 230 11:20 22.08.2022
518 Rain 29 1003 60 10000 4.63 240 08:54 22.08.2022
519 Clouds 29 1004 68 10000 3.6 190 04:42 22.08.2022
520 Mist 25 1004 91 6000 2.06 190 00:53 22.08.2022
521 Mist 25 1004 91 6000 2.06 190 00:34 22.08.2022
522 Clouds 24 1004 88 8000 2.06 170 22:54 21.08.2022
523 Clouds 24 1004 94 8000 1.54 200 21:36 21.08.2022
524 Clouds 24 1004 91 8000 1.54 220 20:57 21.08.2022
525 Clouds 24 1004 91 8000 2.06 180 19:28 21.08.2022
526 Clear 24 1005 94 10000 0.51 360 18:21 21.08.2022
527 Clear 25 1005 94 10000 0.51 80 16:21 21.08.2022
528 Clear 26 1005 82 10000 0.51 200 15:43 21.08.2022
529 Clear 28 1005 72 10000 2.57 300 13:58 21.08.2022
530 Clear 28 1005 72 10000 2.57 300 13:40 21.08.2022
531 Clear 30 1004 62 10000 3.09 290 11:56 21.08.2022
532 Clouds 32 1004 57 10000 4.63 290 09:32 21.08.2022
533 Clouds 32 1004 58 10000 3.6 290 08:56 21.08.2022
534 Clouds 32 1004 58 10000 3.6 290 08:38 21.08.2022
535 Clouds 32 1005 59 10000 3.09 310 07:28 21.08.2022
536 Clouds 30 1006 66 10000 2.06 160 04:18 21.08.2022
537 Clouds 25 1005 91 10000 2.06 230 00:31 21.08.2022
538 Clouds 24 1004 94 8000 1.54 210 22:59 20.08.2022
539 Clouds 24 1003 94 10000 1.54 210 21:39 20.08.2022
540 Clouds 24 1003 97 10000 0.51 210 20:43 20.08.2022
541 Clouds 25 1003 94 10000 1.03 330 19:41 20.08.2022
542 Clouds 25 1003 94 10000 1.54 310 18:31 20.08.2022
543 Clear 25 1003 92 10000 1.03 330 17:51 20.08.2022
544 Clear 25 1003 92 10000 1.03 220 16:52 20.08.2022
545 Clear 26 1003 89 10000 1.03 190 15:37 20.08.2022
546 Clouds 27 1003 79 10000 2.06 270 13:27 20.08.2022
547 Clouds 30 1001 68 10000 4.12 290 11:52 20.08.2022
548 Clouds 32 1001 66 10000 4.63 300 09:43 20.08.2022
549 Clouds 31 1001 64 10000 3.09 290 08:34 20.08.2022
550 Clouds 31 1002 66 10000 2.06 300 05:55 20.08.2022
551 Mist 26 1001 91 7000 3.09 310 00:59 20.08.2022
552 Mist 26 1001 91 7000 3.09 310 00:35 20.08.2022
553 Mist 25 1001 100 4500 3.09 300 23:18 19.08.2022
554 Mist 26 1000 94 4000 2.57 270 21:41 19.08.2022
555 Mist 26 1000 94 4000 2.06 270 20:20 19.08.2022
556 Clouds 27 1000 94 7000 3.6 280 17:19 19.08.2022
557 Clouds 28 1001 89 7000 4.12 250 15:18 19.08.2022
558 Mist 27 1001 94 8000 3.09 220 13:18 19.08.2022
559 Rain 26 1000 94 7000 3.6 260 10:52 19.08.2022
560 Rain 26 1000 94 7000 3.6 260 10:19 19.08.2022
561 Rain 27 1003 74 10000 3.6 180 05:58 19.08.2022
562 Clouds 24 1005 83 10000 1.54 190 00:48 19.08.2022
563 Clouds 23 1005 87 10000 1.58 152 00:23 19.08.2022
564 Clouds 23 1005 88 10000 3.09 150 23:28 18.08.2022
565 Clouds 23 1005 85 10000 3.09 160 22:37 18.08.2022
566 Clouds 23 1005 88 10000 2.57 160 21:53 18.08.2022
567 Clouds 23 1005 88 10000 2.57 160 21:23 18.08.2022
568 Clear 22 1006 88 10000 1.54 180 19:54 18.08.2022
569 Clear 22 1006 88 10000 1.54 180 19:24 18.08.2022
570 Clear 23 1007 86 10000 1.54 290 17:46 18.08.2022
571 Clear 24 1007 83 10000 1.54 300 16:55 18.08.2022
572 Clear 25 1007 78 10000 2.57 300 14:22 18.08.2022
573 Clear 25 1007 76 10000 2.06 280 13:58 18.08.2022
574 Clear 26 1007 71 10000 2.57 300 12:31 18.08.2022
575 Clouds 27 1007 74 10000 3.6 290 11:21 18.08.2022
576 Clouds 29 1007 58 10000 3.09 250 09:43 18.08.2022
577 Clouds 30 1007 58 10000 3.09 230 07:57 18.08.2022
578 Clouds 30 1007 56 10000 2.57 240 06:43 18.08.2022
579 Clouds 25 1008 75 10000 2.57 140 02:32 18.08.2022
580 Clouds 22 1007 97 10000 1.03 360 22:50 17.08.2022
581 Clouds 22 1007 94 10000 1.54 340 20:37 17.08.2022
582 Clouds 23 1007 91 10000 1.54 230 19:59 17.08.2022
583 Clouds 23 1007 91 10000 0.51 320 18:39 17.08.2022
584 Clouds 23 1007 94 10000 1.54 340 17:21 17.08.2022
585 Clouds 23 1007 88 10000 0.51 360 16:20 17.08.2022
586 Clouds 24 1006 83 10000 1.54 280 14:46 17.08.2022
587 Clouds 27 1006 70 10000 3.09 260 12:36 17.08.2022
588 Clouds 28 1005 62 10000 5.14 270 11:25 17.08.2022
589 Rain 30 1004 62 10000 5.14 290 09:22 17.08.2022
590 Clouds 28 1006 72 10000 2.57 170 06:50 17.08.2022
591 Clouds 25 1007 83 8000 1.03 360 01:23 17.08.2022
592 Clouds 21 1006 97 6000 1.03 340 23:32 16.08.2022
593 Clouds 21 1006 94 6000 1.03 340 21:33 16.08.2022
594 Clouds 22 1006 94 7000 1.03 310 20:22 16.08.2022
595 Clear 22 1006 94 10000 1.03 200 19:27 16.08.2022
596 Clear 23 1006 89 10000 1.54 190 17:56 16.08.2022
597 Clear 23 1006 91 10000 1.54 310 16:55 16.08.2022
598 Clear 23 1005 89 10000 1.54 310 15:45 16.08.2022
599 Clear 24 1005 83 10000 2.06 290 14:54 16.08.2022
600 Clear 24 1005 83 10000 2.06 290 14:36 16.08.2022
601 Clear 26 1004 74 10000 3.09 280 12:33 16.08.2022
602 Clear 29 1004 62 10000 3.09 280 10:23 16.08.2022
603 Clouds 30 1003 62 10000 4.12 280 08:54 16.08.2022
604 Clouds 30 1003 66 10000 4.12 280 08:21 16.08.2022
605 Clouds 29 1003 62 10000 3.6 280 06:31 16.08.2022
606 Clouds 24 1001 86 10000 4.12 280 23:56 15.08.2022
607 Clouds 25 1001 83 10000 4.63 260 22:23 15.08.2022
608 Clouds 25 1001 88 10000 2.06 240 21:50 15.08.2022
609 Clouds 25 1000 86 10000 3.6 270 20:32 15.08.2022
610 Clouds 26 1000 89 8000 3.09 270 19:22 15.08.2022
611 Mist 26 1000 89 10000 3.09 270 17:59 15.08.2022
612 Mist 27 999 89 8000 4.12 270 16:25 15.08.2022
613 Clouds 27 999 94 8000 4.12 250 15:27 15.08.2022
614 Mist 28 998 89 10000 6.69 230 13:45 15.08.2022
615 Clouds 29 998 82 10000 7.2 210 10:38 15.08.2022
616 Rain 29 998 79 10000 8.75 200 09:40 15.08.2022
617 Rain 30 1000 72 10000 8.23 200 06:51 15.08.2022
618 Clouds 30 1001 74 10000 8.75 200 04:32 15.08.2022
619 Clouds 27 1002 83 10000 7.72 210 23:49 14.08.2022
620 Clouds 27 1002 86 10000 7.72 210 22:28 14.08.2022
621 Clouds 27 1003 86 10000 7.2 200 21:25 14.08.2022
622 Clouds 27 1004 89 10000 3.6 190 19:46 14.08.2022
623 Clouds 27 1004 89 10000 3.6 180 18:42 14.08.2022
624 Clouds 27 1004 89 10000 3.6 190 17:44 14.08.2022
625 Clouds 27 1004 89 10000 4.63 190 16:32 14.08.2022
626 Clouds 27 1005 92 10000 3.6 180 15:48 14.08.2022
627 Clouds 27 1005 91 10000 5.14 190 14:19 14.08.2022
628 Clouds 27 1005 91 10000 3.6 190 13:49 14.08.2022
629 Rain 27 1005 89 10000 4.12 200 12:55 14.08.2022
630 Rain 28 1004 86 10000 4.63 200 11:31 14.08.2022
631 Clouds 30 1005 75 3000 3.09 280 10:26 14.08.2022
632 Rain 31 1005 66 10000 2.57 270 08:20 14.08.2022
633 Clouds 31 1005 70 10000 1.54 260 06:20 14.08.2022
634 Mist 26 1006 91 7000 2.06 10 02:35 14.08.2022
635 Mist 23 1005 100 4200 1.03 290 23:23 13.08.2022
636 Mist 24 1005 97 5000 1.54 30 22:28 13.08.2022
637 Mist 25 1006 94 6000 0.51 240 20:57 13.08.2022
638 Clouds 24 1005 97 10000 1.03 340 19:50 13.08.2022
639 Clouds 24 1005 97 10000 1.03 340 19:19 13.08.2022
640 Clouds 25 1006 94 10000 2.06 20 17:22 13.08.2022
641 Clouds 25 1006 94 10000 0.51 140 15:18 13.08.2022
642 Clouds 26 1006 89 10000 1.54 220 14:24 13.08.2022
643 Clouds 26 1005 89 10000 1.54 180 13:36 13.08.2022
644 Clouds 27 1004 83 10000 3.6 190 11:49 13.08.2022
645 Rain 26 1004 86 10000 4.63 140 09:27 13.08.2022
646 Rain 24 1005 91 8000 4.63 140 07:48 13.08.2022
647 Rain 26 1006 75 10000 2.57 200 01:56 13.08.2022
648 Clouds 24 1006 85 10000 2.06 170 23:36 12.08.2022
649 Clouds 24 1006 89 10000 2.06 240 21:40 12.08.2022
650 Clear 24 1006 88 10000 2.06 210 19:50 12.08.2022
651 Clear 24 1006 88 10000 0.51 160 19:24 12.08.2022
652 Clear 24 1006 86 10000 1.54 210 18:29 12.08.2022
653 Clear 24 1006 86 10000 1.54 190 16:27 12.08.2022
654 Clear 25 1007 83 10000 1.03 350 15:21 12.08.2022
655 Clear 27 1006 76 10000 3.09 270 13:47 12.08.2022
656 Clear 29 1005 66 10000 3.09 280 12:38 12.08.2022
657 Clear 32 1005 52 10000 2.06 330 08:57 12.08.2022
658 Clouds 32 1006 53 10000 1.03 280 07:46 12.08.2022
659 Clouds 31 1007 62 10000 1.54 10 06:23 12.08.2022
660 Clouds 23 1006 94 8000 0.51 20 00:32 12.08.2022
661 Fog 21 1006 100 6000 1.03 340 23:58 11.08.2022
662 Fog 21 1006 100 6000 1.03 340 23:22 11.08.2022
663 Mist 22 1006 97 4000 0.51 20 21:53 11.08.2022
664 Mist 22 1006 97 4000 1.54 40 21:28 11.08.2022
665 Mist 22 1006 97 4000 1.54 40 21:28 11.08.2022
666 Clouds 23 1006 94 9000 0.51 290 20:30 11.08.2022
667 Clouds 22 1006 94 8000 0.51 250 19:33 11.08.2022
668 Clouds 23 1005 97 10000 1.54 340 18:53 11.08.2022
669 Clouds 23 1005 94 10000 2.06 300 16:46 11.08.2022
670 Clear 25 1005 93 10000 0.74 282 15:43 11.08.2022
671 Clouds 24 1005 88 10000 2.06 280 14:36 11.08.2022
672 Clouds 25 1003 85 10000 2.06 230 11:56 11.08.2022
673 Clouds 28 1003 74 10000 3.09 210 08:57 11.08.2022
674 Rain 25 1004 85 10000 1.03 220 05:58 11.08.2022
675 Mist 24 1004 94 10000 0.51 320 02:33 11.08.2022
676 Rain 22 1004 100 2500 2.57 310 22:59 10.08.2022
677 Rain 22 1003 100 3000 2.06 340 21:46 10.08.2022
678 Rain 23 1004 100 2500 2.06 30 20:56 10.08.2022
679 Rain 23 1004 100 2500 2.06 30 20:27 10.08.2022
680 Rain 23 1005 97 5000 0.51 120 18:46 10.08.2022
681 Rain 23 1006 97 10000 1.03 150 17:26 10.08.2022
682 Mist 24 1006 91 10000 1.54 210 14:25 10.08.2022
683 Mist 24 1006 88 10000 3.09 210 12:54 10.08.2022
684 Clouds 25 1006 83 10000 3.6 190 10:31 10.08.2022
685 Clouds 27 1005 71 10000 3.6 210 08:37 10.08.2022
686 Clouds 29 1006 65 10000 2.06 180 07:22 10.08.2022
687 Clouds 27 1007 71 10000 1.54 110 04:50 10.08.2022
688 Mist 21 1006 97 10000 1.03 340 00:50 10.08.2022
689 Rain 21 1006 97 10000 1.03 320 23:27 09.08.2022
690 Mist 21 1006 100 10000 2.06 330 21:38 09.08.2022
691 Mist 22 1005 94 10000 2.06 340 20:56 09.08.2022
692 Rain 21 1005 97 5000 3.6 350 18:56 09.08.2022
693 Rain 22 1006 97 4000 4.12 310 17:31 09.08.2022
694 Rain 22 1006 97 4000 4.12 310 17:31 09.08.2022
695 Rain 23 1006 97 2500 5.14 320 16:43 09.08.2022
696 Rain 23 1005 97 3000 6.17 330 15:59 09.08.2022
697 Rain 23 1005 100 6000 3.09 310 14:43 09.08.2022
698 Rain 25 1004 97 2000 3.6 320 10:53 09.08.2022
699 Rain 26 1004 92 10000 3.6 210 08:52 09.08.2022
700 Rain 26 1005 89 10000 3.09 230 07:54 09.08.2022
701 Rain 26 1007 94 3000 3.09 180 04:43 09.08.2022
702 Rain 26 1006 94 7000 2.57 210 23:58 08.08.2022
703 Rain 26 1006 97 4000 1.54 40 22:58 08.08.2022
704 Rain 26 1006 97 4000 1.54 40 22:35 08.08.2022
705 Rain 26 1006 100 7000 1.54 280 21:30 08.08.2022
706 Rain 26 1006 97 10000 2.06 220 19:58 08.08.2022
707 Clouds 26 1006 97 10000 2.06 220 19:31 08.08.2022
708 Rain 26 1006 100 6000 3.09 210 17:47 08.08.2022
709 Rain 26 1006 97 4000 1.54 40 15:46 08.08.2022
710 Clouds 26 1006 100 5000 1.54 210 14:45 08.08.2022
711 Rain 27 1006 92 10000 5.66 220 12:29 08.08.2022
712 Rain 26 1005 97 4000 4.63 190 10:23 08.08.2022
713 Rain 26 1006 95 10000 5.14 210 06:56 08.08.2022
714 Rain 28 1005 89 10000 5.14 210 03:34 08.08.2022
715 Rain 28 1005 86 10000 5.66 210 22:44 07.08.2022
716 Clouds 28 1005 86 10000 6.17 200 21:40 07.08.2022
717 Rain 28 1005 86 10000 5.14 200 20:42 07.08.2022
718 Rain 28 1005 89 10000 4.63 210 20:18 07.08.2022
719 Rain 28 1005 86 10000 5.14 210 19:41 07.08.2022
720 Rain 28 1005 86 10000 4.63 200 18:36 07.08.2022
721 Rain 28 1006 89 10000 5.14 210 17:18 07.08.2022
722 Rain 28 1006 87 10000 5.66 200 16:38 07.08.2022
723 Rain 28 1006 89 10000 5.14 200 15:24 07.08.2022
724 Clouds 29 1005 82 10000 5.14 190 13:37 07.08.2022
725 Clouds 29 1005 84 10000 5.66 210 12:18 07.08.2022
726 Clouds 30 1005 72 10000 6.69 210 10:35 07.08.2022
727 Clouds 32 1005 72 10000 5.14 200 07:59 07.08.2022
728 Clouds 29 1007 79 10000 4.12 210 03:32 07.08.2022
729 Rain 29 1006 84 10000 4.12 170 01:45 07.08.2022
730 Mist 27 1007 94 6000 2.06 160 22:25 06.08.2022
731 Clouds 27 1007 94 6000 1.54 140 21:18 06.08.2022
732 Mist 26 1006 97 6000 2.06 140 19:41 06.08.2022
733 Mist 26 1007 97 5000 1.54 140 18:30 06.08.2022
734 Mist 26 1007 97 6000 0.51 10 17:33 06.08.2022
735 Clouds 28 1007 89 10000 2.57 320 14:48 06.08.2022
736 Rain 28 1005 92 10000 2.06 330 13:49 06.08.2022
737 Clouds 30 1004 79 10000 3.6 300 11:59 06.08.2022
738 Rain 31 1005 72 10000 1.54 290 10:33 06.08.2022
739 Rain 31 1005 77 10000 3.09 290 08:40 06.08.2022
740 Clouds 29 1006 79 8000 4.12 210 03:53 06.08.2022
741 Clouds 26 1006 94 10000 0.51 360 23:50 05.08.2022
742 Clouds 26 1006 97 10000 1.03 280 22:32 05.08.2022
743 Clouds 27 1006 89 10000 1.54 320 19:46 05.08.2022
744 Clouds 27 1006 89 10000 2.06 290 18:46 05.08.2022
745 Clouds 27 1006 94 10000 2.06 290 18:22 05.08.2022
746 Clouds 27 1006 89 10000 1.54 310 16:49 05.08.2022
747 Clouds 28 1006 89 10000 1.54 260 15:22 05.08.2022
748 Clouds 28 1005 81 10000 2.06 270 14:31 05.08.2022
749 Clouds 28 1005 81 10000 2.06 260 13:24 05.08.2022
750 Clouds 29 1004 75 10000 3.09 270 12:29 05.08.2022
751 Clouds 31 1004 72 10000 3.09 270 10:51 05.08.2022
752 Clouds 32 1004 64 10000 4.63 230 08:27 05.08.2022
753 Clouds 32 1006 68 10000 4.12 260 06:56 05.08.2022
754 Clouds 32 1006 68 10000 4.12 260 06:56 05.08.2022
755 Clouds 28 1007 86 10000 2.06 170 00:46 05.08.2022
756 Clouds 26 1007 91 10000 0.51 170 22:32 04.08.2022
757 Clouds 26 1007 97 10000 1.03 50 21:27 04.08.2022
758 Clouds 26 1008 95 10000 1.54 40 20:44 04.08.2022
759 Clouds 26 1008 92 10000 1.03 330 19:48 04.08.2022
760 Clouds 26 1008 92 10000 1.54 250 18:42 04.08.2022
761 Clouds 26 1008 92 10000 1.54 250 18:23 04.08.2022
762 Clouds 28 1008 82 10000 2.57 280 14:38 04.08.2022
763 Clouds 28 1008 83 10000 3.09 290 13:18 04.08.2022
764 Clouds 30 1008 74 10000 4.12 270 11:20 04.08.2022
765 Clouds 33 1009 64 10000 4.12 280 07:54 04.08.2022
766 Clouds 32 1009 62 10000 3.09 270 06:40 04.08.2022
767 Clouds 29 1011 79 10000 2.06 300 02:33 04.08.2022
768 Clouds 25 1011 94 10000 1.03 150 23:45 03.08.2022
769 Clouds 25 1010 95 9000 1.03 310 22:55 03.08.2022
770 Clouds 26 1010 89 10000 2.57 250 20:50 03.08.2022
771 Clouds 27 1010 89 9000 3.09 250 19:46 03.08.2022
772 Clouds 26 1010 92 8000 1.54 270 18:37 03.08.2022
773 Clouds 27 1010 94 8000 1.54 260 16:25 03.08.2022
774 Clouds 27 1010 89 8000 2.57 280 15:32 03.08.2022
775 Clouds 28 1009 84 10000 3.09 270 12:41 03.08.2022
776 Clouds 31 1009 68 10000 5.14 250 08:54 03.08.2022
777 Mist 27 1011 89 5000 2.57 220 04:47 03.08.2022
778 Mist 27 1011 94 4000 2.57 250 03:37 03.08.2022
779 Mist 25 1011 97 4000 3.6 260 01:36 03.08.2022
780 Rain 25 1010 94 8000 3.09 260 23:27 02.08.2022
781 Rain 25 1010 97 3000 4.63 220 21:55 02.08.2022
782 Rain 25 1010 97 3000 3.09 260 21:33 02.08.2022
783 Rain 26 1010 94 6000 3.6 230 19:19 02.08.2022
784 Rain 26 1010 95 8000 5.14 220 16:38 02.08.2022
785 Rain 27 1008 91 10000 3.09 200 12:55 02.08.2022
786 Mist 27 1008 92 5000 4.12 210 09:42 02.08.2022
787 Rain 28 1007 89 4000 5.14 200 08:26 02.08.2022
788 Clouds 28 1007 89 7000 5.14 200 07:50 02.08.2022
789 Clouds 28 1008 83 8000 4.63 180 04:55 02.08.2022
790 Clouds 26 1008 94 6000 4.12 160 01:25 02.08.2022
791 Rain 26 1007 92 10000 2.57 150 22:57 01.08.2022
792 Rain 26 1007 94 6000 3.6 160 20:57 01.08.2022
793 Thunderstorm 26 1006 97 2500 4.12 200 19:41 01.08.2022
794 Thunderstorm 26 1006 95 4000 4.12 160 18:43 01.08.2022
795 Thunderstorm 27 1005 86 6000 3.09 180 16:54 01.08.2022
796 Clouds 27 1005 86 6000 5.14 150 16:29 01.08.2022
797 Clouds 30 1004 68 10000 5.66 120 15:31 01.08.2022
798 Clouds 29 1005 68 10000 6.17 120 14:43 01.08.2022
799 Clouds 30 1004 66 10000 7.72 120 12:52 01.08.2022
800 Clouds 32 1004 68 10000 5.14 100 10:30 01.08.2022
801 Clouds 32 1005 70 10000 4.63 100 08:41 01.08.2022
802 Clouds 31 1005 68 10000 5.14 160 06:50 01.08.2022
803 Clouds 29 1007 81 10000 3.09 170 04:24 01.08.2022
804 Rain 25 1006 97 6000 2.57 140 00:55 01.08.2022
805 Rain 25 1005 100 10000 2.57 200 22:42 31.07.2022
806 Rain 25 1005 100 3000 3.6 160 21:35 31.07.2022
807 Thunderstorm 25 1005 97 4000 2.06 240 19:58 31.07.2022
808 Clouds 26 1005 94 10000 3.6 120 18:38 31.07.2022
809 Rain 26 1005 94 10000 4.12 110 16:18 31.07.2022
810 Rain 26 1005 94 4000 4.63 110 13:53 31.07.2022
811 Rain 27 1005 94 10000 3.6 110 12:29 31.07.2022
812 Rain 27 1005 89 10000 3.09 90 10:22 31.07.2022
813 Rain 27 1005 94 7000 2.06 40 08:18 31.07.2022
814 Rain 28 1007 78 10000 5.14 110 03:49 31.07.2022
815 Rain 27 1007 76 10000 2.57 60 23:53 30.07.2022
816 Rain 27 1007 78 10000 2.57 90 22:19 30.07.2022
817 Rain 27 1007 78 10000 2.57 90 22:19 30.07.2022
818 Clear 28 1007 76 10000 2.06 70 21:49 30.07.2022
819 Clear 27 1007 80 10000 2.06 50 20:58 30.07.2022
820 Clear 28 1008 76 10000 3.09 110 19:59 30.07.2022
821 Clear 28 1008 76 10000 2.06 70 18:57 30.07.2022
822 Clear 28 1008 75 10000 2.57 360 17:45 30.07.2022
823 Clear 28 1009 80 10000 2.06 310 15:54 30.07.2022
824 Rain 28 1009 80 10000 2.06 310 15:24 30.07.2022
825 Clouds 28 1008 76 10000 3.09 320 13:19 30.07.2022
826 Clouds 28 1008 79 10000 3.09 320 12:19 30.07.2022
827 Clouds 32 1007 55 10000 5.14 180 10:31 30.07.2022
828 Clouds 34 1007 50 10000 5.66 150 09:56 30.07.2022
829 Clouds 35 1008 47 10000 6.69 140 07:55 30.07.2022
830 Clear 32 1011 57 10000 4.63 130 03:55 30.07.2022
831 Clear 31 1011 60 10000 4.12 100 02:25 30.07.2022
832 Clear 27 1010 78 10000 2.06 70 22:44 29.07.2022
833 Clear 27 1011 79 10000 1.54 330 21:24 29.07.2022
834 Clear 27 1011 79 10000 2.06 210 20:39 29.07.2022
835 Clear 27 1011 89 10000 2.06 350 18:18 29.07.2022
836 Clear 29 1012 76 10000 2.06 340 15:38 29.07.2022
837 Clear 29 1011 75 10000 3.09 320 13:37 29.07.2022
838 Clouds 32 1010 61 10000 2.57 30 11:28 29.07.2022
839 Clouds 34 1011 57 10000 6.17 290 08:50 29.07.2022
840 Clouds 33 1011 62 10000 6.17 290 08:18 29.07.2022
841 Clear 29 1013 72 10000 4.12 110 01:58 29.07.2022
842 Clouds 26 1012 84 10000 1.54 180 22:53 28.07.2022
843 Clouds 26 1012 81 10000 2.57 200 21:28 28.07.2022
844 Clouds 26 1012 81 10000 3.09 210 20:32 28.07.2022
845 Clear 27 1012 84 10000 0.97 115 19:43 28.07.2022
846 Clear 27 1012 82 10000 0.91 140 19:23 28.07.2022
847 Clouds 28 1012 77 10000 2.06 310 17:44 28.07.2022
848 Clear 28 1012 74 10000 1.03 220 16:55 28.07.2022
849 Clouds 28 1011 72 10000 2.06 190 15:32 28.07.2022
850 Clouds 29 1010 65 10000 2.06 270 13:30 28.07.2022
851 Clouds 32 1009 55 10000 4.63 290 11:27 28.07.2022
852 Clouds 32 1010 53 10000 3.09 170 06:45 28.07.2022
853 Clouds 31 1011 54 10000 2.57 180 05:31 28.07.2022
854 Clouds 28 1011 65 10000 4.63 110 01:23 28.07.2022
855 Clear 25 1011 75 10000 4.63 110 22:41 27.07.2022
856 Clear 25 1011 73 10000 5.66 120 21:28 27.07.2022
857 Clouds 26 1010 71 10000 5.14 110 19:42 27.07.2022
858 Clear 25 1010 71 10000 1.54 140 17:49 27.07.2022
859 Clear 27 1010 65 10000 2.57 140 15:52 27.07.2022
860 Clear 27 1010 61 10000 4.63 140 14:58 27.07.2022
861 Clear 28 1010 61 10000 4.63 140 14:35 27.07.2022
862 Clear 30 1008 57 10000 4.63 160 12:50 27.07.2022
863 Clouds 32 1009 57 10000 3.6 50 07:54 27.07.2022
864 Clouds 31 1009 56 10000 2.06 220 06:56 27.07.2022
865 Mist 27 1010 81 6000 2.06 210 01:59 27.07.2022
866 Mist 25 1009 89 3000 2.06 300 22:29 26.07.2022
867 Mist 25 1009 94 4000 1.54 290 21:20 26.07.2022
868 Mist 26 1009 89 5000 2.57 220 20:28 26.07.2022
869 Clouds 26 1009 86 9000 1.54 340 18:43 26.07.2022
870 Clear 27 1009 83 10000 1.03 310 17:58 26.07.2022
871 Clear 27 1009 81 10000 1.03 330 15:59 26.07.2022
872 Clear 27 1009 83 10000 1.03 330 15:18 26.07.2022
873 Clear 28 1008 78 10000 2.06 290 13:20 26.07.2022
874 Clear 31 1008 66 10000 3.6 330 11:20 26.07.2022
875 Clouds 33 1008 52 10000 4.12 270 08:55 26.07.2022
876 Clouds 32 1010 62 10000 1.54 280 05:49 26.07.2022
877 Clear 25 1010 88 10000 1.03 20 00:37 26.07.2022
878 Clear 23 1010 97 10000 0.51 70 22:53 25.07.2022
879 Clear 22 1010 100 10000 0.51 70 22:22 25.07.2022
880 Clear 23 1010 94 10000 1.54 310 21:38 25.07.2022
881 Clear 23 1010 97 10000 0.51 330 20:40 25.07.2022
882 Clear 24 1010 91 10000 1.03 350 19:27 25.07.2022
883 Clear 24 1010 94 10000 1.54 310 18:18 25.07.2022
884 Clear 25 1010 89 10000 1.54 320 17:27 25.07.2022
885 Clear 26 1009 81 10000 1.54 280 14:44 25.07.2022
886 Clear 30 1009 65 10000 2.75 278 12:21 25.07.2022
887 Clear 34 1008 48 10000 3.67 287 09:18 25.07.2022
888 Clouds 29 1009 65 10000 1.54 300 03:23 25.07.2022
889 Clouds 23 1008 97 10000 0.51 210 23:53 24.07.2022
890 Clouds 23 1007 91 10000 1.54 310 22:56 24.07.2022
891 Clouds 23 1007 91 10000 1.54 310 22:26 24.07.2022
892 Clouds 23 1007 94 10000 2.06 310 21:19 24.07.2022
893 Clouds 23 1007 94 10000 3.09 320 20:47 24.07.2022
894 Clouds 24 1006 94 10000 1.03 320 19:54 24.07.2022
895 Clouds 24 1006 94 10000 2.06 310 18:38 24.07.2022
896 Clouds 24 1005 97 10000 2.57 310 16:28 24.07.2022
897 Clouds 25 1005 89 10000 1.54 320 15:45 24.07.2022
898 Clouds 25 1004 88 10000 2.57 310 14:19 24.07.2022
899 Clouds 26 1003 84 10000 2.57 330 12:52 24.07.2022
900 Clouds 27 1002 82 10000 3.6 330 11:38 24.07.2022
901 Clouds 27 1002 79 6000 4.12 340 10:59 24.07.2022
902 Clouds 27 1002 74 10000 1.54 200 08:31 24.07.2022
903 Clouds 27 1002 76 10000 2.57 200 07:47 24.07.2022
904 Clouds 26 1002 79 10000 2.06 80 04:45 24.07.2022
905 Clouds 24 1000 88 10000 3.6 120 23:51 23.07.2022
906 Clouds 23 1000 94 10000 2.57 130 20:59 23.07.2022
907 Clouds 23 1001 94 10000 3.6 110 19:44 23.07.2022
908 Rain 23 1001 94 10000 4.12 120 18:50 23.07.2022
909 Rain 22 1002 97 4500 5.14 110 17:28 23.07.2022
910 Rain 22 1002 94 5000 3.6 110 16:31 23.07.2022
911 Rain 22 1003 100 3500 4.63 60 15:22 23.07.2022
912 Rain 23 1003 94 2000 2.57 340 14:56 23.07.2022
913 Rain 23 1003 94 3500 3.09 360 14:24 23.07.2022
914 Rain 24 1003 91 7000 2.57 20 12:44 23.07.2022
915 Rain 25 1003 81 10000 3.09 170 10:45 23.07.2022
916 Rain 27 1003 67 10000 3.6 160 09:54 23.07.2022
917 Rain 28 1004 65 10000 4.12 160 08:30 23.07.2022
918 Mist 26 1006 73 6000 2.57 160 03:38 23.07.2022
919 Mist 23 1006 91 2500 2.06 190 00:39 23.07.2022
920 Mist 22 1006 97 2500 1.54 150 21:41 22.07.2022
921 Mist 22 1006 97 2500 1.03 110 20:33 22.07.2022
922 Mist 23 1006 94 3000 1.03 210 18:57 22.07.2022
923 Mist 23 1006 94 3500 1.03 40 17:52 22.07.2022
924 Mist 23 1007 94 4000 1.54 360 16:46 22.07.2022
925 Mist 24 1006 88 5000 1.03 300 14:20 22.07.2022
926 Mist 26 1005 83 8000 4.63 270 10:41 22.07.2022
927 Clouds 26 1005 78 10000 3.6 290 09:25 22.07.2022
928 Mist 26 1005 83 9000 4.63 290 08:26 22.07.2022
929 Clouds 27 1006 69 10000 2.06 10 04:26 22.07.2022
930 Clouds 23 1006 88 10000 2.06 290 23:45 21.07.2022
931 Mist 23 1003 88 10000 2.57 360 22:20 21.07.2022
932 Rain 23 1005 88 10000 3.09 280 20:36 21.07.2022
933 Clouds 23 1005 88 10000 1.03 300 18:52 21.07.2022
934 Clouds 23 1005 85 10000 2.57 310 17:29 21.07.2022
935 Clouds 23 1005 86 10000 2.06 330 16:43 21.07.2022
936 Clouds 24 1004 81 10000 2.06 320 14:49 21.07.2022
937 Clouds 24 1003 81 10000 2.57 310 13:58 21.07.2022
938 Clouds 25 1003 78 10000 2.06 320 12:27 21.07.2022
939 Clouds 25 1002 73 10000 3.6 330 10:37 21.07.2022
940 Clouds 25 1002 78 10000 4.12 350 08:53 21.07.2022
941 Clouds 25 1002 78 10000 4.12 350 08:35 21.07.2022
942 Clouds 25 1001 78 10000 5.14 340 07:22 21.07.2022
943 Rain 22 1000 91 10000 5.14 350 03:25 21.07.2022
944 Rain 21 1002 97 3500 5.66 360 22:51 20.07.2022
945 Rain 21 1001 94 6000 5.14 10 22:20 20.07.2022
946 Rain 22 1003 91 5000 7.2 20 20:46 20.07.2022
947 Rain 22 1003 94 8000 7.2 360 19:47 20.07.2022
948 Rain 22 1003 94 8000 7.2 360 19:47 20.07.2022
949 Rain 23 1004 91 8000 4.63 360 18:56 20.07.2022
950 Rain 23 1004 91 8000 4.63 360 18:33 20.07.2022
951 Rain 24 1005 85 10000 2.06 360 17:33 20.07.2022
952 Rain 25 1006 83 10000 2.57 20 15:43 20.07.2022
953 Rain 26 1006 79 10000 2.06 340 14:54 20.07.2022
954 Rain 27 1005 72 10000 1.54 310 13:44 20.07.2022
955 Clear 28 1006 66 10000 2.06 260 11:29 20.07.2022
956 Clouds 30 1006 58 10000 4.12 240 07:36 20.07.2022
957 Mist 26 1007 83 8000 0.51 190 01:58 20.07.2022
958 Mist 25 1007 88 7000 1.03 240 00:43 20.07.2022
959 Mist 24 1006 88 6000 1.54 210 22:38 19.07.2022
960 Mist 24 1006 88 6000 1.54 210 22:20 19.07.2022
961 Mist 25 1006 86 6000 2.06 210 20:50 19.07.2022
962 Mist 25 1006 86 6000 2.06 230 19:38 19.07.2022
963 Mist 25 1006 86 10000 2.06 240 18:43 19.07.2022
964 Mist 25 1005 83 10000 2.06 210 17:56 19.07.2022
965 Mist 25 1005 78 10000 1.54 240 15:50 19.07.2022
966 Clouds 26 1004 74 8000 3.09 260 13:51 19.07.2022
967 Clear 28 1003 62 10000 5.66 280 11:34 19.07.2022
968 Clear 30 1002 56 10000 4.63 280 09:54 19.07.2022
969 Clear 31 1002 59 10000 4.63 280 08:48 19.07.2022
970 Clear 30 1002 62 10000 4.63 280 08:21 19.07.2022
971 Clear 32 1001 47 10000 4.66 254 07:18 19.07.2022
972 Clouds 31 1001 58 10000 5.66 300 05:20 19.07.2022
973 Haze 30 1001 66 10000 2.57 200 04:40 19.07.2022
974 Clouds 24 1001 80 10000 0.52 247 00:18 19.07.2022
975 Clouds 24 1000 88 6000 1.54 300 23:20 18.07.2022
976 Clouds 23 1000 94 8000 1.54 290 22:42 18.07.2022
977 Rain 23 999 91 8000 1.54 290 21:26 18.07.2022
978 Rain 24 999 88 8000 1.54 330 20:49 18.07.2022
979 Clouds 24 999 88 8000 1.03 360 19:21 18.07.2022
980 Clouds 25 999 83 10000 1.54 270 16:45 18.07.2022
981 Clouds 25 999 83 10000 2.57 290 15:40 18.07.2022
982 Clouds 27 998 76 10000 3.09 280 13:40 18.07.2022
983 Clouds 27 998 72 10000 3.09 290 12:21 18.07.2022
984 Clouds 28 997 70 10000 3.6 190 09:56 18.07.2022
985 Clouds 30 997 58 10000 1.54 220 08:20 18.07.2022
986 Clouds 30 998 59 10000 4.63 130 06:39 18.07.2022
987 Clear 23 1001 94 6000 1.54 70 23:19 17.07.2022
988 Mist 23 1001 91 4500 1.54 190 22:32 17.07.2022
989 Mist 23 1001 88 5000 1.03 160 21:40 17.07.2022
990 Clouds 23 1001 91 6000 1.03 190 20:46 17.07.2022
991 Clouds 23 1002 78 10000 0.83 144 20:18 17.07.2022
992 Clouds 23 1001 88 7000 2.06 110 19:25 17.07.2022
993 Clouds 24 1001 81 10000 1.03 210 17:55 17.07.2022
994 Clouds 24 1001 81 10000 1.03 210 17:36 17.07.2022
995 Clear 24 1002 81 10000 2.57 230 16:45 17.07.2022
996 Clear 25 1002 83 10000 2.57 230 16:22 17.07.2022
997 Clear 26 1000 71 10000 2.57 260 13:58 17.07.2022
998 Clear 27 1000 65 10000 4.12 260 12:56 17.07.2022
999 Clear 29 999 61 10000 3.09 260 10:21 17.07.2022
1000 Clouds 28 1000 74 10000 3.09 290 07:31 17.07.2022
1001 Mist 25 1000 80 9000 2.57 190 02:35 17.07.2022
1002 Clouds 23 1000 88 6000 3.6 140 23:28 16.07.2022
1003 Clouds 22 1000 91 6000 2.57 130 22:33 16.07.2022
1004 Clouds 22 1000 91 8000 2.57 170 20:40 16.07.2022
1005 Clouds 23 1000 88 10000 1.54 170 18:58 16.07.2022
1006 Clouds 23 1000 88 10000 2.57 160 17:47 16.07.2022
1007 Clouds 24 1000 85 10000 1.54 310 15:54 16.07.2022
1008 Clouds 25 999 80 10000 3.6 280 12:37 16.07.2022
1009 Clouds 27 998 71 10000 5.14 270 10:28 16.07.2022
1010 Clouds 28 998 65 10000 4.63 260 09:25 16.07.2022
1011 Clouds 29 997 63 10000 4.63 240 08:41 16.07.2022
1012 Clouds 28 997 67 10000 3.6 250 06:59 16.07.2022
1013 Mist 26 998 72 10000 3.09 250 03:33 16.07.2022
1014 Mist 24 998 88 6000 3.09 190 00:23 16.07.2022
1015 Mist 23 997 88 6000 1.54 10 22:54 15.07.2022
1016 Mist 23 997 88 7000 0.51 60 21:55 15.07.2022
1017 Mist 23 998 88 7000 0.51 170 20:40 15.07.2022
1018 Clouds 23 998 89 8000 2.57 210 18:55 15.07.2022
1019 Clouds 23 998 89 8000 2.57 210 18:22 15.07.2022
1020 Clouds 24 999 83 8000 1.54 160 16:46 15.07.2022
1021 Clouds 25 999 75 10000 3.09 260 13:58 15.07.2022
1022 Clouds 27 998 74 10000 3.09 260 12:22 15.07.2022
1023 Clouds 29 998 55 10000 5.14 260 10:52 15.07.2022
1024 Clouds 30 999 60 10000 3.6 260 07:47 15.07.2022
1025 Clouds 26 1001 73 10000 1.03 340 02:51 15.07.2022
1026 Clouds 22 1001 94 8000 1.03 360 00:39 15.07.2022
1027 Clouds 22 1001 94 8000 1.03 360 00:39 15.07.2022
1028 Clouds 22 1001 97 10000 1.54 170 22:56 14.07.2022
1029 Clouds 22 1001 94 10000 1.54 230 21:59 14.07.2022
1030 Clouds 22 1001 94 10000 1.54 230 21:37 14.07.2022
1031 Clouds 22 1001 100 10000 1.03 170 21:18 14.07.2022
1032 Clouds 23 1001 91 10000 2.57 180 20:41 14.07.2022
1033 Clouds 23 1001 94 10000 2.06 210 20:18 14.07.2022
1034 Clouds 23 1001 91 10000 1.54 210 17:25 14.07.2022
1035 Clouds 23 1001 94 10000 1.03 210 16:18 14.07.2022
1036 Clouds 24 1001 86 10000 1.03 200 14:44 14.07.2022
1037 Clouds 25 1000 86 10000 2.57 250 13:39 14.07.2022
1038 Clouds 26 1000 78 10000 4.63 270 12:23 14.07.2022
1039 Clouds 28 1000 74 10000 4.63 270 11:26 14.07.2022
1040 Clouds 28 1000 72 10000 5.66 280 10:49 14.07.2022
1041 Clouds 30 1000 66 10000 4.12 310 08:28 14.07.2022
1042 Mist 25 1000 86 10000 2.57 320 03:42 14.07.2022
1043 Mist 23 999 100 5000 2.57 310 00:55 14.07.2022
1044 Mist 23 999 94 4000 2.06 330 23:41 13.07.2022
1045 Mist 23 999 100 3000 0.51 340 22:27 13.07.2022
1046 Drizzle 23 998 94 3000 2.06 270 21:32 13.07.2022
1047 Drizzle 23 999 91 5000 2.06 280 20:38 13.07.2022
1048 Drizzle 25 999 94 3000 1.54 180 17:59 13.07.2022
1049 Drizzle 25 999 94 3000 1.54 180 17:20 13.07.2022
1050 Mist 24 999 100 4500 1.54 210 15:59 13.07.2022
1051 Mist 24 999 100 6000 2.06 220 13:50 13.07.2022
1052 Rain 24 998 97 3000 2.57 150 11:24 13.07.2022
1053 Rain 24 999 97 1400 6.69 180 10:40 13.07.2022
1054 Mist 24 998 94 3000 7.72 180 09:28 13.07.2022
1055 Rain 24 998 97 1200 8.23 150 08:21 13.07.2022
1056 Mist 24 1004 97 3500 6.69 140 04:36 13.07.2022
1057 Rain 25 1005 91 6000 5.14 140 00:25 13.07.2022
1058 Clouds 25 1005 94 10000 2.06 150 22:28 12.07.2022
1059 Rain 25 1005 91 10000 3.6 150 21:45 12.07.2022
1060 Rain 26 1006 86 10000 2.06 160 20:44 12.07.2022
1061 Rain 27 1006 81 10000 2.57 170 19:45 12.07.2022
1062 Rain 27 1006 81 10000 1.54 210 18:25 12.07.2022
1063 Clouds 27 1006 78 10000 3.09 180 16:20 12.07.2022
1064 Rain 27 1007 79 10000 2.06 310 14:31 12.07.2022
1065 Clouds 27 1007 76 10000 2.06 330 13:34 12.07.2022
1066 Rain 28 1006 72 10000 3.09 330 11:48 12.07.2022
1067 Clouds 29 1007 70 10000 4.12 310 10:25 12.07.2022
1068 Clouds 29 1007 63 10000 3.09 130 08:40 12.07.2022
1069 Clear 30 1007 62 10000 3.6 100 07:47 12.07.2022
1070 Clear 29 1009 63 10000 3.09 50 05:45 12.07.2022
1071 Clear 28 1009 62 10000 3.09 30 04:46 12.07.2022
1072 Clear 25 1008 69 10000 4.63 110 00:20 12.07.2022
1073 Clear 23 1008 80 10000 3.09 90 22:39 11.07.2022
1074 Clear 23 1007 83 10000 2.06 10 20:56 11.07.2022
1075 Clear 23 1007 83 10000 2.06 10 20:32 11.07.2022
1076 Clear 24 1008 83 10000 1.54 30 18:48 11.07.2022
1077 Clear 24 1008 83 10000 1.54 30 18:23 11.07.2022
1078 Clear 24 1008 83 10000 1.54 30 18:23 11.07.2022
1079 Clear 25 1008 80 10000 2.57 10 16:26 11.07.2022
1080 Clear 26 1007 74 10000 3.09 40 14:58 11.07.2022
1081 Clouds 28 1006 76 10000 2.57 70 12:38 11.07.2022
1082 Rain 30 1005 62 10000 3.6 280 10:56 11.07.2022
1083 Clouds 30 1005 64 10000 3.09 260 09:54 11.07.2022
1084 Clouds 31 1005 62 10000 3.09 260 09:21 11.07.2022
1085 Clouds 29 1005 70 10000 4.63 290 07:52 11.07.2022
1086 Clear 24 1005 80 10000 3.09 180 00:54 11.07.2022
1087 Clear 24 1005 83 10000 3.09 190 23:53 10.07.2022
1088 Clear 24 1005 80 10000 2.06 160 22:34 10.07.2022
1089 Rain 24 1005 80 10000 2.57 240 20:55 10.07.2022
1090 Rain 24 1005 80 10000 2.57 240 20:24 10.07.2022
1091 Rain 24 1005 78 10000 1.54 270 19:21 10.07.2022
1092 Rain 27 1005 68 10000 4.12 270 17:51 10.07.2022
1093 Clouds 27 1005 65 10000 2.57 260 16:59 10.07.2022
1094 Clouds 27 1005 61 10000 1.54 260 16:20 10.07.2022
1095 Clouds 28 1004 59 10000 2.57 260 14:44 10.07.2022
1096 Rain 29 1004 65 10000 2.57 270 13:18 10.07.2022
1097 Clear 31 1003 57 10000 4.63 300 11:36 10.07.2022
1098 Clear 34 1004 54 10000 4.63 280 09:44 10.07.2022
1099 Clouds 34 1004 49 10000 2.06 320 08:43 10.07.2022
1100 Clouds 33 1005 54 9000 2.06 200 06:36 10.07.2022
1101 Mist 23 1005 97 3000 1.54 180 23:44 09.07.2022
1102 Mist 23 1004 94 3500 1.03 70 22:26 09.07.2022
1103 Mist 23 1004 94 3500 1.54 270 21:40 09.07.2022
1104 Clouds 24 1004 91 6000 1.03 330 19:44 09.07.2022
1105 Clouds 24 1004 88 10000 1.54 320 18:26 09.07.2022
1106 Clouds 24 1004 88 10000 1.54 320 17:21 09.07.2022
1107 Clouds 26 1004 81 10000 3.09 310 15:58 09.07.2022
1108 Clouds 26 1004 81 10000 3.09 310 15:38 09.07.2022
1109 Clear 25 1004 88 10000 2.57 320 14:21 09.07.2022
1110 Clear 27 1003 79 10000 3.6 290 13:28 09.07.2022
1111 Clear 30 1002 70 10000 2.57 280 11:40 09.07.2022
1112 Clouds 31 1002 68 10000 3.6 270 10:25 09.07.2022
1113 Clouds 30 1002 70 10000 3.09 290 09:23 09.07.2022
1114 Clouds 29 1002 72 10000 3.6 300 07:00 09.07.2022
1115 Clouds 28 1003 74 8000 2.06 290 04:38 09.07.2022
1116 Mist 24 1002 94 4000 2.06 300 23:33 08.07.2022
1117 Clouds 25 1002 85 10000 0.76 196 22:00 08.07.2022
1118 Mist 23 1002 100 3000 2.57 280 21:20 08.07.2022
1119 Mist 23 1002 97 3000 3.09 280 20:33 08.07.2022
1120 Mist 24 1002 89 4000 1.54 270 18:36 08.07.2022
1121 Drizzle 24 1002 89 4000 2.06 270 17:45 08.07.2022
1122 Clouds 25 1003 81 10000 2.57 300 15:53 08.07.2022
1123 Clouds 25 1002 81 10000 2.06 300 14:50 08.07.2022
1124 Clouds 25 1002 88 10000 4.63 290 12:30 08.07.2022
1125 Clouds 29 1001 70 10000 2.57 240 10:46 08.07.2022
1126 Clouds 28 1001 74 10000 3.09 260 09:24 08.07.2022
1127 Clouds 27 1003 76 10000 4.12 230 06:55 08.07.2022
1128 Clouds 26 1003 81 10000 2.57 230 04:31 08.07.2022
1129 Clouds 25 1004 88 8000 3.6 230 00:23 08.07.2022
1130 Mist 25 1003 86 6000 4.63 230 22:47 07.07.2022
1131 Mist 25 1003 86 7000 3.09 230 21:39 07.07.2022
1132 Clouds 26 1004 86 6000 4.12 230 19:28 07.07.2022
1133 Clouds 26 1004 89 6000 3.6 210 17:42 07.07.2022
1134 Mist 27 1004 86 4000 3.6 220 15:57 07.07.2022
1135 Mist 27 1004 92 4000 4.63 210 13:30 07.07.2022
1136 Clouds 28 1003 92 8000 5.14 210 12:40 07.07.2022
1137 Clouds 29 1003 90 8000 5.14 210 12:21 07.07.2022
1138 Rain 29 1003 84 10000 6.69 210 11:31 07.07.2022
1139 Rain 30 1003 80 10000 6.69 200 10:44 07.07.2022
1140 Rain 30 1003 80 10000 6.69 200 10:26 07.07.2022
1141 Clouds 31 1004 71 10000 4.63 200 07:58 07.07.2022
1142 Clouds 31 1005 64 10000 6.69 190 04:44 07.07.2022
1143 Rain 26 1007 86 10000 2.01 111 23:37 06.07.2022
1144 Rain 26 1007 91 10000 2.01 109 23:19 06.07.2022
1145 Rain 26 1007 91 10000 2.01 109 23:19 06.07.2022
1146 Clouds 26 1007 97 10000 3.6 140 22:57 06.07.2022
1147 Rain 26 1007 97 10000 3.6 140 22:39 06.07.2022
1148 Mist 26 1007 97 10000 2.57 150 21:46 06.07.2022
1149 Rain 26 1007 97 10000 1.03 130 19:41 06.07.2022
1150 Clouds 26 1007 100 10000 2.06 110 18:32 06.07.2022
1151 Rain 26 1007 97 10000 2.06 100 16:27 06.07.2022
1152 Mist 28 1007 85 1000 6.69 200 14:58 06.07.2022
1153 Clouds 32 1005 62 10000 3.6 160 12:42 06.07.2022
1154 Clouds 32 1005 60 10000 3.09 160 11:49 06.07.2022
1155 Clouds 34 1005 55 10000 2.57 190 10:18 06.07.2022
1156 Clouds 33 1006 58 10000 3.6 160 07:47 06.07.2022
1157 Clouds 34 1006 55 10000 3.6 160 07:23 06.07.2022
1158 Clouds 30 1007 70 8000 4.12 140 03:24 06.07.2022
1159 Clouds 25 1007 92 6000 1.03 50 22:45 05.07.2022
1160 Clouds 25 1007 92 6000 2.57 160 21:39 05.07.2022
1161 Clouds 25 1006 95 6000 1.03 230 20:38 05.07.2022
1162 Clouds 26 1006 92 7000 1.54 180 19:41 05.07.2022
1163 Clouds 25 1006 100 7000 1.03 350 19:22 05.07.2022
1164 Clouds 26 1007 86 9000 1.03 340 17:47 05.07.2022
1165 Rain 26 1007 89 10000 2.06 310 16:54 05.07.2022
1166 Clear 27 1006 82 10000 1.03 280 15:25 05.07.2022
1167 Mist 28 1005 79 10000 2.57 40 13:59 05.07.2022
1168 Haze 30 1004 75 10000 2.57 310 12:42 05.07.2022
1169 Haze 31 1004 66 10000 5.14 280 11:32 05.07.2022
1170 Mist 31 1004 64 3000 3.6 140 10:34 05.07.2022
1171 Haze 33 1004 58 5000 2.06 210 08:26 05.07.2022
1172 Haze 32 1004 60 5000 2.57 200 07:31 05.07.2022
1173 Haze 31 1005 64 5000 1.03 10 04:47 05.07.2022
1174 Haze 31 1005 62 5000 1.03 10 04:20 05.07.2022
1175 Clouds 25 1004 92 8000 0.51 330 23:42 04.07.2022
1176 Rain 25 1005 92 8000 1.54 310 22:59 04.07.2022
1177 Clouds 25 1005 94 8000 1.54 310 22:20 04.07.2022
1178 Clouds 25 1004 94 8000 1.03 330 21:18 04.07.2022
1179 Clouds 26 1005 86 9000 1.54 230 20:50 04.07.2022
1180 Clouds 26 1005 86 9000 1.54 230 20:50 04.07.2022
1181 Clouds 26 1005 86 9000 1.54 230 20:32 04.07.2022
1182 Clear 25 1005 88 10000 1.54 300 19:44 04.07.2022
1183 Clear 25 1005 88 10000 1.54 300 19:25 04.07.2022
1184 Clear 27 1005 81 10000 2.57 180 17:40 04.07.2022
1185 Clear 27 1004 80 10000 2.06 310 15:42 04.07.2022
1186 Clear 28 1004 81 10000 2.06 290 14:42 04.07.2022
1187 Rain 29 1004 78 10000 2.57 290 13:27 04.07.2022
1188 Rain 30 1004 70 10000 4.12 340 11:43 04.07.2022
1189 Clear 32 1004 58 10000 4.12 290 10:33 04.07.2022
1190 Clouds 32 1004 55 10000 4.63 330 09:36 04.07.2022
1191 Clouds 31 1005 62 10000 4.12 290 06:50 04.07.2022
1192 Clouds 30 1006 56 10000 0.45 254 03:23 04.07.2022
1193 Clear 25 1006 83 10000 1.03 300 23:53 03.07.2022
1194 Clear 24 1006 86 10000 1.54 320 22:55 03.07.2022
1195 Clear 26 1007 83 10000 1.03 210 20:46 03.07.2022
1196 Clear 25 1007 88 10000 0.51 20 20:20 03.07.2022
1197 Clear 26 1007 76 10000 1.03 310 19:25 03.07.2022
1198 Clear 26 1007 83 10000 1.54 320 18:31 03.07.2022
1199 Clear 27 1007 76 10000 1.54 310 17:42 03.07.2022
1200 Clear 27 1007 74 10000 1.54 290 15:28 03.07.2022
1201 Clear 28 1007 67 10000 1.54 300 14:54 03.07.2022
1202 Clear 29 1007 66 10000 2.06 320 13:50 03.07.2022
1203 Clear 30 1007 58 10000 3.09 280 12:49 03.07.2022
1204 Clear 30 1007 58 10000 3.09 280 12:19 03.07.2022
1205 Clear 33 1007 52 10000 4.12 320 10:54 03.07.2022
1206 Clear 33 1007 52 10000 4.12 320 10:35 03.07.2022
1207 Clear 34 1008 46 10000 3.09 320 07:38 03.07.2022
1208 Clear 33 1008 50 10000 1.03 180 06:52 03.07.2022
1209 Mist 25 1010 86 4500 1.03 360 00:39 03.07.2022
1210 Mist 23 1011 94 4500 0.51 20 23:37 02.07.2022
1211 Mist 23 1011 94 4500 1.54 180 22:31 02.07.2022
1212 Mist 24 1011 91 5000 1.03 320 20:28 02.07.2022
1213 Clouds 24 1011 94 6000 1.54 320 19:49 02.07.2022
1214 Clouds 25 1011 89 6000 1.54 330 18:24 02.07.2022
1215 Clouds 25 1011 89 7000 2.06 330 17:38 02.07.2022
1216 Clouds 26 1011 81 9000 2.06 310 15:56 02.07.2022
1217 Clear 28 1011 72 10000 2.57 300 13:35 02.07.2022
1218 Clear 32 1011 59 10000 4.63 290 11:48 02.07.2022
1219 Clouds 33 1011 57 10000 3.6 300 10:50 02.07.2022
1220 Clouds 33 1011 62 10000 3.6 300 10:21 02.07.2022
1221 Clouds 33 1012 52 10000 1.03 320 08:37 02.07.2022
1222 Clouds 33 1012 55 10000 1.03 320 08:19 02.07.2022
1223 Clear 28 1015 74 10000 1.54 350 02:59 02.07.2022
1224 Clear 25 1014 85 10000 1.03 300 00:28 02.07.2022
1225 Clear 23 1014 94 10000 1.54 70 23:21 01.07.2022
1226 Clouds 23 1014 94 10000 1.54 320 22:29 01.07.2022
1227 Clouds 23 1014 97 10000 1.03 330 21:37 01.07.2022
1228 Clouds 23 1014 97 10000 1.03 340 20:58 01.07.2022
1229 Clouds 24 1014 94 10000 1.03 340 20:20 01.07.2022
1230 Clouds 24 1014 94 10000 0.51 90 19:36 01.07.2022
1231 Clear 24 1015 91 10000 1.03 30 16:41 01.07.2022
1232 Clouds 26 1014 81 10000 3.09 260 14:29 01.07.2022
1233 Clouds 27 1014 79 10000 3.09 280 13:39 01.07.2022
1234 Clouds 30 1013 64 10000 4.63 220 10:54 01.07.2022
1235 Clouds 30 1013 66 10000 4.63 220 10:19 01.07.2022
1236 Haze 31 1015 64 10000 4.63 230 06:31 01.07.2022
1237 Clouds 27 1014 78 10000 3.6 160 02:43 01.07.2022
1238 Clouds 23 1014 97 10000 2.06 150 23:44 30.06.2022
1239 Clouds 23 1014 97 10000 2.57 130 22:50 30.06.2022
1240 Clouds 23 1014 97 10000 2.57 130 22:31 30.06.2022
1241 Clouds 23 1014 97 10000 2.06 140 21:53 30.06.2022
1242 Rain 22 1014 94 10000 1.54 170 20:49 30.06.2022
1243 Clouds 22 1014 94 10000 1.54 170 20:20 30.06.2022
1244 Clouds 23 1013 97 10000 1.54 150 19:47 30.06.2022
1245 Clouds 23 1013 97 10000 2.06 170 18:52 30.06.2022
1246 Mist 22 1013 94 5000 1.03 160 17:56 30.06.2022
1247 Clouds 21 1013 95 10000 1.2 142 17:18 30.06.2022
1248 Mist 22 1013 94 4000 1.03 200 16:18 30.06.2022
1249 Mist 21 1011 97 4000 4.63 130 13:59 30.06.2022
1250 Rain 21 1011 94 4000 4.63 130 13:20 30.06.2022
1251 Rain 21 1011 94 4000 4.12 120 12:33 30.06.2022
1252 Rain 21 1010 97 2000 3.6 20 10:49 30.06.2022
1253 Rain 22 1010 94 3500 2.57 70 09:47 30.06.2022
1254 Rain 23 1010 97 10000 7.72 100 08:31 30.06.2022
1255 Rain 23 1010 94 10000 3.09 110 07:41 30.06.2022
1256 Rain 24 1010 88 7000 5.14 150 05:45 30.06.2022
1257 Rain 22 1009 97 3500 3.09 80 23:39 29.06.2022
1258 Rain 22 1008 94 2500 2.06 100 22:42 29.06.2022
1259 Rain 22 1008 94 2500 2.06 100 22:19 29.06.2022
1260 Rain 22 1008 97 2000 4.12 170 20:35 29.06.2022
1261 Rain 23 1008 94 3500 4.12 210 19:57 29.06.2022
1262 Rain 24 1007 97 5000 1.03 250 18:46 29.06.2022
1263 Rain 24 1007 94 4500 2.57 210 17:38 29.06.2022
1264 Rain 24 1007 94 4500 3.6 190 16:24 29.06.2022
1265 Rain 25 1005 91 5000 4.63 200 13:52 29.06.2022
1266 Rain 26 1005 89 10000 5.14 210 12:38 29.06.2022
1267 Clouds 26 1004 89 10000 4.63 190 10:18 29.06.2022
1268 Clouds 26 1005 86 10000 6.69 210 09:27 29.06.2022
1269 Rain 25 1005 88 10000 4.12 200 06:32 29.06.2022
1270 Mist 26 1005 83 10000 6.17 220 04:44 29.06.2022
1271 Mist 25 1002 88 10000 7.2 230 00:53 29.06.2022
1272 Mist 25 1002 88 10000 7.2 230 00:34 29.06.2022
1273 Rain 25 1001 88 10000 7.72 220 22:52 28.06.2022
1274 Rain 25 1000 88 8000 9.26 210 21:59 28.06.2022
1275 Rain 25 1000 88 8000 9.26 210 21:40 28.06.2022
1276 Rain 25 1000 88 8000 9.26 210 21:22 28.06.2022
1277 Rain 24 1001 91 10000 9.26 200 19:56 28.06.2022
1278 Rain 24 1000 91 6000 7.72 200 19:31 28.06.2022
1279 Rain 25 1001 89 1300 7.2 190 18:40 28.06.2022
1280 Rain 27 1002 76 7000 9.77 200 17:25 28.06.2022
1281 Clouds 27 1002 79 10000 7.2 210 15:55 28.06.2022
1282 Clouds 27 1002 76 10000 7.72 200 14:52 28.06.2022
1283 Rain 26 1002 83 10000 7.72 200 14:19 28.06.2022
1284 Rain 27 1002 74 7000 8.75 200 13:45 28.06.2022
1285 Clouds 27 1002 74 10000 7.72 230 12:30 28.06.2022
1286 Clouds 27 1001 79 10000 8.75 220 10:40 28.06.2022
1287 Rain 27 1002 79 10000 9.26 210 08:56 28.06.2022
1288 Clouds 27 1002 79 10000 9.26 210 08:37 28.06.2022
1289 Rain 26 1002 83 10000 8.75 200 07:20 28.06.2022
1290 Clouds 27 1002 72 10000 11.32 200 03:55 28.06.2022
1291 Rain 27 1003 76 10000 8.75 210 23:51 27.06.2022
1292 Rain 26 1003 83 10000 8.23 200 23:26 27.06.2022
1293 Rain 26 1003 79 10000 9.77 200 21:53 27.06.2022
1294 Rain 26 1003 79 10000 9.77 200 21:29 27.06.2022
1295 Clouds 27 1004 74 10000 9.77 210 20:33 27.06.2022
1296 Clouds 28 1004 69 10000 10.8 210 18:51 27.06.2022
1297 Clouds 27 1004 73 10000 8.75 200 17:38 27.06.2022
1298 Clouds 27 1004 78 10000 7.2 200 15:50 27.06.2022
1299 Clouds 27 1004 78 10000 7.72 200 14:18 27.06.2022
1300 Rain 27 1004 76 10000 7.72 210 12:58 27.06.2022
1301 Clouds 27 1003 76 10000 7.72 210 11:40 27.06.2022
1302 Rain 27 1005 81 10000 6.69 210 09:49 27.06.2022
1303 Rain 27 1005 86 10000 4.63 210 08:43 27.06.2022
1304 Rain 26 1006 89 4000 5.14 200 07:49 27.06.2022
1305 Rain 28 1007 78 10000 4.63 170 05:50 27.06.2022
1306 Rain 27 1009 83 10000 3.09 150 01:25 27.06.2022
1307 Rain 25 1009 88 10000 2.06 150 23:22 26.06.2022
1308 Thunderstorm 25 1009 91 10000 1.54 140 21:39 26.06.2022
1309 Rain 25 1009 86 10000 2.06 150 20:33 26.06.2022
1310 Rain 26 1010 79 10000 4.63 200 18:34 26.06.2022
1311 Clouds 26 1010 78 10000 4.12 200 17:47 26.06.2022
1312 Clouds 27 1010 76 10000 5.14 220 15:37 26.06.2022
1313 Clouds 27 1009 74 10000 5.14 210 14:23 26.06.2022
1314 Clouds 27 1008 76 10000 4.63 200 13:24 26.06.2022
1315 Clouds 28 1008 74 10000 4.63 210 11:41 26.06.2022
1316 Clouds 28 1008 74 10000 5.66 210 10:42 26.06.2022
1317 Clouds 27 1008 78 10000 5.66 210 10:19 26.06.2022
1318 Clouds 28 1008 76 10000 5.66 220 08:27 26.06.2022
1319 Clouds 27 1008 74 10000 5.66 190 06:31 26.06.2022
1320 Rain 25 1007 81 10000 5.14 200 00:37 26.06.2022
1321 Rain 25 1007 83 10000 5.14 200 00:19 26.06.2022
1322 Rain 25 1006 81 10000 5.14 190 23:31 25.06.2022
1323 Rain 25 1005 81 10000 5.14 190 22:46 25.06.2022
1324 Rain 25 1005 81 10000 5.14 190 22:24 25.06.2022
1325 Clouds 25 1006 83 10000 6.69 200 21:21 25.06.2022
1326 Clouds 25 1006 78 10000 5.66 210 20:48 25.06.2022
1327 Clouds 25 1006 78 10000 5.66 210 20:25 25.06.2022
1328 Clouds 25 1006 83 10000 5.14 180 18:23 25.06.2022
1329 Clouds 25 1007 83 10000 4.12 210 17:27 25.06.2022
1330 Clouds 25 1007 83 10000 4.12 220 16:27 25.06.2022
1331 Clear 26 1006 76 10000 3.09 230 14:31 25.06.2022
1332 Clouds 28 1005 69 10000 5.14 200 12:46 25.06.2022
1333 Clouds 29 1004 70 10000 4.63 220 11:55 25.06.2022
1334 Clouds 30 1003 66 8000 5.66 250 09:24 25.06.2022
1335 Mist 31 1003 68 5000 5.66 240 08:49 25.06.2022
1336 Mist 30 1003 74 5000 3.6 220 08:20 25.06.2022
1337 Mist 29 1004 72 5000 4.63 210 06:33 25.06.2022
1338 Mist 22 1003 85 3500 1.54 190 00:44 25.06.2022
1339 Mist 22 1003 85 3500 1.54 190 00:44 25.06.2022
1340 Mist 22 1003 83 3500 3.6 200 23:46 24.06.2022
1341 Mist 21 1003 88 3500 2.06 210 22:22 24.06.2022
1342 Mist 22 1002 83 3000 3.09 210 21:22 24.06.2022
1343 Mist 21 1001 86 3000 4.12 210 20:23 24.06.2022
1344 Mist 21 1001 86 3000 4.12 210 19:24 24.06.2022
1345 Mist 21 1001 88 3200 2.06 210 18:50 24.06.2022
1346 Mist 21 1001 88 3200 2.06 210 18:31 24.06.2022
1347 Mist 21 1001 88 3500 3.6 220 17:46 24.06.2022
1348 Mist 22 1001 86 3500 3.09 220 16:32 24.06.2022
1349 Mist 23 1000 83 5000 5.14 230 14:29 24.06.2022
1350 Clouds 24 999 74 10000 6.69 230 13:55 24.06.2022
1351 Clouds 24 999 74 10000 5.14 200 12:26 24.06.2022
1352 Clouds 25 998 71 10000 5.66 200 11:40 24.06.2022
1353 Clouds 25 998 73 10000 5.66 210 10:22 24.06.2022
1354 Mist 24 998 78 10000 5.14 230 09:41 24.06.2022
1355 Mist 24 999 81 8000 3.6 220 08:52 24.06.2022
1356 Drizzle 24 998 81 7000 4.63 220 07:33 24.06.2022
1357 Clouds 24 999 83 7000 4.12 230 06:42 24.06.2022
1358 Clouds 23 999 88 7000 4.12 230 06:18 24.06.2022
1359 Mist 23 997 83 10000 3.6 210 02:44 24.06.2022
1360 Mist 22 995 94 3500 3.09 240 22:57 23.06.2022
1361 Mist 22 994 91 2500 3.09 240 22:38 23.06.2022
1362 Mist 22 993 94 8000 3.6 260 20:57 23.06.2022
1363 Mist 22 993 94 8000 3.6 260 20:32 23.06.2022
1364 Rain 23 993 94 8000 3.09 240 19:24 23.06.2022
1365 Rain 23 994 94 3500 6.17 230 17:51 23.06.2022
1366 Mist 24 995 88 2000 5.66 230 16:58 23.06.2022
1367 Rain 23 995 94 6000 7.2 210 15:49 23.06.2022
1368 Mist 23 995 94 3000 6.69 220 15:24 23.06.2022
1369 Rain 24 995 91 8000 7.2 230 13:32 23.06.2022
1370 Rain 24 995 97 2000 6.17 180 11:23 23.06.2022
1371 Rain 24 996 91 3500 7.2 210 10:31 23.06.2022
1372 Mist 24 998 94 2500 5.14 240 08:35 23.06.2022
1373 Mist 24 1003 83 3000 2.06 190 02:38 23.06.2022
1374 Mist 22 1004 88 2500 1.03 10 00:26 23.06.2022
1375 Mist 22 1004 88 2500 1.03 280 23:27 22.06.2022
1376 Mist 21 1004 91 3500 2.57 310 22:31 22.06.2022
1377 Rain 22 1005 88 5000 1.54 230 21:21 22.06.2022
1378 Clouds 21 1005 88 8000 1.03 170 20:25 22.06.2022
1379 Clouds 22 1005 89 9000 2.06 190 19:50 22.06.2022
1380 Clouds 22 1006 88 9000 1.54 230 18:21 22.06.2022
1381 Clouds 22 1006 86 9000 0.51 110 17:26 22.06.2022
1382 Clear 22 1007 88 10000 1.54 350 16:18 22.06.2022
1383 Clear 23 1007 79 10000 2.06 320 15:25 22.06.2022
1384 Clear 26 1007 70 10000 3.09 280 13:52 22.06.2022
1385 Clear 26 1007 70 10000 3.09 280 13:26 22.06.2022
1386 Clear 27 1007 64 10000 3.09 280 12:56 22.06.2022
1387 Clear 28 1007 56 10000 3.09 290 11:48 22.06.2022
1388 Clear 29 1007 53 10000 4.63 290 10:54 22.06.2022
1389 Clear 30 1007 50 10000 4.63 300 09:54 22.06.2022
1390 Clear 30 1007 53 10000 2.57 250 07:56 22.06.2022
1391 Haze 25 1008 71 9000 1.54 230 03:30 22.06.2022
1392 Mist 23 1009 83 7000 1.54 310 01:22 22.06.2022
1393 Mist 22 1008 83 8000 1.54 320 23:41 21.06.2022
1394 Clouds 21 1006 88 7000 2.06 240 21:32 21.06.2022
1395 Clear 22 1006 83 10000 2.06 220 19:47 21.06.2022
1396 Clear 22 1006 86 10000 2.57 200 18:32 21.06.2022
1397 Clear 22 1006 86 10000 2.06 210 17:25 21.06.2022
1398 Clear 26 1004 67 10000 3.09 290 13:33 21.06.2022
1399 Clear 30 1003 56 10000 3.6 290 11:30 21.06.2022
1400 Clear 32 1003 50 10000 5.66 300 09:48 21.06.2022
1401 Clouds 35 1002 40 10000 3.56 267 08:22 21.06.2022
1402 Clear 31 1003 54 10000 5.14 300 08:22 21.06.2022
1403 Clear 31 1003 53 10000 2.06 350 05:41 21.06.2022
1404 Fog 22 1004 91 300 1.03 50 00:43 21.06.2022
1405 Mist 20 1004 94 3000 2.06 340 22:25 20.06.2022
1406 Mist 20 1004 94 5000 1.54 320 21:50 20.06.2022
1407 Clear 20 1004 91 8000 2.06 310 20:32 20.06.2022
1408 Clear 20 1004 91 8000 2.06 310 20:32 20.06.2022
1409 Clear 20 1003 94 8000 1.54 330 19:38 20.06.2022
1410 Clear 20 1004 94 10000 1.03 320 18:44 20.06.2022
1411 Clear 22 1004 89 10000 2.06 290 17:52 20.06.2022
1412 Clear 22 1004 89 10000 2.06 290 17:29 20.06.2022
1413 Clear 23 1004 83 10000 2.57 300 15:53 20.06.2022
1414 Clear 27 1003 65 10000 4.12 290 12:41 20.06.2022
1415 Clouds 29 1003 56 10000 3.09 300 10:32 20.06.2022
1416 Clouds 29 1004 57 10000 2.06 290 08:57 20.06.2022
1417 Clouds 29 1004 57 10000 2.06 290 08:57 20.06.2022
1418 Clouds 28 1004 57 10000 2.06 290 08:21 20.06.2022
1419 Clouds 27 1005 63 10000 1.54 270 05:35 20.06.2022
1420 Mist 23 1006 83 9000 1.03 30 01:33 20.06.2022
1421 Mist 22 1006 86 6000 1.03 60 00:26 20.06.2022
1422 Mist 21 1006 91 4000 1.03 320 22:50 19.06.2022
1423 Clouds 21 1006 91 7000 1.03 10 21:51 19.06.2022
1424 Clouds 21 1006 91 7000 1.03 10 21:31 19.06.2022
1425 Clouds 21 1006 91 7000 2.06 300 20:38 19.06.2022
1426 Clouds 22 1007 89 7000 1.54 320 19:47 19.06.2022
1427 Clouds 22 1007 89 8000 2.06 310 18:45 19.06.2022
1428 Clouds 22 1007 86 10000 2.06 300 17:54 19.06.2022
1429 Clouds 21 1007 88 10000 2.06 300 17:22 19.06.2022
1430 Clouds 22 1007 86 10000 1.54 300 16:35 19.06.2022
1431 Mist 23 1007 81 10000 1.54 290 15:41 19.06.2022
1432 Clouds 23 1007 83 10000 2.06 290 14:57 19.06.2022
1433 Clouds 23 1007 83 10000 2.06 290 14:19 19.06.2022
1434 Clouds 23 1007 83 10000 2.06 270 13:21 19.06.2022
1435 Clouds 25 1006 71 10000 1.03 310 10:55 19.06.2022
1436 Clouds 25 1007 71 10000 1.54 200 09:46 19.06.2022
1437 Clouds 24 1007 73 10000 3.6 230 08:47 19.06.2022
1438 Clouds 25 1007 71 10000 2.06 230 07:59 19.06.2022
1439 Clouds 24 1008 71 10000 1.03 220 05:36 19.06.2022
1440 Clouds 23 1009 80 10000 2.06 190 01:29 19.06.2022
1441 Clouds 22 1009 86 10000 2.06 190 00:24 19.06.2022
1442 Clouds 22 1008 85 10000 2.06 170 23:36 18.06.2022
1443 Clouds 22 1008 85 10000 2.06 160 22:36 18.06.2022
1444 Clouds 22 1008 83 10000 1.54 170 20:56 18.06.2022
1445 Clouds 22 1008 83 10000 1.54 170 20:28 18.06.2022
1446 Clouds 22 1008 83 10000 2.06 180 19:37 18.06.2022
1447 Clouds 22 1009 83 10000 1.03 130 18:45 18.06.2022
1448 Clouds 22 1009 83 10000 1.54 160 17:34 18.06.2022
1449 Clouds 22 1009 83 10000 1.54 30 16:47 18.06.2022
1450 Clouds 22 1009 83 10000 2.06 240 15:31 18.06.2022
1451 Clouds 22 1008 83 10000 1.54 210 14:42 18.06.2022
1452 Clouds 22 1008 83 10000 2.57 220 13:22 18.06.2022
1453 Clouds 25 1007 71 10000 2.06 280 11:38 18.06.2022
1454 Clouds 25 1006 71 10000 1.03 340 10:46 18.06.2022
1455 Clouds 25 1007 71 10000 2.06 280 09:22 18.06.2022
1456 Clouds 25 1007 69 10000 2.57 240 08:19 18.06.2022
1457 Clouds 25 1007 69 10000 3.09 270 06:44 18.06.2022
1458 Clouds 24 1007 69 10000 3.09 200 03:24 18.06.2022
1459 Clouds 23 1008 76 10000 2.06 160 01:24 18.06.2022
1460 Clouds 23 1007 78 10000 2.57 150 00:45 18.06.2022
1461 Clouds 21 1007 88 10000 2.06 160 23:52 17.06.2022
1462 Clear 21 1008 92 10000 0.61 146 23:19 17.06.2022
1463 Clouds 22 1008 83 10000 0.51 260 20:42 17.06.2022
1464 Clouds 22 1008 83 10000 2.06 160 19:30 17.06.2022
1465 Clouds 21 1008 86 10000 0.51 220 18:37 17.06.2022
1466 Clouds 22 1008 83 10000 1.03 210 17:43 17.06.2022
1467 Clouds 22 1008 81 10000 1.54 230 16:43 17.06.2022
1468 Clouds 23 1009 76 10000 3.6 310 15:43 17.06.2022
1469 Clouds 24 1008 74 10000 2.57 250 14:58 17.06.2022
1470 Clouds 24 1008 78 10000 2.18 232 14:20 17.06.2022
1471 Clouds 24 1008 74 8000 3.6 290 13:44 17.06.2022
1472 Clouds 25 1007 67 8000 3.09 230 12:45 17.06.2022
1473 Clouds 25 1006 67 9000 3.09 210 11:56 17.06.2022
1474 Clouds 25 1006 67 9000 3.09 210 11:35 17.06.2022
1475 Clouds 26 1006 61 7000 4.12 240 10:48 17.06.2022
1476 Clouds 26 1006 61 7000 4.12 240 10:48 17.06.2022
1477 Clouds 27 1006 57 8000 4.12 210 08:29 17.06.2022
1478 Haze 26 1008 61 9000 2.06 210 06:58 17.06.2022
1479 Haze 25 1008 60 9000 2.06 190 05:35 17.06.2022
1480 Mist 21 1010 76 6000 1.54 180 02:42 17.06.2022
1481 Mist 18 1009 82 10000 1.03 190 00:36 17.06.2022
1482 Mist 15 1008 91 9000 1.03 130 22:44 16.06.2022
1483 Clear 16 1008 94 10000 1.54 300 21:36 16.06.2022
1484 Clear 16 1008 94 10000 1.54 300 21:18 16.06.2022
1485 Clear 16 1008 94 10000 1.54 20 20:36 16.06.2022
1486 Clear 16 1008 91 10000 1.03 180 19:55 16.06.2022
1487 Clear 16 1008 91 10000 1.03 280 18:28 16.06.2022
1488 Clear 17 1008 91 10000 1.54 200 17:43 16.06.2022
1489 Clear 17 1009 88 10000 1.54 170 16:40 16.06.2022
1490 Clear 18 1009 82 10000 1.54 310 15:24 16.06.2022
1491 Clear 19 1008 80 10000 2.57 300 14:46 16.06.2022
1492 Clear 21 1007 69 10000 4.63 300 13:34 16.06.2022
1493 Clear 23 1007 61 10000 3.6 280 12:37 16.06.2022
1494 Clear 23 1007 57 10000 3.6 300 11:52 16.06.2022
1495 Clear 24 1007 50 10000 3.6 270 10:56 16.06.2022
1496 Clear 24 1007 50 10000 3.6 270 10:32 16.06.2022
1497 Clear 24 1008 53 10000 4.12 240 09:22 16.06.2022
1498 Clear 23 1008 56 10000 4.63 250 08:36 16.06.2022
1499 Clouds 23 1008 60 10000 5.14 240 07:28 16.06.2022
1500 Clouds 22 1009 64 10000 4.63 300 05:29 16.06.2022
1501 Mist 19 1008 80 10000 1.54 270 02:50 16.06.2022
1502 Drizzle 18 1008 85 10000 2.06 270 01:42 16.06.2022
1503 Clouds 19 1008 82 10000 2.06 270 01:21 16.06.2022
1504 Clouds 19 1008 82 10000 2.06 270 01:21 16.06.2022
1505 Clouds 17 1008 91 10000 3.09 290 23:47 15.06.2022
1506 Clouds 18 1007 88 10000 2.06 280 22:42 15.06.2022
1507 Mist 18 1007 91 10000 2.06 230 21:23 15.06.2022
1508 Mist 18 1006 91 8000 3.09 290 20:45 15.06.2022
1509 Mist 18 1006 91 8000 3.09 290 20:27 15.06.2022
1510 Mist 18 1006 91 4000 3.09 200 19:30 15.06.2022
1511 Rain 18 1006 94 6000 2.57 330 17:56 15.06.2022
1512 Rain 18 1006 94 6000 2.57 330 17:33 15.06.2022
1513 Rain 19 1006 91 7000 0.51 330 15:46 15.06.2022
1514 Clouds 19 1005 88 7000 2.06 250 14:26 15.06.2022
1515 Mist 20 1005 85 10000 3.6 240 12:54 15.06.2022
1516 Mist 20 1005 85 10000 3.6 240 12:28 15.06.2022
1517 Mist 20 1005 83 10000 2.57 160 10:27 15.06.2022
1518 Mist 19 1005 85 8000 3.09 130 09:45 15.06.2022
1519 Clouds 19 1005 83 6000 3.6 120 08:50 15.06.2022
1520 Clouds 18 1006 88 10000 4.12 100 06:42 15.06.2022
1521 Rain 16 1007 88 10000 3.09 80 04:47 15.06.2022
1522 Rain 15 1006 94 4500 4.12 100 01:55 15.06.2022
1523 Clouds 15 1006 91 10000 4.63 100 00:51 15.06.2022
1524 Rain 15 1007 91 10000 5.66 100 23:40 14.06.2022
1525 Rain 15 1007 88 10000 5.66 100 23:21 14.06.2022
1526 Rain 15 1007 88 10000 3 80 22:23 14.06.2022
1527 Rain 15 1007 88 10000 2.57 50 21:40 14.06.2022
1528 Rain 15 1007 91 10000 2.57 60 20:56 14.06.2022
1529 Rain 15 1007 91 10000 2.57 60 20:31 14.06.2022
1530 Rain 16 1007 88 6000 3.6 90 19:20 14.06.2022
1531 Clouds 18 1008 63 10000 4.12 80 18:20 14.06.2022
1532 Clouds 18 1008 59 10000 6.17 100 16:47 14.06.2022
1533 Clouds 19 1008 57 10000 5.66 90 15:50 14.06.2022
1534 Clouds 20 1008 52 10000 5.66 90 15:28 14.06.2022
1535 Clouds 20 1008 50 10000 6.69 90 14:37 14.06.2022
1536 Clear 20 1008 49 10000 7.2 90 13:46 14.06.2022
1537 Clear 21 1008 47 10000 6.69 70 12:45 14.06.2022
1538 Rain 23 1007 43 10000 6.69 90 11:38 14.06.2022
1539 Clear 23 1007 43 10000 5.66 80 10:48 14.06.2022
1540 Clear 24 1007 43 10000 5.66 80 10:22 14.06.2022
1541 Clear 25 1007 41 10000 6.69 80 08:48 14.06.2022
1542 Clear 26 1008 40 10000 6.17 70 07:34 14.06.2022
1543 Clear 26 1009 36 10000 5.66 90 05:28 14.06.2022
1544 Clear 22 1009 44 10000 8.75 90 02:58 14.06.2022
1545 Clear 20 1009 52 10000 5.66 90 00:53 14.06.2022
1546 Clear 19 1010 55 10000 5.66 100 23:39 13.06.2022
1547 Clear 19 1009 59 10000 4.63 90 22:26 13.06.2022
1548 Clear 19 1009 59 10000 6.17 100 21:50 13.06.2022
1549 Clear 20 1009 52 10000 5.66 100 20:42 13.06.2022
1550 Clear 20 1009 52 10000 6.17 90 19:34 13.06.2022
1551 Clear 21 1010 49 10000 5.14 90 18:25 13.06.2022
1552 Clear 21 1010 49 10000 6.17 90 17:46 13.06.2022
1553 Clear 22 1010 48 10000 6.17 100 16:52 13.06.2022
1554 Clear 22 1009 54 10000 6.17 90 15:38 13.06.2022
1555 Clear 22 1009 65 10000 3.6 350 14:43 13.06.2022
1556 Clear 23 1008 65 10000 3.6 10 13:54 13.06.2022
1557 Clear 24 1007 61 10000 4.63 10 12:48 13.06.2022
1558 Clear 24 1007 61 10000 4.63 10 12:48 13.06.2022
1559 Clear 25 1007 57 10000 4.12 20 11:26 13.06.2022
1560 Clear 25 1007 54 10000 4.12 20 10:27 13.06.2022
1561 Clouds 25 1007 53 10000 5.66 20 09:38 13.06.2022
1562 Rain 26 1007 56 10000 6.69 310 07:53 13.06.2022
1563 Clouds 27 1007 47 10000 4.12 110 06:28 13.06.2022
1564 Clear 26 1010 50 10000 4.63 120 03:18 13.06.2022
1565 Mist 22 1010 75 10000 4.63 110 01:38 13.06.2022
1566 Clear 21 1010 83 10000 4.63 120 00:22 13.06.2022
1567 Mist 19 1011 88 7000 2.57 70 23:25 12.06.2022
1568 Mist 20 1010 88 4000 1.54 30 22:22 12.06.2022
1569 Mist 20 1011 91 4000 0.51 190 21:27 12.06.2022
1570 Mist 20 1011 88 4000 2.06 240 20:33 12.06.2022
1571 Mist 20 1011 88 5000 3.09 210 19:30 12.06.2022
1572 Rain 21 1011 81 6000 4.12 190 17:54 12.06.2022
1573 Rain 22 1012 73 9000 2.57 210 16:34 12.06.2022
1574 Rain 22 1012 73 10000 2.57 250 15:18 12.06.2022
1575 Clear 23 1011 69 10000 1.54 290 14:29 12.06.2022
1576 Clear 24 1011 65 10000 2.06 300 13:55 12.06.2022
1577 Rain 25 1011 61 10000 3.09 290 12:43 12.06.2022
1578 Clear 26 1011 50 10000 5.66 290 11:40 12.06.2022
1579 Clear 28 1010 45 10000 4.12 280 10:38 12.06.2022
1580 Clouds 29 1010 45 10000 4.63 270 09:19 12.06.2022
1581 Clear 29 1011 39 10000 5.14 280 08:45 12.06.2022
1582 Clouds 29 1011 39 10000 2.57 250 07:33 12.06.2022
1583 Clear 26 1013 44 10000 2.57 110 04:52 12.06.2022
1584 Clear 25 1013 47 10000 3.09 100 03:24 12.06.2022
1585 Clear 22 1014 54 10000 4.63 90 01:42 12.06.2022
1586 Clear 21 1014 60 10000 4.63 90 00:58 12.06.2022
1587 Clear 21 1014 56 10000 4.63 90 00:20 12.06.2022
1588 Clear 18 1014 77 10000 1.54 30 23:44 11.06.2022
1589 Clear 18 1013 74 10000 2.06 50 22:38 11.06.2022
1590 Clear 18 1013 70 10000 2.06 110 21:52 11.06.2022
1591 Clear 19 1013 72 10000 2.06 40 20:36 11.06.2022
1592 Clear 20 1013 71 10000 1.54 20 19:46 11.06.2022
1593 Clear 20 1013 71 10000 1.54 20 19:46 11.06.2022
1594 Clear 20 1013 71 10000 1.54 20 19:25 11.06.2022
1595 Clear 20 1013 69 10000 2.06 40 18:33 11.06.2022
1596 Clear 22 1013 60 10000 3.09 100 17:51 11.06.2022
1597 Clear 22 1013 60 10000 3.09 100 17:27 11.06.2022
1598 Clear 22 1012 58 10000 3.09 60 16:55 11.06.2022
1599 Clear 23 1012 58 10000 3.09 60 16:27 11.06.2022
1600 Clear 24 1012 55 10000 4.12 90 15:31 11.06.2022
1601 Clouds 25 1011 51 10000 4.12 20 13:53 11.06.2022
1602 Clouds 28 1010 42 10000 5.66 10 12:51 11.06.2022
1603 Rain 30 1009 37 10000 5.66 340 10:48 11.06.2022
1604 Rain 30 1010 31 10000 5.14 350 09:51 11.06.2022
1605 Clouds 29 1010 35 10000 5.14 350 09:18 11.06.2022
1606 Clouds 30 1011 34 10000 6.69 340 07:40 11.06.2022
1607 Clouds 29 1012 39 10000 4.63 350 06:25 11.06.2022
1608 Clear 27 1013 44 10000 3.6 10 04:23 11.06.2022
1609 Clear 20 1014 73 10000 2.57 350 01:52 11.06.2022
1610 Clear 20 1014 73 10000 2.57 350 01:27 11.06.2022
1611 Clouds 17 1014 91 6000 1.54 360 23:34 10.06.2022
1612 Clouds 16 1014 94 6000 1.03 300 22:31 10.06.2022
1613 Clouds 17 1013 91 6000 1.54 200 21:50 10.06.2022
1614 Rain 17 1013 94 7000 1.54 330 20:40 10.06.2022
1615 Clouds 17 1013 94 7000 1.54 330 20:21 10.06.2022
1616 Clouds 17 1013 94 7000 1.54 330 20:21 10.06.2022
1617 Clouds 17 1014 91 7000 1.03 310 19:19 10.06.2022
1618 Clouds 17 1014 88 9000 1.54 10 18:55 10.06.2022
1619 Clear 18 1014 88 10000 1.54 310 17:55 10.06.2022
1620 Clear 18 1014 88 10000 1.54 310 17:55 10.06.2022
1621 Rain 18 1014 88 10000 1.54 310 17:33 10.06.2022
1622 Clear 18 1014 88 10000 1.03 50 16:47 10.06.2022
1623 Clear 19 1015 81 10000 1.03 220 15:40 10.06.2022
1624 Clear 19 1014 83 10000 2.06 310 14:34 10.06.2022
1625 Clouds 20 1014 75 10000 3.09 340 13:23 10.06.2022
1626 Clear 22 1014 73 10000 3.09 350 11:59 10.06.2022
1627 Clear 22 1014 75 10000 3.6 340 10:59 10.06.2022
1628 Clear 22 1014 75 10000 3.6 340 10:24 10.06.2022
1629 Clear 22 1014 68 10000 2.06 330 08:58 10.06.2022
1630 Thunderstorm 22 1014 69 4000 3.09 350 07:50 10.06.2022
1631 Rain 25 1014 55 10000 8.23 340 06:47 10.06.2022
1632 Clouds 25 1014 55 10000 8.23 340 06:28 10.06.2022
1633 Clouds 26 1014 50 10000 3.09 320 04:53 10.06.2022
1634 Mist 21 1014 72 10000 3.6 140 01:59 10.06.2022
1635 Mist 21 1014 72 10000 3.6 140 01:36 10.06.2022
1636 Mist 21 1014 72 10000 3.6 140 01:36 10.06.2022
1637 Mist 17 1014 94 7000 1.54 20 23:57 09.06.2022
1638 Mist 16 1014 94 6000 1.54 360 22:30 09.06.2022
1639 Mist 17 1014 91 6000 0.51 290 21:43 09.06.2022
1640 Mist 17 1014 91 6000 0.51 290 21:24 09.06.2022
1641 Mist 17 1014 91 6000 1.54 340 20:36 09.06.2022
1642 Clouds 17 1013 91 6000 1.03 250 19:41 09.06.2022
1643 Clouds 17 1013 91 8000 1.03 320 18:35 09.06.2022
1644 Clouds 17 1014 91 9000 1.54 310 17:25 09.06.2022
1645 Clear 17 1014 91 10000 1.54 300 16:28 09.06.2022
1646 Clear 20 1013 75 10000 2.06 270 14:42 09.06.2022
1647 Clear 20 1013 75 10000 2.06 270 14:23 09.06.2022
1648 Clear 20 1013 75 10000 3.6 30 13:29 09.06.2022
1649 Clear 22 1013 66 10000 4.12 270 12:46 09.06.2022
1650 Clear 23 1012 53 10000 3.6 290 11:19 09.06.2022
1651 Haze 24 1012 55 10000 5.14 290 09:50 09.06.2022
1652 Haze 24 1012 55 10000 5.14 290 09:31 09.06.2022
1653 Rain 24 1012 53 10000 4.12 280 08:21 09.06.2022
1654 Clouds 24 1013 53 10000 3.09 250 07:23 09.06.2022
1655 Haze 21 1014 74 8000 1.54 220 03:28 09.06.2022
1656 Rain 18 1013 85 10000 1.03 10 23:55 08.06.2022
1657 Rain 18 1013 85 10000 1.03 250 22:59 08.06.2022
1658 Rain 18 1013 85 10000 1.03 250 22:27 08.06.2022
1659 Rain 18 1013 83 10000 1.54 300 21:57 08.06.2022
1660 Rain 18 1013 83 10000 1.54 300 21:23 08.06.2022
1661 Clouds 18 1012 88 10000 2.06 280 20:22 08.06.2022
1662 Clouds 18 1013 83 10000 2.06 290 19:39 08.06.2022
1663 Clear 18 1012 83 10000 1.54 170 18:48 08.06.2022
1664 Clear 18 1013 83 10000 1.03 320 17:30 08.06.2022
1665 Clouds 20 1013 71 10000 2.06 280 15:52 08.06.2022
1666 Clear 21 1011 64 10000 3.6 290 13:58 08.06.2022
1667 Clear 21 1011 64 10000 3.09 270 12:22 08.06.2022
1668 Clear 23 1010 53 10000 5.66 290 11:34 08.06.2022
1669 Clear 24 1010 49 10000 5.14 280 10:30 08.06.2022
1670 Clear 24 1010 53 10000 4.12 300 09:22 08.06.2022
1671 Clear 24 1010 53 10000 2.06 230 08:43 08.06.2022
1672 Clouds 23 1011 53 10000 3.09 280 06:35 08.06.2022
1673 Clouds 22 1012 52 10000 2.57 120 03:58 08.06.2022
1674 Clouds 18 1012 61 10000 3.6 100 00:45 08.06.2022
1675 Clouds 17 1012 67 10000 2.57 190 23:29 07.06.2022
1676 Clear 17 1011 65 10000 2.57 110 22:48 07.06.2022
1677 Clear 17 1011 65 10000 2.57 110 22:30 07.06.2022
1678 Clear 17 1010 65 10000 3.09 110 21:35 07.06.2022
1679 Clouds 17 1010 68 10000 3.6 130 20:59 07.06.2022
1680 Clouds 17 1010 68 10000 3.6 130 20:33 07.06.2022
1681 Clouds 19 1010 64 10000 3.6 140 19:45 07.06.2022
1682 Clouds 19 1010 59 10000 2.57 140 18:24 07.06.2022
1683 Clear 19 1010 63 10000 1.54 50 17:27 07.06.2022
1684 Clear 19 1010 62 10000 2.57 20 16:43 07.06.2022
1685 Clear 20 1009 58 10000 4.12 360 15:54 07.06.2022
1686 Clear 20 1009 58 10000 4.12 360 15:26 07.06.2022
1687 Clear 20 1008 58 10000 5.14 10 14:51 07.06.2022
1688 Clear 20 1008 58 10000 5.14 10 14:32 07.06.2022
1689 Clear 21 1007 55 10000 3.09 300 13:31 07.06.2022
1690 Clear 22 1007 51 10000 3.6 270 12:49 07.06.2022
1691 Clear 23 1007 46 10000 3.6 290 11:47 07.06.2022
1692 Clear 23 1007 46 10000 4.12 300 10:26 07.06.2022
1693 Clear 23 1007 41 10000 2.06 320 08:49 07.06.2022
1694 Clear 24 1007 38 10000 1.54 190 07:34 07.06.2022
1695 Clear 24 1007 36 10000 1.03 160 06:18 07.06.2022
1696 Clear 21 1008 43 10000 4.12 110 03:31 07.06.2022
1697 Clear 21 1008 43 10000 4.12 110 03:31 07.06.2022
1698 Clear 17 1007 59 10000 3.09 20 00:45 07.06.2022
1699 Clear 15 1007 72 10000 2.57 20 23:41 06.06.2022
1700 Clear 14 1007 70 10000 2.57 30 22:53 06.06.2022
1701 Clear 15 1006 67 10000 2.57 30 21:57 06.06.2022
1702 Clouds 16 1006 61 10000 3.6 50 20:42 06.06.2022
1703 Clouds 16 1006 67 10000 2.57 360 19:24 06.06.2022
1704 Clear 16 1006 57 10000 4.63 60 18:47 06.06.2022
1705 Clear 17 1006 55 10000 6.17 80 17:55 06.06.2022
1706 Clear 17 1006 57 10000 4.63 100 16:55 06.06.2022
1707 Clear 17 1005 55 10000 5.14 80 15:45 06.06.2022
1708 Clear 18 1004 55 10000 4.63 80 14:57 06.06.2022
1709 Clear 19 1003 54 10000 4.63 50 13:40 06.06.2022
1710 Clear 21 1002 49 10000 6.17 60 12:59 06.06.2022
1711 Clear 21 1002 49 10000 6.17 60 12:27 06.06.2022
1712 Clear 22 1002 46 10000 5.66 30 11:45 06.06.2022
1713 Clear 23 1001 46 10000 5.14 20 09:46 06.06.2022
1714 Clouds 23 1001 44 10000 4.63 100 08:36 06.06.2022
1715 Clear 23 1001 49 10000 5.14 80 07:44 06.06.2022
1716 Clouds 22 1001 54 10000 6.69 30 06:49 06.06.2022
1717 Rain 18 1002 77 10000 4.63 10 04:36 06.06.2022
1718 Rain 17 1001 91 10000 3.6 340 01:30 06.06.2022
1719 Rain 17 1000 88 7000 3.6 10 00:55 06.06.2022
1720 Rain 17 1000 88 7000 3.6 10 00:33 06.06.2022
1721 Rain 18 999 85 10000 4.63 20 22:58 05.06.2022
1722 Clouds 18 999 88 10000 3.6 10 21:59 05.06.2022
1723 Clouds 19 999 82 10000 3.6 350 20:23 05.06.2022
1724 Clouds 19 1000 78 10000 2.06 20 18:57 05.06.2022
1725 Rain 19 1000 70 10000 1.54 30 17:59 05.06.2022
1726 Rain 19 1000 70 10000 1.54 30 17:38 05.06.2022
1727 Clouds 20 1000 68 10000 1.54 30 17:20 05.06.2022
1728 Clouds 19 1001 68 10000 2.57 50 16:47 05.06.2022
1729 Clouds 21 1001 60 10000 3.6 90 15:22 05.06.2022
1730 Clouds 21 1001 60 10000 3.6 110 14:18 05.06.2022
1731 Rain 21 1001 54 10000 4.63 130 11:58 05.06.2022
1732 Rain 22 1001 52 10000 4.12 120 10:45 05.06.2022
1733 Clear 22 1001 52 10000 4.12 120 10:24 05.06.2022
1734 Clear 22 1002 52 10000 6.69 110 09:29 05.06.2022
1735 Rain 23 1002 49 10000 7.2 110 08:23 05.06.2022
1736 Clear 25 1003 40 10000 4.63 130 05:58 05.06.2022
1737 Clear 26 1003 38 10000 4.63 130 05:19 05.06.2022
1738 Clouds 23 1004 51 10000 2.06 200 02:23 05.06.2022
1739 Rain 23 1005 53 10000 3.09 180 01:23 05.06.2022
1740 Rain 22 1005 56 10000 3.09 160 22:49 04.06.2022
1741 Clear 22 1005 58 10000 2.57 210 21:25 04.06.2022
1742 Clear 22 1006 60 10000 2.06 160 19:26 04.06.2022
1743 Clear 22 1006 69 10000 1.54 310 16:48 04.06.2022
1744 Clear 22 1006 73 10000 1.54 310 16:20 04.06.2022
1745 Clear 23 1007 64 10000 1.54 340 15:35 04.06.2022
1746 Clear 26 1007 54 10000 2.06 330 13:59 04.06.2022
1747 Clear 29 1007 44 10000 1.54 200 11:38 04.06.2022
1748 Clear 28 1007 43 10000 3.6 90 10:52 04.06.2022
1749 Clear 28 1008 45 10000 2.57 30 09:47 04.06.2022
1750 Clouds 28 1009 45 8000 1.54 320 08:59 04.06.2022
1751 Clouds 28 1009 45 8000 1.54 320 08:37 04.06.2022
1752 Clouds 27 1010 51 6000 4.12 290 06:32 04.06.2022
1753 Clear 25 1011 49 10000 2.06 200 03:52 04.06.2022
1754 Mist 20 1012 88 4000 0.51 240 00:22 04.06.2022
1755 Mist 19 1012 84 4000 1.03 90 22:57 03.06.2022
1756 Mist 19 1012 79 4500 2.57 180 21:53 03.06.2022
1757 Clear 19 1012 86 10000 2.06 320 20:40 03.06.2022
1758 Clear 20 1012 86 10000 2.57 320 19:37 03.06.2022
1759 Clear 21 1011 81 10000 3.09 300 16:58 03.06.2022
1760 Clear 21 1010 78 10000 2.57 300 15:55 03.06.2022
1761 Clear 22 1010 74 10000 3.09 280 14:25 03.06.2022
1762 Clear 23 1009 68 10000 5.66 290 12:21 03.06.2022
1763 Clouds 31 1008 40 7000 4.12 260 09:57 03.06.2022
1764 Clouds 31 1008 40 7000 4.12 260 09:29 03.06.2022
1765 Clear 30 1008 33 10000 2.06 220 07:45 03.06.2022
1766 Clear 29 1009 36 10000 2.06 240 06:59 03.06.2022
1767 Clear 29 1009 36 10000 2.06 240 06:28 03.06.2022
1768 Haze 24 1010 53 10000 2.06 30 03:39 03.06.2022
1769 Mist 19 1010 77 10000 2.57 40 23:52 02.06.2022
1770 Clouds 18 1010 82 10000 1.03 30 22:23 02.06.2022
1771 Clouds 18 1009 79 10000 2.06 200 20:56 02.06.2022
1772 Clouds 18 1009 82 10000 1.54 310 19:56 02.06.2022
1773 Clouds 18 1009 82 10000 1.54 310 19:38 02.06.2022
1774 Clouds 18 1009 82 10000 2.06 330 18:41 02.06.2022
1775 Clouds 18 1009 86 10000 1.54 290 16:28 02.06.2022
1776 Clear 18 1009 81 10000 1.54 300 15:47 02.06.2022
1777 Clear 20 1008 73 10000 3.6 300 13:31 02.06.2022
1778 Clear 22 1007 65 10000 4.63 290 12:49 02.06.2022
1779 Clear 25 1007 52 10000 5.66 300 10:45 02.06.2022
1780 Clear 25 1007 49 10000 5.14 300 09:30 02.06.2022
1781 Clear 26 1007 47 10000 5.66 300 08:44 02.06.2022
1782 Clear 25 1007 53 10000 5.66 300 08:23 02.06.2022
1783 Clear 24 1008 50 10000 4.12 220 06:21 02.06.2022
1784 Clouds 22 1008 53 10000 2.06 270 03:50 02.06.2022
1785 Clouds 17 1008 72 10000 3.09 220 00:55 02.06.2022
1786 Clouds 15 1007 74 6000 1.03 180 22:58 01.06.2022
1787 Clouds 15 1007 78 7000 1.03 160 21:59 01.06.2022
1788 Clouds 15 1007 78 7000 1.03 160 21:24 01.06.2022
1789 Clear 14 1006 81 7000 1.03 170 20:38 01.06.2022
1790 Clear 15 1006 79 7000 0.51 220 19:51 01.06.2022
1791 Clear 14 1006 76 9000 2.06 180 18:37 01.06.2022
1792 Clear 17 1006 63 10000 2.06 310 16:58 01.06.2022
1793 Clear 17 1006 62 10000 3.09 310 15:43 01.06.2022
1794 Clear 19 1005 50 10000 3.09 290 14:49 01.06.2022
1795 Clear 20 1004 43 10000 2.57 290 13:23 01.06.2022
1796 Clear 26 1004 22 10000 5.14 290 10:44 01.06.2022
1797 Clear 27 1004 20 10000 5.14 290 09:28 01.06.2022
1798 Clear 28 1005 19 10000 6.17 290 08:18 01.06.2022
1799 Clear 28 1005 20 10000 4.63 270 07:20 01.06.2022
1800 Clear 25 1006 27 10000 4.12 180 03:55 01.06.2022
1801 Clear 15 1008 58 10000 2.57 170 23:47 31.05.2022
1802 Clear 14 1009 61 10000 1.54 180 22:38 31.05.2022
1803 Clear 14 1009 61 10000 1.54 180 22:19 31.05.2022
1804 Clear 16 1009 52 10000 2.06 300 21:23 31.05.2022
1805 Clear 14 1008 52 10000 1.54 120 20:42 31.05.2022
1806 Clear 16 1008 48 10000 2.57 170 19:22 31.05.2022
1807 Clear 15 1007 55 10000 3.6 150 18:19 31.05.2022
1808 Clear 15 1008 51 10000 4.63 140 17:37 31.05.2022
1809 Clear 17 1009 44 10000 1.54 160 15:45 31.05.2022
1810 Clear 18 1009 45 10000 1.54 160 15:22 31.05.2022
1811 Clear 22 1008 25 10000 4.63 250 12:39 31.05.2022
1812 Clear 24 1007 28 10000 5.17 232 12:18 31.05.2022
1813 Clear 24 1008 20 10000 7.2 250 10:22 31.05.2022
1814 Clear 26 1008 23 10000 6.17 250 07:43 31.05.2022
1815 Clear 26 1008 30 10000 3.09 190 05:38 31.05.2022
1816 Clear 22 1009 44 10000 3.09 230 03:41 31.05.2022
1817 Clear 12 1007 82 10000 1.54 190 23:39 30.05.2022
1818 Clear 12 1007 87 10000 0.51 100 23:18 30.05.2022
1819 Clear 11 1006 85 10000 1.54 180 22:32 30.05.2022
1820 Clear 11 1006 85 10000 1.54 180 21:37 30.05.2022
1821 Clear 12 1006 72 10000 1.03 170 20:43 30.05.2022
1822 Clear 13 1006 70 10000 1.03 300 19:40 30.05.2022
1823 Clear 16 1006 65 10000 1.54 290 17:48 30.05.2022
1824 Clear 16 1006 65 10000 1.54 290 17:20 30.05.2022
1825 Clear 18 1005 77 10000 2.57 280 15:51 30.05.2022
1826 Clouds 21 1003 71 10000 4.37 316 13:21 30.05.2022
1827 Clouds 20 1002 78 10000 4.63 270 11:30 30.05.2022
1828 Clouds 21 1002 73 10000 5.14 270 09:41 30.05.2022
1829 Clouds 23 1001 64 10000 6.17 280 07:29 30.05.2022
1830 Clear 24 1002 60 10000 4.12 340 05:52 30.05.2022
1831 Clouds 22 1002 64 9000 3.09 320 03:18 30.05.2022
1832 Mist 19 1002 85 7000 0.51 280 23:57 29.05.2022
1833 Rain 19 1003 81 7000 2.06 320 22:40 29.05.2022
1834 Clouds 19 1003 78 8000 2.06 360 21:44 29.05.2022
1835 Clouds 19 1003 82 6000 2.57 340 20:18 29.05.2022
1836 Clouds 19 1004 81 6000 2.06 330 19:28 29.05.2022
1837 Clouds 19 1004 81 7000 2.57 330 17:56 29.05.2022
1838 Clouds 20 1004 75 8000 2.57 310 15:59 29.05.2022
1839 Clouds 20 1004 75 8000 2.57 310 15:40 29.05.2022
1840 Clear 21 1004 73 10000 3.09 300 14:44 29.05.2022
1841 Clear 23 1004 68 10000 4.63 300 12:21 29.05.2022
1842 Clear 27 1003 43 10000 5.14 280 10:45 29.05.2022
1843 Clear 28 1003 41 10000 3.6 270 09:52 29.05.2022
1844 Rain 27 1004 42 10000 2.57 250 07:28 29.05.2022
1845 Clouds 23 1006 58 8000 2.57 200 04:50 29.05.2022
1846 Clouds 23 1006 58 8000 2.57 200 04:31 29.05.2022
1847 Clouds 18 1007 77 10000 1.03 130 00:48 29.05.2022
1848 Clouds 18 1007 75 10000 1.03 190 23:42 28.05.2022
1849 Clouds 18 1007 70 7000 3.09 190 22:56 28.05.2022
1850 Mist 18 1007 75 5000 2.06 160 21:45 28.05.2022
1851 Clouds 16 1007 75 6000 0.51 270 20:30 28.05.2022
1852 Clouds 18 1007 77 8000 3.09 200 19:18 28.05.2022
1853 Clear 18 1007 72 10000 3.09 190 18:19 28.05.2022
1854 Clear 19 1007 51 10000 2.06 190 16:57 28.05.2022
1855 Clear 20 1007 50 10000 1.54 210 15:45 28.05.2022
1856 Clear 19 1007 59 10000 0.51 190 15:19 28.05.2022
1857 Clear 22 1006 41 10000 3.09 280 13:26 28.05.2022
1858 Clear 25 1005 31 10000 3.09 240 12:41 28.05.2022
1859 Clear 26 1005 30 10000 5.66 230 11:27 28.05.2022
1860 Clear 27 1005 35 10000 7.2 240 10:25 28.05.2022
1861 Clear 28 1005 38 10000 8.23 240 09:30 28.05.2022
1862 Clear 29 1004 34 10000 7.72 230 07:47 28.05.2022
1863 Clear 28 1005 41 10000 4.63 200 06:32 28.05.2022
1864 Clear 24 1005 53 10000 4.63 200 03:53 28.05.2022
1865 Clouds 17 1005 75 6000 3.6 160 00:33 28.05.2022
1866 Clouds 14 1005 85 6000 3.09 130 23:34 27.05.2022
1867 Clouds 13 1004 85 8000 3.09 150 22:24 27.05.2022
1868 Clear 13 1003 88 10000 2.06 210 20:57 27.05.2022
1869 Clear 13 1003 88 10000 2.06 210 20:26 27.05.2022
1870 Clear 15 1003 80 10000 1.54 170 19:51 27.05.2022
1871 Clear 15 1003 80 10000 1.54 170 19:32 27.05.2022
1872 Clear 14 1003 82 10000 3.09 130 18:29 27.05.2022
1873 Clear 17 1004 65 10000 2.57 220 16:42 27.05.2022
1874 Clear 17 1004 61 10000 2.57 230 15:34 27.05.2022
1875 Clear 18 1003 55 10000 1.03 240 14:44 27.05.2022
1876 Clear 19 1002 54 10000 3.09 250 13:23 27.05.2022
1877 Clear 22 1001 49 10000 4.12 240 11:34 27.05.2022
1878 Clear 23 1001 48 10000 5.66 240 10:57 27.05.2022
1879 Clear 23 1001 48 10000 5.66 240 10:31 27.05.2022
1880 Clear 25 1001 42 10000 5.14 250 09:37 27.05.2022
1881 Clouds 24 1001 42 10000 5.14 270 07:55 27.05.2022
1882 Clouds 23 1001 45 10000 4.12 290 05:47 27.05.2022
1883 Clouds 20 1001 54 10000 3.6 320 02:47 27.05.2022
1884 Clear 17 1001 73 10000 3.09 280 00:29 27.05.2022
1885 Clear 16 1000 80 10000 2.57 230 22:43 26.05.2022
1886 Clear 16 1000 77 10000 3.09 280 21:40 26.05.2022
1887 Clouds 16 1000 75 10000 3.09 250 20:53 26.05.2022
1888 Clouds 16 1000 72 10000 5.14 230 19:24 26.05.2022
1889 Clouds 17 1000 72 10000 3.6 230 18:18 26.05.2022
1890 Rain 17 1002 61 10000 5.14 220 16:42 26.05.2022
1891 Clear 17 1002 54 10000 6.69 230 15:46 26.05.2022
1892 Clear 18 1002 49 10000 6.17 220 14:43 26.05.2022
1893 Clear 20 1002 33 10000 8.23 230 12:37 26.05.2022
1894 Clear 21 1002 29 10000 8.23 230 11:23 26.05.2022
1895 Clear 22 1003 26 10000 7.72 240 09:44 26.05.2022
1896 Clear 22 1003 26 10000 7.72 240 09:26 26.05.2022
1897 Clear 23 1004 28 10000 8.23 240 08:30 26.05.2022
1898 Clouds 21 1006 40 10000 4.63 250 04:41 26.05.2022
1899 Clouds 15 1006 82 10000 2.06 190 00:38 26.05.2022
1900 Clouds 12 1006 94 10000 1.03 230 23:40 25.05.2022
1901 Clear 13 1005 91 10000 1.54 210 21:56 25.05.2022
1902 Clear 13 1005 91 10000 1.54 210 21:31 25.05.2022
1903 Clear 14 1006 85 10000 2.06 240 20:35 25.05.2022
1904 Clouds 14 1006 88 10000 3.09 270 19:21 25.05.2022
1905 Mist 16 1006 85 10000 4.12 280 17:40 25.05.2022
1906 Clouds 16 1006 94 10000 3.09 270 16:37 25.05.2022
1907 Rain 17 1006 88 5000 7.2 270 15:54 25.05.2022
1908 Mist 19 1006 83 4500 5.14 220 14:51 25.05.2022
1909 Mist 18 1006 83 4500 5.14 220 14:32 25.05.2022
1910 Rain 19 1006 78 10000 5.66 210 13:42 25.05.2022
1911 Rain 20 1006 62 10000 4.76 251 12:37 25.05.2022
1912 Rain 23 1007 51 10000 3.6 270 10:43 25.05.2022
1913 Clear 24 1007 49 10000 4.12 250 09:54 25.05.2022
1914 Clouds 25 1007 30 10000 5.18 258 08:23 25.05.2022
1915 Rain 26 1008 30 10000 5.4 259 07:22 25.05.2022
1916 Clear 24 1011 53 10000 2.57 310 03:22 25.05.2022
1917 Clouds 15 1012 83 6000 0.51 260 23:56 24.05.2022
1918 Clouds 14 1012 94 6000 0.51 260 23:25 24.05.2022
1919 Mist 15 1011 94 3500 1.03 350 22:19 24.05.2022
1920 Mist 15 1011 83 3500 1.54 210 21:39 24.05.2022
1921 Mist 16 1011 94 3500 1.03 70 21:20 24.05.2022
1922 Mist 16 1012 78 5000 2.06 300 19:45 24.05.2022
1923 Clouds 16 1012 81 6000 1.03 300 18:53 24.05.2022
1924 Clear 18 1013 69 10000 1.54 320 16:42 24.05.2022
1925 Clear 17 1013 88 10000 1.54 320 16:22 24.05.2022
1926 Clear 20 1013 59 10000 2.57 290 14:56 24.05.2022
1927 Clear 19 1013 72 10000 2.57 290 14:20 24.05.2022
1928 Clear 24 1012 42 10000 4.63 280 12:49 24.05.2022
1929 Clear 28 1012 33 10000 6.17 270 10:46 24.05.2022
1930 Clear 29 1012 28 10000 4.63 280 09:43 24.05.2022
1931 Clear 29 1013 28 10000 4.63 260 08:49 24.05.2022
1932 Clear 29 1014 32 10000 3.09 300 06:56 24.05.2022
1933 Clear 25 1016 44 10000 2.06 350 03:48 24.05.2022
1934 Haze 20 1016 68 6000 2.57 190 01:51 24.05.2022
1935 Clear 20 1016 68 6000 2.57 190 01:19 24.05.2022
1936 Mist 14 1015 88 3000 2.57 140 22:51 23.05.2022
1937 Mist 14 1015 88 3000 2.57 140 21:55 23.05.2022
1938 Mist 14 1015 88 3000 2.57 140 21:29 23.05.2022
1939 Mist 15 1015 88 4000 2.57 150 20:29 23.05.2022
1940 Mist 16 1015 86 4500 1.54 160 19:31 23.05.2022
1941 Mist 16 1015 83 5000 1.03 170 18:57 23.05.2022
1942 Mist 16 1015 83 5000 1.03 170 18:29 23.05.2022
1943 Clouds 16 1015 88 6000 1.03 320 17:20 23.05.2022
1944 Clouds 20 1014 62 9000 3.09 290 14:52 23.05.2022
1945 Clear 24 1012 52 10000 3.09 230 12:56 23.05.2022
1946 Clouds 26 1012 52 8000 3.6 290 11:31 23.05.2022
1947 Haze 29 1011 39 8000 4.63 240 09:50 23.05.2022
1948 Haze 29 1011 39 8000 4.63 240 09:28 23.05.2022
1949 Clouds 31 1011 36 10000 4.98 254 08:20 23.05.2022
1950 Haze 28 1011 44 5000 4.12 310 06:45 23.05.2022
1951 Mist 27 1012 48 5000 2.06 180 05:25 23.05.2022
1952 Mist 21 1012 66 3000 1.54 150 02:23 23.05.2022
1953 Mist 19 1012 75 3000 2.57 140 01:37 23.05.2022
1954 Mist 18 1011 82 3000 2.57 170 00:20 23.05.2022
1955 Mist 17 1010 88 2500 2.06 200 22:36 22.05.2022
1956 Mist 17 1010 82 3000 1.54 180 21:55 22.05.2022
1957 Mist 16 1010 85 3000 2.57 150 20:54 22.05.2022
1958 Mist 16 1010 85 3000 2.57 150 20:31 22.05.2022
1959 Mist 17 1010 85 3500 2.57 160 19:56 22.05.2022
1960 Mist 17 1010 88 4000 1.54 180 18:55 22.05.2022
1961 Mist 17 1010 88 4000 1.54 180 18:25 22.05.2022
1962 Mist 17 1010 85 6000 1.03 230 17:33 22.05.2022
1963 Mist 17 1009 83 7000 1.03 230 16:31 22.05.2022
1964 Clear 18 1008 81 9000 1.03 280 14:48 22.05.2022
1965 Clear 20 1007 70 10000 1.54 260 13:48 22.05.2022
1966 Clear 22 1007 62 10000 3.09 220 12:52 22.05.2022
1967 Clear 23 1006 57 10000 3.09 280 11:44 22.05.2022
1968 Clear 25 1006 50 10000 3.6 210 09:45 22.05.2022
1969 Clear 25 1007 52 10000 3.6 270 08:37 22.05.2022
1970 Clear 23 1007 56 10000 4.63 240 07:22 22.05.2022
1971 Haze 23 1008 55 10000 4.12 240 05:44 22.05.2022
1972 Haze 18 1009 70 8000 2.06 200 02:23 22.05.2022
1973 Mist 16 1009 82 6000 3.6 200 00:43 22.05.2022
1974 Mist 16 1008 85 4500 2.57 200 23:55 21.05.2022
1975 Mist 15 1008 88 4500 2.57 200 23:20 21.05.2022
1976 Mist 15 1008 82 4500 1.54 320 21:43 21.05.2022
1977 Mist 15 1008 82 4500 1.54 320 21:23 21.05.2022
1978 Mist 15 1008 82 4500 1.54 300 20:24 21.05.2022
1979 Mist 15 1008 82 6000 2.57 280 19:30 21.05.2022
1980 Clouds 16 1009 82 7000 3.6 210 17:51 21.05.2022
1981 Clouds 16 1009 82 9000 4.12 200 16:43 21.05.2022
1982 Clouds 17 1008 77 10000 3.09 230 14:37 21.05.2022
1983 Clouds 18 1008 73 10000 3.09 290 13:42 21.05.2022
1984 Clear 20 1008 66 10000 4.63 310 12:50 21.05.2022
1985 Clear 20 1008 66 10000 4.63 310 12:25 21.05.2022
1986 Clear 23 1008 54 10000 5.14 300 10:24 21.05.2022
1987 Clear 24 1008 50 10000 4.12 250 09:43 21.05.2022
1988 Clear 25 1008 46 10000 5.14 240 08:57 21.05.2022
1989 Clear 25 1009 47 10000 4.63 240 07:53 21.05.2022
1990 Clouds 21 1011 58 10000 3.6 230 03:58 21.05.2022
1991 Mist 16 1011 91 4000 1.54 280 23:54 20.05.2022
1992 Mist 15 1011 91 3500 1.03 170 22:57 20.05.2022
1993 Mist 15 1011 91 3500 1.03 170 22:23 20.05.2022
1994 Mist 15 1010 94 4000 1.03 200 21:41 20.05.2022
1995 Mist 16 1011 88 4500 0.51 30 20:54 20.05.2022
1996 Clouds 17 1012 82 6000 1.03 360 19:58 20.05.2022
1997 Clouds 17 1012 82 6000 1.03 360 19:26 20.05.2022
1998 Clouds 17 1012 82 6000 1.54 280 18:44 20.05.2022
1999 Clouds 17 1013 70 9000 3.09 290 16:54 20.05.2022
2000 Clouds 17 1012 61 10000 1.11 259 16:19 20.05.2022
2001 Clear 18 1013 64 10000 2.06 270 15:44 20.05.2022
2002 Clear 18 1012 62 10000 2.57 260 14:30 20.05.2022
2003 Clear 20 1012 56 10000 3.09 260 13:54 20.05.2022
2004 Clear 23 1011 44 10000 3.6 270 11:33 20.05.2022
2005 Clear 24 1012 38 10000 3.6 250 09:51 20.05.2022
2006 Clear 25 1012 32 10000 4.12 310 08:43 20.05.2022
2007 Clear 25 1014 40 10000 5.66 250 06:47 20.05.2022
2008 Clear 24 1014 43 10000 5.66 250 06:24 20.05.2022
2009 Clear 23 1014 42 10000 3.09 220 04:31 20.05.2022
2010 Clear 16 1016 59 10000 3.09 140 00:43 20.05.2022
2011 Clear 13 1015 69 10000 2.57 150 22:46 19.05.2022
2012 Clear 15 1015 65 10000 2.06 90 21:59 19.05.2022
2013 Clear 15 1015 65 10000 2.06 90 21:40 19.05.2022
2014 Clear 15 1015 65 10000 2.06 90 21:22 19.05.2022
2015 Clear 15 1016 65 10000 1.54 170 20:25 19.05.2022
2016 Clear 15 1016 65 10000 1.03 170 19:34 19.05.2022
2017 Clear 17 1016 56 10000 2.06 240 17:59 19.05.2022
2018 Rain 18 1017 50 10000 3.6 200 16:31 19.05.2022
2019 Clear 19 1016 43 10000 2.57 230 14:52 19.05.2022
2020 Clear 18 1016 48 10000 2.06 200 14:23 19.05.2022
2021 Clear 20 1015 40 10000 4.63 220 12:35 19.05.2022
2022 Clear 21 1015 49 10000 5.66 210 11:25 19.05.2022
2023 Clear 23 1016 44 10000 6.17 220 08:59 19.05.2022
2024 Clear 23 1016 41 10000 6.17 230 07:48 19.05.2022
2025 Clear 23 1017 39 10000 4.63 210 04:44 19.05.2022
2026 Clear 20 1016 49 10000 4.63 170 01:58 19.05.2022
2027 Clear 15 1016 70 10000 3.09 130 23:53 18.05.2022
2028 Clear 15 1016 70 10000 1.54 170 22:46 18.05.2022
2029 Clear 15 1016 70 10000 1.54 170 22:46 18.05.2022
2030 Clear 16 1016 68 10000 3.09 200 21:47 18.05.2022
2031 Clear 16 1016 68 10000 3.09 200 21:25 18.05.2022
2032 Clear 15 1016 72 10000 3.09 190 20:24 18.05.2022
2033 Clear 16 1016 68 10000 3.09 190 19:37 18.05.2022
2034 Clear 17 1016 67 10000 2.57 170 18:21 18.05.2022
2035 Clear 18 1017 58 10000 3.09 240 17:41 18.05.2022
2036 Clear 18 1017 63 10000 2.57 200 17:23 18.05.2022
2037 Clear 18 1017 63 10000 3.6 220 16:23 18.05.2022
2038 Clear 20 1016 49 10000 3.6 230 15:39 18.05.2022
2039 Clear 20 1016 46 10000 4.63 230 14:34 18.05.2022
2040 Clear 21 1014 46 10000 5.14 220 13:20 18.05.2022
2041 Clear 22 1014 41 10000 5.66 220 12:39 18.05.2022
2042 Clear 24 1014 38 10000 6.17 220 11:34 18.05.2022
2043 Clear 24 1014 40 10000 7.2 230 10:52 18.05.2022
2044 Clear 24 1014 40 10000 6.69 240 08:29 18.05.2022
2045 Clear 25 1015 41 10000 4.63 200 07:28 18.05.2022
2046 Clear 19 1017 62 10000 4.12 200 04:33 18.05.2022
2047 Mist 18 1016 65 7000 3.6 160 00:52 18.05.2022
2048 Mist 18 1016 65 7000 3.6 160 00:52 18.05.2022
2049 Clouds 18 1016 59 7000 3.6 160 00:18 18.05.2022
2050 Mist 14 1015 82 3500 3.6 150 21:24 17.05.2022
2051 Mist 14 1015 85 4000 3.6 130 20:57 17.05.2022
2052 Mist 15 1015 80 4000 1.54 190 19:49 17.05.2022
2053 Mist 15 1015 80 4000 1.54 190 19:26 17.05.2022
2054 Mist 16 1015 75 4500 2.06 180 17:49 17.05.2022
2055 Mist 16 1015 72 5000 1.54 240 16:58 17.05.2022
2056 Mist 16 1015 72 5000 1.54 240 16:29 17.05.2022
2057 Mist 16 1014 77 5000 2.06 280 15:18 17.05.2022
2058 Clear 18 1014 68 6000 2.06 310 14:29 17.05.2022
2059 Clear 20 1013 57 7000 2.57 280 13:30 17.05.2022
2060 Clear 25 1012 40 10000 6.17 230 10:50 17.05.2022
2061 Clear 26 1012 35 10000 5.14 250 08:55 17.05.2022
2062 Clear 26 1012 36 10000 4.63 210 07:57 17.05.2022
2063 Clear 25 1012 37 10000 4.63 200 06:27 17.05.2022
2064 Clear 17 1013 59 9000 3.6 150 01:59 17.05.2022
2065 Clear 12 1012 85 6000 3.6 170 23:59 16.05.2022
2066 Clouds 11 1012 82 6000 4.63 140 22:40 16.05.2022
2067 Clouds 11 1012 85 8000 3.6 150 21:33 16.05.2022
2068 Clouds 12 1012 82 8000 2.57 170 20:44 16.05.2022
2069 Clear 13 1012 77 9000 2.57 170 19:19 16.05.2022
2070 Clouds 14 1012 75 9000 3.09 210 17:34 16.05.2022
2071 Clear 15 1012 70 10000 3.6 210 15:36 16.05.2022
2072 Clear 18 1011 51 10000 5.14 240 13:48 16.05.2022
2073 Clear 19 1010 47 10000 4.12 220 12:44 16.05.2022
2074 Clear 22 1009 37 10000 6.69 240 10:47 16.05.2022
2075 Clear 22 1010 37 10000 7.2 250 08:37 16.05.2022
2076 Clear 22 1011 33 10000 5.66 240 06:30 16.05.2022
2077 Clear 15 1013 50 10000 3.6 190 01:44 16.05.2022
2078 Clear 7 1012 82 10000 3.6 140 22:52 15.05.2022
2079 Clear 7 1012 87 10000 3.6 140 22:25 15.05.2022
2080 Clear 8 1013 74 10000 2.57 160 21:38 15.05.2022
2081 Clear 9 1013 65 10000 4.63 140 20:53 15.05.2022
2082 Clear 11 1014 58 10000 1.03 350 18:52 15.05.2022
2083 Clear 11 1014 54 10000 1.03 340 17:29 15.05.2022
2084 Clear 15 1013 36 10000 3.6 250 14:58 15.05.2022
2085 Clear 15 1012 35 10000 5.66 270 13:46 15.05.2022
2086 Clear 16 1011 33 10000 7.2 270 12:19 15.05.2022
2087 Clear 19 1012 23 10000 8.75 280 11:27 15.05.2022
2088 Clear 20 1012 23 10000 8.75 270 09:57 15.05.2022
2089 Clear 21 1013 28 10000 6.69 270 07:24 15.05.2022
2090 Clouds 21 1014 20 10000 5.14 310 06:56 15.05.2022
2091 Clear 18 1016 30 10000 3.6 340 03:38 15.05.2022
2092 Clear 11 1016 62 10000 0.51 310 00:26 15.05.2022
2093 Clear 8 1016 76 10000 1.03 290 23:37 14.05.2022
2094 Clear 8 1015 74 10000 1.54 150 21:51 14.05.2022
2095 Clear 8 1015 74 10000 1.54 150 21:26 14.05.2022
2096 Clear 9 1016 67 10000 1.03 300 20:27 14.05.2022
2097 Clear 10 1015 57 10000 0.51 270 19:21 14.05.2022
2098 Clear 11 1016 46 10000 2.06 330 18:58 14.05.2022
2099 Clear 13 1016 43 10000 3.09 340 17:47 14.05.2022
2100 Clear 14 1015 42 10000 2.06 270 15:58 14.05.2022
2101 Clear 14 1015 45 10000 3.09 270 14:39 14.05.2022
2102 Clear 14 1015 51 10000 3.09 270 14:18 14.05.2022
2103 Clear 17 1013 34 10000 7.72 260 11:46 14.05.2022
2104 Clear 17 1012 34 10000 9.26 270 10:44 14.05.2022
2105 Clear 17 1012 34 10000 9.26 270 10:18 14.05.2022
2106 Clear 19 1011 27 10000 7.72 270 09:23 14.05.2022
2107 Clear 19 1012 32 10000 7.72 270 07:32 14.05.2022
2108 Clear 18 1012 33 10000 5.66 260 04:35 14.05.2022
2109 Clear 13 1011 60 10000 1.54 310 00:43 14.05.2022
2110 Clear 10 1010 66 10000 0.51 230 23:25 13.05.2022
2111 Clear 10 1010 71 10000 2.06 300 22:55 13.05.2022
2112 Clear 9 1010 71 10000 2.06 300 22:21 13.05.2022
2113 Clear 12 1010 60 10000 2.06 260 20:59 13.05.2022
2114 Clear 12 1010 60 10000 2.06 260 20:37 13.05.2022
2115 Clear 11 1010 66 10000 2.06 260 20:19 13.05.2022
2116 Clear 12 1010 66 10000 3.09 290 19:18 13.05.2022
2117 Clear 13 1010 66 10000 2.06 290 17:42 13.05.2022
2118 Clear 14 1010 62 10000 2.06 290 17:22 13.05.2022
2119 Clear 15 1009 55 10000 2.57 330 15:46 13.05.2022
2120 Clear 16 1008 48 10000 4.12 10 14:38 13.05.2022
2121 Clear 19 1007 33 10000 6.69 360 12:51 13.05.2022
2122 Clear 21 1006 30 10000 7.72 330 11:54 13.05.2022
2123 Clear 23 1005 34 10000 4.63 270 09:54 13.05.2022
2124 Clear 23 1005 34 10000 4.63 270 09:26 13.05.2022
2125 Clear 24 1006 31 10000 3.09 350 07:50 13.05.2022
2126 Clear 24 1006 32 10000 4.12 330 06:49 13.05.2022
2127 Clear 22 1008 38 10000 2.06 300 04:54 13.05.2022
2128 Clear 16 1009 51 10000 2.57 330 00:42 13.05.2022
2129 Clear 15 1009 53 10000 1.03 360 22:49 12.05.2022
2130 Clear 15 1009 53 10000 1.03 360 22:30 12.05.2022
2131 Clear 16 1009 53 10000 2.57 340 20:49 12.05.2022
2132 Clear 17 1009 51 10000 3.09 330 19:26 12.05.2022
2133 Clear 17 1010 55 10000 5.14 330 18:25 12.05.2022
2134 Clear 18 1009 54 10000 3.6 310 16:39 12.05.2022
2135 Clear 19 1010 49 10000 2.06 290 14:52 12.05.2022
2136 Clear 21 1009 43 10000 3.09 300 13:48 12.05.2022
2137 Clear 24 1009 35 10000 4.12 280 11:31 12.05.2022
2138 Clear 28 1008 27 10000 3.95 270 10:22 12.05.2022
2139 Clear 26 1009 32 10000 3.09 330 08:52 12.05.2022
2140 Clear 27 1010 34 10000 2.57 300 07:57 12.05.2022
2141 Clear 25 1011 34 10000 2.57 10 06:55 12.05.2022
2142 Clear 21 1013 47 10000 2.06 20 03:31 12.05.2022
2143 Clear 15 1014 77 10000 1.03 310 00:50 12.05.2022
2144 Clear 12 1014 82 10000 1.03 320 22:53 11.05.2022
2145 Clear 13 1014 80 10000 2.06 340 21:59 11.05.2022
2146 Clear 13 1014 80 10000 2.06 340 21:24 11.05.2022
2147 Clear 14 1014 78 10000 2.57 310 19:42 11.05.2022
2148 Clear 15 1015 71 10000 1.03 270 17:24 11.05.2022
2149 Clear 16 1016 64 10000 1.54 300 15:59 11.05.2022
2150 Clear 17 1015 57 10000 1.54 20 14:45 11.05.2022
2151 Clear 17 1015 57 10000 1.54 20 14:24 11.05.2022
2152 Clear 19 1014 52 10000 3.09 280 12:23 11.05.2022
2153 Clear 21 1014 46 10000 4.12 290 11:47 11.05.2022
2154 Clear 23 1014 39 10000 5.14 280 09:29 11.05.2022
2155 Clear 23 1015 34 10000 3.6 310 06:24 11.05.2022
2156 Clear 19 1016 48 10000 1.54 220 01:28 11.05.2022
2157 Clear 15 1015 61 10000 2.06 290 22:53 10.05.2022
2158 Clear 15 1015 67 10000 2.06 290 22:19 10.05.2022
2159 Clear 16 1015 61 10000 1.03 60 20:59 10.05.2022
2160 Clear 15 1015 77 10000 1.03 60 20:21 10.05.2022
2161 Clear 17 1015 45 10000 1.54 300 18:35 10.05.2022
2162 Clouds 17 1015 48 10000 1.03 320 17:37 10.05.2022
2163 Rain 17 1015 41 10000 1.54 280 15:43 10.05.2022
2164 Clear 21 1014 23 10000 2.57 280 12:48 10.05.2022
2165 Clear 22 1013 21 10000 6.17 290 11:51 10.05.2022
2166 Clear 21 1013 26 10000 6.17 290 11:21 10.05.2022
2167 Clear 24 1013 19 10000 5.14 280 10:54 10.05.2022
2168 Clear 25 1014 15 10000 2.06 240 09:27 10.05.2022
2169 Clear 24 1015 14 10000 4.12 110 07:32 10.05.2022
2170 Clear 23 1017 23 10000 3.09 90 04:34 10.05.2022
2171 Clear 16 1018 46 10000 2.57 210 01:34 10.05.2022
2172 Clear 11 1018 80 10000 0.51 240 23:26 09.05.2022
2173 Clear 11 1018 79 10000 1.03 50 21:58 09.05.2022
2174 Clear 11 1018 87 10000 1.03 50 21:18 09.05.2022
2175 Clear 11 1017 82 10000 1.54 170 19:37 09.05.2022
2176 Clear 13 1018 72 10000 1.54 350 17:56 09.05.2022
2177 Clear 14 1018 77 10000 1.03 240 16:38 09.05.2022
2178 Clear 15 1018 61 10000 1.03 350 15:52 09.05.2022
2179 Clear 14 1018 67 10000 1.03 350 15:27 09.05.2022
2180 Clear 16 1018 56 10000 2.57 330 14:32 09.05.2022
2181 Clear 18 1017 50 10000 3.09 280 13:50 09.05.2022
2182 Clear 20 1016 45 10000 3.09 290 12:26 09.05.2022
2183 Clear 24 1016 31 10000 3.09 110 11:37 09.05.2022
2184 Clear 24 1016 26 10000 4.12 130 10:43 09.05.2022
2185 Clear 24 1016 28 10000 5.14 120 08:51 09.05.2022
2186 Clear 23 1017 30 10000 5.66 120 07:54 09.05.2022
2187 Clear 17 1020 50 10000 1.54 50 03:36 09.05.2022
2188 Clear 10 1019 93 10000 2.06 340 23:37 08.05.2022
2189 Clear 11 1019 87 10000 1.54 360 22:56 08.05.2022
2190 Clear 11 1019 84 10000 1.54 360 21:55 08.05.2022
2191 Clear 11 1019 82 10000 2.57 360 20:35 08.05.2022
2192 Clear 11 1019 82 10000 4.12 160 19:45 08.05.2022
2193 Clear 11 1018 79 10000 4.12 130 18:54 08.05.2022
2194 Clear 11 1018 81 10000 4.12 120 17:59 08.05.2022
2195 Rain 11 1019 84 10000 5.14 100 16:44 08.05.2022
2196 Rain 11 1019 87 10000 2.06 30 15:39 08.05.2022
2197 Rain 11 1019 84 10000 3.6 40 14:45 08.05.2022
2198 Rain 15 1018 51 10000 5.66 20 12:27 08.05.2022
2199 Rain 17 1018 38 10000 2.57 30 10:32 08.05.2022
2200 Rain 17 1018 36 10000 3.09 70 09:57 08.05.2022
2201 Rain 17 1018 35 10000 2.57 70 08:56 08.05.2022
2202 Clear 17 1020 34 10000 2.06 110 06:58 08.05.2022
2203 Clear 16 1020 34 10000 6.17 120 03:35 08.05.2022
2204 Clear 16 1020 37 10000 7.2 130 02:45 08.05.2022
2205 Rain 15 1020 37 10000 3.6 100 00:24 08.05.2022
2206 Rain 15 1020 41 10000 3.09 110 23:49 07.05.2022
2207 Clear 15 1019 37 10000 3.6 110 22:46 07.05.2022
2208 Clear 15 1019 39 10000 3.6 110 21:58 07.05.2022
2209 Clear 15 1019 39 10000 3.6 110 21:33 07.05.2022
2210 Clear 16 1019 41 10000 5.14 120 20:28 07.05.2022
2211 Clear 16 1019 41 10000 4.63 90 19:22 07.05.2022
2212 Clear 14 1019 48 10000 2.06 320 17:33 07.05.2022
2213 Clear 15 1019 36 10000 1.03 160 15:41 07.05.2022
2214 Clear 19 1017 23 10000 4.12 300 12:50 07.05.2022
2215 Clear 22 1016 17 10000 6.17 290 10:33 07.05.2022
2216 Clear 23 1016 17 10000 7.2 310 08:52 07.05.2022
2217 Clear 23 1016 20 10000 7.72 350 07:43 07.05.2022
2218 Clear 23 1017 21 10000 8.75 340 06:43 07.05.2022
2219 Clear 19 1018 52 10000 5.14 330 04:24 07.05.2022
2220 Rain 15 1017 88 10000 4.63 300 00:50 07.05.2022
2221 Mist 16 1016 85 8000 2.57 240 22:55 06.05.2022
2222 Clouds 16 1016 88 8000 2.57 240 22:21 06.05.2022
2223 Clouds 16 1016 88 6000 3.09 230 21:36 06.05.2022
2224 Mist 15 1016 94 4500 0.51 300 20:18 06.05.2022
2225 Mist 16 1016 88 3000 2.06 280 19:28 06.05.2022
2226 Mist 15 1016 94 2500 3.6 270 18:49 06.05.2022
2227 Clouds 17 1016 85 7000 2.06 270 17:38 06.05.2022
2228 Clouds 17 1016 86 7000 2.06 280 15:55 06.05.2022
2229 Clouds 17 1016 86 7000 2.06 280 15:32 06.05.2022
2230 Clouds 17 1016 88 6000 4.12 290 14:22 06.05.2022
2231 Clear 21 1016 63 10000 5.66 280 12:52 06.05.2022
2232 Clear 22 1015 56 10000 5.66 290 11:58 06.05.2022
2233 Clear 21 1015 68 10000 5.66 290 11:27 06.05.2022
2234 Clouds 25 1015 38 10000 5.14 290 09:48 06.05.2022
2235 Clouds 24 1015 43 10000 5.14 290 09:18 06.05.2022
2236 Clouds 25 1016 39 10000 4.63 290 07:55 06.05.2022
2237 Clouds 24 1016 41 10000 4.63 260 06:27 06.05.2022
2238 Clouds 22 1017 54 10000 2.57 200 03:44 06.05.2022
2239 Clouds 19 1017 57 10000 2.57 160 02:38 06.05.2022
2240 Clear 12 1017 94 8000 1.03 330 23:24 05.05.2022
2241 Clear 11 1017 90 7000 1.54 190 21:50 05.05.2022
2242 Clear 12 1017 88 10000 1.03 330 20:37 05.05.2022
2243 Clear 13 1018 83 10000 1.54 170 18:56 05.05.2022
2244 Clear 14 1018 80 10000 1.03 200 16:42 05.05.2022
2245 Clear 16 1018 68 10000 0.51 10 15:31 05.05.2022
2246 Clear 18 1017 59 10000 2.57 290 13:30 05.05.2022
2247 Clear 20 1017 51 10000 3.09 260 12:56 05.05.2022
2248 Clear 22 1017 45 10000 4.63 270 11:35 05.05.2022
2249 Clear 24 1017 33 10000 4.63 260 09:41 05.05.2022
2250 Clear 24 1017 33 10000 4.63 260 09:41 05.05.2022
2251 Clear 24 1018 31 10000 4.63 250 08:40 05.05.2022
2252 Clear 23 1020 34 10000 4.12 250 06:24 05.05.2022
2253 Clear 18 1020 36 10000 3.09 200 02:25 05.05.2022
2254 Clear 16 1020 40 10000 3.09 160 01:41 05.05.2022
2255 Clear 13 1020 60 10000 1.54 190 00:43 05.05.2022
2256 Clear 9 1019 61 10000 2.57 130 22:57 04.05.2022
2257 Clear 9 1019 66 10000 3.09 130 21:59 04.05.2022
2258 Clear 9 1019 66 10000 3.09 130 21:34 04.05.2022
2259 Clear 11 1019 60 10000 3.09 140 20:42 04.05.2022
2260 Clear 11 1019 60 10000 3.09 140 20:18 04.05.2022
2261 Clear 12 1020 56 10000 2.57 130 19:35 04.05.2022
2262 Clear 13 1019 52 10000 2.06 170 18:23 04.05.2022
2263 Clear 14 1020 53 10000 1.54 190 17:59 04.05.2022
2264 Clear 14 1020 54 10000 1.54 170 16:30 04.05.2022
2265 Clear 15 1019 51 10000 3.09 160 15:32 04.05.2022
2266 Clear 17 1019 48 10000 2.06 200 14:38 04.05.2022
2267 Clear 17 1019 48 10000 2.06 200 14:18 04.05.2022
2268 Clear 20 1017 38 10000 3.6 220 12:34 04.05.2022
2269 Clear 21 1018 35 10000 4.63 240 11:25 04.05.2022
2270 Clear 24 1017 30 10000 6.17 240 09:50 04.05.2022
2271 Clear 24 1018 31 10000 6.69 230 08:56 04.05.2022
2272 Clear 24 1018 30 10000 6.17 240 07:33 04.05.2022
2273 Clear 19 1019 28 10000 4.12 180 03:50 04.05.2022
2274 Clear 17 1020 32 10000 3.09 170 02:33 04.05.2022
2275 Clear 8 1019 64 10000 2.57 160 22:59 03.05.2022
2276 Clear 8 1019 61 10000 2.06 160 21:47 03.05.2022
2277 Clear 8 1019 61 10000 2.06 160 21:21 03.05.2022
2278 Clear 8 1019 61 10000 2.06 160 21:21 03.05.2022
2279 Clear 9 1019 64 10000 1.54 170 20:38 03.05.2022
2280 Clear 9 1019 62 10000 4.12 150 18:55 03.05.2022
2281 Clear 9 1019 62 10000 4.12 150 18:37 03.05.2022
2282 Clear 9 1020 61 10000 3.09 140 17:20 03.05.2022
2283 Clear 11 1020 52 10000 0.51 160 15:48 03.05.2022
2284 Clear 12 1019 47 10000 0.51 260 14:22 03.05.2022
2285 Clear 16 1019 33 10000 4.12 240 12:31 03.05.2022
2286 Clear 18 1019 29 10000 4.63 260 11:23 03.05.2022
2287 Clear 20 1019 25 10000 5.66 240 09:58 03.05.2022
2288 Clear 20 1019 22 10000 4.63 250 07:59 03.05.2022
2289 Clear 19 1019 26 10000 5.14 220 06:45 03.05.2022
2290 Clear 12 1019 67 10000 2.06 180 01:53 03.05.2022
2291 Clear 6 1018 87 10000 2.57 180 22:47 02.05.2022
2292 Clear 6 1018 87 10000 2.57 180 22:25 02.05.2022
2293 Clear 7 1018 79 10000 2.06 180 21:26 02.05.2022
2294 Clear 8 1017 71 10000 1.54 200 18:57 02.05.2022
2295 Clear 8 1017 71 10000 1.54 200 18:25 02.05.2022
2296 Clear 9 1017 67 10000 1.54 230 17:38 02.05.2022
2297 Clear 10 1016 62 10000 1.03 320 16:25 02.05.2022
2298 Clear 12 1016 54 10000 1.03 320 15:40 02.05.2022
2299 Clear 13 1015 62 10000 3.6 290 14:19 02.05.2022
2300 Clear 15 1014 36 10000 4.63 280 12:45 02.05.2022
2301 Clear 17 1013 31 10000 5.66 270 11:20 02.05.2022
2302 Clear 18 1012 28 10000 6.17 270 09:31 02.05.2022
2303 Clear 18 1013 26 10000 3.6 310 07:57 02.05.2022
2304 Clouds 18 1013 29 10000 4.63 330 05:37 02.05.2022
2305 Mist 9 1013 90 2500 0.51 130 00:26 02.05.2022
2306 Mist 7 1013 90 3500 1.54 200 23:52 01.05.2022
2307 Fog 6 1012 93 3500 2.06 180 22:45 01.05.2022
2308 Mist 7 1012 90 5000 1.03 170 21:30 01.05.2022
2309 Mist 7 1012 90 5000 0.51 120 20:19 01.05.2022
2310 Clear 8 1013 90 6000 0.51 240 19:18 01.05.2022
2311 Clear 9 1013 87 9000 1.03 180 18:46 01.05.2022
2312 Clear 10 1012 79 10000 1.03 230 17:46 01.05.2022
2313 Clear 11 1012 71 10000 1.54 280 16:24 01.05.2022
2314 Clear 12 1012 69 10000 2.57 260 15:43 01.05.2022
2315 Clear 12 1012 62 10000 3.09 260 14:22 01.05.2022
2316 Clear 15 1011 35 10000 6.69 240 11:41 01.05.2022
2317 Clear 18 1011 27 10000 7.72 240 09:32 01.05.2022
2318 Clear 18 1012 27 10000 8.23 230 08:47 01.05.2022
2319 Clear 17 1014 29 10000 6.69 240 04:31 01.05.2022
2320 Mist 9 1015 78 10000 1.03 170 00:34 01.05.2022
2321 Mist 5 1015 87 10000 1.54 200 21:51 30.04.2022
2322 Clear 5 1015 87 10000 0.51 60 21:19 30.04.2022
2323 Mist 7 1016 81 10000 1.54 210 19:45 30.04.2022
2324 Mist 8 1016 81 10000 1.54 170 18:28 30.04.2022
2325 Mist 10 1017 78 6000 2.57 280 16:54 30.04.2022
2326 Mist 11 1017 79 3500 3.09 260 15:48 30.04.2022
2327 Mist 11 1016 74 5000 3.09 260 14:53 30.04.2022
2328 Clouds 11 1015 82 6000 4.63 270 13:20 30.04.2022
2329 Clear 14 1015 63 10000 4.12 260 11:34 30.04.2022
2330 Rain 14 1015 59 10000 3.6 260 10:49 30.04.2022
2331 Clear 15 1016 59 10000 5.14 290 09:48 30.04.2022
2332 Clouds 17 1017 50 10000 5.66 240 06:48 30.04.2022
2333 Clear 13 1019 56 10000 2.57 190 02:55 30.04.2022
2334 Clear 11 1020 60 10000 2.57 180 23:37 29.04.2022
2335 Clear 11 1019 64 10000 3.09 140 22:31 29.04.2022
2336 Clear 11 1020 60 10000 2.57 110 21:53 29.04.2022
2337 Clear 11 1020 62 10000 4.63 120 20:49 29.04.2022
2338 Clear 11 1020 62 10000 3.09 110 19:47 29.04.2022
2339 Clear 11 1020 60 10000 2.57 80 17:59 29.04.2022
2340 Clear 11 1020 66 10000 2.57 80 17:23 29.04.2022
2341 Clear 12 1019 60 10000 2.06 350 15:50 29.04.2022
2342 Clear 13 1019 62 10000 4.12 20 14:22 29.04.2022
2343 Clear 14 1018 58 10000 2.57 50 13:21 29.04.2022
2344 Clouds 15 1017 51 10000 3.09 70 11:49 29.04.2022
2345 Clouds 16 1016 53 10000 4.12 60 08:51 29.04.2022
2346 Clouds 15 1016 55 10000 3.09 70 07:28 29.04.2022
2347 Clouds 15 1016 57 10000 4.12 30 06:45 29.04.2022
2348 Clouds 14 1016 58 10000 5.14 80 04:53 29.04.2022
2349 Rain 11 1015 85 10000 2.57 80 00:45 29.04.2022
2350 Rain 10 1015 90 9000 5.14 90 23:28 28.04.2022
2351 Rain 11 1014 90 8000 3.09 110 22:41 28.04.2022
2352 Rain 11 1014 94 7000 2.06 40 21:47 28.04.2022
2353 Rain 11 1014 94 7000 2.06 40 21:19 28.04.2022
2354 Rain 12 1014 91 10000 2.57 20 20:25 28.04.2022
2355 Rain 12 1015 88 7000 3.6 30 19:41 28.04.2022
2356 Rain 13 1015 88 7000 3.6 30 19:22 28.04.2022
2357 Rain 14 1015 75 10000 3.6 20 18:35 28.04.2022
2358 Rain 15 1015 67 10000 5.14 70 17:20 28.04.2022
2359 Clear 17 1014 53 10000 3.09 110 16:40 28.04.2022
2360 Clear 17 1014 51 10000 3.09 110 16:18 28.04.2022
2361 Clear 17 1014 52 10000 4.12 10 15:27 28.04.2022
2362 Clear 17 1014 52 10000 4.12 10 15:27 28.04.2022
2363 Clear 17 1015 42 10000 2.06 320 13:44 28.04.2022
2364 Clear 17 1014 38 10000 3.09 300 12:44 28.04.2022
2365 Clear 18 1015 35 10000 3.09 310 11:56 28.04.2022
2366 Clear 20 1014 33 10000 4.63 270 10:44 28.04.2022
2367 Clear 21 1014 31 10000 5.66 270 09:52 28.04.2022
2368 Clear 23 1014 27 10000 7.2 270 08:30 28.04.2022
2369 Clear 23 1016 21 10000 2.06 360 06:59 28.04.2022
2370 Clear 21 1016 26 10000 2.06 40 05:55 28.04.2022
2371 Clear 21 1016 26 10000 2.06 40 05:37 28.04.2022
2372 Clear 21 1017 32 10000 2.06 200 04:38 28.04.2022
2373 Clear 12 1019 66 10000 1.03 340 00:22 28.04.2022
2374 Clear 10 1018 68 10000 1.54 360 22:38 27.04.2022
2375 Clear 11 1018 62 10000 1.54 340 21:52 27.04.2022
2376 Clear 10 1018 66 10000 2.06 320 20:56 27.04.2022
2377 Clear 10 1018 66 10000 2.06 320 20:35 27.04.2022
2378 Clear 11 1017 66 10000 1.03 330 19:37 27.04.2022
2379 Clear 10 1017 71 10000 0.51 280 18:52 27.04.2022
2380 Clear 10 1017 71 10000 0.51 280 18:22 27.04.2022
2381 Clear 12 1018 57 10000 1.54 200 16:27 27.04.2022
2382 Clear 15 1016 38 10000 2.57 280 14:26 27.04.2022
2383 Clear 21 1014 24 10000 5.14 280 11:45 27.04.2022
2384 Clear 20 1014 30 10000 5.14 280 11:20 27.04.2022
2385 Clear 23 1014 20 10000 4.63 280 08:58 27.04.2022
2386 Clear 22 1015 23 10000 6.17 290 07:18 27.04.2022
2387 Sand 18 1016 23 9000 3.09 10 03:41 27.04.2022
2388 Sand 15 1015 25 10000 3.6 350 01:31 27.04.2022
2389 Sand 13 1014 29 10000 3.09 350 00:36 27.04.2022
2390 Clear 12 1014 31 10000 3.6 360 23:25 26.04.2022
2391 Clear 13 1013 28 10000 4.63 340 22:57 26.04.2022
2392 Clear 13 1013 28 10000 4.63 340 22:38 26.04.2022
2393 Clear 14 1012 28 10000 4.12 320 21:26 26.04.2022
2394 Clear 14 1012 28 10000 4.63 340 20:40 26.04.2022
2395 Clear 15 1011 26 10000 4.63 310 19:48 26.04.2022
2396 Clear 15 1011 26 10000 4.63 310 19:26 26.04.2022
2397 Clear 16 1011 32 10000 5.66 310 18:44 26.04.2022
2398 Clear 17 1010 44 10000 5.14 330 17:50 26.04.2022
2399 Clear 18 1009 51 10000 5.66 340 16:26 26.04.2022
2400 Clear 22 1004 48 10000 3.09 310 13:58 26.04.2022
2401 Clear 22 1004 48 10000 3.09 310 13:29 26.04.2022
2402 Clear 25 1002 41 10000 8.23 310 11:32 26.04.2022
2403 Clear 26 1001 41 10000 6.69 280 10:31 26.04.2022
2404 Clear 28 1000 33 10000 7.72 300 08:47 26.04.2022
2405 Clear 25 1001 45 10000 5.14 320 05:46 26.04.2022
2406 Clear 25 1002 47 10000 3.09 330 04:23 26.04.2022
2407 Clear 17 1002 83 10000 3.6 100 00:53 26.04.2022
2408 Mist 16 1002 88 10000 1.54 100 23:52 25.04.2022
2409 Rain 17 1003 82 10000 3.6 100 22:19 25.04.2022
2410 Rain 16 1004 91 7000 2.57 60 21:33 25.04.2022
2411 Rain 17 1005 85 6000 5.14 120 20:26 25.04.2022
2412 Rain 18 1005 91 3000 1.03 90 18:52 25.04.2022
2413 Rain 19 1006 82 3500 1.54 170 17:41 25.04.2022
2414 Mist 19 1007 85 3000 3.09 190 16:50 25.04.2022
2415 Mist 19 1008 80 3500 1.54 340 15:23 25.04.2022
2416 Mist 19 1009 75 3500 1.03 330 14:34 25.04.2022
2417 Mist 19 1008 82 3500 2.06 320 13:21 25.04.2022
2418 Haze 23 1009 60 8000 1.54 340 10:44 25.04.2022
2419 Haze 23 1009 59 8000 1.54 30 09:42 25.04.2022
2420 Haze 23 1011 60 8000 2.57 50 07:56 25.04.2022
2421 Mist 22 1013 64 5000 2.57 80 05:55 25.04.2022
2422 Mist 17 1014 88 2500 1.03 230 01:30 25.04.2022
2423 Mist 16 1013 94 2000 1.54 20 23:56 24.04.2022
2424 Mist 16 1013 94 2000 1.54 20 23:25 24.04.2022
2425 Drizzle 16 1013 91 1700 0.51 80 22:39 24.04.2022
2426 Mist 16 1013 94 1400 0.51 120 21:56 24.04.2022
2427 Drizzle 15 1013 100 1400 0.51 120 21:22 24.04.2022
2428 Drizzle 16 1013 94 1400 1.54 310 20:46 24.04.2022
2429 Mist 15 1013 100 1400 1.54 310 20:20 24.04.2022
2430 Drizzle 16 1013 88 2800 1.54 160 18:44 24.04.2022
2431 Mist 16 1012 88 3200 2.06 190 17:49 24.04.2022
2432 Mist 16 1012 94 3200 1.54 160 17:21 24.04.2022
2433 Mist 16 1012 88 4000 2.06 170 17:21 24.04.2022
2434 Mist 16 1012 85 4000 2.06 170 16:51 24.04.2022
2435 Mist 16 1012 85 6000 1.54 230 16:25 24.04.2022
2436 Clouds 16 1012 83 9000 2.57 240 15:39 24.04.2022
2437 Clouds 16 1012 85 9000 3.6 220 14:33 24.04.2022
2438 Clouds 16 1012 85 9000 3.6 220 14:33 24.04.2022
2439 Clouds 17 1011 80 8000 4.12 220 13:27 24.04.2022
2440 Clouds 18 1011 76 9000 3.6 290 12:55 24.04.2022
2441 Clear 21 1011 58 10000 4.12 290 11:49 24.04.2022
2442 Clear 22 1010 49 10000 6.17 290 10:47 24.04.2022
2443 Clear 23 1010 47 10000 5.14 310 09:43 24.04.2022
2444 Clouds 24 1010 44 8000 4.12 310 07:42 24.04.2022
2445 Clouds 22 1011 51 8000 2.57 230 05:45 24.04.2022
2446 Mist 15 1012 86 2500 1.54 210 01:58 24.04.2022
2447 Drizzle 14 1012 94 2200 1.54 160 00:45 24.04.2022
2448 Drizzle 14 1012 86 2500 1.54 110 23:46 23.04.2022
2449 Mist 13 1012 94 2500 1.54 110 23:25 23.04.2022
2450 Mist 13 1012 74 5000 1.03 130 21:58 23.04.2022
2451 Mist 13 1012 74 5000 1.03 130 21:36 23.04.2022
2452 Mist 13 1011 71 5000 0.51 140 20:59 23.04.2022
2453 Mist 13 1012 70 5000 1.54 350 19:55 23.04.2022
2454 Mist 13 1012 72 5000 1.54 350 19:20 23.04.2022
2455 Mist 12 1011 67 5000 1.54 180 18:53 23.04.2022
2456 Mist 12 1011 67 5000 1.54 180 18:31 23.04.2022
2457 Mist 12 1011 67 5000 2.06 170 17:44 23.04.2022
2458 Clouds 12 1011 72 6000 1.54 200 16:44 23.04.2022
2459 Clouds 14 1011 66 6000 1.54 190 15:35 23.04.2022
2460 Clear 20 1010 32 10000 2.06 280 12:54 23.04.2022
2461 Clear 23 1009 25 10000 2.57 290 11:24 23.04.2022
2462 Clear 24 1009 17 10000 2.06 90 09:38 23.04.2022
2463 Clear 23 1011 23 10000 3.09 150 07:52 23.04.2022
2464 Mist 16 1015 67 2500 1.54 10 03:56 23.04.2022
2465 Mist 12 1015 88 2000 2.06 340 01:55 23.04.2022
2466 Fog 8 1014 93 1200 1.54 150 23:33 22.04.2022
2467 Fog 8 1013 97 1200 0.51 190 22:28 22.04.2022
2468 Fog 10 1013 88 1500 1.03 280 21:44 22.04.2022
2469 Mist 10 1013 90 2200 0.51 280 20:55 22.04.2022
2470 Mist 10 1013 90 2200 0.51 280 20:28 22.04.2022
2471 Mist 11 1014 93 2500 2.06 340 19:22 22.04.2022
2472 Mist 12 1014 85 3000 2.57 300 18:46 22.04.2022
2473 Mist 12 1013 88 3000 3.09 270 17:50 22.04.2022
2474 Mist 13 1012 85 3000 3.09 250 16:46 22.04.2022
2475 Mist 13 1012 88 3200 4.12 230 15:45 22.04.2022
2476 Clouds 15 1012 81 10000 2.11 217 15:18 22.04.2022
2477 Mist 14 1011 83 3500 3.6 220 13:54 22.04.2022
2478 Mist 14 1010 82 3200 3.6 210 12:59 22.04.2022
2479 Mist 14 1010 82 3200 3.6 210 12:28 22.04.2022
2480 Mist 14 1010 82 4000 4.12 220 11:22 22.04.2022
2481 Mist 15 1010 80 4000 4.12 220 10:51 22.04.2022
2482 Mist 14 1010 82 4000 4.12 220 10:31 22.04.2022
2483 Mist 16 1009 75 5000 6.69 260 09:53 22.04.2022
2484 Mist 16 1009 75 5000 5.66 230 08:51 22.04.2022
2485 Clouds 16 1010 75 7000 5.66 240 07:33 22.04.2022
2486 Clouds 17 1010 61 10000 6.17 220 03:47 22.04.2022
2487 Clear 14 1010 65 10000 5.14 200 00:52 22.04.2022
2488 Clear 14 1010 67 10000 4.63 200 23:25 21.04.2022
2489 Clear 14 1010 65 10000 4.12 190 22:29 21.04.2022
2490 Clear 13 1011 62 10000 3.09 220 20:43 21.04.2022
2491 Clear 13 1011 62 10000 2.57 180 20:24 21.04.2022
2492 Clear 14 1011 58 10000 2.57 190 18:44 21.04.2022
2493 Clear 14 1011 58 10000 2.57 190 18:18 21.04.2022
2494 Clear 15 1011 57 10000 2.57 190 16:44 21.04.2022
2495 Clear 17 1012 64 10000 4.21 208 15:22 21.04.2022
2496 Clouds 15 1011 58 10000 4.12 200 14:49 21.04.2022
2497 Clouds 16 1010 55 10000 4.12 220 13:23 21.04.2022
2498 Clouds 16 1010 59 10000 3.6 190 12:57 21.04.2022
2499 Clear 19 1010 41 10000 8.23 240 10:49 21.04.2022
2500 Clear 22 1010 21 10000 5.14 240 08:56 21.04.2022
2501 Clear 22 1011 22 10000 4.63 200 07:24 21.04.2022
2502 Clear 21 1012 18 10000 4.63 220 05:42 21.04.2022
2503 Clear 18 1013 24 10000 4.12 150 03:30 21.04.2022
2504 Clear 15 1013 41 10000 4.12 160 02:47 21.04.2022
2505 Clouds 9 1013 73 8000 1.03 190 00:45 21.04.2022
2506 Clear 7 1013 70 10000 1.54 160 23:50 20.04.2022
2507 Clear 7 1013 65 10000 0 0 23:22 20.04.2022
2508 Clear 7 1013 66 10000 2.06 160 22:46 20.04.2022
2509 Clear 7 1013 66 10000 2.06 160 22:26 20.04.2022
2510 Clear 8 1013 62 10000 2.06 150 21:27 20.04.2022
2511 Clear 8 1014 61 10000 3.09 140 20:23 20.04.2022
2512 Clouds 8 1015 66 9000 3.09 140 19:51 20.04.2022
2513 Clouds 9 1015 50 10000 1.49 173 19:18 20.04.2022
2514 Clear 9 1015 75 8000 0.51 40 17:55 20.04.2022
2515 Clear 10 1015 63 9000 1.03 180 16:40 20.04.2022
2516 Clouds 9 1015 71 9000 0.51 30 16:18 20.04.2022
2517 Clear 15 1014 46 9000 2.06 300 13:50 20.04.2022
2518 Clear 19 1014 31 10000 4.63 230 11:44 20.04.2022
2519 Clear 20 1014 27 10000 5.66 250 10:56 20.04.2022
2520 Clear 21 1014 27 10000 5.14 270 09:58 20.04.2022
2521 Clear 21 1014 27 10000 5.14 270 09:24 20.04.2022
2522 Clear 21 1015 28 9000 6.17 260 08:20 20.04.2022
2523 Clear 21 1016 24 9000 6.17 240 06:56 20.04.2022
2524 Clear 17 1017 36 9000 2.06 200 03:34 20.04.2022
2525 Mist 10 1018 76 5000 2.57 140 00:22 20.04.2022
2526 Mist 7 1017 81 4000 2.57 140 23:37 19.04.2022
2527 Mist 6 1017 82 3000 2.57 150 22:25 19.04.2022
2528 Mist 8 1017 79 3000 2.06 180 21:55 19.04.2022
2529 Mist 9 1017 81 3000 2.06 180 21:22 19.04.2022
2530 Mist 6 1017 82 3000 1.54 180 20:41 19.04.2022
2531 Mist 7 1018 79 3000 1.54 170 19:52 19.04.2022
2532 Mist 7 1018 74 3500 2.57 130 18:47 19.04.2022
2533 Mist 8 1018 71 4000 1.03 170 17:28 19.04.2022
2534 Mist 10 1018 67 5000 1.54 180 16:43 19.04.2022
2535 Mist 9 1018 71 5000 0.51 120 16:21 19.04.2022
2536 Clear 12 1017 53 6000 0.51 220 14:48 19.04.2022
2537 Clear 13 1017 54 6000 1.03 300 13:35 19.04.2022
2538 Clear 16 1016 38 8000 3.09 290 12:50 19.04.2022
2539 Clear 18 1016 32 8000 5.14 250 11:55 19.04.2022
2540 Clear 19 1016 33 9000 4.63 240 10:23 19.04.2022
2541 Clear 21 1017 28 8000 5.66 230 08:54 19.04.2022
2542 Haze 18 1018 41 6000 2.57 210 04:42 19.04.2022
2543 Haze 16 1018 43 6000 3.09 210 03:25 19.04.2022
2544 Clear 8 1018 82 7000 1.54 140 00:27 19.04.2022
2545 Clear 6 1018 84 6000 2.57 140 23:25 18.04.2022
2546 Clouds 6 1018 82 6000 2.57 140 21:29 18.04.2022
2547 Clouds 7 1018 74 6000 2.57 150 20:53 18.04.2022
2548 Clouds 7 1018 74 6000 2.57 150 20:27 18.04.2022
2549 Clouds 7 1018 74 7000 2.06 160 19:42 18.04.2022
2550 Clouds 8 1018 67 9000 2.57 150 18:54 18.04.2022
2551 Clear 10 1018 61 10000 3.09 170 17:54 18.04.2022
2552 Clear 10 1018 61 10000 3.09 170 17:33 18.04.2022
2553 Clear 10 1018 61 10000 3.09 170 17:33 18.04.2022
2554 Clear 11 1018 58 10000 3.09 180 16:44 18.04.2022
2555 Clear 11 1018 66 10000 3.09 180 16:21 18.04.2022
2556 Clear 13 1018 47 10000 2.06 230 14:43 18.04.2022
2557 Clear 14 1017 40 10000 3.09 200 13:35 18.04.2022
2558 Clear 14 1017 40 10000 3.09 200 13:35 18.04.2022
2559 Clear 15 1016 47 10000 4.63 220 12:29 18.04.2022
2560 Clear 18 1016 27 10000 4.12 230 11:27 18.04.2022
2561 Clear 19 1016 23 10000 4.63 300 10:29 18.04.2022
2562 Clear 19 1017 23 10000 4.63 270 09:30 18.04.2022
2563 Rain 21 1017 21 10000 5.14 230 07:35 18.04.2022
2564 Haze 17 1019 35 9000 3.6 200 04:40 18.04.2022
2565 Clouds 11 1018 62 7000 1.54 180 23:42 17.04.2022
2566 Clouds 10 1018 71 7000 1.54 180 22:40 17.04.2022
2567 Clouds 10 1018 66 6000 2.57 170 21:42 17.04.2022
2568 Clouds 11 1018 66 6000 2.57 170 21:21 17.04.2022
2569 Clouds 9 1018 71 6000 3.6 140 20:32 17.04.2022
2570 Clouds 9 1019 76 6000 3.09 140 19:21 17.04.2022
2571 Clouds 10 1019 60 8000 1.03 180 17:38 17.04.2022
2572 Clouds 12 1019 53 8000 2.57 270 15:38 17.04.2022
2573 Clouds 12 1018 49 9000 2.06 200 14:54 17.04.2022
2574 Clear 14 1018 42 10000 1.54 260 13:45 17.04.2022
2575 Clear 16 1017 34 10000 3.09 230 12:56 17.04.2022
2576 Clear 17 1017 29 10000 4.12 280 11:53 17.04.2022
2577 Clear 19 1017 22 10000 4.63 220 10:40 17.04.2022
2578 Clear 18 1017 25 10000 4.63 220 10:19 17.04.2022
2579 Clear 20 1017 27 10000 5.14 250 09:23 17.04.2022
2580 Clear 20 1018 27 10000 5.66 230 08:41 17.04.2022
2581 Clear 19 1018 32 10000 3.09 230 06:53 17.04.2022
2582 Haze 14 1020 45 10000 2.06 180 03:53 17.04.2022
2583 Mist 6 1018 87 4000 1.54 150 00:55 17.04.2022
2584 Mist 5 1018 87 3000 2.57 160 23:49 16.04.2022
2585 Mist 5 1018 90 3000 3.09 160 22:27 16.04.2022
2586 Mist 4 1018 84 3000 3.6 140 21:29 16.04.2022
2587 Mist 7 1018 81 5000 1.54 190 19:54 16.04.2022
2588 Clear 7 1018 76 6000 1.54 190 18:54 16.04.2022
2589 Clear 8 1018 69 8000 2.57 210 17:38 16.04.2022
2590 Clear 9 1018 63 8000 2.06 190 16:31 16.04.2022
2591 Clear 10 1018 56 9000 2.06 180 15:26 16.04.2022
2592 Clear 11 1017 47 10000 2.57 220 14:47 16.04.2022
2593 Clear 12 1016 34 10000 3.09 200 13:55 16.04.2022
2594 Clear 12 1016 43 10000 3.09 200 13:25 16.04.2022
2595 Clear 16 1016 21 10000 5.66 260 11:58 16.04.2022
2596 Clear 17 1016 17 10000 7.2 260 10:37 16.04.2022
2597 Clear 18 1016 19 10000 7.72 260 09:39 16.04.2022
2598 Clear 19 1016 21 10000 6.17 280 08:54 16.04.2022
2599 Clear 18 1017 22 10000 4.12 270 07:31 16.04.2022
2600 Clear 19 1017 30 10000 4.12 270 06:18 16.04.2022
2601 Clear 10 1019 66 10000 1.54 190 01:53 16.04.2022
2602 Clear 4 1018 87 10000 1.03 340 23:53 15.04.2022
2603 Clear 5 1018 84 10000 0.51 310 22:52 15.04.2022
2604 Clear 5 1018 84 10000 0.51 310 22:31 15.04.2022
2605 Clear 6 1018 81 10000 2.06 350 21:35 15.04.2022
2606 Clear 6 1019 78 10000 1.54 320 20:44 15.04.2022
2607 Clear 7 1018 75 10000 3.09 330 19:49 15.04.2022
2608 Clear 7 1018 75 10000 3.09 330 19:30 15.04.2022
2609 Clear 8 1019 71 10000 2.57 310 18:45 15.04.2022
2610 Clear 8 1019 71 10000 2.57 310 18:23 15.04.2022
2611 Clear 9 1019 66 10000 2.06 320 17:28 15.04.2022
2612 Clear 10 1018 56 10000 2.57 360 16:25 15.04.2022
2613 Clear 10 1018 56 10000 2.57 360 16:25 15.04.2022
2614 Clear 11 1018 52 10000 2.57 10 15:52 15.04.2022
2615 Clear 12 1018 44 10000 6.17 30 14:20 15.04.2022
2616 Clear 14 1015 44 10000 4.12 280 12:53 15.04.2022
2617 Clear 14 1015 44 10000 4.12 280 12:26 15.04.2022
2618 Clear 15 1015 40 10000 5.14 270 11:52 15.04.2022
2619 Clear 17 1015 34 10000 6.69 280 10:48 15.04.2022
2620 Clear 16 1015 41 10000 6.69 280 10:21 15.04.2022
2621 Clear 17 1014 32 10000 6.69 270 09:23 15.04.2022
2622 Clear 18 1015 30 10000 5.66 280 08:49 15.04.2022
2623 Clear 18 1018 34 10000 4.12 300 06:51 15.04.2022
2624 Clear 16 1019 33 10000 2.06 10 04:49 15.04.2022
2625 Clear 6 1020 76 10000 2.06 330 00:51 15.04.2022
2626 Clear 5 1019 75 10000 2.06 320 23:28 14.04.2022
2627 Clear 6 1019 70 10000 2.06 360 22:46 14.04.2022
2628 Clear 6 1019 70 10000 2.06 360 22:27 14.04.2022
2629 Clear 8 1019 61 10000 2.57 90 21:50 14.04.2022
2630 Clear 9 1019 59 10000 3.09 20 19:51 14.04.2022
2631 Clear 9 1019 57 10000 3.09 20 19:22 14.04.2022
2632 Clear 10 1021 53 10000 2.06 70 17:46 14.04.2022
2633 Rain 11 1021 50 10000 2.06 70 17:18 14.04.2022
2634 Clear 12 1020 47 10000 3.6 100 16:21 14.04.2022
2635 Clear 12 1019 50 10000 2.57 110 13:54 14.04.2022
2636 Clear 12 1019 50 10000 2.57 110 13:25 14.04.2022
2637 Clear 14 1018 44 10000 4.12 100 12:33 14.04.2022
2638 Clear 14 1018 47 10000 4.12 120 11:47 14.04.2022
2639 Clouds 15 1019 48 10000 2.33 88 11:18 14.04.2022
2640 Clear 16 1017 41 10000 4.63 110 10:31 14.04.2022
2641 Clear 14 1018 49 10000 4.12 110 09:30 14.04.2022
2642 Clear 15 1017 44 10000 5.66 100 08:24 14.04.2022
2643 Rain 12 1019 56 10000 4.63 70 05:57 14.04.2022
2644 Clouds 11 1018 58 10000 6.17 80 01:23 14.04.2022
2645 Rain 11 1017 51 10000 4.63 90 22:38 13.04.2022
2646 Rain 11 1017 51 10000 4.63 90 22:38 13.04.2022
2647 Rain 11 1017 47 10000 5.66 100 21:43 13.04.2022
2648 Clouds 11 1017 50 10000 4.63 90 20:45 13.04.2022
2649 Rain 12 1017 43 10000 6.17 90 19:54 13.04.2022
2650 Rain 12 1017 43 10000 4.12 90 18:39 13.04.2022
2651 Rain 11 1017 48 10000 7.2 90 17:41 13.04.2022
2652 Rain 11 1017 48 10000 7.2 90 17:23 13.04.2022
2653 Clouds 12 1017 43 10000 6.69 100 16:18 13.04.2022
2654 Clouds 11 1017 54 10000 6.69 100 15:29 13.04.2022
2655 Clouds 11 1017 60 10000 7.72 100 14:40 13.04.2022
2656 Clouds 11 1016 60 10000 5.14 90 13:43 13.04.2022
2657 Clouds 11 1015 60 10000 5.66 100 12:52 13.04.2022
2658 Clouds 11 1015 56 10000 6.69 90 11:47 13.04.2022
2659 Clouds 11 1015 60 10000 7.72 90 10:31 13.04.2022
2660 Mist 11 1015 64 10000 6.69 110 08:45 13.04.2022
2661 Rain 12 1015 62 10000 7.72 80 07:57 13.04.2022
2662 Clouds 12 1015 66 10000 6.17 100 06:48 13.04.2022
2663 Clouds 12 1015 66 10000 6.17 100 06:24 13.04.2022
2664 Rain 12 1013 87 10000 4.12 10 01:51 13.04.2022
2665 Rain 12 1012 94 10000 3.09 360 00:19 13.04.2022
2666 Rain 13 1011 94 6000 3.09 360 22:33 12.04.2022
2667 Clouds 13 1011 94 7000 4.12 360 21:51 12.04.2022
2668 Mist 13 1012 100 2000 1.54 310 20:48 12.04.2022
2669 Rain 14 1011 97 3000 2.06 320 20:19 12.04.2022
2670 Mist 14 1011 91 3500 2.57 200 19:40 12.04.2022
2671 Rain 14 1011 91 3500 2.57 200 19:40 12.04.2022
2672 Rain 15 1011 88 4000 2.06 320 18:56 12.04.2022
2673 Mist 15 1011 88 4000 3.09 300 17:38 12.04.2022
2674 Mist 15 1011 88 4000 3.09 290 16:46 12.04.2022
2675 Clouds 16 1011 88 8000 4.12 200 15:34 12.04.2022
2676 Clouds 16 1010 85 8000 3.09 160 14:48 12.04.2022
2677 Clouds 16 1011 82 10000 2.57 310 13:45 12.04.2022
2678 Clouds 16 1011 82 10000 2.57 310 13:24 12.04.2022
2679 Clouds 17 1010 78 10000 4.12 280 11:57 12.04.2022
2680 Clouds 17 1010 78 10000 4.12 280 11:32 12.04.2022
2681 Clouds 24 1008 52 10000 6.17 190 09:47 12.04.2022
2682 Clouds 24 1009 52 10000 6.69 220 08:38 12.04.2022
2683 Clouds 24 1010 53 10000 7.2 200 06:46 12.04.2022
2684 Clouds 22 1011 57 10000 5.66 210 05:38 12.04.2022
2685 Mist 18 1011 83 7000 1.54 190 01:48 12.04.2022
2686 Mist 16 1012 94 1500 2.06 150 23:20 11.04.2022
2687 Drizzle 17 1012 88 4000 1.54 310 21:59 11.04.2022
2688 Drizzle 16 1012 94 4000 1.03 140 21:18 11.04.2022
2689 Mist 16 1012 88 3500 1.54 340 20:30 11.04.2022
2690 Mist 15 1012 94 3500 1.54 350 19:58 11.04.2022
2691 Mist 15 1012 94 3500 1.54 350 19:26 11.04.2022
2692 Mist 16 1012 94 4000 1.54 280 18:53 11.04.2022
2693 Mist 16 1012 86 5000 3.6 250 17:58 11.04.2022
2694 Mist 16 1012 86 5000 3.6 250 17:30 11.04.2022
2695 Clouds 16 1012 86 10000 1.03 50 16:25 11.04.2022
2696 Clear 18 1011 75 10000 2.57 280 14:40 11.04.2022
2697 Clear 19 1011 72 10000 1.54 300 13:19 11.04.2022
2698 Clear 22 1010 59 10000 4.12 290 12:36 11.04.2022
2699 Clear 23 1010 52 10000 3.09 290 11:54 11.04.2022
2700 Clear 25 1010 43 10000 4.12 240 10:35 11.04.2022
2701 Clear 26 1010 38 10000 4.63 240 09:34 11.04.2022
2702 Clear 25 1011 37 10000 4.63 240 07:24 11.04.2022
2703 Clouds 19 1015 50 10000 3.6 140 02:36 11.04.2022
2704 Clouds 12 1015 82 10000 0.51 250 22:58 10.04.2022
2705 Clouds 12 1015 82 10000 0.51 250 22:26 10.04.2022
2706 Clouds 12 1015 82 10000 0.51 260 21:35 10.04.2022
2707 Clouds 11 1015 82 10000 1.54 170 20:39 10.04.2022
2708 Clouds 12 1016 74 10000 0.51 280 19:46 10.04.2022
2709 Clouds 13 1016 76 10000 0.51 280 19:25 10.04.2022
2710 Clouds 11 1016 87 10000 1.03 320 18:45 10.04.2022
2711 Clear 12 1016 77 10000 1.03 310 17:56 10.04.2022
2712 Clear 12 1016 77 10000 1.03 310 17:56 10.04.2022
2713 Clear 12 1016 77 10000 1.03 310 17:37 10.04.2022
2714 Clear 14 1016 67 10000 1.54 30 16:33 10.04.2022
2715 Clear 14 1017 65 10000 1.03 70 15:30 10.04.2022
2716 Clear 16 1017 58 10000 0.51 250 14:25 10.04.2022
2717 Clear 19 1016 43 10000 5.14 290 12:35 10.04.2022
2718 Clear 20 1015 48 10000 5.66 230 11:49 10.04.2022
2719 Clear 20 1015 48 10000 5.66 230 11:29 10.04.2022
2720 Clear 23 1015 32 10000 4.63 240 10:54 10.04.2022
2721 Clear 23 1015 32 10000 4.63 240 10:54 10.04.2022
2722 Clear 24 1015 26 10000 4.12 240 09:56 10.04.2022
2723 Clear 24 1015 26 10000 4.12 240 09:37 10.04.2022
2724 Clear 24 1015 23 10000 5.66 260 08:22 10.04.2022
2725 Clear 24 1016 23 10000 4.63 260 07:27 10.04.2022
2726 Clear 23 1017 27 10000 3.6 210 05:46 10.04.2022
2727 Clear 18 1018 42 10000 4.12 180 02:21 10.04.2022
2728 Clear 10 1017 71 10000 2.57 150 00:25 10.04.2022
2729 Clear 8 1017 79 10000 1.03 210 23:43 09.04.2022
2730 Clear 9 1016 73 10000 1.03 180 22:45 09.04.2022
2731 Clear 9 1016 74 10000 0.51 30 21:35 09.04.2022
2732 Clear 10 1015 66 10000 1.54 160 20:48 09.04.2022
2733 Clear 10 1015 66 10000 1.54 160 20:25 09.04.2022
2734 Clear 12 1015 60 10000 3.09 140 19:41 09.04.2022
2735 Clear 13 1016 51 10000 3.09 170 18:55 09.04.2022
2736 Clear 14 1016 41 10000 3.09 170 18:19 09.04.2022
2737 Clear 14 1016 49 10000 2.57 180 17:34 09.04.2022
2738 Clear 15 1016 46 10000 3.09 180 16:47 09.04.2022
2739 Clear 16 1016 43 10000 4.12 180 15:55 09.04.2022
2740 Clear 17 1016 43 10000 4.12 180 15:28 09.04.2022
2741 Clear 17 1015 44 10000 3.6 190 14:27 09.04.2022
2742 Clear 17 1015 44 10000 3.6 190 14:27 09.04.2022
2743 Clear 18 1014 42 10000 4.12 180 13:47 09.04.2022
2744 Clear 19 1014 43 10000 3.09 200 12:59 09.04.2022
2745 Clear 21 1014 38 10000 7.72 210 11:56 09.04.2022
2746 Clear 22 1013 35 10000 8.23 200 10:55 09.04.2022
2747 Clear 22 1013 35 10000 8.23 200 10:19 09.04.2022
2748 Clear 23 1013 31 10000 6.69 210 09:36 09.04.2022
2749 Clear 24 1014 31 10000 8.75 210 08:45 09.04.2022
2750 Clear 22 1014 36 10000 8.75 210 05:35 09.04.2022
2751 Clouds 13 1015 38 10000 3.09 140 00:38 09.04.2022
2752 Clear 12 1015 42 10000 3.09 140 23:25 08.04.2022
2753 Clear 11 1015 50 10000 1.54 170 21:57 08.04.2022
2754 Clear 10 1015 54 10000 3.09 150 20:47 08.04.2022
2755 Clear 11 1015 49 10000 2.06 200 19:57 08.04.2022
2756 Clear 10 1015 50 10000 3.09 150 18:59 08.04.2022
2757 Clear 10 1015 50 10000 3.09 150 18:25 08.04.2022
2758 Clear 11 1016 52 10000 3.09 150 17:38 08.04.2022
2759 Clear 11 1016 50 10000 3.09 150 17:19 08.04.2022
2760 Clear 11 1016 52 10000 2.57 160 16:32 08.04.2022
2761 Clear 11 1017 52 10000 1.03 180 15:38 08.04.2022
2762 Clear 13 1017 46 10000 0.51 170 14:52 08.04.2022
2763 Clear 12 1017 47 10000 0.51 170 14:21 08.04.2022
2764 Clear 14 1016 38 10000 1.03 220 13:41 08.04.2022
2765 Clear 14 1016 38 10000 0.51 180 13:22 08.04.2022
2766 Clear 19 1016 27 10000 4.12 220 11:43 08.04.2022
2767 Clear 20 1016 25 10000 4.12 230 10:26 08.04.2022
2768 Clear 19 1017 27 10000 5.14 230 09:20 08.04.2022
2769 Clear 19 1019 24 10000 3.6 220 07:58 08.04.2022
2770 Clear 18 1020 25 10000 3.6 210 06:47 08.04.2022
2771 Clear 13 1022 37 10000 2.06 170 03:48 08.04.2022
2772 Clear 4 1021 84 10000 1.54 190 00:31 08.04.2022
2773 Clear 3 1021 81 10000 4.12 150 23:53 07.04.2022
2774 Clear 3 1021 87 10000 3.6 150 22:57 07.04.2022
2775 Clear 3 1021 87 10000 3.6 150 22:37 07.04.2022
2776 Clear 3 1021 87 10000 3.6 150 22:19 07.04.2022
2777 Clear 4 1021 81 10000 2.06 160 21:33 07.04.2022
2778 Clear 4 1020 81 10000 3.09 150 20:56 07.04.2022
2779 Clear 4 1020 81 10000 3.09 150 20:26 07.04.2022
2780 Clear 6 1020 66 10000 2.57 200 17:45 07.04.2022
2781 Clear 7 1020 76 10000 2.57 200 17:23 07.04.2022
2782 Clear 6 1020 62 10000 1.03 180 16:42 07.04.2022
2783 Clear 7 1020 56 10000 1.03 290 15:56 07.04.2022
2784 Clear 9 1019 44 10000 2.06 240 13:59 07.04.2022
2785 Clear 9 1019 44 10000 2.06 240 13:26 07.04.2022
2786 Clear 10 1018 53 10000 4.12 230 12:28 07.04.2022
2787 Clear 13 1017 20 10000 5.66 270 10:56 07.04.2022
2788 Clear 14 1016 25 10000 7.2 250 09:34 07.04.2022
2789 Clear 15 1016 25 10000 7.72 270 08:27 07.04.2022
2790 Clear 15 1017 33 10000 7.2 290 06:18 07.04.2022
2791 Clear 12 1018 38 10000 1.54 310 02:38 07.04.2022
2792 Clouds 9 1018 52 10000 1.54 320 00:47 07.04.2022
2793 Clouds 9 1018 49 10000 1.54 280 23:39 06.04.2022
2794 Clear 9 1018 49 10000 2.06 310 22:45 06.04.2022
2795 Clear 8 1018 57 10000 2.06 310 22:21 06.04.2022
2796 Rain 10 1019 41 10000 4.63 350 20:54 06.04.2022
2797 Rain 10 1019 41 10000 4.63 350 20:26 06.04.2022
2798 Clear 10 1019 44 10000 3.6 350 19:48 06.04.2022
2799 Clear 9 1019 66 10000 1.54 320 18:48 06.04.2022
2800 Clear 9 1020 51 10000 3.09 330 17:38 06.04.2022
2801 Clear 9 1020 61 10000 3.09 330 17:20 06.04.2022
2802 Clear 9 1019 49 10000 1.03 40 16:34 06.04.2022
2803 Clear 10 1020 47 10000 2.06 330 15:45 06.04.2022
2804 Clear 11 1020 39 10000 2.57 280 13:57 06.04.2022
2805 Clear 13 1020 35 10000 4.12 280 12:37 06.04.2022
2806 Clear 15 1019 30 10000 5.66 280 11:44 06.04.2022
2807 Clear 16 1019 25 10000 5.14 250 10:37 06.04.2022
2808 Clear 15 1019 31 10000 5.14 250 10:18 06.04.2022
2809 Clear 16 1020 23 10000 4.12 280 09:25 06.04.2022
2810 Clear 17 1021 25 10000 3.09 260 08:18 06.04.2022
2811 Clear 17 1022 29 10000 3.09 300 06:45 06.04.2022
2812 Mist 8 1023 76 5000 1.54 310 01:44 06.04.2022
2813 Mist 6 1022 78 4000 2.06 320 23:50 05.04.2022
2814 Clouds 7 1022 66 6000 1.03 170 21:59 05.04.2022
2815 Clouds 7 1022 71 6000 0.51 330 21:18 05.04.2022
2816 Clouds 8 1022 64 7000 1.03 310 20:24 05.04.2022
2817 Clear 9 1022 51 10000 2.06 290 18:45 05.04.2022
2818 Clear 9 1022 57 10000 2.06 260 17:22 05.04.2022
2819 Clear 9 1022 41 10000 1.03 230 16:44 05.04.2022
2820 Clear 10 1022 37 10000 2.06 300 15:52 05.04.2022
2821 Clear 10 1022 37 10000 2.06 300 15:31 05.04.2022
2822 Clear 11 1021 27 10000 2.57 230 13:55 05.04.2022
2823 Clear 11 1020 28 10000 2.57 270 12:41 05.04.2022
2824 Clear 13 1020 25 10000 3.6 250 11:43 05.04.2022
2825 Clear 12 1020 26 10000 3.6 250 11:25 05.04.2022
2826 Clear 15 1020 24 10000 4.63 240 09:41 05.04.2022
2827 Clear 16 1021 23 10000 4.12 270 08:51 05.04.2022
2828 Clear 14 1023 28 10000 3.09 210 04:25 05.04.2022
2829 Clouds 2 1025 72 6000 2.06 160 23:48 04.04.2022
2830 Clear 2 1024 76 7000 1.54 200 22:41 04.04.2022
2831 Clear 2 1024 74 9000 1.03 80 21:51 04.04.2022
2832 Clear 2 1024 87 9000 1.03 80 21:20 04.04.2022
2833 Clear 3 1025 79 7000 1.54 210 20:48 04.04.2022
2834 Clear 3 1025 71 10000 1.54 220 19:38 04.04.2022
2835 Clear 4 1026 65 10000 1.54 210 18:46 04.04.2022
2836 Clear 5 1027 65 10000 1.03 310 17:34 04.04.2022
2837 Clear 7 1026 57 10000 1.54 310 16:36 04.04.2022
2838 Clear 8 1026 49 10000 1.54 340 15:34 04.04.2022
2839 Clear 9 1026 43 10000 2.06 270 14:49 04.04.2022
2840 Clear 9 1026 43 10000 2.06 270 14:31 04.04.2022
2841 Clear 13 1027 37 10000 3.01 258 13:18 04.04.2022
2842 Clear 13 1026 24 10000 5.14 280 11:29 04.04.2022
2843 Clear 14 1027 25 10000 5.14 260 10:49 04.04.2022
2844 Clear 17 1028 24 10000 6.17 290 07:36 04.04.2022
2845 Clear 13 1029 44 6000 1.03 150 03:18 04.04.2022
2846 Mist 2 1029 87 3000 2.06 180 23:48 03.04.2022
2847 Mist 3 1029 84 3500 1.54 140 22:31 03.04.2022
2848 Mist 3 1029 84 3500 1.54 200 21:32 03.04.2022
2849 Mist 4 1028 84 4000 1.54 190 20:40 03.04.2022
2850 Mist 4 1028 82 4000 1.54 180 19:45 03.04.2022
2851 Mist 5 1028 73 5000 1.03 330 18:29 03.04.2022
2852 Clear 6 1029 71 6000 1.03 320 17:44 03.04.2022
2853 Clear 6 1028 69 6000 0.51 350 16:50 03.04.2022
2854 Clear 5 1028 81 6000 0.51 350 16:21 03.04.2022
2855 Clear 9 1028 61 7000 1.54 330 14:28 03.04.2022
2856 Clear 10 1028 51 9000 3.6 300 13:44 03.04.2022
2857 Clear 11 1027 50 10000 2.57 260 12:19 03.04.2022
2858 Clear 16 1026 28 10000 5.14 280 10:32 03.04.2022
2859 Clear 16 1026 31 10000 6.17 290 09:23 03.04.2022
2860 Clear 16 1027 29 10000 3.6 310 07:24 03.04.2022
2861 Clear 10 1029 41 10000 1.03 310 03:46 03.04.2022
2862 Clear 1 1029 83 8000 0.51 360 00:36 03.04.2022
2863 Clear 0 1028 93 6000 0.51 300 22:54 02.04.2022
2864 Mist 1 1028 83 5000 1.54 200 21:57 02.04.2022
2865 Mist 1 1028 83 5000 1.54 200 21:28 02.04.2022
2866 Clear 1 1028 81 6000 1.54 180 20:41 02.04.2022
2867 Clear 3 1028 76 9000 3.09 140 18:57 02.04.2022
2868 Clear 2 1028 87 9000 3.09 140 18:20 02.04.2022
2869 Clear 2 1028 87 9000 3.09 140 18:20 02.04.2022
2870 Clear 3 1028 74 10000 1.03 150 17:46 02.04.2022
2871 Clear 5 1028 75 10000 0.51 130 16:22 02.04.2022
2872 Clear 6 1027 70 10000 1.54 260 15:21 02.04.2022
2873 Clear 6 1027 55 10000 1.54 290 14:43 02.04.2022
2874 Clear 7 1027 50 10000 1.03 290 13:34 02.04.2022
2875 Clear 9 1026 41 10000 3.09 290 12:37 02.04.2022
2876 Clear 11 1026 30 10000 4.12 250 10:56 02.04.2022
2877 Clear 13 1026 35 10000 5.66 280 08:44 02.04.2022
2878 Clear 14 1027 29 10000 4.12 250 06:43 02.04.2022
2879 Clear 10 1029 47 10000 1.03 240 03:31 02.04.2022
2880 Clear 1 1028 81 10000 3.09 140 23:55 01.04.2022
2881 Clear 2 1028 79 10000 2.06 210 22:55 01.04.2022
2882 Clear 1 1028 86 10000 1.03 130 21:31 01.04.2022
2883 Clear 2 1028 93 10000 0 0 20:50 01.04.2022
2884 Clear 2 1029 72 10000 1.54 190 19:51 01.04.2022
2885 Clear 2 1029 72 10000 1.54 190 19:27 01.04.2022
2886 Clear 3 1029 69 10000 1.54 200 18:42 01.04.2022
2887 Clear 3 1028 73 10000 1.03 310 17:46 01.04.2022
2888 Clear 5 1029 59 10000 1.54 290 16:34 01.04.2022
2889 Clear 6 1028 49 10000 0.51 280 15:19 01.04.2022
2890 Clear 6 1028 56 10000 1.03 190 14:18 01.04.2022
2891 Clear 9 1028 42 10000 3.09 290 13:32 01.04.2022
2892 Clear 10 1028 32 10000 3.09 280 12:32 01.04.2022
2893 Clear 11 1027 43 10000 5.66 270 11:18 01.04.2022
2894 Clear 14 1028 31 10000 5.66 270 09:53 01.04.2022
2895 Clouds 14 1028 29 10000 4.12 300 07:50 01.04.2022
2896 Clouds 14 1029 22 10000 3.6 30 06:30 01.04.2022
2897 Clouds 12 1031 36 10000 1.54 70 04:45 01.04.2022
2898 Clear 11 1031 46 10000 2.57 100 03:21 01.04.2022
2899 Clear 7 1030 70 10000 2.06 10 01:53 01.04.2022
2900 Clear 3 1029 84 10000 2.06 340 22:56 31.03.2022
2901 Clear 4 1029 87 10000 1.03 360 21:49 31.03.2022
2902 Clear 3 1029 93 10000 1.03 360 21:21 31.03.2022
2903 Clear 4 1028 81 10000 1.54 330 20:28 31.03.2022
2904 Clear 5 1028 81 10000 1.54 310 19:44 31.03.2022
2905 Clear 6 1028 73 10000 2.57 320 18:38 31.03.2022
2906 Clear 6 1028 70 10000 2.57 20 17:25 31.03.2022
2907 Clear 9 1027 59 10000 4.12 30 15:58 31.03.2022
2908 Clear 9 1027 59 10000 4.12 30 15:29 31.03.2022
2909 Clear 10 1026 53 10000 4.63 360 14:52 31.03.2022
2910 Clear 10 1026 53 10000 4.63 360 14:19 31.03.2022
2911 Clear 14 1023 41 10000 4.12 360 11:31 31.03.2022
2912 Clear 14 1023 41 10000 4.63 340 10:27 31.03.2022
2913 Clouds 15 1023 43 10000 6.17 320 09:43 31.03.2022
2914 Clouds 14 1023 49 10000 5.14 320 07:49 31.03.2022
2915 Clouds 11 1025 64 10000 2.57 30 03:48 31.03.2022
2916 Mist 9 1023 79 10000 3.09 340 23:25 30.03.2022
2917 Clouds 9 1022 87 8000 3.09 330 22:19 30.03.2022
2918 Mist 9 1022 87 5000 3.6 350 21:31 30.03.2022
2919 Mist 10 1021 85 4000 3.09 290 20:44 30.03.2022
2920 Mist 10 1021 85 4500 2.06 310 19:54 30.03.2022
2921 Mist 10 1021 88 4500 2.06 290 18:44 30.03.2022
2922 Mist 10 1021 85 5000 2.57 300 17:52 30.03.2022
2923 Mist 9 1021 87 5000 2.57 300 17:23 30.03.2022
2924 Mist 11 1021 85 5000 3.6 320 16:41 30.03.2022
2925 Mist 11 1020 85 5000 3.09 330 15:59 30.03.2022
2926 Rain 11 1020 85 5000 2.57 300 14:36 30.03.2022
2927 Rain 12 1019 79 9000 2.06 300 13:22 30.03.2022
2928 Clouds 11 1019 87 9000 2.57 290 12:22 30.03.2022
2929 Clouds 13 1018 77 9000 1.54 330 10:48 30.03.2022
2930 Clouds 13 1018 77 8000 1.54 70 09:55 30.03.2022
2931 Mist 13 1019 77 5000 2.57 330 08:21 30.03.2022
2932 Clouds 15 1020 57 10000 4.63 210 06:50 30.03.2022
2933 Clouds 15 1020 51 10000 1.54 120 05:40 30.03.2022
2934 Clouds 8 1022 76 10000 2.06 210 01:48 30.03.2022
2935 Clear 4 1022 87 10000 2.06 210 22:39 29.03.2022
2936 Clear 4 1022 84 10000 2.06 190 21:48 29.03.2022
2937 Clear 3 1022 87 10000 0.51 230 21:20 29.03.2022
2938 Clear 4 1023 87 10000 1.03 330 20:25 29.03.2022
2939 Clear 5 1023 84 10000 2.06 320 19:27 29.03.2022
2940 Clear 6 1022 82 10000 2.06 320 18:53 29.03.2022
2941 Clear 7 1022 79 10000 1.54 310 17:40 29.03.2022
2942 Clear 7 1022 79 10000 0.51 20 16:59 29.03.2022
2943 Clear 7 1022 79 10000 0.51 20 16:25 29.03.2022
2944 Clear 9 1023 63 10000 0.51 270 14:58 29.03.2022
2945 Clear 9 1023 63 10000 0.51 270 14:39 29.03.2022
2946 Clear 10 1022 58 10000 2.06 300 13:30 29.03.2022
2947 Clear 13 1023 47 10000 4.12 300 11:46 29.03.2022
2948 Clear 14 1023 43 10000 4.12 300 10:59 29.03.2022
2949 Clear 15 1024 39 10000 4.12 280 09:50 29.03.2022
2950 Clouds 15 1024 38 10000 3.6 300 08:20 29.03.2022
2951 Clear 14 1026 39 10000 3.09 230 05:38 29.03.2022
2952 Clear 6 1027 53 10000 0.51 160 01:25 29.03.2022
2953 Clear 1 1026 66 10000 1.54 140 23:25 28.03.2022
2954 Clear 1 1025 62 10000 3.09 150 22:54 28.03.2022
2955 Clear 1 1025 62 10000 3.09 150 22:28 28.03.2022
2956 Clear 2 1026 68 10000 3.09 240 20:59 28.03.2022
2957 Clear 2 1026 68 10000 3.09 240 20:31 28.03.2022
2958 Clear 2 1027 68 10000 1.03 70 19:46 28.03.2022
2959 Clear 2 1027 68 10000 1.03 70 19:28 28.03.2022
2960 Clear 3 1027 66 10000 1.03 220 18:40 28.03.2022
2961 Clear 2 1027 75 10000 1.03 260 17:39 28.03.2022
2962 Clear 4 1027 55 10000 1.03 340 16:33 28.03.2022
2963 Clear 7 1027 42 10000 2.06 300 14:48 28.03.2022
2964 Clear 6 1027 45 10000 2.06 300 14:21 28.03.2022
2965 Clear 9 1026 31 10000 2.57 270 12:24 28.03.2022
2966 Clear 11 1025 32 10000 4.63 280 11:31 28.03.2022
2967 Clear 14 1024 20 10000 4.63 290 09:43 28.03.2022
2968 Clear 13 1024 26 10000 4.63 290 09:19 28.03.2022
2969 Clear 16 1025 8 10000 1.14 280 08:22 28.03.2022
2970 Clear 14 1026 16 10000 1.54 220 07:28 28.03.2022
2971 Clear 9 1027 30 10000 1.54 30 03:52 28.03.2022
2972 Clear -1 1025 86 10000 0.51 340 23:30 27.03.2022
2973 Clear -1 1024 75 10000 1.54 310 22:24 27.03.2022
2974 Clear 0 1024 67 10000 1.03 200 21:42 27.03.2022
2975 Clear 0 1024 62 10000 1.03 350 20:57 27.03.2022
2976 Clear 1 1023 64 10000 1.54 70 19:48 27.03.2022
2977 Clear 1 1023 64 10000 1.54 70 19:20 27.03.2022
2978 Clear 2 1023 50 10000 1.03 160 18:27 27.03.2022
2979 Clear 3 1023 48 10000 0.51 280 17:39 27.03.2022
2980 Clear 4 1022 36 10000 2.06 330 16:28 27.03.2022
2981 Clear 4 1022 38 10000 2.06 320 15:21 27.03.2022
2982 Clear 7 1019 31 10000 6.17 310 13:55 27.03.2022
2983 Clear 7 1018 28 10000 6.69 310 12:24 27.03.2022
2984 Clear 10 1015 27 10000 8.23 330 10:53 27.03.2022
2985 Clear 12 1014 33 10000 8.23 290 08:43 27.03.2022
2986 Clear 11 1015 45 10000 7.72 320 05:54 27.03.2022
2987 Clear 6 1014 78 10000 1.54 150 00:47 27.03.2022
2988 Clear 3 1014 87 10000 2.57 150 23:34 26.03.2022
2989 Clear 4 1013 81 10000 2.06 170 22:35 26.03.2022
2990 Clear 3 1013 84 10000 3.09 150 21:33 26.03.2022
2991 Clear 2 1013 87 10000 3.09 150 20:20 26.03.2022
2992 Clear 6 1013 70 10000 2.57 210 19:19 26.03.2022
2993 Clear 7 1012 66 10000 1.54 260 17:47 26.03.2022
2994 Clear 7 1012 66 10000 1.54 260 17:28 26.03.2022
2995 Clear 9 1012 57 10000 1.54 360 16:24 26.03.2022
2996 Clear 10 1010 57 10000 2.57 260 14:51 26.03.2022
2997 Clear 11 1009 56 10000 2.06 250 13:52 26.03.2022
2998 Clear 12 1007 60 10000 3.6 280 12:44 26.03.2022
2999 Clear 12 1006 69 10000 4.63 280 11:28 26.03.2022
3000 Clouds 15 1004 63 10000 4.63 320 09:23 26.03.2022
3001 Clouds 15 1004 65 10000 5.14 310 08:28 26.03.2022
3002 Clouds 12 1002 82 10000 4.63 330 05:54 26.03.2022
3003 Clouds 11 999 84 10000 2.06 290 03:58 26.03.2022
3004 Rain 10 996 100 5000 4.63 250 23:21 25.03.2022
3005 Rain 13 996 94 2500 4.63 160 20:59 25.03.2022
3006 Rain 13 996 94 2500 4.63 160 20:38 25.03.2022
3007 Mist 13 998 94 3000 4.63 170 19:27 25.03.2022
3008 Rain 13 1000 88 4500 5.14 140 18:37 25.03.2022
3009 Rain 13 1001 88 4000 7.2 120 17:35 25.03.2022
3010 Rain 12 1003 91 4000 6.17 120 16:41 25.03.2022
3011 Rain 12 1005 87 4000 7.72 100 15:50 25.03.2022
3012 Mist 12 1010 77 4000 6.69 100 13:40 25.03.2022
3013 Rain 15 1010 58 6000 6.17 110 12:20 25.03.2022
3014 Haze 18 1012 47 10000 4.63 150 09:47 25.03.2022
3015 Clouds 18 1013 36 10000 3.86 144 09:19 25.03.2022
3016 Haze 18 1014 44 9000 5.14 130 07:48 25.03.2022
3017 Rain 18 1014 45 9000 5.14 130 07:21 25.03.2022
3018 Haze 15 1017 46 6000 4.63 220 04:35 25.03.2022
3019 Mist 4 1020 93 3500 1.54 180 23:55 24.03.2022
3020 Mist 4 1020 87 4000 0.51 10 22:24 24.03.2022
3021 Mist 4 1020 87 4500 1.54 230 21:29 24.03.2022
3022 Mist 5 1021 87 5000 1.54 100 19:50 24.03.2022
3023 Mist 5 1021 87 5000 1.03 310 18:46 24.03.2022
3024 Mist 6 1020 78 7000 1.54 150 17:38 24.03.2022
3025 Clear 6 1021 81 8000 1.54 190 16:41 24.03.2022
3026 Clear 7 1021 78 10000 0.51 340 14:58 24.03.2022
3027 Clear 7 1021 78 10000 0.51 340 14:39 24.03.2022
3028 Clouds 8 1020 76 10000 1.03 260 13:36 24.03.2022
3029 Clouds 10 1020 66 10000 1.03 60 12:35 24.03.2022
3030 Clouds 10 1020 62 10000 2.57 250 11:31 24.03.2022
3031 Clouds 13 1018 56 8000 3.09 250 09:34 24.03.2022
3032 Clouds 12 1018 58 8000 4.63 230 08:39 24.03.2022
3033 Clouds 9 1020 64 9000 3.09 190 05:45 24.03.2022
3034 Clouds 5 1019 73 10000 3.6 150 00:47 24.03.2022
3035 Clouds 4 1018 81 10000 3.6 140 22:23 23.03.2022
3036 Clouds 3 1018 78 10000 3.09 130 21:24 23.03.2022
3037 Clear 3 1017 75 10000 4.63 140 20:44 23.03.2022
3038 Clear 3 1018 73 10000 3.6 160 19:33 23.03.2022
3039 Clear 4 1018 70 10000 2.57 170 18:18 23.03.2022
3040 Clear 5 1018 65 10000 2.06 190 17:25 23.03.2022
3041 Clouds 6 1017 51 10000 3.09 220 15:56 23.03.2022
3042 Clouds 6 1017 51 10000 2.06 190 14:48 23.03.2022
3043 Clouds 6 1017 53 10000 1.54 220 13:34 23.03.2022
3044 Clouds 6 1017 53 10000 2.06 250 11:33 23.03.2022
3045 Clear 7 1017 48 10000 4.12 230 08:41 23.03.2022
3046 Clear 7 1018 40 10000 2.57 250 05:50 23.03.2022
3047 Clouds 7 1019 51 10000 3.09 270 02:50 23.03.2022
3048 Clear 5 1019 73 10000 2.57 300 00:26 23.03.2022
3049 Clear 4 1019 73 10000 1.54 180 21:52 22.03.2022
3050 Clear 4 1019 75 10000 0.51 130 21:23 22.03.2022
3051 Clear 4 1019 70 10000 0.51 80 20:23 22.03.2022
3052 Clear 3 1020 74 10000 1.03 310 19:27 22.03.2022
3053 Clear 4 1020 76 10000 2.06 210 18:48 22.03.2022
3054 Clear 3 1020 73 10000 0.51 100 17:44 22.03.2022
3055 Clear 4 1020 75 10000 0.51 340 16:58 22.03.2022
3056 Clear 5 1020 66 10000 1.54 20 15:42 22.03.2022
3057 Clouds 5 1021 38 10000 0.9 310 15:20 22.03.2022
3058 Clear 5 1021 62 10000 1.54 310 14:44 22.03.2022
3059 Clear 6 1021 61 10000 2.06 10 13:42 22.03.2022
3060 Clear 6 1021 61 10000 2.57 290 12:18 22.03.2022
3061 Clear 8 1021 57 10000 3.6 260 11:20 22.03.2022
3062 Clear 12 1020 34 10000 6.17 280 09:28 22.03.2022
3063 Clear 13 1021 27 10000 3.09 330 07:30 22.03.2022
3064 Clear 9 1025 42 10000 2.57 300 03:57 22.03.2022
3065 Clear 2 1024 67 10000 1.54 310 00:50 22.03.2022
3066 Clear 0 1024 74 10000 1.03 330 22:48 21.03.2022
3067 Clear 0 1023 77 10000 2.06 320 21:37 21.03.2022
3068 Clear 1 1023 69 10000 2.06 310 20:44 21.03.2022
3069 Clear 0 1023 74 10000 2.06 310 20:23 21.03.2022
3070 Clear 2 1023 65 10000 2.06 310 19:45 21.03.2022
3071 Clear 2 1023 65 10000 3.09 330 18:48 21.03.2022
3072 Clear 3 1023 61 10000 3.09 330 17:36 21.03.2022
3073 Clear 4 1023 55 10000 2.57 350 16:59 21.03.2022
3074 Clear 3 1023 65 10000 2.57 350 16:27 21.03.2022
3075 Clear 4 1024 48 10000 2.06 320 15:43 21.03.2022
3076 Clear 5 1024 41 10000 2.57 320 14:36 21.03.2022
3077 Clear 5 1024 42 10000 1.54 340 13:20 21.03.2022
3078 Clear 6 1023 36 10000 3.09 310 11:58 21.03.2022
3079 Clear 6 1023 38 10000 3.09 310 11:25 21.03.2022
3080 Clear 8 1023 33 10000 4.12 270 09:49 21.03.2022
3081 Clear 9 1023 32 10000 5.14 290 07:33 21.03.2022
3082 Clear 10 1024 30 10000 1.54 270 05:56 21.03.2022
3083 Clear 3 1025 60 10000 1.03 20 01:39 21.03.2022
3084 Clear -2 1025 80 10000 1.54 290 22:57 20.03.2022
3085 Clear -2 1025 80 10000 1.54 290 22:25 20.03.2022
3086 Clear -1 1024 77 10000 0.51 290 21:37 20.03.2022
3087 Clear -1 1024 80 10000 1.54 20 20:55 20.03.2022
3088 Clear -1 1024 80 10000 1.54 20 20:29 20.03.2022
3089 Clear -1 1025 77 10000 0.51 320 19:49 20.03.2022
3090 Clear -1 1025 74 10000 0.51 320 19:19 20.03.2022
3091 Clear 1 1024 60 10000 1.54 300 17:44 20.03.2022
3092 Clear 1 1024 60 10000 1.54 300 17:24 20.03.2022
3093 Clear 2 1022 62 10000 3.6 300 15:58 20.03.2022
3094 Clear 3 1022 56 10000 3.6 300 14:38 20.03.2022
3095 Clear 4 1021 58 10000 3.09 280 13:38 20.03.2022
3096 Clear 5 1019 51 10000 3.6 260 11:58 20.03.2022
3097 Clear 8 1018 41 10000 5.66 280 09:59 20.03.2022
3098 Clear 9 1018 43 10000 5.66 240 08:20 20.03.2022
3099 Clouds 9 1018 44 10000 4.63 270 05:49 20.03.2022
3100 Clouds 6 1019 61 10000 4.12 270 03:18 20.03.2022
3101 Mist 4 1019 78 10000 1.03 340 00:53 20.03.2022
3102 Mist 3 1018 90 7000 1.03 220 23:37 19.03.2022
3103 Mist 3 1017 90 4500 2.06 150 21:58 19.03.2022
3104 Mist 3 1017 90 4500 2.06 150 21:25 19.03.2022
3105 Clouds 4 1017 87 10000 2.57 210 19:22 19.03.2022
3106 Clouds 3 1017 90 10000 2.06 210 18:30 19.03.2022
3107 Clouds 2 1016 90 10000 1.54 250 17:48 19.03.2022
3108 Clouds 2 1015 87 10000 1.54 180 16:46 19.03.2022
3109 Clouds 3 1015 75 10000 1.54 350 15:22 19.03.2022
3110 Clear 4 1013 78 10000 2.57 30 13:40 19.03.2022
3111 Clouds 4 1013 84 10000 2.06 20 12:42 19.03.2022
3112 Clouds 5 1013 75 10000 2.06 20 12:19 19.03.2022
3113 Clouds 5 1013 81 10000 1.54 350 11:42 19.03.2022
3114 Clouds 6 1010 75 10000 3.09 30 08:57 19.03.2022
3115 Rain 3 1007 90 7000 5.14 90 04:42 19.03.2022
3116 Rain 2 1005 93 6000 4.63 120 02:32 19.03.2022
3117 Snow 1 1005 93 4000 4.12 110 23:50 18.03.2022
3118 Snow 2 1005 90 7000 4.12 120 22:43 18.03.2022
3119 Snow 2 1005 93 7000 4.12 120 22:20 18.03.2022
3120 Rain 3 1006 87 8000 4.63 130 20:25 18.03.2022
3121 Rain 4 1007 81 8000 6.17 140 19:23 18.03.2022
3122 Rain 6 1007 56 10000 4.63 120 18:34 18.03.2022
3123 Rain 6 1008 54 10000 4.63 100 16:52 18.03.2022
3124 Rain 6 1009 55 10000 5.14 80 15:52 18.03.2022
3125 Rain 7 1009 53 10000 4.63 100 14:25 18.03.2022
3126 Clouds 7 1009 53 10000 4.63 100 13:18 18.03.2022
3127 Clouds 8 1009 49 10000 5.14 80 11:28 18.03.2022
3128 Clear 9 1009 48 10000 5.14 100 09:41 18.03.2022
3129 Clouds 9 1009 50 10000 4.63 90 08:45 18.03.2022
3130 Clouds 10 1011 50 10000 4.12 90 06:42 18.03.2022
3131 Clouds 9 1012 55 10000 5.14 70 04:38 18.03.2022
3132 Clouds 7 1013 63 10000 5.14 80 00:54 18.03.2022
3133 Clouds 8 1013 61 10000 5.14 70 23:52 17.03.2022
3134 Clouds 8 1013 61 10000 5.14 70 23:52 17.03.2022
3135 Clouds 8 1013 61 10000 6.17 90 22:26 17.03.2022
3136 Clouds 8 1014 61 10000 4.12 50 21:51 17.03.2022
3137 Clouds 8 1014 61 10000 4.12 50 21:27 17.03.2022
3138 Rain 7 1014 65 10000 4.12 80 20:52 17.03.2022
3139 Rain 8 1015 66 10000 4.12 90 19:55 17.03.2022
3140 Rain 8 1015 66 10000 4.12 90 19:33 17.03.2022
3141 Rain 8 1016 66 10000 5.66 90 18:51 17.03.2022
3142 Rain 7 1017 68 10000 6.17 90 17:26 17.03.2022
3143 Rain 8 1018 68 10000 7.2 90 15:52 17.03.2022
3144 Rain 8 1018 68 10000 7.2 90 15:34 17.03.2022
3145 Rain 9 1018 62 10000 5.14 60 14:55 17.03.2022
3146 Rain 10 1019 56 10000 4.86 74 13:22 17.03.2022
3147 Rain 11 1017 65 8000 4.63 160 12:38 17.03.2022
3148 Clouds 12 1017 60 6000 5.14 170 11:30 17.03.2022
3149 Rain 13 1017 54 8000 5.14 180 10:34 17.03.2022
3150 Clear 15 1017 42 10000 3.6 180 08:41 17.03.2022
3151 Clear 15 1017 42 10000 3.6 100 07:52 17.03.2022
3152 Clear 14 1019 46 10000 3.09 90 05:48 17.03.2022
3153 Clouds 12 1021 56 9000 4.12 10 03:41 17.03.2022
3154 Clear 8 1020 64 10000 4.12 360 23:57 16.03.2022
3155 Clouds 8 1021 71 9000 3.09 320 22:51 16.03.2022
3156 Clouds 8 1021 71 9000 3.09 320 22:33 16.03.2022
3157 Clouds 8 1020 74 9000 4.12 340 21:46 16.03.2022
3158 Clear 8 1021 74 10000 1.54 280 20:26 16.03.2022
3159 Clear 7 1020 70 10000 3.6 330 19:21 16.03.2022
3160 Clear 9 1020 66 10000 3.6 320 18:38 16.03.2022
3161 Clear 9 1020 67 10000 5.14 330 17:43 16.03.2022
3162 Clear 8 1020 71 10000 5.14 330 17:20 16.03.2022
3163 Clouds 10 1020 67 8000 3.6 320 15:56 16.03.2022
3164 Clouds 10 1020 67 8000 2.06 290 14:28 16.03.2022
3165 Clouds 10 1019 67 8000 1.54 330 13:32 16.03.2022
3166 Clouds 12 1017 59 9000 3.09 300 11:57 16.03.2022
3167 Clouds 12 1017 59 9000 3.09 300 11:21 16.03.2022
3168 Clear 13 1017 58 10000 3.6 300 10:23 16.03.2022
3169 Clear 15 1016 44 10000 4.12 290 09:42 16.03.2022
3170 Clear 15 1016 41 10000 1.54 280 06:27 16.03.2022
3171 Mist 6 1018 79 3500 1.03 310 01:56 16.03.2022
3172 Mist 1 1015 93 2500 1.54 340 22:41 15.03.2022
3173 Mist 1 1015 93 2500 1.54 340 22:18 15.03.2022
3174 Mist 2 1014 90 4000 2.06 310 20:33 15.03.2022
3175 Mist 3 1014 87 4500 1.03 290 18:58 15.03.2022
3176 Mist 4 1014 81 5000 1.03 240 16:59 15.03.2022
3177 Mist 4 1014 81 5000 1.03 240 16:32 15.03.2022
3178 Clouds 4 1015 81 6000 1.54 360 15:21 15.03.2022
3179 Haze 6 1014 71 6000 4.12 300 14:40 15.03.2022
3180 Haze 6 1014 71 6000 3.09 300 13:46 15.03.2022
3181 Haze 8 1012 66 6000 1.54 260 12:24 15.03.2022
3182 Clouds 10 1012 60 6000 3.09 240 11:31 15.03.2022
3183 Clouds 12 1012 47 9000 2.57 230 09:45 15.03.2022
3184 Clear 13 1013 44 8000 2.06 250 08:42 15.03.2022
3185 Clouds 12 1014 47 8000 1.54 260 07:51 15.03.2022
3186 Clouds 12 1014 50 8000 1.54 260 07:28 15.03.2022
3187 Mist 7 1016 70 9000 3.09 170 03:30 15.03.2022
3188 Mist 1 1016 93 5000 1.03 230 23:40 14.03.2022
3189 Mist 0 1016 93 5000 1.03 230 23:21 14.03.2022
3190 Mist 1 1015 93 5000 1.54 30 22:26 14.03.2022
3191 Clouds 1 1016 93 6000 0.51 200 21:26 14.03.2022
3192 Clouds 1 1015 93 6000 1.03 270 20:41 14.03.2022
3193 Clear 1 1015 93 6000 1.03 270 20:19 14.03.2022
3194 Mist 4 1014 81 10000 2.57 280 18:42 14.03.2022
3195 Mist 5 1014 78 10000 4.63 290 17:54 14.03.2022
3196 Mist 5 1014 78 10000 2.06 270 16:58 14.03.2022
3197 Mist 6 1013 82 10000 3.09 260 15:37 14.03.2022
3198 Mist 6 1013 82 8000 3.09 270 14:38 14.03.2022
3199 Clouds 7 1011 81 8000 5.14 260 12:21 14.03.2022
3200 Mist 7 1010 90 6000 4.12 250 10:50 14.03.2022
3201 Mist 7 1010 90 2500 4.63 280 09:41 14.03.2022
3202 Mist 7 1010 93 2500 4.63 280 09:20 14.03.2022
3203 Mist 7 1010 90 2800 4.12 270 08:55 14.03.2022
3204 Rain 8 1009 93 4000 6.69 250 07:21 14.03.2022
3205 Mist 9 1010 87 5000 7.72 230 05:22 14.03.2022
3206 Clouds 10 1012 85 10000 3.09 240 01:52 14.03.2022
3207 Rain 10 1012 87 10000 0.51 360 01:20 14.03.2022
3208 Clouds 8 1012 93 10000 2.06 360 22:42 13.03.2022
3209 Clouds 7 1012 93 10000 2.06 330 21:28 13.03.2022
3210 Mist 8 1013 96 10000 1.03 290 20:55 13.03.2022
3211 Mist 8 1013 96 10000 1.03 290 20:29 13.03.2022
3212 Mist 8 1013 93 3500 2.57 360 19:48 13.03.2022
3213 Mist 8 1013 93 3500 2.57 360 19:25 13.03.2022
3214 Fog 9 1013 93 1200 3.09 310 18:50 13.03.2022
3215 Fog 8 1013 93 1200 3.09 310 18:27 13.03.2022
3216 Fog 9 1013 100 1500 1.54 40 17:40 13.03.2022
3217 Mist 10 1013 96 3000 2.06 360 16:48 13.03.2022
3218 Mist 10 1013 96 3000 2.06 360 16:27 13.03.2022
3219 Mist 9 1014 100 3000 2.06 340 15:44 13.03.2022
3220 Mist 9 1014 96 3000 3.6 300 14:49 13.03.2022
3221 Fog 10 1013 96 5000 2.06 330 13:30 13.03.2022
3222 Clouds 10 1012 100 7000 0.51 300 12:26 13.03.2022
3223 Mist 12 1012 90 9000 1.54 310 11:45 13.03.2022
3224 Mist 12 1011 91 9000 1.03 300 10:51 13.03.2022
3225 Mist 12 1011 91 9000 1.03 300 10:30 13.03.2022
3226 Mist 13 1010 88 8000 1.54 350 09:43 13.03.2022
3227 Mist 13 1010 85 5000 1.03 180 08:50 13.03.2022
3228 Mist 13 1010 82 5000 1.03 180 08:31 13.03.2022
3229 Mist 12 1010 87 3500 2.06 350 07:34 13.03.2022
3230 Mist 12 1010 91 1500 0.51 330 04:59 13.03.2022
3231 Drizzle 11 1011 97 700 2.57 320 01:48 13.03.2022
3232 Mist 12 1010 93 1500 2.57 230 23:28 12.03.2022
3233 Rain 12 1010 94 2000 3.09 210 21:43 12.03.2022
3234 Rain 11 1010 93 4000 4.12 220 20:20 12.03.2022
3235 Rain 11 1011 94 10000 6.17 200 19:46 12.03.2022
3236 Rain 11 1012 97 2500 6.17 220 18:41 12.03.2022
3237 Rain 12 1011 91 2500 5.14 200 17:53 12.03.2022
3238 Rain 11 1012 93 3000 4.12 320 16:28 12.03.2022
3239 Rain 12 1012 83 3000 4.12 320 16:28 12.03.2022
3240 Rain 14 1012 82 4000 5.14 300 15:50 12.03.2022
3241 Rain 12 1012 87 4000 5.14 300 15:21 12.03.2022
3242 Rain 14 1012 91 3000 4.12 200 13:53 12.03.2022
3243 Rain 15 1013 86 4000 5.14 210 12:27 12.03.2022
3244 Rain 16 1012 80 8000 5.14 210 11:52 12.03.2022
3245 Clouds 15 1012 80 8000 5.14 210 11:32 12.03.2022
3246 Rain 16 1013 70 8000 5.14 220 10:24 12.03.2022
3247 Haze 17 1013 64 8000 5.66 210 09:41 12.03.2022
3248 Haze 19 1013 50 8000 5.66 200 07:52 12.03.2022
3249 Haze 19 1014 47 8000 6.17 210 06:30 12.03.2022
3250 Mist 4 1018 100 2500 0.51 330 00:31 12.03.2022
3251 Mist 2 1018 97 2500 1.54 340 23:38 11.03.2022
3252 Fog 2 1017 90 1200 2.06 190 22:29 11.03.2022
3253 Mist 1 1017 100 1500 1.03 330 21:23 11.03.2022
3254 Mist 2 1017 93 2000 1.03 20 20:42 11.03.2022
3255 Mist 2 1017 93 2000 1.03 20 20:22 11.03.2022
3256 Mist 3 1018 90 2000 1.03 320 19:29 11.03.2022
3257 Mist 6 1018 84 3500 0.51 310 17:50 11.03.2022
3258 Mist 5 1018 87 3500 0.51 310 17:21 11.03.2022
3259 Mist 6 1018 93 3500 1.54 310 15:57 11.03.2022
3260 Mist 6 1018 93 3500 1.54 310 15:29 11.03.2022
3261 Haze 10 1018 74 5000 2.06 350 13:27 11.03.2022
3262 Clouds 13 1019 45 10000 1.37 247 12:23 11.03.2022
3263 Clouds 13 1017 61 8000 2.06 300 11:56 11.03.2022
3264 Clouds 14 1017 58 8000 2.57 280 10:24 11.03.2022
3265 Clouds 16 1016 55 8000 5.14 300 09:27 11.03.2022
3266 Clouds 18 1016 45 8000 3.09 360 08:24 11.03.2022
3267 Clouds 18 1016 46 8000 1.54 40 07:46 11.03.2022
3268 Clouds 16 1018 48 8000 1.54 230 05:49 11.03.2022
3269 Clouds 14 1019 47 7000 2.06 70 04:22 11.03.2022
3270 Mist 2 1019 81 5000 1.03 260 23:49 10.03.2022
3271 Mist 2 1019 79 3000 1.54 310 22:31 10.03.2022
3272 Mist 2 1019 76 4000 1.03 20 21:48 10.03.2022
3273 Mist 2 1019 87 4000 1.03 20 21:20 10.03.2022
3274 Mist 2 1019 76 4000 0.51 300 19:48 10.03.2022
3275 Mist 2 1019 79 5000 1.03 350 18:55 10.03.2022
3276 Clear 2 1019 82 6000 0.51 310 17:36 10.03.2022
3277 Clouds 4 1020 64 9000 2.57 330 15:55 10.03.2022
3278 Clear 5 1020 60 10000 1.54 320 14:48 10.03.2022
3279 Clear 6 1020 55 10000 1.03 340 13:24 10.03.2022
3280 Clear 10 1020 43 10000 1.54 280 11:58 10.03.2022
3281 Clear 12 1019 32 10000 3.6 240 10:54 10.03.2022
3282 Clear 14 1019 33 10000 4.12 240 09:21 10.03.2022
3283 Clear 16 1020 17 10000 6.17 240 07:38 10.03.2022
3284 Clear 15 1022 18 10000 4.12 220 04:36 10.03.2022
3285 Haze 6 1022 68 3500 0.51 280 01:49 10.03.2022
3286 Mist 1 1022 84 2500 2.06 20 23:26 09.03.2022
3287 Mist 2 1021 82 2000 1.54 360 21:51 09.03.2022
3288 Mist 2 1021 82 2000 1.54 360 21:31 09.03.2022
3289 Mist 1 1021 84 2000 1.03 180 19:44 09.03.2022
3290 Mist 1 1022 83 2500 0.51 330 18:33 09.03.2022
3291 Mist 1 1022 93 2500 1.54 300 17:27 09.03.2022
3292 Mist 1 1022 85 2500 1.54 190 16:31 09.03.2022
3293 Mist 3 1023 76 3000 2.06 320 14:59 09.03.2022
3294 Mist 5 1022 70 4000 2.06 350 13:53 09.03.2022
3295 Mist 6 1022 65 4500 3.6 310 12:45 09.03.2022
3296 Mist 7 1022 61 5000 3.09 320 11:53 09.03.2022
3297 Mist 7 1022 61 5000 3.09 320 11:35 09.03.2022
3298 Haze 13 1022 48 7000 5.66 300 09:50 09.03.2022
3299 Haze 14 1021 43 7000 4.63 300 08:49 09.03.2022
3300 Haze 14 1022 40 7000 3.6 290 07:27 09.03.2022
3301 Mist 3 1023 87 3000 0.51 140 01:54 09.03.2022
3302 Mist 2 1023 93 2000 1.54 350 00:27 09.03.2022
3303 Mist 0 1022 93 2500 1.03 330 22:47 08.03.2022
3304 Mist 0 1021 93 3000 1.54 330 21:52 08.03.2022
3305 Mist 1 1021 93 3000 1.54 330 21:22 08.03.2022
3306 Mist 0 1021 90 3500 0.51 10 20:24 08.03.2022
3307 Mist 0 1021 93 3500 2.06 30 19:24 08.03.2022
3308 Mist -1 1021 93 4000 0.51 320 18:23 08.03.2022
3309 Mist 1 1020 87 5000 1.03 320 16:56 08.03.2022
3310 Mist 3 1020 79 7000 0.51 260 14:58 08.03.2022
3311 Mist 4 1019 76 8000 0.51 350 13:48 08.03.2022
3312 Clouds 5 1019 81 8000 1.54 290 12:23 08.03.2022
3313 Clear 6 1019 64 10000 3.09 300 11:42 08.03.2022
3314 Clear 9 1018 54 10000 3.09 280 10:28 08.03.2022
3315 Clear 12 1018 42 10000 4.12 300 08:57 08.03.2022
3316 Clear 11 1018 42 10000 3.09 250 06:30 08.03.2022
3317 Clouds 6 1020 48 10000 2.06 210 02:50 08.03.2022
3318 Clouds 0 1019 64 10000 2.06 210 22:48 07.03.2022
3319 Clouds 0 1019 64 10000 1.03 170 21:45 07.03.2022
3320 Clouds 0 1019 69 10000 0.51 160 21:22 07.03.2022
3321 Clouds -1 1019 62 10000 0.51 270 20:33 07.03.2022
3322 Clouds -1 1020 60 10000 1.54 170 19:49 07.03.2022
3323 Clear -1 1020 64 10000 2.06 180 18:57 07.03.2022
3324 Clear -1 1020 64 10000 2.06 180 18:29 07.03.2022
3325 Clear 0 1020 57 10000 1.54 320 17:24 07.03.2022
3326 Clear 0 1020 52 10000 1.03 340 16:41 07.03.2022
3327 Clear 2 1020 48 10000 0.51 120 14:49 07.03.2022
3328 Clear 3 1020 46 10000 2.57 320 12:34 07.03.2022
3329 Clouds 6 1020 23 10000 2.87 268 11:21 07.03.2022
3330 Clear 6 1019 36 10000 3.09 280 10:26 07.03.2022
3331 Clouds 7 1019 36 10000 4.63 290 08:19 07.03.2022
3332 Clear 0 1022 60 10000 1.03 230 01:23 07.03.2022
3333 Clouds -4 1022 29 10000 0.41 158 00:20 07.03.2022
3334 Clear -5 1022 80 10000 0.51 50 23:19 06.03.2022
3335 Clear -5 1022 80 10000 1.03 330 22:26 06.03.2022
3336 Clear -5 1021 74 10000 0.51 300 21:22 06.03.2022
3337 Clear -4 1021 74 10000 1.03 330 20:29 06.03.2022
3338 Clear -3 1022 68 10000 1.54 350 19:35 06.03.2022
3339 Clear -3 1022 65 10000 1.54 180 18:40 06.03.2022
3340 Clear -2 1022 61 10000 1.03 360 17:36 06.03.2022
3341 Clear -2 1022 59 10000 1.03 360 17:18 06.03.2022
3342 Clear -3 1022 66 10000 0.51 300 16:25 06.03.2022
3343 Clear -2 1022 64 10000 1.54 280 15:23 06.03.2022
3344 Clear -1 1022 53 10000 2.57 340 14:41 06.03.2022
3345 Clear 0 1022 53 10000 1.54 280 13:48 06.03.2022
3346 Clear 2 1022 46 10000 3.09 240 12:36 06.03.2022
3347 Clear 2 1021 38 10000 3.6 260 11:30 06.03.2022
3348 Clear 4 1021 30 10000 5.14 260 10:30 06.03.2022
3349 Clear 7 1020 20 10000 5.14 260 08:51 06.03.2022
3350 Clear 7 1020 20 10000 5.14 260 08:27 06.03.2022
3351 Clear 6 1022 16 10000 4.63 300 06:33 06.03.2022
3352 Clear 2 1024 26 10000 4.63 300 01:36 06.03.2022
3353 Clear 0 1023 36 10000 1.54 330 00:33 06.03.2022
3354 Clear -1 1022 37 10000 2.57 320 23:46 05.03.2022
3355 Clear -1 1022 31 10000 3.76 299 23:18 05.03.2022
3356 Clear -2 1022 42 10000 2.57 330 22:31 05.03.2022
3357 Clear -1 1021 40 10000 3.09 290 21:24 05.03.2022
3358 Clear -1 1020 43 10000 3.6 300 19:56 05.03.2022
3359 Clear -1 1020 45 10000 2.57 290 18:56 05.03.2022
3360 Clear -1 1020 45 10000 2.57 290 18:34 05.03.2022
3361 Clear 0 1020 40 10000 2.57 290 16:57 05.03.2022
3362 Clear 0 1020 37 10000 2.57 270 15:43 05.03.2022
3363 Clear 0 1020 36 10000 3.09 10 14:52 05.03.2022
3364 Clear 0 1020 36 10000 3.09 10 14:34 05.03.2022
3365 Clear 1 1019 32 10000 2.57 320 13:34 05.03.2022
3366 Clear 2 1018 30 10000 6.69 330 11:49 05.03.2022
3367 Clear 2 1018 32 10000 6.69 330 11:19 05.03.2022
3368 Clear 5 1017 26 10000 6.34 308 10:20 05.03.2022
3369 Clear 6 1016 22 10000 7.2 290 09:26 05.03.2022
3370 Clouds 6 1015 20 10000 10.29 300 07:51 05.03.2022
3371 Clear 6 1016 20 10000 9.26 290 05:43 05.03.2022
3372 Clear 4 1016 20 10000 7.2 280 03:49 05.03.2022
3373 Clear 1 1014 39 8000 4.63 290 23:38 04.03.2022
3374 Clear 1 1014 46 8000 4.63 290 22:42 04.03.2022
3375 Clear 1 1014 51 8000 4.63 290 22:19 04.03.2022
3376 Clear 2 1012 45 10000 4.63 280 20:56 04.03.2022
3377 Clear 2 1012 45 10000 4.63 280 20:27 04.03.2022
3378 Haze 3 1012 46 10000 2.57 270 19:36 04.03.2022
3379 Clear 4 1012 52 10000 4.12 280 18:45 04.03.2022
3380 Dust 5 1011 65 5000 4.63 280 17:39 04.03.2022
3381 Dust 5 1010 70 3500 3.09 270 16:54 04.03.2022
3382 Dust 6 1009 75 3500 4.63 260 15:29 04.03.2022
3383 Dust 8 1008 68 4000 6.69 260 14:29 04.03.2022
3384 Mist 8 1008 74 4500 7.2 230 13:26 04.03.2022
3385 Clouds 10 1007 67 8000 9.26 220 11:41 04.03.2022
3386 Clouds 11 1007 55 9000 9.77 230 10:50 04.03.2022
3387 Rain 12 1006 44 10000 8.23 230 09:42 04.03.2022
3388 Clouds 12 1007 47 10000 10.8 210 08:39 04.03.2022
3389 Rain 13 1008 32 10000 9.77 210 07:34 04.03.2022
3390 Haze 10 1013 56 5000 4.12 160 03:53 04.03.2022
3391 Clouds 1 1015 67 8000 4.63 150 00:24 04.03.2022
3392 Mist -3 1016 77 5000 3.09 210 22:26 03.03.2022
3393 Clouds -3 1016 80 6000 0.51 260 21:41 03.03.2022
3394 Clouds -2 1016 56 10000 1.57 125 21:21 03.03.2022
3395 Clouds -3 1017 86 6000 1.03 220 19:50 03.03.2022
3396 Clouds -2 1017 80 8000 0.51 30 18:53 03.03.2022
3397 Clouds -2 1017 80 8000 0.51 30 18:22 03.03.2022
3398 Clear -1 1017 67 10000 1.54 130 17:28 03.03.2022
3399 Clear 0 1017 59 10000 2.06 150 16:22 03.03.2022
3400 Clear -1 1017 80 10000 0.51 340 15:20 03.03.2022
3401 Clear 1 1017 56 10000 0.51 70 14:42 03.03.2022
3402 Clear 3 1017 56 10000 1.03 40 13:18 03.03.2022
3403 Clear 3 1017 56 10000 1.03 40 13:18 03.03.2022
3404 Clear 3 1017 56 10000 1.03 40 13:18 03.03.2022
3405 Clear 6 1018 37 10000 2.57 290 11:50 03.03.2022
3406 Clear 9 1017 26 10000 3.09 290 10:41 03.03.2022
3407 Clear 12 1018 19 10000 4.12 290 08:52 03.03.2022
3408 Clear 12 1018 23 10000 4.63 290 07:25 03.03.2022
3409 Clear 12 1018 22 10000 4.12 250 06:34 03.03.2022
3410 Mist 3 1019 84 7000 1.54 200 01:45 03.03.2022
3411 Fog -2 1018 100 3000 0.51 210 23:29 02.03.2022
3412 Mist -2 1018 93 3000 1.03 150 22:50 02.03.2022
3413 Mist -2 1018 93 3000 1.03 150 22:50 02.03.2022
3414 Mist 1 1017 93 4000 1.03 50 21:30 02.03.2022
3415 Mist 3 1017 81 5000 3.09 290 20:45 02.03.2022
3416 Mist 2 1017 87 5000 3.09 290 20:22 02.03.2022
3417 Mist 3 1017 84 5000 3.09 180 19:34 02.03.2022
3418 Mist 4 1017 78 6000 2.06 230 18:44 02.03.2022
3419 Clear 4 1017 81 7000 3.09 240 17:59 02.03.2022
3420 Clear 4 1017 81 7000 3.09 240 17:23 02.03.2022
3421 Mist 4 1017 78 8000 2.57 240 16:45 02.03.2022
3422 Mist 4 1017 78 8000 2.57 240 16:45 02.03.2022
3423 Clear 3 1017 72 9000 3.09 240 14:44 02.03.2022
3424 Clear 4 1017 63 10000 3.09 250 13:24 02.03.2022
3425 Clear 4 1017 63 10000 2.57 240 12:42 02.03.2022
3426 Clear 5 1017 59 10000 3.6 240 11:40 02.03.2022
3427 Clear 4 1017 70 10000 3.6 240 11:22 02.03.2022
3428 Clear 7 1016 46 10000 6.17 260 09:41 02.03.2022
3429 Clear 8 1017 40 10000 6.17 230 08:55 02.03.2022
3430 Clear 8 1017 38 10000 5.66 250 07:38 02.03.2022
3431 Clear 8 1017 32 10000 6.17 240 06:51 02.03.2022
3432 Clear 4 1019 41 10000 1.03 160 02:35 02.03.2022
3433 Clear -5 1019 80 10000 0.51 360 23:49 01.03.2022
3434 Clear -5 1018 80 10000 1.54 180 22:45 01.03.2022
3435 Clear -5 1018 77 10000 2.06 190 21:58 01.03.2022
3436 Clear -4 1018 77 10000 2.06 190 21:25 01.03.2022
3437 Clear -3 1018 69 10000 0.51 290 20:30 01.03.2022
3438 Clear -4 1018 74 10000 0.51 290 20:30 01.03.2022
3439 Clear -3 1018 69 10000 0.51 290 20:30 01.03.2022
3440 Clear -3 1018 61 10000 0.51 340 19:28 01.03.2022
3441 Clear -3 1018 68 10000 1.03 210 18:49 01.03.2022
3442 Clear -3 1018 68 10000 1.03 210 18:19 01.03.2022
3443 Clear -1 1018 37 10000 2.22 278 17:19 01.03.2022
3444 Clear 0 1018 53 10000 2.57 280 16:31 01.03.2022
3445 Clear 1 1018 51 10000 2.57 320 15:38 01.03.2022
3446 Clear 2 1018 51 10000 3.6 290 14:34 01.03.2022
3447 Clear 2 1017 60 10000 3.09 300 13:52 01.03.2022
3448 Clear 2 1017 60 10000 3.09 300 13:24 01.03.2022
3449 Clear 4 1016 63 10000 5.14 290 12:30 01.03.2022
3450 Clouds 7 1014 52 10000 4.12 300 10:33 01.03.2022
3451 Haze 9 1013 53 10000 4.12 280 08:41 01.03.2022
3452 Haze 9 1013 61 7000 4.12 330 07:44 01.03.2022
3453 Mist 7 1014 81 4500 4.63 270 05:49 01.03.2022
3454 Mist 6 1014 90 6000 1.54 170 01:48 01.03.2022
3455 Mist 5 1014 93 6000 2.06 150 00:24 01.03.2022
3456 Rain 3 1013 93 4500 1.54 150 23:19 28.02.2022
3457 Rain 4 1014 93 5000 0.51 100 21:59 28.02.2022
3458 Rain 4 1014 93 5000 0.51 100 21:24 28.02.2022
3459 Rain 4 1015 78 10000 1.03 110 19:53 28.02.2022
3460 Rain 4 1015 70 10000 1.03 110 19:27 28.02.2022
3461 Rain 5 1015 56 10000 1.54 190 18:38 28.02.2022
3462 Clear 4 1016 56 10000 1.03 140 17:24 28.02.2022
3463 Clear 4 1016 54 10000 2.06 160 16:33 28.02.2022
3464 Clear 5 1017 49 10000 2.06 180 15:23 28.02.2022
3465 Clear 4 1017 48 10000 2.57 200 14:31 28.02.2022
3466 Clear 4 1017 54 10000 1.03 220 13:34 28.02.2022
3467 Clear 5 1018 47 10000 1.03 60 12:37 28.02.2022
3468 Clear 8 1018 35 10000 2.06 290 11:40 28.02.2022
3469 Clear 9 1018 28 10000 1.03 270 10:48 28.02.2022
3470 Clear 10 1018 29 10000 1.03 270 10:19 28.02.2022
3471 Clear 11 1018 27 10000 2.57 170 09:31 28.02.2022
3472 Clear 11 1019 38 10000 1.54 230 08:29 28.02.2022
3473 Clear 10 1020 50 10000 2.06 220 07:20 28.02.2022
3474 Clear 8 1023 53 10000 2.57 200 04:32 28.02.2022
3475 Clouds 7 1023 61 10000 2.06 190 03:58 28.02.2022
3476 Clouds 1 1023 90 9000 3.09 170 23:27 27.02.2022
3477 Clouds 0 1023 90 9000 2.06 160 22:33 27.02.2022
3478 Clouds 0 1022 83 8000 3.09 150 21:49 27.02.2022
3479 Clouds 1 1022 83 10000 2.57 120 20:55 27.02.2022
3480 Clouds 1 1022 83 10000 2.57 120 20:27 27.02.2022
3481 Clouds 2 1023 84 10000 3.09 170 19:56 27.02.2022
3482 Clouds 2 1023 84 10000 3.09 170 19:26 27.02.2022
3483 Clouds 1 1023 83 10000 3.09 160 18:39 27.02.2022
3484 Clear -1 1022 93 10000 3.6 170 17:54 27.02.2022
3485 Clear 0 1022 80 10000 3.09 150 16:37 27.02.2022
3486 Clear 1 1022 80 10000 2.57 140 15:59 27.02.2022
3487 Clear 4 1022 70 10000 2.06 240 13:21 27.02.2022
3488 Clear 5 1021 61 10000 2.57 240 12:32 27.02.2022
3489 Clear 7 1021 49 10000 5.14 240 10:54 27.02.2022
3490 Clear 8 1021 44 10000 6.69 230 09:58 27.02.2022
3491 Clear 8 1021 44 10000 6.69 230 09:37 27.02.2022
3492 Clear 8 1021 49 10000 6.69 230 09:18 27.02.2022
3493 Clear 9 1022 37 10000 6.69 230 06:43 27.02.2022
3494 Clear 8 1022 33 10000 6.17 230 05:36 27.02.2022
3495 Clear -3 1022 77 10000 1.03 160 00:52 27.02.2022
3496 Clear -4 1021 74 10000 1.03 350 22:56 26.02.2022
3497 Clear -3 1020 72 10000 2.06 290 21:39 26.02.2022
3498 Clear 0 1020 55 10000 2.57 280 20:48 26.02.2022
3499 Clear 0 1020 59 10000 2.57 280 20:19 26.02.2022
3500 Clear 1 1019 52 10000 2.57 290 19:37 26.02.2022
3501 Clear 1 1019 54 10000 4.12 290 18:49 26.02.2022
3502 Haze 1 1018 56 10000 4.63 280 17:42 26.02.2022
3503 Haze 2 1017 61 6000 4.12 280 16:48 26.02.2022
3504 Mist 2 1017 65 5000 5.14 310 15:48 26.02.2022
3505 Mist 2 1017 69 5000 4.63 280 15:20 26.02.2022
3506 Mist 2 1016 70 3500 7.2 310 14:52 26.02.2022
3507 Mist 3 1016 70 3500 7.2 310 14:25 26.02.2022
3508 Mist 4 1015 81 2500 6.69 290 13:18 26.02.2022
3509 Rain 6 1012 84 5000 7.72 240 11:54 26.02.2022
3510 Rain 6 1012 84 5000 7.72 240 11:28 26.02.2022
3511 Rain 8 1012 69 9000 8.23 230 10:39 26.02.2022
3512 Clouds 8 1014 62 10000 7.2 210 08:48 26.02.2022
3513 Clouds 10 1016 60 9000 8.75 210 06:46 26.02.2022
3514 Mist 4 1021 81 3000 5.14 190 00:38 26.02.2022
3515 Mist 4 1021 87 2500 4.63 200 22:45 25.02.2022
3516 Mist 3 1021 87 2500 3.09 180 21:40 25.02.2022
3517 Mist 3 1021 87 2500 3.09 180 21:21 25.02.2022
3518 Mist 2 1021 87 2500 2.57 160 20:32 25.02.2022
3519 Mist 4 1023 87 2500 2.57 170 18:41 25.02.2022
3520 Mist 3 1023 87 2800 2.57 170 17:23 25.02.2022
3521 Mist 3 1024 87 3000 1.54 190 16:21 25.02.2022
3522 Mist 4 1024 84 3000 2.57 190 15:42 25.02.2022
3523 Mist 4 1024 84 3000 2.57 190 15:20 25.02.2022
3524 Mist 4 1024 81 3000 2.57 180 14:41 25.02.2022
3525 Mist 5 1025 76 3000 3.09 220 13:36 25.02.2022
3526 Haze 5 1025 87 3000 3.6 220 12:45 25.02.2022
3527 Haze 6 1024 75 3500 3.09 230 11:28 25.02.2022
3528 Haze 6 1024 75 3800 4.12 240 10:29 25.02.2022
3529 Haze 7 1024 64 4500 4.12 240 09:53 25.02.2022
3530 Haze 8 1025 55 5000 4.63 240 08:46 25.02.2022
3531 Haze 9 1025 52 5000 4.63 220 07:37 25.02.2022
3532 Haze 8 1027 50 6000 4.63 240 05:47 25.02.2022
3533 Mist 2 1028 67 7000 3.09 150 02:58 25.02.2022
3534 Mist -6 1028 93 5000 3.09 150 22:56 24.02.2022
3535 Clear -6 1028 86 6000 3.09 140 21:54 24.02.2022
3536 Clear -6 1028 86 6000 3.09 140 21:31 24.02.2022
3537 Clear -6 1028 86 7000 3.09 140 20:57 24.02.2022
3538 Clear -5 1028 86 8000 3.09 130 19:38 24.02.2022
3539 Clear -6 1028 90 8000 3.09 140 18:37 24.02.2022
3540 Clear -6 1028 93 8000 3.09 140 18:18 24.02.2022
3541 Clear -5 1028 86 10000 3.09 140 17:33 24.02.2022
3542 Clear -5 1028 86 10000 3.09 140 17:33 24.02.2022
3543 Clear -4 1028 77 10000 2.57 140 16:29 24.02.2022
3544 Clear -4 1028 77 10000 1.54 90 15:47 24.02.2022
3545 Clear -4 1029 69 10000 0.51 130 14:53 24.02.2022
3546 Clear -4 1029 74 10000 0.51 130 14:24 24.02.2022
3547 Clear -2 1029 67 10000 0.51 220 13:39 24.02.2022
3548 Clear -2 1029 67 10000 0.51 220 13:39 24.02.2022
3549 Clear -1 1029 62 10000 1.54 250 12:33 24.02.2022
3550 Clear 1 1029 51 10000 3.6 280 10:40 24.02.2022
3551 Clouds 3 1030 44 10000 5.66 270 08:56 24.02.2022
3552 Clouds 3 1030 44 10000 5.66 270 08:38 24.02.2022
3553 Clouds 2 1031 31 10000 5.66 290 05:52 24.02.2022
3554 Clear -9 1033 65 10000 1.03 330 00:32 24.02.2022
3555 Clear -11 1032 67 10000 0.51 350 22:38 23.02.2022
3556 Clear -11 1032 67 10000 1.03 190 21:34 23.02.2022
3557 Clear -10 1032 65 10000 1.54 210 20:30 23.02.2022
3558 Clear -9 1032 53 10000 0.51 60 19:44 23.02.2022
3559 Clear -8 1032 50 10000 2.06 330 18:32 23.02.2022
3560 Clear -7 1032 40 10000 1.54 330 17:30 23.02.2022
3561 Clear -5 1033 32 10000 4.12 300 14:34 23.02.2022
3562 Clear -4 1032 27 10000 4.63 300 12:37 23.02.2022
3563 Clear -4 1032 28 10000 3.09 310 11:24 23.02.2022
3564 Clear -2 1031 24 10000 5.66 300 10:31 23.02.2022
3565 Clear -1 1031 21 10000 4.12 320 08:58 23.02.2022
3566 Clear -1 1032 24 10000 5.66 280 07:57 23.02.2022
3567 Clear -4 1035 28 10000 3.6 320 03:48 23.02.2022
3568 Clear -10 1034 53 10000 1.03 260 00:19 23.02.2022
3569 Clear -10 1034 43 10000 2.57 290 23:35 22.02.2022
3570 Clear -10 1034 49 10000 2.06 320 22:31 22.02.2022
3571 Clear -11 1034 57 10000 1.03 280 21:48 22.02.2022
3572 Clear -11 1034 62 10000 1.03 280 21:25 22.02.2022
3573 Clear -10 1034 57 10000 1.03 260 20:49 22.02.2022
3574 Clear -10 1034 57 10000 1.03 260 20:29 22.02.2022
3575 Clear -9 1034 53 10000 2.06 290 19:34 22.02.2022
3576 Clear -9 1034 43 10000 1.03 310 18:58 22.02.2022
3577 Clear -8 1034 45 10000 2.06 260 17:36 22.02.2022
3578 Clear -8 1034 45 10000 2.06 260 17:18 22.02.2022
3579 Clear -8 1034 40 10000 3.09 290 16:36 22.02.2022
3580 Clear -7 1033 42 10000 4.63 320 15:37 22.02.2022
3581 Clear -6 1033 40 10000 6.17 330 14:42 22.02.2022
3582 Clouds -4 1032 37 10000 7.2 330 11:41 22.02.2022
3583 Clouds -2 1031 37 10000 6.17 270 10:24 22.02.2022
3584 Clouds 0 1031 32 10000 6.17 290 07:43 22.02.2022
3585 Clouds 0 1031 32 10000 6.17 290 07:25 22.02.2022
3586 Clouds 0 1031 32 10000 6.17 290 07:25 22.02.2022
3587 Clear -3 1033 25 10000 4.12 300 02:51 22.02.2022
3588 Clear -7 1032 46 10000 3.09 350 00:44 22.02.2022
3589 Clear -6 1032 38 10000 4.63 330 22:38 21.02.2022
3590 Clear -6 1032 39 10000 3.09 290 21:25 21.02.2022
3591 Clear -7 1032 49 10000 3.09 300 20:19 21.02.2022
3592 Clear -6 1031 50 10000 2.57 290 18:40 21.02.2022
3593 Clear -4 1031 52 10000 3.09 320 16:40 21.02.2022
3594 Clear -3 1030 41 10000 5.17 302 14:24 21.02.2022
3595 Clear -3 1029 43 10000 4.63 300 13:56 21.02.2022
3596 Clear -2 1028 42 10000 5.14 300 12:57 21.02.2022
3597 Clear -2 1028 43 10000 5.14 300 12:22 21.02.2022
3598 Clear 0 1027 44 10000 7.2 260 10:32 21.02.2022
3599 Clouds 3 1026 38 10000 8.75 260 08:31 21.02.2022
3600 Clear -7 1028 65 10000 4.12 140 00:56 21.02.2022
3601 Clear -10 1028 67 10000 2.06 140 22:40 20.02.2022
3602 Clear -10 1028 70 10000 1.54 180 21:54 20.02.2022
3603 Clear -10 1028 70 10000 1.54 180 21:25 20.02.2022
3604 Clear -9 1028 68 10000 0.51 40 20:50 20.02.2022
3605 Clear -9 1028 68 10000 1.03 230 19:59 20.02.2022
3606 Clear -8 1029 56 10000 1.03 120 18:57 20.02.2022
3607 Clear -8 1029 56 10000 1.03 120 18:37 20.02.2022
3608 Clear -7 1029 54 10000 1.03 130 17:56 20.02.2022
3609 Clear -7 1029 54 10000 1.03 130 17:24 20.02.2022
3610 Clouds -5 1029 44 10000 2.57 310 15:28 20.02.2022
3611 Clouds -4 1028 44 10000 4.12 300 13:59 20.02.2022
3612 Clouds -4 1027 39 10000 4.63 240 12:47 20.02.2022
3613 Clear -3 1026 36 10000 4.63 270 11:56 20.02.2022
3614 Clear -2 1026 34 10000 4.12 270 10:21 20.02.2022
3615 Clear -1 1026 28 10000 5.66 270 09:46 20.02.2022
3616 Clear 0 1026 21 10000 6.69 310 06:30 20.02.2022
3617 Clear -7 1026 46 10000 5.66 290 00:33 20.02.2022
3618 Clear -8 1026 49 10000 5.66 300 23:33 19.02.2022
3619 Clear -7 1025 49 10000 4.63 300 22:24 19.02.2022
3620 Clear -7 1025 49 10000 5.14 300 21:50 19.02.2022
3621 Clear -7 1025 44 10000 5.66 300 20:41 19.02.2022
3622 Clear -6 1025 44 10000 5.66 300 19:35 19.02.2022
3623 Clear -6 1025 45 10000 6.17 300 18:41 19.02.2022
3624 Clear -6 1024 50 10000 4.12 300 17:57 19.02.2022
3625 Clear -6 1024 53 10000 4.12 300 17:21 19.02.2022
3626 Clear -6 1024 50 10000 4.63 320 15:59 19.02.2022
3627 Clear -5 1024 50 10000 6.69 310 14:54 19.02.2022
3628 Clouds -4 1023 50 10000 6.69 300 13:57 19.02.2022
3629 Snow -1 1022 64 10000 7.2 280 11:53 19.02.2022
3630 Clouds -1 1022 74 8000 4.63 270 10:54 19.02.2022
3631 Mist 1 1022 61 1200 8.23 280 08:56 19.02.2022
3632 Clouds 3 1023 41 10000 4.12 300 06:48 19.02.2022
3633 Clear -3 1025 61 10000 1.03 330 00:38 19.02.2022
3634 Clear -4 1025 68 10000 0.51 320 22:24 18.02.2022
3635 Snow -3 1025 63 10000 0.51 290 21:21 18.02.2022
3636 Clear -3 1026 63 10000 2.57 310 20:18 18.02.2022
3637 Snow -2 1027 56 10000 2.06 310 18:51 18.02.2022
3638 Clear -2 1027 56 10000 2.06 310 18:28 18.02.2022
3639 Clear -2 1027 56 10000 2.57 340 17:56 18.02.2022
3640 Clear -1 1027 48 10000 3.09 330 15:57 18.02.2022
3641 Clear -2 1028 43 10000 1.54 300 13:56 18.02.2022
3642 Clear -2 1028 43 10000 1.54 300 13:32 18.02.2022
3643 Clear -1 1027 40 10000 2.57 320 12:48 18.02.2022
3644 Clear 0 1028 38 10000 1.54 300 11:56 18.02.2022
3645 Clear 3 1028 27 10000 4.63 310 10:42 18.02.2022
3646 Clear 4 1029 18 10000 1.03 120 06:58 18.02.2022
3647 Clear 3 1030 21 10000 2.06 160 05:42 18.02.2022
3648 Clear -10 1032 76 10000 1.54 140 23:53 17.02.2022
3649 Clear -11 1032 73 10000 2.06 310 21:50 17.02.2022
3650 Clear -11 1032 73 10000 2.06 310 21:26 17.02.2022
3651 Clear -11 1031 73 10000 1.54 300 20:40 17.02.2022
3652 Clear -10 1031 76 10000 1.54 170 19:52 17.02.2022
3653 Clear -10 1031 65 10000 1.03 50 18:54 17.02.2022
3654 Clear -9 1031 65 10000 2.06 350 17:59 17.02.2022
3655 Clear -8 1031 65 10000 2.06 320 16:43 17.02.2022
3656 Clear -8 1031 63 10000 1.03 350 15:40 17.02.2022
3657 Clear -6 1030 53 10000 1.03 50 14:28 17.02.2022
3658 Clear -6 1030 48 10000 0.51 230 12:50 17.02.2022
3659 Clear -5 1029 36 10000 1.54 320 11:27 17.02.2022
3660 Clear -2 1028 25 10000 2.57 330 09:30 17.02.2022
3661 Clear -5 1029 30 10000 4.12 340 04:41 17.02.2022
3662 Clear -11 1028 52 10000 2.57 340 23:21 16.02.2022
3663 Clear -9 1027 40 10000 6.17 310 21:45 16.02.2022
3664 Clear -9 1026 42 10000 7.2 320 19:57 16.02.2022
3665 Clear -9 1026 47 10000 5.14 300 18:43 16.02.2022
3666 Clear -9 1026 53 10000 4.63 300 17:53 16.02.2022
3667 Clear -9 1025 47 10000 4.12 340 15:55 16.02.2022
3668 Clear -9 1025 53 10000 4.12 340 15:19 16.02.2022
3669 Clear -8 1025 44 10000 6.17 330 13:31 16.02.2022
3670 Clouds -7 1024 42 10000 7.72 320 12:20 16.02.2022
3671 Clouds -6 1023 40 10000 6.17 310 11:28 16.02.2022
3672 Clouds -6 1023 34 10000 5.14 300 10:34 16.02.2022
3673 Clouds -4 1023 31 10000 5.66 290 08:20 16.02.2022
3674 Clouds -4 1023 29 10000 6.69 280 06:29 16.02.2022
3675 Clear -8 1024 60 10000 4.12 310 23:45 15.02.2022
3676 Clear -8 1024 63 10000 3.6 320 22:30 15.02.2022
3677 Clear -9 1024 63 10000 2.57 320 21:47 15.02.2022
3678 Clear -9 1024 63 10000 2.57 320 21:27 15.02.2022
3679 Clear -8 1023 56 10000 2.57 310 20:56 15.02.2022
3680 Clear -8 1024 58 10000 2.57 290 19:57 15.02.2022
3681 Clear -8 1024 53 10000 3.09 340 18:56 15.02.2022
3682 Clear -8 1024 57 10000 2.57 290 18:22 15.02.2022
3683 Clear -8 1023 51 10000 2.57 290 17:50 15.02.2022
3684 Clear -8 1024 51 10000 4.12 320 16:50 15.02.2022
3685 Clear -7 1024 49 10000 4.63 320 15:28 15.02.2022
3686 Clear -7 1023 49 10000 5.66 320 13:27 15.02.2022
3687 Clear -6 1023 44 10000 6.17 330 12:37 15.02.2022
3688 Clouds -5 1022 44 10000 5.66 330 11:40 15.02.2022
3689 Clouds -3 1021 46 10000 7.2 270 09:31 15.02.2022
3690 Clouds -3 1021 46 10000 6.17 270 06:58 15.02.2022
3691 Clouds -3 1023 50 10000 4.63 280 04:54 15.02.2022
3692 Haze -5 1022 68 10000 4.12 290 23:33 14.02.2022
3693 Haze -4 1021 64 10000 5.14 280 21:36 14.02.2022
3694 Snow -3 1021 63 10000 5.66 290 20:37 14.02.2022
3695 Snow -3 1021 63 8000 4.63 290 19:34 14.02.2022
3696 Clouds -2 1021 66 8000 4.12 300 18:42 14.02.2022
3697 Clouds -2 1021 64 8000 4.12 300 18:22 14.02.2022
3698 Clouds -2 1022 64 8000 4.12 290 17:25 14.02.2022
3699 Clouds -1 1021 59 8000 5.14 300 16:19 14.02.2022
3700 Haze 1 1020 69 6000 6.17 270 13:54 14.02.2022
3701 Haze 1 1020 69 6000 6.17 270 13:26 14.02.2022
3702 Mist 1 1020 72 6000 4.63 270 12:33 14.02.2022
3703 Mist 2 1019 75 5000 6.69 260 11:54 14.02.2022
3704 Mist 3 1018 87 5000 6.17 280 10:37 14.02.2022
3705 Rain 5 1019 66 1500 5.66 230 08:43 14.02.2022
3706 Mist 7 1018 56 4500 7.2 280 07:30 14.02.2022
3707 Clear -4 1021 90 10000 1.03 170 23:45 13.02.2022
3708 Clear -4 1021 87 10000 0.51 230 22:42 13.02.2022
3709 Clear -4 1021 93 10000 0 0 22:23 13.02.2022
3710 Clear -3 1021 87 10000 1.54 330 21:32 13.02.2022
3711 Clear -3 1021 80 10000 1.03 20 20:35 13.02.2022
3712 Clear -3 1022 84 10000 1.03 10 19:30 13.02.2022
3713 Clear -1 1022 75 10000 1.54 330 18:46 13.02.2022
3714 Clear -1 1022 80 10000 1.54 330 18:26 13.02.2022
3715 Clear 0 1022 67 10000 3.09 310 15:54 13.02.2022
3716 Clear 0 1022 67 10000 3.09 310 15:54 13.02.2022
3717 Clear 0 1022 74 10000 3.09 310 15:20 13.02.2022
3718 Clear 1 1022 59 10000 3.6 330 14:22 13.02.2022
3719 Clear 2 1021 53 10000 2.06 300 12:50 13.02.2022
3720 Clear 4 1021 41 10000 2.06 340 11:35 13.02.2022
3721 Clear 6 1020 35 10000 2.57 350 10:32 13.02.2022
3722 Clouds 9 1020 30 9000 2.06 340 09:45 13.02.2022
3723 Clouds 9 1021 29 8000 3.6 340 07:21 13.02.2022
3724 Clouds 0 1023 60 7000 1.03 330 00:35 13.02.2022
3725 Clouds -1 1023 62 7000 0.51 40 23:39 12.02.2022
3726 Clouds -1 1022 64 7000 1.54 10 22:33 12.02.2022
3727 Clouds -1 1022 74 7000 1.54 330 21:20 12.02.2022
3728 Clouds -2 1022 62 8000 1.03 20 20:32 12.02.2022
3729 Clouds -2 1023 64 8000 1.03 40 19:21 12.02.2022
3730 Clouds -1 1023 59 8000 2.06 340 18:52 12.02.2022
3731 Clouds -1 1023 59 8000 2.06 340 18:34 12.02.2022
3732 Clear -1 1023 55 10000 1.54 200 16:56 12.02.2022
3733 Clear -1 1023 55 10000 1.54 200 16:25 12.02.2022
3734 Clear -1 1023 55 10000 1.54 200 16:25 12.02.2022
3735 Clear 0 1023 46 10000 1.54 350 15:50 12.02.2022
3736 Clear 1 1024 42 10000 1.54 340 14:31 12.02.2022
3737 Clear 2 1023 39 10000 1.03 360 12:58 12.02.2022
3738 Clear 6 1023 24 10000 3.09 340 10:40 12.02.2022
3739 Clear 9 1023 20 10000 4.12 320 09:39 12.02.2022
3740 Clear 10 1023 19 10000 4.63 320 08:50 12.02.2022
3741 Clear 10 1023 20 10000 4.63 320 08:18 12.02.2022
3742 Haze 9 1025 28 7000 3.6 330 05:33 12.02.2022
3743 Haze 7 1026 32 6000 2.57 60 04:27 12.02.2022
3744 Mist 3 1027 65 2500 2.06 340 02:18 12.02.2022
3745 Mist -2 1026 87 1300 0.51 20 22:28 11.02.2022
3746 Mist -2 1026 87 1100 1.03 310 21:51 11.02.2022
3747 Mist -1 1026 93 1300 1.03 10 20:40 11.02.2022
3748 Mist -1 1026 84 1700 1.54 180 19:40 11.02.2022
3749 Mist -1 1026 93 1700 0 0 19:20 11.02.2022
3750 Mist -1 1027 75 2200 1.03 10 17:48 11.02.2022
3751 Mist -1 1027 75 2200 1.03 10 17:22 11.02.2022
3752 Mist 1 1026 66 3000 1.03 330 15:56 11.02.2022
3753 Mist 1 1026 65 3000 2.06 340 14:43 11.02.2022
3754 Mist 1 1026 75 3000 2.06 340 14:21 11.02.2022
3755 Haze 1 1026 63 3000 1.54 350 13:52 11.02.2022
3756 Haze 1 1026 63 3000 1.54 350 13:34 11.02.2022
3757 Clouds 3 1026 56 6000 2.06 310 11:32 11.02.2022
3758 Haze 7 1025 33 8000 3.09 270 09:57 11.02.2022
3759 Haze 8 1026 33 7000 2.57 280 08:42 11.02.2022
3760 Haze 8 1026 33 7000 2.57 280 08:42 11.02.2022
3761 Clouds 8 1026 36 7000 2.57 280 08:22 11.02.2022
3762 Haze 9 1026 32 7000 3.09 290 06:33 11.02.2022
3763 Mist 0 1028 93 3500 0.51 360 02:26 11.02.2022
3764 Fog -6 1027 90 5000 0.51 330 00:47 11.02.2022
3765 Fog -6 1026 90 3000 0.51 320 22:45 10.02.2022
3766 Fog -6 1025 87 2000 2.06 340 21:45 10.02.2022
3767 Fog -6 1025 90 2000 1.03 10 20:54 10.02.2022
3768 Fog -6 1025 90 2000 1.03 10 20:29 10.02.2022
3769 Fog -6 1025 90 2500 1.54 330 19:25 10.02.2022
3770 Fog -5 1025 87 2500 1.03 210 18:43 10.02.2022
3771 Mist -5 1025 87 5000 1.03 310 17:26 10.02.2022
3772 Mist -4 1025 81 6000 0.51 140 16:47 10.02.2022
3773 Clear -2 1025 81 8000 1.54 190 15:45 10.02.2022
3774 Clear -2 1025 81 8000 1.54 190 15:25 10.02.2022
3775 Clear -1 1025 73 8000 1.03 60 14:44 10.02.2022
3776 Clear -1 1025 86 8000 1.03 60 14:22 10.02.2022
3777 Clear 0 1024 80 8000 2.06 340 13:20 10.02.2022
3778 Clear 1 1023 69 10000 3.09 290 11:58 10.02.2022
3779 Clear 1 1023 69 10000 3.09 290 11:32 10.02.2022
3780 Clear 3 1022 56 10000 4.12 280 10:32 10.02.2022
3781 Clear 7 1022 38 10000 4.63 280 09:46 10.02.2022
3782 Clear 7 1022 36 10000 4.63 280 08:42 10.02.2022
3783 Clear 7 1022 33 10000 4.12 310 06:34 10.02.2022
3784 Clear 4 1024 37 10000 1.54 270 03:33 10.02.2022
3785 Clouds -5 1024 84 8000 1.03 310 00:57 10.02.2022
3786 Clouds -5 1024 84 8000 1.03 310 00:38 10.02.2022
3787 Clouds -6 1024 93 8000 1.03 310 00:20 10.02.2022
3788 Clear -5 1023 77 10000 1.03 330 22:56 09.02.2022
3789 Clear -5 1023 77 10000 1.03 330 22:33 09.02.2022
3790 Clear -5 1023 77 10000 1.03 320 21:47 09.02.2022
3791 Clear -5 1023 77 10000 1.03 320 21:27 09.02.2022
3792 Clear -5 1023 77 10000 1.03 320 21:27 09.02.2022
3793 Clear -5 1023 71 10000 1.03 10 20:44 09.02.2022
3794 Clear -5 1023 71 10000 1.03 10 20:44 09.02.2022
3795 Clear -5 1023 79 10000 1.03 10 20:22 09.02.2022
3796 Clear -4 1023 69 10000 1.54 330 19:42 09.02.2022
3797 Clear -4 1023 75 10000 0.51 350 18:38 09.02.2022
3798 Clear -2 1023 67 10000 1.54 310 16:57 09.02.2022
3799 Clear -3 1023 74 10000 1.54 310 16:20 09.02.2022
3800 Clear -2 1023 69 10000 1.54 320 15:23 09.02.2022
3801 Clear 1 1024 51 10000 2.06 300 12:53 09.02.2022
3802 Clear 2 1023 43 10000 3.09 300 11:29 09.02.2022
3803 Clear 3 1023 36 10000 3.09 290 10:34 09.02.2022
3804 Clear 5 1023 29 10000 2.06 350 09:50 09.02.2022
3805 Clear 5 1023 33 10000 2.06 350 09:22 09.02.2022
3806 Clear 6 1024 27 10000 2.57 340 08:45 09.02.2022
3807 Clear 6 1026 25 10000 1.54 60 05:57 09.02.2022
3808 Clear 3 1028 46 10000 1.03 70 03:51 09.02.2022
3809 Clouds 1 1028 34 10000 0.38 90 03:25 09.02.2022
3810 Mist -9 1027 92 5000 1.54 310 23:45 08.02.2022
3811 Mist -9 1027 92 5000 1.54 310 23:18 08.02.2022
3812 Mist -8 1028 90 5000 0.51 310 22:38 08.02.2022
3813 Mist -8 1028 93 5000 0.51 310 22:18 08.02.2022
3814 Mist -8 1027 93 5000 1.54 350 21:22 08.02.2022
3815 Clear -7 1027 86 7000 2.06 320 20:56 08.02.2022
3816 Clear -7 1027 86 7000 2.06 320 20:31 08.02.2022
3817 Clear -6 1027 84 6000 1.54 320 18:55 08.02.2022
3818 Clear -6 1028 80 10000 1.54 30 17:50 08.02.2022
3819 Clear -6 1028 77 10000 1.54 170 16:42 08.02.2022
3820 Clear -4 1028 75 10000 1.03 360 15:45 08.02.2022
3821 Clear -4 1028 72 10000 0.51 240 14:57 08.02.2022
3822 Clear -2 1028 60 10000 2.06 50 13:30 08.02.2022
3823 Clear -1 1028 64 10000 1.54 20 12:20 08.02.2022
3824 Clear 2 1027 34 10000 5.14 270 10:45 08.02.2022
3825 Clear 4 1026 25 10000 3.6 300 09:46 08.02.2022
3826 Clear 5 1026 21 10000 3.6 330 08:27 08.02.2022
3827 Clear 4 1027 27 10000 3.6 320 05:45 08.02.2022
3828 Clear 3 1028 34 10000 3.6 350 04:40 08.02.2022
3829 Clouds 2 1029 30 10000 2.24 292 04:21 08.02.2022
3830 Clear 2 1028 50 10000 2.06 330 03:36 08.02.2022
3831 Clear 1 1028 51 10000 2.06 330 03:18 08.02.2022
3832 Clear -1 1028 59 10000 1.03 350 02:59 08.02.2022
3833 Clear -1 1028 59 10000 1.03 350 02:36 08.02.2022
3834 Clouds -3 1028 48 10000 0.84 282 02:18 08.02.2022
3835 Clear -4 1028 77 10000 1.03 320 01:44 08.02.2022
3836 Clouds -5 1028 59 10000 0.53 316 01:24 08.02.2022
3837 Clear -7 1027 83 10000 1.03 340 00:55 08.02.2022
3838 Clear -7 1027 83 10000 1.03 330 23:58 07.02.2022
3839 Clear -7 1027 83 10000 1.03 330 23:40 07.02.2022
3840 Clouds -7 1027 63 10000 0.37 346 23:18 07.02.2022
3841 Clouds -7 1027 86 10000 1.54 180 22:42 07.02.2022
3842 Clouds -7 1027 62 10000 0.58 335 22:18 07.02.2022
3843 Clouds -8 1026 86 10000 0.51 360 21:43 07.02.2022
3844 Clouds -7 1026 86 10000 0.51 360 21:25 07.02.2022
3845 Clear -7 1026 83 10000 1.54 200 20:41 07.02.2022
3846 Clear -5 1027 86 10000 0.51 320 19:54 07.02.2022
3847 Clear -5 1027 86 10000 0.51 320 19:36 07.02.2022
3848 Clouds -2 1027 57 10000 0.75 285 18:18 07.02.2022
3849 Clouds -3 1028 64 10000 1.03 310 16:53 07.02.2022
3850 Clear -2 1028 60 10000 1.03 40 15:49 07.02.2022
3851 Clear -1 1028 55 10000 1.54 280 14:56 07.02.2022
3852 Clear 0 1028 46 10000 3.09 260 13:36 07.02.2022
3853 Clear 0 1028 51 10000 3.09 260 13:18 07.02.2022
3854 Clear 0 1027 43 10000 3.09 270 11:58 07.02.2022
3855 Clear 0 1027 43 10000 3.09 270 11:36 07.02.2022
3856 Clear 0 1027 36 10000 4.12 290 10:51 07.02.2022
3857 Clear 0 1027 36 10000 4.12 290 10:31 07.02.2022
3858 Clear 1 1028 33 10000 4.12 280 09:53 07.02.2022
3859 Clear 1 1028 37 10000 4.12 280 09:18 07.02.2022
3860 Clear 2 1028 30 10000 5.14 310 08:38 07.02.2022
3861 Clear 2 1028 29 10000 4.63 340 06:58 07.02.2022
3862 Clear 2 1028 29 10000 4.63 340 06:34 07.02.2022
3863 Clear -2 1030 48 10000 0.51 20 02:59 07.02.2022
3864 Clear -9 1030 76 10000 2.06 350 00:45 07.02.2022
3865 Clear -9 1030 76 10000 2.06 350 00:45 07.02.2022
3866 Clear -11 1029 79 10000 1.03 350 23:48 06.02.2022
3867 Clear -10 1029 79 10000 1.03 10 22:48 06.02.2022
3868 Clear -10 1029 79 10000 1.54 340 21:55 06.02.2022
3869 Clear -10 1029 79 10000 1.54 340 21:35 06.02.2022
3870 Clear -10 1029 73 10000 1.03 350 20:54 06.02.2022
3871 Clear -10 1029 73 10000 1.03 350 20:31 06.02.2022
3872 Clear -9 1029 65 10000 1.03 140 19:38 06.02.2022
3873 Clear -8 1029 63 10000 1.03 150 18:40 06.02.2022
3874 Clear -7 1029 58 10000 1.03 290 17:55 06.02.2022
3875 Clear -7 1029 62 10000 1.03 290 17:18 06.02.2022
3876 Clear -5 1029 48 10000 2.06 290 16:38 06.02.2022
3877 Clear -5 1029 58 10000 2.57 310 15:48 06.02.2022
3878 Clear -5 1029 58 10000 2.57 310 15:26 06.02.2022
3879 Clear -4 1029 49 10000 2.57 340 14:36 06.02.2022
3880 Clear -3 1028 47 10000 4.12 320 13:25 06.02.2022
3881 Clear -3 1028 45 10000 4.12 320 12:51 06.02.2022
3882 Clear -2 1027 42 10000 3.09 310 11:27 06.02.2022
3883 Clear -1 1026 40 10000 4.63 280 10:29 06.02.2022
3884 Clear 1 1027 32 10000 5.14 280 08:49 06.02.2022
3885 Clouds 1 1026 34 10000 5.66 280 07:36 06.02.2022
3886 Clouds 1 1028 31 10000 5.14 290 05:30 06.02.2022
3887 Clear -3 1028 49 10000 1.03 320 02:26 06.02.2022
3888 Clear -7 1028 63 10000 0.51 20 01:32 06.02.2022
3889 Clear -11 1028 76 10000 0.51 290 00:24 06.02.2022
3890 Clear -12 1028 79 10000 0 0 22:19 05.02.2022
3891 Clear -11 1028 67 10000 1.03 100 20:52 05.02.2022
3892 Clear -10 1028 67 10000 1.03 100 20:24 05.02.2022
3893 Clear -10 1028 64 10000 1.03 320 19:45 05.02.2022
3894 Clear -10 1028 68 10000 0.51 10 18:49 05.02.2022
3895 Clear -10 1028 79 10000 0 0 17:37 05.02.2022
3896 Clear -9 1028 65 10000 0.51 310 16:37 05.02.2022
3897 Clear -9 1028 62 10000 1.03 200 15:33 05.02.2022
3898 Clear -7 1028 56 10000 1.03 200 14:47 05.02.2022
3899 Clear -6 1028 46 10000 2.57 330 12:46 05.02.2022
3900 Clear -6 1027 44 10000 3.6 310 11:49 05.02.2022
3901 Clear -5 1026 39 10000 6.17 330 10:46 05.02.2022
3902 Clouds -3 1025 36 10000 6.69 330 09:52 05.02.2022
3903 Clouds -3 1025 36 10000 6.69 330 09:25 05.02.2022
3904 Clouds -2 1025 34 10000 7.72 290 07:36 05.02.2022
3905 Clouds -2 1025 33 10000 7.2 290 06:56 05.02.2022
3906 Clear -4 1027 33 10000 4.63 320 03:22 05.02.2022
3907 Clear -7 1028 42 10000 2.57 300 01:19 05.02.2022
3908 Clear -10 1027 47 10000 3.09 310 00:39 05.02.2022
3909 Clear -10 1027 49 10000 2.57 300 23:33 04.02.2022
3910 Clear -9 1026 49 10000 3.09 290 22:55 04.02.2022
3911 Clear -10 1026 53 10000 3.09 300 21:36 04.02.2022
3912 Clear -11 1026 57 10000 3.09 300 21:18 04.02.2022
3913 Clear -9 1026 51 10000 3.09 290 20:46 04.02.2022
3914 Clear -9 1026 54 10000 2.57 300 19:30 04.02.2022
3915 Clear -9 1026 58 10000 2.06 230 16:56 04.02.2022
3916 Clear -8 1026 54 10000 1.54 320 15:34 04.02.2022
3917 Clear -7 1026 53 10000 3.6 340 14:51 04.02.2022
3918 Clouds -5 1025 45 10000 7.72 330 12:43 04.02.2022
3919 Clouds -4 1024 41 10000 5.66 290 11:46 04.02.2022
3920 Clouds -3 1024 38 10000 7.72 290 10:59 04.02.2022
3921 Clouds -3 1024 39 10000 7.72 290 10:22 04.02.2022
3922 Clouds -2 1023 38 10000 8.75 290 08:31 04.02.2022
3923 Clear -1 1026 34 10000 4.63 280 04:45 04.02.2022
3924 Clear -3 1026 48 10000 5.66 330 02:38 04.02.2022
3925 Clear -10 1026 85 10000 1.03 330 23:56 03.02.2022
3926 Clear -10 1026 76 10000 1.54 320 22:51 03.02.2022
3927 Clear -10 1026 73 10000 0.51 290 21:58 03.02.2022
3928 Clear -10 1026 73 10000 0.51 290 21:29 03.02.2022
3929 Clouds -8 1026 73 10000 0.51 60 20:22 03.02.2022
3930 Clear -8 1027 66 10000 1.03 320 19:46 03.02.2022
3931 Clear -7 1027 65 10000 1.03 290 18:56 03.02.2022
3932 Clear -7 1027 63 10000 1.54 290 17:59 03.02.2022
3933 Clear -6 1027 66 10000 0.51 30 16:55 03.02.2022
3934 Clear -6 1027 60 10000 1.03 330 15:28 03.02.2022
3935 Clear -4 1027 49 10000 1.54 310 13:45 03.02.2022
3936 Clear -3 1027 41 10000 2.57 320 11:47 03.02.2022
3937 Clear 0 1026 33 10000 6.69 310 08:56 03.02.2022
3938 Clear 1 1027 32 10000 5.66 330 07:41 03.02.2022
3939 Clear -9 1028 82 10000 0.51 340 00:47 03.02.2022
3940 Clear -10 1028 85 10000 0.51 340 00:22 03.02.2022
3941 Clear -8 1027 80 10000 1.54 340 22:38 02.02.2022
3942 Clear -7 1027 71 10000 1.03 330 21:45 02.02.2022
3943 Clear -7 1027 71 10000 1.03 330 21:27 02.02.2022
3944 Clear -6 1027 68 10000 3.09 310 20:20 02.02.2022
3945 Clouds -7 1028 83 10000 1.54 300 19:45 02.02.2022
3946 Clouds -6 1027 78 10000 1.54 300 18:55 02.02.2022
3947 Clouds -6 1027 78 10000 1.54 300 18:23 02.02.2022
3948 Clouds -6 1027 86 10000 1.54 330 17:20 02.02.2022
3949 Snow -6 1027 74 10000 0.51 100 16:48 02.02.2022
3950 Clouds -5 1028 68 10000 0.51 170 14:21 02.02.2022
3951 Clear -4 1027 57 10000 1.54 230 12:26 02.02.2022
3952 Clear -3 1028 47 10000 1.54 260 11:42 02.02.2022
3953 Clear -3 1028 47 10000 1.54 260 11:23 02.02.2022
3954 Clear 0 1028 36 10000 3.6 330 07:59 02.02.2022
3955 Clouds -5 1030 75 8000 1.03 320 01:36 02.02.2022
3956 Mist -7 1028 86 4000 1.03 10 21:59 01.02.2022
3957 Fog -7 1028 82 4000 1.03 170 20:49 01.02.2022
3958 Mist -6 1028 93 5000 1.54 300 18:35 01.02.2022
3959 Mist -3 1029 75 5000 2.06 270 16:43 01.02.2022
3960 Mist -3 1028 75 5000 2.57 280 14:56 01.02.2022
3961 Haze -2 1027 75 5000 2.57 260 12:49 01.02.2022
3962 Clouds -2 1027 74 6000 3.09 290 11:48 01.02.2022
3963 Clouds 0 1025 61 7000 5.14 310 06:57 01.02.2022
3964 Mist -2 1023 83 8000 2.57 280 23:53 31.01.2022
3965 Mist -2 1023 83 8000 2.57 280 23:34 31.01.2022
3966 Mist -2 1023 83 8000 2.57 280 23:34 31.01.2022
3967 Mist -3 1022 93 10000 2.57 270 22:26 31.01.2022
3968 Snow -3 1022 93 7000 1.03 300 21:33 31.01.2022
3969 Snow -2 1022 93 2500 1.03 310 20:33 31.01.2022
3970 Snow -1 1023 76 2500 2.06 300 19:46 31.01.2022
3971 Haze -1 1023 68 10000 1.03 250 18:29 31.01.2022
3972 Mist 0 1023 74 10000 2.06 260 17:46 31.01.2022
3973 Mist 0 1023 87 5000 2.06 270 16:48 31.01.2022
3974 Clouds 0 1022 93 1200 1.54 200 15:43 31.01.2022
3975 Snow 0 1022 81 800 1.54 220 14:24 31.01.2022
3976 Snow -1 1022 66 10000 4.12 140 12:39 31.01.2022
3977 Clouds -1 1022 62 10000 3.09 150 11:58 31.01.2022
3978 Clouds 2 1023 54 10000 2.06 210 10:50 31.01.2022
3979 Clouds 2 1023 54 10000 2.06 210 10:32 31.01.2022
3980 Clouds 3 1023 49 10000 3.6 250 09:27 31.01.2022
3981 Clouds 4 1023 47 10000 4.12 250 08:51 31.01.2022
3982 Clouds 4 1023 48 10000 4.12 250 08:20 31.01.2022
3983 Clouds 4 1023 41 10000 4.12 290 06:18 31.01.2022
3984 Clear -2 1025 43 10000 1.03 100 02:18 31.01.2022
3985 Clear -10 1025 79 10000 1.03 140 23:18 30.01.2022
3986 Clear -10 1025 73 10000 1.03 20 22:29 30.01.2022
3987 Clear -9 1025 70 10000 1.03 10 21:42 30.01.2022
3988 Clear -8 1025 73 10000 1.03 10 21:19 30.01.2022
3989 Clear -8 1025 73 10000 1.54 330 20:47 30.01.2022
3990 Clear -8 1025 73 10000 1.54 330 20:28 30.01.2022
3991 Clear -9 1025 71 10000 0.51 330 19:52 30.01.2022
3992 Clear -7 1025 53 10000 0.51 310 18:43 30.01.2022
3993 Clear -7 1025 53 10000 0.51 310 18:20 30.01.2022
3994 Clear -8 1024 57 10000 0.51 270 17:22 30.01.2022
3995 Clear -5 1024 47 10000 2.06 320 16:40 30.01.2022
3996 Clear -6 1024 50 10000 2.06 320 16:22 30.01.2022
3997 Clear -5 1024 43 10000 0.51 360 15:50 30.01.2022
3998 Clear -5 1024 43 10000 0.51 360 15:31 30.01.2022
3999 Clear -4 1024 40 10000 4.12 320 14:46 30.01.2022
4000 Clear -3 1023 39 10000 4.63 310 12:47 30.01.2022
4001 Clear -3 1022 42 10000 1.54 280 11:57 30.01.2022
4002 Clear 0 1021 31 10000 3.09 270 10:32 30.01.2022
4003 Clear 2 1021 27 10000 4.12 270 09:50 30.01.2022
4004 Clear 2 1021 24 10000 3.6 270 08:54 30.01.2022
4005 Clear 2 1021 23 10000 3.09 330 07:28 30.01.2022
4006 Clear -6 1023 61 10000 0.51 340 01:56 30.01.2022
4007 Clear -9 1023 73 10000 1.54 320 00:23 30.01.2022
4008 Clear -10 1022 85 10000 2.06 320 23:18 29.01.2022
4009 Clear -9 1022 70 10000 0 0 21:49 29.01.2022
4010 Clear -9 1022 70 10000 0 0 21:24 29.01.2022
4011 Clear -9 1022 67 10000 1.54 290 20:28 29.01.2022
4012 Clear -9 1022 70 10000 1.54 270 19:34 29.01.2022
4013 Clear -7 1022 63 10000 2.06 340 18:52 29.01.2022
4014 Clear -7 1022 63 10000 2.06 340 18:23 29.01.2022
4015 Clear -7 1023 60 10000 2.57 310 17:29 29.01.2022
4016 Clear -6 1022 51 10000 3.6 320 15:57 29.01.2022
4017 Clear -5 1022 52 10000 3.09 330 14:23 29.01.2022
4018 Clear -5 1021 48 10000 3.6 340 13:42 29.01.2022
4019 Clear -5 1021 48 10000 3.6 340 13:23 29.01.2022
4020 Clear -2 1021 42 10000 3.09 280 11:47 29.01.2022
4021 Clear -1 1021 36 10000 3.6 260 10:54 29.01.2022
4022 Clear 1 1021 24 10000 3.6 310 08:42 29.01.2022
4023 Clear 1 1022 26 10000 4.12 300 06:55 29.01.2022
4024 Clear -8 1024 66 10000 1.03 310 00:34 29.01.2022
4025 Clear -9 1023 73 10000 1.54 310 23:51 28.01.2022
4026 Clear -8 1023 66 10000 0.51 360 22:50 28.01.2022
4027 Clear -9 1023 73 10000 0.51 360 22:21 28.01.2022
4028 Clear -8 1024 65 10000 1.54 310 21:35 28.01.2022
4029 Clear -8 1024 68 10000 0.51 100 20:29 28.01.2022
4030 Clear -7 1024 63 10000 0.51 270 19:28 28.01.2022
4031 Clear -6 1024 59 10000 1.54 300 18:42 28.01.2022
4032 Clear -5 1025 50 10000 3.09 340 16:45 28.01.2022
4033 Clear -4 1024 47 10000 4.12 310 14:59 28.01.2022
4034 Clear -3 1024 43 10000 3.09 300 13:34 28.01.2022
4035 Clouds -2 1024 40 10000 0.51 290 12:26 28.01.2022
4036 Clear -1 1023 42 10000 3.09 260 10:41 28.01.2022
4037 Clear 0 1024 38 10000 4.63 270 09:48 28.01.2022
4038 Clear 2 1024 31 10000 4.63 260 07:43 28.01.2022
4039 Clear 2 1024 30 10000 4.12 320 06:31 28.01.2022
4040 Clear -1 1027 43 10000 3.09 350 03:52 28.01.2022
4041 Clear -3 1027 50 10000 3.09 340 02:29 28.01.2022
4042 Clear -4 1027 56 10000 3.09 330 01:57 28.01.2022
4043 Clear -4 1027 56 10000 3.09 330 01:57 28.01.2022
4044 Clear -4 1027 56 10000 3.09 330 01:29 28.01.2022
4045 Clear -7 1026 66 10000 1.03 330 22:39 27.01.2022
4046 Clear -8 1026 73 10000 1.03 340 21:40 27.01.2022
4047 Clear -6 1026 68 10000 1.54 310 20:59 27.01.2022
4048 Clear -6 1026 68 10000 1.03 350 19:45 27.01.2022
4049 Clear -6 1026 63 10000 1.03 290 18:20 27.01.2022
4050 Clear -5 1026 58 10000 3.09 310 16:55 27.01.2022
4051 Clear -2 1025 53 10000 2.57 310 13:58 27.01.2022
4052 Clear -2 1025 51 10000 3.6 340 12:49 27.01.2022
4053 Clear -2 1025 51 10000 3.6 340 12:49 27.01.2022
4054 Clear 0 1025 48 10000 2.06 290 11:54 27.01.2022
4055 Clear 2 1024 34 10000 3.6 270 09:48 27.01.2022
4056 Clear 4 1023 25 10000 3.6 330 08:40 27.01.2022
4057 Clear 4 1023 27 10000 4.63 320 07:52 27.01.2022
4058 Clouds 1 1026 46 7000 1.54 280 03:34 27.01.2022
4059 Clear -7 1026 71 6000 2.06 330 00:23 27.01.2022
4060 Clear -6 1026 71 6000 2.06 310 22:27 26.01.2022
4061 Clouds -5 1026 66 7000 3.6 320 21:44 26.01.2022
4062 Clear -4 1026 64 10000 2.06 340 20:43 26.01.2022
4063 Clear -4 1026 64 10000 2.06 340 20:24 26.01.2022
4064 Clear -3 1026 59 10000 2.57 330 19:38 26.01.2022
4065 Clear -3 1026 55 10000 2.06 320 18:46 26.01.2022
4066 Clear -4 1026 63 10000 2.06 320 18:18 26.01.2022
4067 Clear -2 1026 49 10000 2.06 320 17:33 26.01.2022
4068 Clear -2 1026 47 10000 2.57 320 16:47 26.01.2022
4069 Clear -2 1026 47 10000 2.57 310 15:56 26.01.2022
4070 Clear -2 1026 52 10000 2.57 310 14:32 26.01.2022
4071 Clear 0 1025 55 10000 3.09 290 12:18 26.01.2022
4072 Clear 3 1024 41 10000 4.12 270 10:49 26.01.2022
4073 Clouds 4 1024 42 8000 3.6 290 09:50 26.01.2022
4074 Clear 5 1024 35 10000 3.6 270 08:46 26.01.2022
4075 Clear 6 1024 42 7000 2.57 270 06:28 26.01.2022
4076 Clouds 6 1024 37 7000 2.57 270 06:28 26.01.2022
4077 Clouds 6 1024 37 7000 2.57 270 06:27 26.01.2022
4078 Clear 6 1024 42 7000 2.57 270 06:27 26.01.2022
4079 Mist -4 1025 93 5000 1.03 100 00:21 26.01.2022
4080 Mist -5 1024 93 5000 1.03 10 23:34 25.01.2022
4081 Mist -4 1024 93 3000 0.51 50 22:48 25.01.2022
4082 Mist -4 1024 93 3000 0.51 50 22:18 25.01.2022
4083 Mist -3 1023 93 3200 1.03 300 21:22 25.01.2022
4084 Mist -1 1024 86 9000 0.51 330 20:44 25.01.2022
4085 Mist -1 1023 86 9000 1.03 310 19:53 25.01.2022
4086 Mist 0 1023 86 9000 0.51 210 18:46 25.01.2022
4087 Mist 0 1022 80 5000 2.57 280 17:45 25.01.2022
4088 Mist 1 1022 78 5000 3.6 300 16:58 25.01.2022
4089 Mist 1 1022 78 5000 3.6 300 16:34 25.01.2022
4090 Clouds 2 1022 78 6000 2.57 290 15:39 25.01.2022
4091 Clouds 2 1022 81 6000 0.51 150 14:58 25.01.2022
4092 Clouds 1 1021 86 6000 0.51 330 13:47 25.01.2022
4093 Haze 4 1020 65 10000 3.6 270 10:59 25.01.2022
4094 Clouds 3 1020 88 10000 2.07 244 09:20 25.01.2022
4095 Mist 4 1019 74 9000 3.6 260 07:31 25.01.2022
4096 Clouds 5 1020 70 7000 2.57 200 06:53 25.01.2022
4097 Clouds 4 1020 75 7000 2.57 160 05:22 25.01.2022
4098 Clouds 2 1020 81 10000 3.09 130 23:37 24.01.2022
4099 Snow 2 1021 94 624 1.3 102 23:19 24.01.2022
4100 Clouds 2 1020 81 10000 3.09 110 22:59 24.01.2022
4101 Clouds 2 1020 81 10000 3.09 110 22:41 24.01.2022
4102 Clouds 2 1020 81 10000 4.63 120 21:55 24.01.2022
4103 Rain 2 1020 81 10000 4.63 120 21:29 24.01.2022
4104 Clouds 2 1021 84 10000 4.12 160 20:32 24.01.2022
4105 Rain 4 1021 56 10000 4.12 170 19:52 24.01.2022
4106 Rain 3 1021 56 10000 4.12 170 19:30 24.01.2022
4107 Rain 4 1021 48 10000 4.12 120 18:19 24.01.2022
4108 Clouds 4 1021 47 10000 3.6 110 17:24 24.01.2022
4109 Rain 4 1021 46 10000 4.12 130 16:55 24.01.2022
4110 Clear 4 1021 45 10000 4.12 130 16:19 24.01.2022
4111 Clouds 5 1021 44 10000 4.12 120 14:43 24.01.2022
4112 Clouds 5 1021 45 10000 4.12 110 13:24 24.01.2022
4113 Clouds 5 1022 52 10000 1.57 63 12:23 24.01.2022
4114 Clear 6 1021 42 10000 3.6 90 10:30 24.01.2022
4115 Clear 6 1021 42 10000 3.6 90 10:30 24.01.2022
4116 Clear 7 1021 39 10000 4.12 80 09:48 24.01.2022
4117 Clear 8 1021 39 10000 5.14 90 08:34 24.01.2022
4118 Clear 8 1021 39 10000 4.12 100 06:40 24.01.2022
4119 Clear 0 1022 80 10000 1.54 320 01:31 24.01.2022
4120 Clear -3 1022 86 10000 1.54 350 00:36 24.01.2022
4121 Clear -3 1022 83 6000 1.54 320 23:52 23.01.2022
4122 Mist -3 1021 93 5000 1.54 330 22:32 23.01.2022
4123 Mist -4 1022 83 5000 1.03 330 21:49 23.01.2022
4124 Mist -4 1022 83 5000 1.03 330 21:25 23.01.2022
4125 Mist -3 1022 83 5000 2.06 320 20:44 23.01.2022
4126 Mist -3 1022 80 5000 2.06 330 19:44 23.01.2022
4127 Mist -3 1022 83 5000 1.54 310 18:51 23.01.2022
4128 Mist -3 1021 80 5000 2.06 320 17:44 23.01.2022
4129 Mist -2 1021 77 5000 0.51 360 16:47 23.01.2022
4130 Clear -2 1021 72 6000 1.03 330 14:59 23.01.2022
4131 Clear -2 1021 72 6000 1.03 330 14:25 23.01.2022
4132 Clear -2 1021 72 6000 1.03 330 14:25 23.01.2022
4133 Clear 0 1021 55 7000 2.06 320 12:54 23.01.2022
4134 Clear 0 1021 59 7000 2.06 320 12:22 23.01.2022
4135 Clear 0 1021 59 7000 2.06 320 12:22 23.01.2022
4136 Clear 0 1021 59 7000 2.06 340 11:52 23.01.2022
4137 Clear 0 1021 59 7000 2.06 340 11:18 23.01.2022
4138 Clouds 3 1021 48 8000 2.06 330 10:27 23.01.2022
4139 Clouds 5 1020 41 8000 2.57 340 09:51 23.01.2022
4140 Clear 7 1020 36 7000 2.06 300 08:52 23.01.2022
4141 Clouds 6 1022 42 8000 3.6 360 05:56 23.01.2022
4142 Clear -1 1024 55 10000 3.09 330 01:52 23.01.2022
4143 Clear -1 1024 55 10000 3.09 330 01:26 23.01.2022
4144 Clear -2 1023 66 10000 2.06 330 00:23 23.01.2022
4145 Clear -2 1023 62 10000 2.06 330 23:44 22.01.2022
4146 Clear -2 1023 57 10000 1.54 330 22:40 22.01.2022
4147 Clear -2 1024 59 10000 2.06 340 21:28 22.01.2022
4148 Snow -1 1024 55 10000 2.57 320 19:51 22.01.2022
4149 Snow 0 1025 49 10000 1.54 350 18:49 22.01.2022
4150 Clear -1 1025 57 10000 1.03 350 17:59 22.01.2022
4151 Clear -1 1025 57 10000 1.03 350 17:35 22.01.2022
4152 Clear -1 1025 58 10000 2.06 330 16:55 22.01.2022
4153 Clouds -2 1025 62 9000 2.06 330 15:49 22.01.2022
4154 Clouds -3 1025 56 9000 3.09 330 14:58 22.01.2022
4155 Clear -1 1025 53 10000 1.54 320 13:42 22.01.2022
4156 Clear 0 1025 47 10000 2.57 320 12:50 22.01.2022
4157 Clear 0 1025 47 10000 2.57 320 12:28 22.01.2022
4158 Clear 2 1025 39 10000 3.09 340 10:56 22.01.2022
4159 Clear 2 1025 39 10000 3.09 340 10:29 22.01.2022
4160 Clear 4 1025 35 10000 3.09 320 09:58 22.01.2022
4161 Clear 5 1025 32 10000 2.57 350 08:51 22.01.2022
4162 Clear 5 1025 26 10000 1.54 330 07:34 22.01.2022
4163 Clouds 2 1027 43 9000 3.6 330 04:52 22.01.2022
4164 Clouds 2 1027 43 9000 3.6 330 04:52 22.01.2022
4165 Clouds -5 1028 80 7000 1.03 310 01:34 22.01.2022
4166 Mist -8 1028 83 5000 1.03 330 23:35 21.01.2022
4167 Mist -8 1028 86 5000 1.54 330 22:20 21.01.2022
4168 Mist -9 1028 92 5000 1.03 360 20:20 21.01.2022
4169 Clouds -8 1028 80 7000 1.54 340 18:36 21.01.2022
4170 Clouds -8 1028 79 9000 1.54 330 17:25 21.01.2022
4171 Clear -7 1028 74 10000 1.03 320 15:30 21.01.2022
4172 Clear -6 1029 68 10000 1.54 330 13:29 21.01.2022
4173 Clear -5 1029 68 10000 2.06 310 12:37 21.01.2022
4174 Clear -3 1029 57 10000 2.06 300 11:27 21.01.2022
4175 Clear 0 1030 25 10000 0.9 356 10:18 21.01.2022
4176 Clear 5 1029 24 10000 0.51 340 08:23 21.01.2022
4177 Clear 0 1032 44 10000 1.03 210 04:49 21.01.2022
4178 Clear -10 1031 82 7000 1.54 360 23:31 20.01.2022
4179 Clear -12 1031 92 7000 1.03 340 22:21 20.01.2022
4180 Clear -11 1031 85 7000 1.54 10 21:42 20.01.2022
4181 Clear -10 1031 85 8000 1.03 360 20:40 20.01.2022
4182 Clear -10 1031 86 10000 2.06 20 19:19 20.01.2022
4183 Clear -10 1031 86 10000 2.06 20 19:19 20.01.2022
4184 Clear -9 1031 86 10000 1.03 350 18:23 20.01.2022
4185 Clear -8 1031 73 10000 1.54 340 16:53 20.01.2022
4186 Clear -8 1031 73 10000 2.06 300 15:40 20.01.2022
4187 Clear -7 1030 71 10000 2.06 320 14:41 20.01.2022
4188 Clear -5 1030 61 10000 1.03 330 13:33 20.01.2022
4189 Clear -5 1030 55 10000 1.54 320 12:32 20.01.2022
4190 Clear -4 1030 54 10000 3.6 340 11:49 20.01.2022
4191 Clear -3 1029 47 10000 3.09 330 10:38 20.01.2022
4192 Clear 0 1029 38 10000 3.6 340 09:34 20.01.2022
4193 Clear 2 1029 35 10000 2.06 350 07:33 20.01.2022
4194 Clear -12 1029 82 8000 1.54 320 00:43 20.01.2022
4195 Clear -12 1028 85 10000 1.03 50 22:52 19.01.2022
4196 Clear -12 1027 82 10000 3.09 330 21:45 19.01.2022
4197 Clear -12 1027 82 10000 3.09 330 21:22 19.01.2022
4198 Clear -11 1027 79 10000 2.57 340 20:46 19.01.2022
4199 Clear -11 1027 73 10000 2.57 320 19:27 19.01.2022
4200 Clear -10 1026 76 10000 3.09 330 17:55 19.01.2022
4201 Clear -10 1026 76 10000 3.09 330 17:35 19.01.2022
4202 Clear -10 1026 79 10000 2.06 320 16:27 19.01.2022
4203 Clear -6 1025 68 10000 4.12 330 13:42 19.01.2022
4204 Haze -5 1024 66 7000 6.17 320 12:24 19.01.2022
4205 Haze -4 1024 66 6000 5.14 320 11:38 19.01.2022
4206 Clouds -4 1023 68 8000 6.69 330 10:20 19.01.2022
4207 Mist -3 1022 80 5000 4.63 310 09:33 19.01.2022
4208 Mist -4 1023 86 2500 4.12 340 06:34 19.01.2022
4209 Snow -6 1025 69 3200 3.6 150 01:40 19.01.2022
4210 Clouds -10 1025 85 9000 2.06 210 23:18 18.01.2022
4211 Clear -10 1026 82 10000 1.03 320 21:56 18.01.2022
4212 Clear -10 1027 79 10000 1.03 360 20:47 18.01.2022
4213 Clear -10 1027 79 10000 0.51 250 19:54 18.01.2022
4214 Clear -10 1027 79 10000 0.51 250 19:35 18.01.2022
4215 Clear -10 1028 85 10000 0.51 80 18:36 18.01.2022
4216 Clear -9 1028 73 10000 0.51 50 17:51 18.01.2022
4217 Clear -8 1028 72 10000 0.51 240 16:35 18.01.2022
4218 Clear -7 1028 63 10000 1.54 300 15:26 18.01.2022
4219 Clear -7 1028 54 10000 0.51 10 14:54 18.01.2022
4220 Clear -5 1028 54 10000 3.09 280 11:52 18.01.2022
4221 Clear -4 1027 46 10000 2.57 270 10:41 18.01.2022
4222 Clear -1 1027 24 10000 3.09 330 08:49 18.01.2022
4223 Clear -1 1027 27 10000 3.6 340 07:45 18.01.2022
4224 Clear -7 1030 28 10000 2.07 308 02:20 18.01.2022
4225 Clear -13 1030 78 10000 2.06 280 23:22 17.01.2022
4226 Clear -10 1029 59 10000 2.06 280 21:58 17.01.2022
4227 Clear -10 1029 59 10000 2.06 280 21:31 17.01.2022
4228 Clear -9 1029 51 10000 1.54 240 19:42 17.01.2022
4229 Clear -9 1029 54 10000 2.57 310 18:28 17.01.2022
4230 Clear -8 1029 56 10000 2.06 300 17:24 17.01.2022
4231 Clear -9 1029 79 10000 1.54 300 16:24 17.01.2022
4232 Clear -6 1029 49 10000 3.09 310 14:58 17.01.2022
4233 Clear -6 1029 49 10000 3.09 310 14:33 17.01.2022
4234 Clouds -5 1028 35 10000 5.25 315 13:19 17.01.2022
4235 Clear -5 1028 48 10000 4.63 310 12:27 17.01.2022
4236 Clouds -4 1027 62 10000 5.66 310 11:47 17.01.2022
4237 Clouds -4 1026 86 8000 5.14 300 10:21 17.01.2022
4238 Clouds -2 1025 77 6000 3.09 300 08:44 17.01.2022
4239 Mist -2 1026 80 3500 3.6 260 07:21 17.01.2022
4240 Clear -5 1029 43 10000 0.51 190 02:20 17.01.2022
4241 Clear -11 1028 76 10000 0.51 140 00:43 17.01.2022
4242 Clear -11 1028 72 10000 2.06 70 21:22 16.01.2022
4243 Clear -10 1028 63 10000 0.51 70 20:28 16.01.2022
4244 Clear -8 1028 56 10000 0.51 280 18:46 16.01.2022
4245 Clear -8 1029 56 10000 3.09 300 17:50 16.01.2022
4246 Clear -7 1028 54 10000 4.63 320 16:54 16.01.2022
4247 Clear -7 1028 51 10000 2.57 320 15:40 16.01.2022
4248 Clear -6 1028 45 10000 5.66 330 14:29 16.01.2022
4249 Clear -5 1027 42 10000 4.63 290 13:23 16.01.2022
4250 Clear -3 1027 44 10000 3.09 270 11:58 16.01.2022
4251 Clear -3 1027 44 10000 3.09 270 11:27 16.01.2022
4252 Clear -3 1026 43 10000 3.6 270 10:27 16.01.2022
4253 Clear -1 1026 34 10000 4.63 270 09:57 16.01.2022
4254 Clear -1 1026 37 10000 4.63 270 09:23 16.01.2022
4255 Clear 0 1026 32 10000 5.66 260 08:53 16.01.2022
4256 Clear 0 1026 31 10000 4.63 300 05:51 16.01.2022
4257 Clear -3 1024 68 10000 6.17 290 00:18 16.01.2022
4258 Mist 0 1022 81 4000 2.57 290 22:37 15.01.2022
4259 Mist 0 1022 80 5000 4.63 310 21:21 15.01.2022
4260 Mist 1 1021 80 5000 4.12 290 20:43 15.01.2022
4261 Clouds 1 1021 70 6000 3.09 270 19:52 15.01.2022
4262 Clouds 2 1021 70 6000 3.09 270 19:19 15.01.2022
4263 Clouds 1 1022 70 10000 1.54 200 17:35 15.01.2022
4264 Clouds 1 1021 65 10000 1.03 190 16:38 15.01.2022
4265 Snow 1 1022 52 10000 1.03 170 13:57 15.01.2022
4266 Clouds 1 1021 60 10000 1.54 160 12:23 15.01.2022
4267 Clouds 1 1021 51 10000 1.54 240 11:18 15.01.2022
4268 Clouds 3 1021 40 10000 2.57 140 08:36 15.01.2022
4269 Clouds -5 1023 54 10000 1.03 140 00:49 15.01.2022
4270 Snow -8 1024 71 10000 1.03 310 21:56 14.01.2022
4271 Clear -8 1024 79 10000 0.51 360 20:41 14.01.2022
4272 Clear -8 1024 79 10000 0.51 360 20:21 14.01.2022
4273 Clear -7 1025 79 10000 0.51 310 19:40 14.01.2022
4274 Clear -7 1025 71 10000 0.51 330 18:27 14.01.2022
4275 Clear -6 1026 58 10000 1.03 40 16:50 14.01.2022
4276 Clear -6 1026 54 10000 1.03 60 15:48 14.01.2022
4277 Clear -6 1026 50 10000 1.54 350 14:42 14.01.2022
4278 Clear -5 1025 50 10000 1.54 340 13:36 14.01.2022
4279 Clear -6 1025 52 10000 1.54 310 12:28 14.01.2022
4280 Clear -3 1024 38 10000 3.09 290 10:53 14.01.2022
4281 Clear 0 1025 22 10000 2.57 20 08:54 14.01.2022
4282 Clear 0 1025 22 10000 2.57 20 08:34 14.01.2022
4283 Clear 0 1026 23 10000 2.06 230 06:45 14.01.2022
4284 Clear -9 1028 53 10000 0.51 180 01:20 14.01.2022
4285 Clear -10 1026 49 10000 0.51 290 22:52 13.01.2022
4286 Clear -10 1026 49 10000 3.09 320 21:31 13.01.2022
4287 Clear -12 1026 67 10000 1.54 300 20:57 13.01.2022
4288 Clear -10 1026 55 10000 1.54 270 19:40 13.01.2022
4289 Clear -11 1026 67 10000 1.54 270 19:22 13.01.2022
4290 Clear -8 1025 50 10000 3.6 290 17:52 13.01.2022
4291 Clear -8 1025 57 10000 2.57 250 16:20 13.01.2022
4292 Clear -9 1026 52 10000 1.03 270 15:37 13.01.2022
4293 Clear -8 1025 48 10000 0.51 30 14:40 13.01.2022
4294 Clear -7 1025 48 10000 2.06 350 12:37 13.01.2022
4295 Clouds -6 1023 49 10000 4.63 330 10:23 13.01.2022
4296 Clouds -3 1022 31 10000 7.72 310 08:57 13.01.2022
4297 Clouds -3 1022 31 10000 7.72 310 08:26 13.01.2022
4298 Clouds -3 1021 28 10000 8.75 300 07:22 13.01.2022
4299 Clouds -3 1021 28 10000 8.75 320 05:59 13.01.2022
4300 Clouds -3 1021 28 10000 8.75 320 05:19 13.01.2022
4301 Clear -6 1022 42 10000 4.63 300 01:53 13.01.2022
4302 Clear -7 1021 46 10000 3.09 290 00:40 13.01.2022
4303 Clear -7 1020 54 10000 4.12 310 23:45 12.01.2022
4304 Clouds -6 1020 51 10000 2.57 320 22:57 12.01.2022
4305 Clouds -8 1019 53 10000 2.57 320 21:56 12.01.2022
4306 Clouds -8 1019 57 10000 2.57 320 21:21 12.01.2022
4307 Clouds -7 1020 48 10000 1.03 310 20:56 12.01.2022
4308 Clouds -7 1020 47 10000 0.51 250 19:41 12.01.2022
4309 Clouds -7 1021 47 10000 0.51 320 18:30 12.01.2022
4310 Clouds -8 1021 53 10000 0.51 110 17:20 12.01.2022
4311 Clouds -8 1021 57 10000 1.03 340 16:28 12.01.2022
4312 Clear -6 1022 41 10000 1.54 300 14:48 12.01.2022
4313 Clear -6 1023 41 10000 3.09 310 12:59 12.01.2022
4314 Snow -6 1023 41 10000 3.09 310 12:58 12.01.2022
4315 Clear -5 1022 43 10000 2.57 260 10:38 12.01.2022
4316 Clear -3 1022 34 10000 3.6 280 08:37 12.01.2022
4317 Clear -3 1022 32 10000 4.63 350 07:49 12.01.2022
4318 Clear -3 1022 32 10000 4.63 350 07:31 12.01.2022
4319 Clear -12 1024 62 10000 2.06 310 23:40 11.01.2022
4320 Clear -13 1024 73 10000 1.03 260 22:49 11.01.2022
4321 Clear -14 1024 78 10000 1.03 260 22:22 11.01.2022
4322 Clear -11 1024 64 10000 2.06 340 20:51 11.01.2022
4323 Clear -11 1025 62 10000 1.03 260 19:48 11.01.2022
4324 Clear -11 1025 57 10000 2.06 290 18:31 11.01.2022
4325 Clear -11 1025 62 10000 2.57 300 17:24 11.01.2022
4326 Clear -10 1025 57 10000 3.09 320 16:37 11.01.2022
4327 Clear -10 1025 57 10000 3.6 320 15:34 11.01.2022
4328 Clear -9 1025 49 10000 4.12 320 14:41 11.01.2022
4329 Clear -8 1025 51 10000 5.66 330 13:54 11.01.2022
4330 Clear -8 1025 51 10000 5.66 330 13:32 11.01.2022
4331 Clear -8 1025 49 10000 4.12 320 12:41 11.01.2022
4332 Clear -7 1024 49 10000 5.66 330 11:40 11.01.2022
4333 Clouds -5 1022 36 10000 6.17 330 09:28 11.01.2022
4334 Clear -4 1020 40 10000 5.66 310 06:36 11.01.2022
4335 Clear -8 1020 55 10000 5.14 300 00:30 11.01.2022
4336 Clouds -8 1019 62 10000 4.12 340 23:41 10.01.2022
4337 Clear -7 1019 62 10000 6.17 310 22:51 10.01.2022
4338 Clear -7 1019 62 10000 6.17 310 22:51 10.01.2022
4339 Clear -7 1019 62 10000 6.17 310 22:18 10.01.2022
4340 Clear -6 1018 63 10000 4.12 320 21:48 10.01.2022
4341 Clear -6 1018 63 10000 4.12 320 21:19 10.01.2022
4342 Mist -6 1018 63 10000 6.69 310 20:56 10.01.2022
4343 Clouds -6 1018 63 10000 6.69 310 20:26 10.01.2022
4344 Clouds -4 1018 68 10000 6.69 330 19:41 10.01.2022
4345 Clouds -4 1018 68 10000 6.69 330 19:20 10.01.2022
4346 Mist -3 1018 68 8000 5.66 310 18:48 10.01.2022
4347 Mist -1 1018 77 6000 5.66 310 17:24 10.01.2022
4348 Mist -1 1017 89 4000 6.17 320 16:41 10.01.2022
4349 Snow 0 1017 93 1500 1.03 170 15:20 10.01.2022
4350 Haze 1 1018 62 8000 1.54 260 13:41 10.01.2022
4351 Haze 2 1019 54 9000 3.09 320 11:58 10.01.2022
4352 Haze 2 1019 54 9000 3.09 320 11:24 10.01.2022
4353 Haze 3 1019 48 7000 3.6 300 09:46 10.01.2022
4354 Haze 4 1020 48 4500 2.57 300 06:22 10.01.2022
4355 Haze 4 1020 52 4000 0.51 350 05:49 10.01.2022
4356 Mist -5 1023 90 1700 1.54 330 01:26 10.01.2022
4357 Fog -7 1023 90 1700 1.03 340 00:23 10.01.2022
4358 Fog -6 1023 90 1200 1.54 320 23:28 09.01.2022
4359 Fog -7 1023 89 1200 1.54 310 22:33 09.01.2022
4360 Fog -6 1023 90 1400 0.51 330 21:44 09.01.2022
4361 Fog -7 1023 93 1400 0.51 330 21:23 09.01.2022
4362 Fog -7 1023 93 1400 0.51 330 21:23 09.01.2022
4363 Fog -7 1023 93 1400 0.51 330 21:23 09.01.2022
4364 Mist -6 1023 90 2000 1.03 10 20:50 09.01.2022
4365 Mist -6 1023 90 2000 1.03 10 20:29 09.01.2022
4366 Mist -5 1024 80 4400 0.51 240 19:44 09.01.2022
4367 Clouds -5 1023 55 10000 0.6 338 19:23 09.01.2022
4368 Mist -6 1023 90 2300 1.03 320 18:49 09.01.2022
4369 Mist -6 1023 90 2300 1.03 320 18:30 09.01.2022
4370 Mist -5 1023 90 2300 0.51 360 17:30 09.01.2022
4371 Mist -5 1023 86 2500 1.54 340 16:51 09.01.2022
4372 Mist -5 1023 87 2500 1.54 320 15:56 09.01.2022
4373 Mist -5 1023 87 2500 1.54 320 15:34 09.01.2022
4374 Mist -4 1023 80 3000 0.51 360 14:40 09.01.2022
4375 Mist -3 1023 80 3500 0.51 310 13:50 09.01.2022
4376 Haze -2 1023 77 3500 1.54 320 12:44 09.01.2022
4377 Haze -2 1023 71 4000 1.54 310 11:48 09.01.2022
4378 Haze 2 1022 56 5000 2.06 320 09:59 09.01.2022
4379 Haze 3 1022 52 5000 2.06 320 09:41 09.01.2022
4380 Haze 5 1022 45 5000 1.54 320 08:30 09.01.2022
4381 Mist 0 1023 80 2000 1.54 330 02:31 09.01.2022
4382 Mist -2 1023 86 2000 1.03 340 01:20 09.01.2022
4383 Fog -3 1022 93 800 0.51 280 23:38 08.01.2022
4384 Fog -2 1022 86 800 2.57 310 22:59 08.01.2022
4385 Mist -1 1022 89 1400 1.03 340 21:33 08.01.2022
4386 Fog -1 1022 93 800 3.09 310 20:45 08.01.2022
4387 Fog -1 1022 93 800 3.09 310 20:24 08.01.2022
4388 Mist 1 1022 87 1500 3.09 310 19:58 08.01.2022
4389 Mist 2 1022 75 4800 1.03 200 17:51 08.01.2022
4390 Mist 1 1021 93 2000 2.06 310 17:21 08.01.2022
4391 Mist 3 1022 77 2800 3.09 270 15:47 08.01.2022
4392 Mist 3 1022 75 3000 3.6 260 14:40 08.01.2022
4393 Mist 3 1022 75 3000 2.57 240 12:36 08.01.2022
4394 Haze 3 1022 70 3800 3.6 250 10:49 08.01.2022
4395 Haze 3 1022 70 3800 3.6 250 10:24 08.01.2022
4396 Haze 4 1022 65 4500 3.09 240 09:43 08.01.2022
4397 Clouds 4 1022 60 10000 2.57 200 07:18 08.01.2022
4398 Clouds -2 1026 57 10000 3.09 150 02:33 08.01.2022
4399 Clouds -9 1026 83 9000 0.51 110 00:40 08.01.2022
4400 Clouds -9 1026 86 8000 0.51 250 22:40 07.01.2022
4401 Clouds -8 1027 77 9000 1.03 340 20:56 07.01.2022
4402 Clear -8 1028 80 10000 0.51 40 19:39 07.01.2022
4403 Clear -8 1028 74 10000 0.51 300 18:53 07.01.2022
4404 Clear -8 1028 74 10000 0.51 300 18:30 07.01.2022
4405 Clear -7 1028 75 10000 1.03 300 17:25 07.01.2022
4406 Clear -7 1028 86 10000 1.03 320 16:22 07.01.2022
4407 Clear -4 1029 59 10000 1.54 30 13:53 07.01.2022
4408 Clear -4 1029 30 10000 0.8 271 13:18 07.01.2022
4409 Clear -3 1029 52 10000 1.03 310 12:25 07.01.2022
4410 Clear 4 1029 26 10000 1.03 350 07:31 07.01.2022
4411 Clear -3 1032 57 7000 0.51 340 02:54 07.01.2022
4412 Clear -7 1032 76 7000 1.03 20 01:52 07.01.2022
4413 Clear -7 1032 76 7000 1.03 20 01:27 07.01.2022
4414 Mist -9 1031 79 5000 1.03 330 00:55 07.01.2022
4415 Clear -9 1031 76 6000 1.03 300 22:42 06.01.2022
4416 Clear -10 1031 85 7000 1.03 320 21:22 06.01.2022
4417 Clear -8 1031 79 8000 0.51 320 20:19 06.01.2022
4418 Clear -9 1031 73 8000 1.54 360 19:40 06.01.2022
4419 Clear -8 1031 68 9000 2.06 320 17:52 06.01.2022
4420 Clear -8 1031 68 9000 2.06 320 17:31 06.01.2022
4421 Clear -7 1031 66 10000 2.57 320 16:39 06.01.2022
4422 Clear -6 1031 61 10000 1.54 310 15:45 06.01.2022
4423 Clear -7 1031 68 10000 1.54 310 15:23 06.01.2022
4424 Clear -5 1031 58 10000 1.54 320 14:20 06.01.2022
4425 Clear -4 1030 49 10000 2.06 330 13:44 06.01.2022
4426 Clear -4 1030 45 10000 2.57 320 12:32 06.01.2022
4427 Clear -3 1030 44 10000 2.57 310 11:41 06.01.2022
4428 Clear -3 1030 43 10000 2.57 310 11:19 06.01.2022
4429 Clear 3 1028 27 10000 5.14 340 06:59 06.01.2022
4430 Clear -8 1029 73 10000 0.51 260 00:35 06.01.2022
4431 Clear -9 1029 67 10000 2.06 310 23:34 05.01.2022
4432 Clear -8 1028 70 10000 2.06 340 22:48 05.01.2022
4433 Clear -8 1028 70 10000 2.06 340 22:29 05.01.2022
4434 Clear -8 1027 73 10000 2.57 320 21:43 05.01.2022
4435 Clear -8 1027 73 10000 2.06 350 20:44 05.01.2022
4436 Clear -7 1027 70 10000 1.54 320 19:46 05.01.2022
4437 Clear -7 1027 79 10000 2.06 330 18:27 05.01.2022
4438 Clear -5 1027 65 10000 2.06 340 16:57 05.01.2022
4439 Clear -4 1027 63 10000 2.06 340 16:21 05.01.2022
4440 Clear -4 1027 58 10000 0.51 350 15:20 05.01.2022
4441 Clear -3 1027 54 10000 1.54 320 13:35 05.01.2022
4442 Clear -1 1027 47 10000 2.06 310 12:30 05.01.2022
4443 Clear 2 1026 35 10000 2.57 320 08:46 05.01.2022
4444 Clear 1 1027 34 10000 2.06 350 06:46 05.01.2022
4445 Clear -7 1029 61 10000 2.06 350 01:49 05.01.2022
4446 Clear -10 1029 71 10000 1.03 30 23:44 04.01.2022
4447 Clear -10 1029 71 10000 1.03 30 23:25 04.01.2022
4448 Clear -9 1029 67 10000 1.03 350 22:19 04.01.2022
4449 Clear -10 1029 65 10000 1.54 320 20:45 04.01.2022
4450 Clear -8 1029 62 10000 2.57 310 18:44 04.01.2022
4451 Clear -8 1029 62 10000 2.57 340 17:34 04.01.2022
4452 Clear -8 1030 55 10000 2.06 310 16:39 04.01.2022
4453 Clouds -8 1030 26 10000 1.27 331 16:20 04.01.2022
4454 Clear -7 1029 49 10000 3.09 320 14:42 04.01.2022
4455 Clear -6 1029 44 10000 3.6 340 13:57 04.01.2022
4456 Clear -5 1029 41 10000 4.12 330 12:24 04.01.2022
4457 Clear -3 1028 33 10000 3.09 280 10:24 04.01.2022
4458 Clear 1 1028 22 10000 3.09 350 08:57 04.01.2022
4459 Clear 1 1028 27 10000 4.63 350 06:28 04.01.2022
4460 Clear -5 1029 71 10000 2.06 340 00:43 04.01.2022
4461 Clear -5 1028 68 10000 3.09 310 23:56 03.01.2022
4462 Clear -4 1028 71 10000 3.09 330 22:28 03.01.2022
4463 Clear -3 1027 77 10000 4.12 350 21:40 03.01.2022
4464 Clear -3 1027 77 10000 4.12 350 21:40 03.01.2022
4465 Clear -2 1027 74 10000 4.12 330 20:41 03.01.2022
4466 Clear -1 1027 75 10000 2.06 300 19:38 03.01.2022
4467 Clouds 0 1026 78 10000 3.6 340 18:31 03.01.2022
4468 Clouds -1 1025 80 10000 2.57 330 17:23 03.01.2022
4469 Snow 0 1025 83 7000 1.54 310 16:53 03.01.2022
4470 Clouds 0 1024 80 10000 1.54 150 14:32 03.01.2022
4471 Snow 0 1025 70 10000 1.03 210 12:53 03.01.2022
4472 Snow 1 1024 64 10000 1.03 200 11:50 03.01.2022
4473 Clouds 1 1025 60 10000 1.54 220 10:52 03.01.2022
4474 Clouds 1 1025 55 10000 2.06 240 09:28 03.01.2022
4475 Clouds 2 1025 43 10000 0.51 240 07:54 03.01.2022
4476 Clear -2 1028 34 10000 2.06 170 03:22 03.01.2022
4477 Clear -12 1027 79 10000 1.03 250 23:24 02.01.2022
4478 Clear -12 1027 79 10000 0.51 280 22:56 02.01.2022
4479 Clear -12 1027 79 10000 0.51 280 22:20 02.01.2022
4480 Clear -9 1028 62 10000 1.54 340 20:52 02.01.2022
4481 Clear -9 1028 62 10000 1.54 340 20:30 02.01.2022
4482 Clear -9 1028 67 10000 2.06 320 19:32 02.01.2022
4483 Clear -9 1028 73 10000 2.06 320 18:56 02.01.2022
4484 Clear -9 1028 73 10000 2.06 300 17:58 02.01.2022
4485 Clear -9 1028 73 10000 2.06 300 17:39 02.01.2022
4486 Clear -8 1028 73 10000 2.06 300 17:21 02.01.2022
4487 Clear -8 1028 73 10000 0.51 320 16:28 02.01.2022
4488 Clear -6 1028 53 10000 1.54 340 14:44 02.01.2022
4489 Clear -4 1028 46 10000 1.54 350 13:37 02.01.2022
4490 Clear -5 1028 53 10000 2.06 310 12:32 02.01.2022
4491 Clear -4 1028 54 10000 2.57 330 11:49 02.01.2022
4492 Clear -2 1027 50 10000 3.09 310 10:54 02.01.2022
4493 Clear 0 1027 43 10000 4.12 310 09:57 02.01.2022
4494 Clear 4 1026 30 10000 5.14 310 07:34 02.01.2022
4495 Clouds -1 1027 74 10000 2.06 320 02:56 02.01.2022
4496 Mist -3 1025 77 10000 3.6 140 23:42 01.01.2022
4497 Snow -3 1025 72 10000 3.6 140 23:24 01.01.2022
4498 Snow -3 1025 80 7000 1.54 40 22:25 01.01.2022
4499 Mist -2 1024 69 4500 3.6 160 21:45 01.01.2022
4500 Snow -2 1024 55 10000 3.6 150 21:21 01.01.2022
4501 Snow -3 1025 59 10000 3.09 140 20:20 01.01.2022
4502 Snow -3 1026 47 10000 3.09 160 19:33 01.01.2022
4503 Clouds -3 1026 51 10000 3.6 150 18:51 01.01.2022
4504 Clouds -5 1026 54 10000 2.06 160 17:38 01.01.2022
4505 Clouds -4 1027 63 10000 2.57 140 16:34 01.01.2022
4506 Clouds -4 1028 68 10000 2.57 160 15:33 01.01.2022
4507 Clouds -4 1028 74 10000 1.03 160 14:22 01.01.2022
4508 Clear -4 1028 63 10000 1.03 200 13:28 01.01.2022
4509 Clear -4 1029 32 10000 0.54 304 12:18 01.01.2022
4510 Clouds -3 1029 50 10000 1.54 150 11:25 01.01.2022
4511 Clear -2 1029 47 10000 1.03 260 10:52 01.01.2022
4512 Clear -1 1029 43 10000 1.03 210 09:47 01.01.2022
4513 Clear 1 1029 37 10000 1.03 30 08:27 01.01.2022
4514 Clear 2 1029 32 10000 1.54 360 07:56 01.01.2022
4515 Clear 2 1029 32 10000 1.54 360 07:37 01.01.2022
4516 Clear 2 1029 32 10000 1.54 360 07:37 01.01.2022
4517 Clear 1 1030 29 10000 0.51 90 06:43 01.01.2022
4518 Clear -2 1032 27 10000 1.03 130 04:39 01.01.2022
4519 Clear -4 1033 36 10000 1.54 180 03:48 01.01.2022
4520 Clear -13 1033 72 10000 1.03 40 23:53 31.12.2021
4521 Clear -12 1033 79 10000 1.03 350 21:56 31.12.2021
4522 Clear -12 1033 79 10000 1.03 350 21:32 31.12.2021
4523 Clear -12 1034 61 10000 0.51 80 19:43 31.12.2021
4524 Clear -11 1033 62 10000 0.51 110 18:47 31.12.2021
4525 Clear -11 1033 62 10000 1.54 300 17:49 31.12.2021
4526 Clear -11 1033 62 10000 1.54 300 17:22 31.12.2021
4527 Clear -10 1033 48 10000 2.06 10 16:46 31.12.2021
4528 Clear -9 1033 45 10000 2.57 330 15:59 31.12.2021
4529 Clear -9 1033 45 10000 2.57 330 15:40 31.12.2021
4530 Clear -9 1033 45 10000 2.57 330 15:19 31.12.2021
4531 Clear -8 1033 41 10000 5.14 330 14:33 31.12.2021
4532 Clear -8 1032 45 10000 3.6 340 13:44 31.12.2021
4533 Clear -8 1032 45 10000 3.6 330 12:49 31.12.2021
4534 Clear -8 1032 45 10000 3.6 330 12:19 31.12.2021
4535 Clear -8 1032 38 10000 1.54 290 11:33 31.12.2021
4536 Clear -6 1032 32 10000 3.6 320 10:41 31.12.2021
4537 Clear -5 1032 27 10000 4.43 310 10:23 31.12.2021
4538 Clear -5 1031 28 10000 4.12 330 09:33 31.12.2021
4539 Clear -4 1032 24 10000 6.17 320 08:49 31.12.2021
4540 Clear -3 1032 24 10000 5.14 320 07:49 31.12.2021
4541 Clear -9 1032 48 10000 3.09 340 00:47 31.12.2021
4542 Clear -8 1030 38 10000 5.66 310 22:50 30.12.2021
4543 Clear -8 1030 38 10000 5.66 310 22:26 30.12.2021
4544 Clear -7 1030 41 10000 4.12 310 21:37 30.12.2021
4545 Clear -7 1030 38 10000 4.12 310 20:49 30.12.2021
4546 Clear -7 1030 38 10000 4.12 310 20:28 30.12.2021
4547 Clear -6 1029 35 10000 7.72 300 19:48 30.12.2021
4548 Clear -6 1029 35 10000 7.72 300 19:18 30.12.2021
4549 Clear -6 1029 38 10000 7.72 310 18:21 30.12.2021
4550 Clear -5 1028 46 10000 5.14 300 16:37 30.12.2021
4551 Clear -5 1029 40 10000 5.66 320 15:53 30.12.2021
4552 Clear -5 1028 54 10000 4.63 320 14:49 30.12.2021
4553 Clear -5 1028 54 10000 4.63 320 14:30 30.12.2021
4554 Clear -4 1027 50 10000 7.2 330 13:24 30.12.2021
4555 Clear -3 1026 46 10000 7.2 330 11:35 30.12.2021
4556 Clear -2 1025 54 10000 4.63 300 10:27 30.12.2021
4557 Clear -2 1024 54 10000 3.6 270 09:27 30.12.2021
4558 Clouds -1 1024 37 10000 4.12 250 06:55 30.12.2021
4559 Clouds -1 1025 29 10000 2.57 330 04:42 30.12.2021
4560 Clear -1 1026 34 10000 0.51 180 03:40 30.12.2021
4561 Clear -4 1026 58 10000 0.51 310 01:56 30.12.2021
4562 Clear -7 1026 68 10000 2.06 260 23:36 29.12.2021
4563 Clear -5 1025 37 10000 4.68 302 22:32 29.12.2021
4564 Clear -5 1025 63 10000 1.54 300 21:54 29.12.2021
4565 Clear -5 1024 63 10000 3.09 290 20:56 29.12.2021
4566 Clear -5 1024 63 10000 3.09 290 20:18 29.12.2021
4567 Clear -4 1024 63 10000 4.12 310 19:31 29.12.2021
4568 Clear -3 1024 44 10000 5.53 302 18:30 29.12.2021
4569 Clear -4 1023 68 10000 3.09 330 17:30 29.12.2021
4570 Clear -3 1022 63 10000 4.12 310 16:58 29.12.2021
4571 Clear -2 1022 63 10000 4.12 310 16:19 29.12.2021
4572 Clear -1 1021 64 10000 4.12 290 14:47 29.12.2021
4573 Clouds 1 1020 60 8000 7.2 290 12:50 29.12.2021
4574 Clouds 1 1020 60 8000 7.2 290 12:27 29.12.2021
4575 Clouds 3 1018 65 6000 7.2 280 10:53 29.12.2021
4576 Clouds 5 1017 56 7000 6.69 250 08:56 29.12.2021
4577 Clouds 7 1017 42 9000 6.17 280 06:49 29.12.2021
4578 Clouds 7 1017 42 9000 6.17 280 06:28 29.12.2021
4579 Clouds 7 1017 49 7000 5.66 270 05:50 29.12.2021
4580 Clouds 2 1019 70 6000 3.09 160 03:46 29.12.2021
4581 Clouds -3 1020 86 6000 2.06 150 00:28 29.12.2021
4582 Rain -3 1020 83 5000 2.06 160 23:56 28.12.2021
4583 Mist -2 1020 86 5000 2.06 160 22:56 28.12.2021
4584 Mist -2 1020 86 5000 2.06 160 22:24 28.12.2021
4585 Mist -3 1020 86 5000 1.54 110 21:54 28.12.2021
4586 Mist -3 1021 80 5000 1.54 170 20:54 28.12.2021
4587 Mist -4 1022 86 5000 1.54 160 19:52 28.12.2021
4588 Clouds -5 1023 86 6000 2.06 160 18:53 28.12.2021
4589 Clouds -5 1023 86 6000 2.06 160 18:24 28.12.2021
4590 Clouds -6 1023 86 6000 1.54 190 17:25 28.12.2021
4591 Clouds -5 1024 79 6000 1.54 160 15:53 28.12.2021
4592 Clouds -5 1024 79 6000 1.54 160 15:29 28.12.2021
4593 Clouds -4 1024 74 7000 1.54 160 14:54 28.12.2021
4594 Clouds -4 1024 74 7000 1.54 160 14:22 28.12.2021
4595 Clouds -3 1025 74 7000 1.54 150 13:54 28.12.2021
4596 Clouds -3 1025 74 7000 1.54 150 13:33 28.12.2021
4597 Clouds -3 1025 68 8000 1.54 160 12:55 28.12.2021
4598 Clouds -3 1025 68 8000 1.54 160 12:18 28.12.2021
4599 Clouds 0 1026 55 9000 2.06 120 09:30 28.12.2021
4600 Clouds 0 1026 55 9000 2.06 120 07:33 28.12.2021
4601 Clouds -3 1030 64 8000 2.06 110 03:28 28.12.2021
4602 Mist -10 1030 92 3000 0.51 330 23:26 27.12.2021
4603 Fog -10 1030 92 2000 1.03 330 22:20 27.12.2021
4604 Fog -10 1030 92 2000 0.51 320 21:29 27.12.2021
4605 Fog -11 1030 92 3000 1.54 320 20:24 27.12.2021
4606 Mist -10 1030 92 4000 1.03 20 19:47 27.12.2021
4607 Mist -10 1030 92 5000 1.54 320 18:56 27.12.2021
4608 Clear -9 1030 92 7000 1.03 270 17:50 27.12.2021
4609 Clear -9 1030 92 7000 1.03 270 17:27 27.12.2021
4610 Clear -9 1030 92 10000 0.51 20 15:53 27.12.2021
4611 Clear -7 1030 79 10000 0.51 170 14:35 27.12.2021
4612 Clouds -5 1030 68 10000 1.54 170 13:59 27.12.2021
4613 Clouds -5 1030 68 10000 1.54 60 12:49 27.12.2021
4614 Clouds -5 1029 68 10000 2.06 160 10:37 27.12.2021
4615 Clouds -4 1028 83 10000 1.03 120 10:18 27.12.2021
4616 Snow -4 1029 68 10000 3.09 150 08:41 27.12.2021
4617 Snow -4 1029 63 10000 2.57 160 07:33 27.12.2021
4618 Clear -7 1032 42 10000 2.57 150 02:29 27.12.2021
4619 Clear -13 1033 61 10000 1.54 150 00:29 27.12.2021
4620 Clear -13 1033 61 10000 2.06 140 23:42 26.12.2021
4621 Clear -14 1033 78 10000 0.51 140 22:49 26.12.2021
4622 Clear -14 1033 78 10000 1.03 240 21:30 26.12.2021
4623 Clear -14 1033 72 10000 0 0 19:52 26.12.2021
4624 Clear -13 1033 66 10000 0.51 10 18:25 26.12.2021
4625 Clear -13 1033 61 10000 2.06 350 17:44 26.12.2021
4626 Clear -11 1034 56 10000 3.09 330 15:31 26.12.2021
4627 Clear -10 1034 52 10000 5.66 340 13:43 26.12.2021
4628 Clear -10 1034 52 10000 5.66 340 13:21 26.12.2021
4629 Clear -10 1034 52 10000 3.6 330 12:34 26.12.2021
4630 Clear -10 1033 41 10000 5.14 330 10:48 26.12.2021
4631 Clear -8 1033 35 10000 7.2 330 09:30 26.12.2021
4632 Clear -7 1032 30 10000 6.69 310 08:44 26.12.2021
4633 Clear -7 1032 30 10000 6.69 310 08:23 26.12.2021
4634 Clear -13 1037 47 10000 3.6 340 01:36 26.12.2021
4635 Clear -15 1037 61 10000 3.09 320 00:20 26.12.2021
4636 Clear -15 1036 56 10000 3.6 330 23:28 25.12.2021
4637 Clear -15 1036 61 10000 4.12 310 22:29 25.12.2021
4638 Clear -15 1036 56 10000 3.6 320 21:25 25.12.2021
4639 Clear -14 1036 47 10000 5.14 320 19:28 25.12.2021
4640 Clear -14 1035 47 10000 5.66 320 18:57 25.12.2021
4641 Clear -14 1035 47 10000 5.66 320 18:25 25.12.2021
4642 Clear -14 1036 51 10000 3.6 320 16:49 25.12.2021
4643 Clear -14 1036 47 10000 6.17 320 15:30 25.12.2021
4644 Clear -13 1035 43 10000 6.69 340 13:47 25.12.2021
4645 Clear -13 1035 47 10000 7.2 330 12:18 25.12.2021
4646 Clear -11 1034 44 10000 6.69 310 10:32 25.12.2021
4647 Clear -10 1033 37 10000 5.14 310 09:48 25.12.2021
4648 Clear -9 1032 32 10000 5.66 320 05:39 25.12.2021
4649 Clear -12 1033 37 10000 7.2 320 01:31 25.12.2021
4650 Clear -13 1033 43 10000 6.69 320 00:18 25.12.2021
4651 Clear -11 1030 48 10000 7.2 310 21:46 24.12.2021
4652 Clear -9 1029 44 10000 6.69 310 19:26 24.12.2021
4653 Clear -9 1028 41 10000 6.17 320 18:34 24.12.2021
4654 Clear -7 1028 41 10000 8.23 320 16:40 24.12.2021
4655 Clear -7 1027 49 10000 6.69 310 15:49 24.12.2021
4656 Clear -6 1027 49 10000 6.69 310 15:20 24.12.2021
4657 Clear -6 1026 58 10000 5.66 310 14:31 24.12.2021
4658 Clear -5 1026 58 10000 6.69 320 13:45 24.12.2021
4659 Clear -4 1025 58 10000 7.2 320 12:55 24.12.2021
4660 Clear -4 1025 58 10000 7.2 320 12:35 24.12.2021
4661 Clear -3 1024 58 10000 5.14 330 11:42 24.12.2021
4662 Clear -3 1024 58 10000 5.14 330 11:19 24.12.2021
4663 Clear -2 1024 50 10000 6.69 320 10:33 24.12.2021
4664 Snow 1 1022 69 10000 4.12 330 08:38 24.12.2021
4665 Mist 2 1022 75 8000 5.14 320 07:58 24.12.2021
4666 Mist 3 1022 80 5000 4.12 320 06:18 24.12.2021
4667 Clouds 1 1022 69 10000 3.6 330 00:21 24.12.2021
4668 Clouds 1 1022 75 10000 2.06 340 23:33 23.12.2021
4669 Clouds 1 1022 80 9000 1.54 340 22:50 23.12.2021
4670 Clouds 1 1022 80 9000 1.54 340 22:22 23.12.2021
4671 Clouds 0 1022 80 9000 1.54 330 21:39 23.12.2021
4672 Snow 0 1022 86 9000 0.51 330 20:27 23.12.2021
4673 Clouds -1 1023 80 9000 1.03 340 19:28 23.12.2021
4674 Snow -1 1023 80 10000 1.03 70 17:58 23.12.2021
4675 Clear -1 1023 80 10000 1.03 70 17:29 23.12.2021
4676 Clear -1 1023 80 10000 2.06 350 16:26 23.12.2021
4677 Clear -1 1023 74 10000 2.06 120 15:33 23.12.2021
4678 Clear 0 1024 74 10000 0.51 310 14:59 23.12.2021
4679 Clear 0 1024 74 10000 0.51 310 14:39 23.12.2021
4680 Clear 1 1024 64 10000 1.03 290 13:25 23.12.2021
4681 Clear 0 1024 64 10000 1.54 310 11:27 23.12.2021
4682 Clear 4 1024 42 10000 2.06 350 09:53 23.12.2021
4683 Clear 5 1024 42 10000 2.06 350 09:33 23.12.2021
4684 Clear 7 1024 36 10000 2.06 360 08:28 23.12.2021
4685 Clear 6 1025 31 10000 1.03 340 05:30 23.12.2021
4686 Clear -5 1026 86 10000 1.54 310 00:40 23.12.2021
4687 Clear -5 1025 93 8000 1.03 330 22:50 22.12.2021
4688 Clear -4 1025 93 10000 1.54 320 21:59 22.12.2021
4689 Clear -4 1025 93 10000 1.54 320 21:30 22.12.2021
4690 Clear -5 1024 93 10000 0.51 330 20:58 22.12.2021
4691 Clear -5 1024 93 10000 0.51 330 20:40 22.12.2021
4692 Clear -5 1025 86 10000 0.51 160 19:42 22.12.2021
4693 Clear -4 1025 86 10000 1.54 340 18:25 22.12.2021
4694 Clear -4 1025 86 10000 1.54 330 17:38 22.12.2021
4695 Clear -3 1025 80 10000 1.03 310 15:50 22.12.2021
4696 Clear -1 1025 80 10000 1.03 310 13:57 22.12.2021
4697 Clear 0 1024 69 10000 0.51 350 12:47 22.12.2021
4698 Clear 0 1024 74 10000 1.03 300 11:37 22.12.2021
4699 Clear 4 1023 41 10000 2.06 350 09:43 22.12.2021
4700 Clear 8 1022 29 10000 2.06 340 07:56 22.12.2021
4701 Clear 7 1023 29 10000 1.03 240 05:51 22.12.2021
4702 Clear 7 1023 29 10000 1.03 240 05:33 22.12.2021
4703 Clear 5 1024 33 10000 1.54 270 04:55 22.12.2021
4704 Clear 5 1024 33 10000 1.54 270 04:35 22.12.2021
4705 Clear 3 1024 35 10000 1.54 340 03:34 22.12.2021
4706 Clear 0 1024 44 10000 2.06 40 02:25 22.12.2021
4707 Clear -5 1023 68 10000 2.57 340 23:47 21.12.2021
4708 Clear -4 1023 68 10000 1.03 300 22:29 21.12.2021
4709 Clear -4 1022 68 10000 1.54 320 21:53 21.12.2021
4710 Clear -4 1022 68 10000 1.54 320 21:26 21.12.2021
4711 Clear -3 1022 59 10000 2.57 320 20:24 21.12.2021
4712 Clear -3 1023 63 10000 3.09 310 19:52 21.12.2021
4713 Clear -3 1023 63 10000 3.09 310 19:26 21.12.2021
4714 Clear -3 1022 68 10000 3.09 320 18:22 21.12.2021
4715 Clear -3 1022 63 10000 2.57 320 17:51 21.12.2021
4716 Clear -2 1022 54 10000 1.54 290 16:47 21.12.2021
4717 Clear -1 1021 59 10000 2.06 320 15:33 21.12.2021
4718 Clear 0 1021 51 10000 2.57 330 13:51 21.12.2021
4719 Clear 0 1021 51 10000 2.57 330 13:32 21.12.2021
4720 Clear 2 1020 41 10000 2.06 330 12:20 21.12.2021
4721 Clear 5 1019 33 10000 3.6 310 10:37 21.12.2021
4722 Clear 7 1018 31 10000 5.14 330 09:35 21.12.2021
4723 Clear 9 1017 34 10000 4.63 340 08:30 21.12.2021
4724 Clear 9 1016 34 10000 5.14 320 07:32 21.12.2021
4725 Clear 10 1016 43 10000 5.14 320 06:54 21.12.2021
4726 Fog 7 1017 87 100 3.09 330 03:20 21.12.2021
4727 Fog 2 1016 100 1300 1.03 280 01:18 21.12.2021
4728 Fog 0 1015 100 800 0.51 340 23:34 20.12.2021
4729 Fog 0 1015 100 800 0.51 340 23:34 20.12.2021
4730 Fog 0 1014 100 100 1.03 170 22:34 20.12.2021
4731 Fog 2 1015 96 100 0.51 160 21:48 20.12.2021
4732 Fog 2 1015 96 500 0.51 50 21:24 20.12.2021
4733 Fog 2 1015 100 800 1.03 100 20:48 20.12.2021
4734 Fog 2 1015 93 800 1.54 140 19:55 20.12.2021
4735 Fog 2 1015 93 1100 1.54 150 19:31 20.12.2021
4736 Fog 2 1015 100 2500 2.57 150 18:54 20.12.2021
4737 Fog 3 1015 93 2500 2.57 140 17:55 20.12.2021
4738 Fog 4 1015 93 2500 2.57 140 17:25 20.12.2021
4739 Fog 3 1016 93 2500 1.54 200 16:42 20.12.2021
4740 Mist 3 1015 93 4500 2.57 140 15:51 20.12.2021
4741 Clouds 5 1015 87 6000 2.06 130 14:53 20.12.2021
4742 Clouds 5 1015 87 6000 0.51 160 13:18 20.12.2021
4743 Clouds 8 1015 76 9000 2.06 210 11:19 20.12.2021
4744 Clouds 9 1015 66 9000 2.57 210 09:48 20.12.2021
4745 Clouds 9 1015 66 9000 2.57 210 09:29 20.12.2021
4746 Clouds 11 1015 58 9000 4.12 230 08:42 20.12.2021
4747 Clouds 11 1015 58 8000 5.66 230 07:50 20.12.2021
4748 Clouds 11 1015 58 8000 5.66 230 07:30 20.12.2021
4749 Clear 10 1016 54 10000 4.12 220 04:24 20.12.2021
4750 Clouds 0 1018 80 10000 2.57 130 23:58 19.12.2021
4751 Clouds 1 1018 80 10000 2.06 140 22:45 19.12.2021
4752 Clouds -1 1018 80 10000 3.09 140 21:50 19.12.2021
4753 Clouds -1 1018 80 10000 3.09 140 21:29 19.12.2021
4754 Clouds -2 1019 86 10000 3.09 130 20:31 19.12.2021
4755 Clouds 0 1019 86 10000 2.57 140 19:49 19.12.2021
4756 Clouds -2 1019 86 10000 3.09 150 18:59 19.12.2021
4757 Clouds -3 1019 86 10000 3.09 150 18:29 19.12.2021
4758 Clouds -1 1019 80 10000 2.57 140 17:52 19.12.2021
4759 Clouds -1 1019 69 10000 1.38 155 17:19 19.12.2021
4760 Clouds -1 1020 80 10000 2.06 150 16:26 19.12.2021
4761 Clear -1 1020 74 10000 1.03 120 15:31 19.12.2021
4762 Clear -1 1020 80 10000 1.54 160 14:59 19.12.2021
4763 Clear -1 1020 80 10000 1.54 160 14:36 19.12.2021
4764 Clear -1 1020 74 10000 2.57 150 13:22 19.12.2021
4765 Clear -1 1020 74 10000 3.09 140 12:36 19.12.2021
4766 Clear -1 1020 74 10000 3.09 140 12:18 19.12.2021
4767 Clear 0 1021 74 10000 2.57 160 11:18 19.12.2021
4768 Clear 2 1021 64 10000 2.06 180 10:25 19.12.2021
4769 Clear 3 1021 56 10000 3.09 200 09:37 19.12.2021
4770 Clear 4 1021 48 10000 2.57 180 07:50 19.12.2021
4771 Clear 2 1024 38 10000 1.03 190 04:45 19.12.2021
4772 Clear -8 1024 86 10000 0.51 330 00:56 19.12.2021
4773 Clear -8 1024 86 10000 0.51 330 00:28 19.12.2021
4774 Clear -6 1023 86 10000 2.06 260 22:32 18.12.2021
4775 Clear -4 1023 68 10000 2.06 290 21:54 18.12.2021
4776 Clear -4 1023 68 10000 2.06 290 21:54 18.12.2021
4777 Clear -4 1023 68 10000 2.06 290 21:34 18.12.2021
4778 Clouds -3 1022 63 10000 3.6 270 20:44 18.12.2021
4779 Clouds -3 1022 68 10000 3.09 300 19:51 18.12.2021
4780 Clouds -2 1022 68 10000 3.09 300 19:19 18.12.2021
4781 Clouds -2 1021 80 10000 3.09 330 18:19 18.12.2021
4782 Snow 0 1020 80 10000 8.23 330 17:47 18.12.2021
4783 Snow 0 1019 93 10000 5.14 270 16:25 18.12.2021
4784 Snow 0 1019 86 1500 7.72 300 15:26 18.12.2021
4785 Clear -2 1019 80 10000 5.66 140 14:32 18.12.2021
4786 Clear -3 1020 86 10000 5.66 140 13:18 18.12.2021
4787 Clear -4 1021 93 10000 5.14 140 11:21 18.12.2021
4788 Snow -3 1023 86 10000 4.12 140 09:37 18.12.2021
4789 Snow -3 1023 86 4000 2.06 140 08:42 18.12.2021
4790 Snow -3 1023 86 1600 3.09 160 08:18 18.12.2021
4791 Clear -7 1029 38 10000 1.54 210 01:48 18.12.2021
4792 Clear -11 1029 52 10000 1.03 110 00:27 18.12.2021
4793 Clear -11 1029 52 10000 1.54 80 23:37 17.12.2021
4794 Clear -10 1030 52 10000 2.06 360 21:55 17.12.2021
4795 Clear -10 1031 48 10000 2.57 340 20:51 17.12.2021
4796 Clear -10 1031 48 10000 2.57 340 20:28 17.12.2021
4797 Clear -9 1031 45 10000 4.63 330 18:54 17.12.2021
4798 Clear -9 1031 45 10000 4.63 330 18:21 17.12.2021
4799 Clear -9 1031 52 10000 3.09 320 17:25 17.12.2021
4800 Clear -9 1030 45 10000 6.69 310 16:29 17.12.2021
4801 Clear -9 1030 48 10000 5.14 330 15:51 17.12.2021
4802 Clear -9 1030 48 10000 5.14 330 15:18 17.12.2021
4803 Clear -9 1030 45 10000 4.12 320 14:34 17.12.2021
4804 Clear -9 1029 45 10000 7.2 330 12:38 17.12.2021
4805 Clear -9 1028 45 10000 7.72 330 11:18 17.12.2021
4806 Clouds -8 1026 45 10000 10.8 320 09:52 17.12.2021
4807 Clouds -6 1025 38 10000 9.26 320 08:58 17.12.2021
4808 Clouds -5 1025 38 10000 9.26 320 08:19 17.12.2021
4809 Clouds -3 1024 33 10000 9.77 320 04:58 17.12.2021
4810 Clear -4 1022 58 10000 7.2 310 00:58 17.12.2021
4811 Clouds -2 1022 37 10000 7.09 302 22:44 16.12.2021
4812 Clouds -2 1021 40 10000 6.8 301 22:22 16.12.2021
4813 Clear -2 1021 59 10000 7.2 310 21:43 16.12.2021
4814 Clear -1 1020 59 10000 6.17 300 20:42 16.12.2021
4815 Clear -1 1020 59 10000 6.17 300 20:21 16.12.2021
4816 Clear -1 1020 59 10000 6.17 300 20:21 16.12.2021
4817 Clear 1 1020 59 10000 7.2 310 19:27 16.12.2021
4818 Clear 2 1019 64 10000 5.14 280 18:31 16.12.2021
4819 Clear 3 1018 48 10000 4.12 300 17:46 16.12.2021
4820 Haze 4 1018 58 10000 5.66 310 16:24 16.12.2021
4821 Haze 4 1018 70 5000 5.14 310 15:38 16.12.2021
4822 Mist 5 1016 75 4000 4.63 320 13:45 16.12.2021
4823 Haze 6 1017 70 5000 2.06 230 11:56 16.12.2021
4824 Haze 6 1017 70 5000 2.06 230 11:18 16.12.2021
4825 Rain 6 1016 65 6000 2.06 240 10:39 16.12.2021
4826 Clouds 7 1017 57 9000 3.09 290 09:42 16.12.2021
4827 Clouds 9 1018 50 6000 2.06 320 06:23 16.12.2021
4828 Mist 6 1020 76 2500 0.51 40 03:54 16.12.2021
4829 Mist 2 1021 100 1600 1.54 340 23:36 15.12.2021
4830 Fog 2 1020 100 500 1.03 250 22:49 15.12.2021
4831 Fog 2 1020 100 500 1.03 250 22:20 15.12.2021
4832 Fog 2 1020 100 700 0.51 340 21:31 15.12.2021
4833 Fog 2 1021 93 700 1.54 70 20:36 15.12.2021
4834 Fog 2 1021 100 500 1.03 240 19:53 15.12.2021
4835 Fog 2 1021 100 800 0.51 310 18:41 15.12.2021
4836 Fog 2 1021 100 800 0.51 310 18:18 15.12.2021
4837 Fog 2 1021 100 1200 1.03 280 17:40 15.12.2021
4838 Fog 2 1021 93 2000 0.51 210 16:57 15.12.2021
4839 Fog 3 1021 93 2500 1.54 30 15:47 15.12.2021
4840 Fog 3 1021 93 2500 1.54 30 15:29 15.12.2021
4841 Fog 2 1021 93 2500 1.03 320 14:44 15.12.2021
4842 Mist 3 1021 100 2500 1.03 360 13:27 15.12.2021
4843 Mist 7 1020 81 2500 2.57 270 10:58 15.12.2021
4844 Haze 8 1020 81 3000 2.57 280 09:31 15.12.2021
4845 Haze 10 1019 62 3500 3.6 280 07:47 15.12.2021
4846 Mist 9 1021 81 2700 2.06 180 03:58 15.12.2021
4847 Mist 6 1018 93 4000 2.06 160 23:46 14.12.2021
4848 Mist 6 1018 93 5000 2.06 270 22:52 14.12.2021
4849 Mist 6 1018 93 5000 2.06 270 22:34 14.12.2021
4850 Rain 6 1018 81 9000 3.09 220 21:24 14.12.2021
4851 Mist 6 1018 93 5000 2.57 170 20:18 14.12.2021
4852 Mist 5 1019 93 5000 3.6 150 19:21 14.12.2021
4853 Mist 5 1019 93 5000 3.6 150 19:21 14.12.2021
4854 Mist 5 1019 93 5000 2.06 170 18:34 14.12.2021
4855 Mist 6 1019 93 5000 1.54 190 17:50 14.12.2021
4856 Mist 5 1019 93 5000 1.54 160 16:43 14.12.2021
4857 Mist 4 1019 93 5000 2.57 160 15:52 14.12.2021
4858 Clouds 5 1019 87 6000 2.06 170 13:33 14.12.2021
4859 Clouds 6 1019 87 8000 3.09 170 12:41 14.12.2021
4860 Clouds 5 1019 87 8000 3.09 150 11:24 14.12.2021
4861 Clouds 5 1019 81 8000 3.09 170 10:27 14.12.2021
4862 Clouds 6 1019 70 10000 2.06 170 09:53 14.12.2021
4863 Clear 7 1019 57 10000 2.06 190 08:29 14.12.2021
4864 Clear 7 1019 57 10000 2.57 210 07:59 14.12.2021
4865 Clear 7 1020 46 10000 2.06 180 05:52 14.12.2021
4866 Clouds 0 1023 60 10000 2.06 170 23:39 13.12.2021
4867 Clouds 0 1024 60 10000 2.06 170 21:54 13.12.2021
4868 Clouds 0 1024 60 10000 2.06 170 21:34 13.12.2021
4869 Clouds -1 1024 59 10000 1.54 180 20:50 13.12.2021
4870 Clouds 0 1024 59 10000 2.06 180 19:57 13.12.2021
4871 Snow -1 1024 59 10000 2.06 180 19:20 13.12.2021
4872 Clouds -1 1026 37 10000 0.77 139 17:26 13.12.2021
4873 Clouds -3 1026 64 10000 3.09 150 16:20 13.12.2021
4874 Clouds -2 1026 64 10000 2.57 150 15:38 13.12.2021
4875 Clouds -2 1026 51 10000 1.54 190 13:49 13.12.2021
4876 Clear -3 1027 32 10000 0.85 154 13:18 13.12.2021
4877 Clouds -3 1027 59 10000 0.51 70 12:19 13.12.2021
4878 Clear -2 1027 47 10000 2.06 250 11:35 13.12.2021
4879 Clear -1 1027 47 10000 1.54 250 10:53 13.12.2021
4880 Clear -1 1027 47 10000 1.54 250 10:21 13.12.2021
4881 Clear 2 1027 27 10000 4.63 330 07:57 13.12.2021
4882 Clear 1 1029 27 10000 4.12 350 05:36 13.12.2021
4883 Clear -1 1030 29 10000 2.57 360 03:30 13.12.2021
4884 Clear -7 1030 58 10000 3.09 320 23:27 12.12.2021
4885 Clear -6 1029 53 10000 2.06 320 21:50 12.12.2021
4886 Clear -5 1029 54 10000 4.12 340 20:28 12.12.2021
4887 Clear -4 1030 54 10000 2.57 330 18:43 12.12.2021
4888 Clear -3 1029 50 10000 5.14 320 17:45 12.12.2021
4889 Clear -3 1030 50 10000 4.12 320 16:28 12.12.2021
4890 Clear -3 1030 50 10000 4.63 320 15:50 12.12.2021
4891 Clear -3 1030 50 10000 4.63 320 15:26 12.12.2021
4892 Clear -3 1030 46 10000 4.63 320 14:36 12.12.2021
4893 Clear -3 1029 46 10000 5.66 320 13:26 12.12.2021
4894 Clear -3 1029 46 10000 6.17 320 12:30 12.12.2021
4895 Clear -2 1028 46 10000 6.17 310 11:44 12.12.2021
4896 Clear -1 1028 46 10000 6.17 310 11:22 12.12.2021
4897 Clear -1 1027 46 10000 5.14 310 10:28 12.12.2021
4898 Clear 1 1026 37 10000 7.2 300 09:38 12.12.2021
4899 Clear 2 1026 35 10000 6.69 300 08:33 12.12.2021
4900 Clear 4 1025 35 10000 7.2 320 06:19 12.12.2021
4901 Clear 6 1026 45 10000 5.14 310 04:56 12.12.2021
4902 Clouds 5 1027 56 9000 6.17 320 03:31 12.12.2021
4903 Mist 1 1025 80 5000 4.63 310 23:44 11.12.2021
4904 Mist 1 1024 100 2000 2.06 290 22:22 11.12.2021
4905 Fog -1 1024 100 400 2.06 320 21:52 11.12.2021
4906 Fog 0 1024 93 600 0 0 20:51 11.12.2021
4907 Fog 1 1024 100 1200 1.03 300 19:23 11.12.2021
4908 Mist 2 1024 93 1500 2.06 330 18:52 11.12.2021
4909 Clouds 4 1025 73 10000 1.26 301 18:21 11.12.2021
4910 Mist 3 1024 93 2000 0.51 290 17:20 11.12.2021
4911 Mist 3 1025 93 2500 0.51 320 15:53 11.12.2021
4912 Mist 3 1025 93 2500 0.51 320 15:27 11.12.2021
4913 Mist 4 1025 87 3500 1.03 300 12:50 11.12.2021
4914 Mist 4 1025 87 3500 1.03 300 12:50 11.12.2021
4915 Mist 5 1025 87 4200 1.03 330 11:25 11.12.2021
4916 Haze 6 1025 75 5000 1.54 10 09:45 11.12.2021
4917 Haze 9 1026 71 4500 4.12 340 07:49 11.12.2021
4918 Fog 4 1028 100 700 1.54 250 02:20 11.12.2021
4919 Fog 2 1027 100 100 1.54 330 23:58 10.12.2021
4920 Fog 2 1027 100 100 1.54 330 23:20 10.12.2021
4921 Fog 2 1027 100 500 1.54 330 21:56 10.12.2021
4922 Fog 2 1026 100 100 1.03 350 20:57 10.12.2021
4923 Fog 3 1027 93 100 1.03 290 19:21 10.12.2021
4924 Fog 3 1026 93 1200 1.03 20 17:59 10.12.2021
4925 Fog 3 1026 93 2000 1.03 40 16:56 10.12.2021
4926 Fog 3 1026 93 2000 1.03 40 16:19 10.12.2021
4927 Fog 3 1027 100 3000 0.51 10 15:39 10.12.2021
4928 Fog 3 1027 100 3000 0.51 10 15:20 10.12.2021
4929 Fog 4 1027 93 4000 0.51 230 13:51 10.12.2021
4930 Fog 4 1027 93 4000 0.51 230 13:26 10.12.2021
4931 Clouds 6 1026 70 10000 0.44 2 12:34 10.12.2021
4932 Clouds 7 1026 64 10000 1.3 292 11:28 10.12.2021
4933 Clouds 7 1026 64 10000 1.3 292 11:28 10.12.2021
4934 Clouds 6 1025 93 7000 2.57 300 09:54 10.12.2021
4935 Clouds 8 1024 87 7000 2.57 320 08:32 10.12.2021
4936 Clouds 8 1023 81 10000 1.03 90 05:57 10.12.2021
4937 Clouds 7 1025 76 6000 1.54 140 02:48 10.12.2021
4938 Clouds 6 1024 76 10000 1.54 190 23:54 09.12.2021
4939 Clouds 6 1024 76 10000 1.54 190 23:20 09.12.2021
4940 Clouds 6 1024 76 10000 1.03 140 22:24 09.12.2021
4941 Clouds 4 1024 87 7000 0.51 80 21:50 09.12.2021
4942 Rain 5 1024 81 7000 1.03 300 20:41 09.12.2021
4943 Rain 5 1024 81 7000 1.03 300 20:41 09.12.2021
4944 Clouds 4 1024 81 7000 1.03 300 20:20 09.12.2021
4945 Rain 4 1025 87 7000 1.54 320 19:21 09.12.2021
4946 Clouds 4 1025 87 8000 1.03 350 18:36 09.12.2021
4947 Clear 4 1025 87 10000 1.03 10 17:51 09.12.2021
4948 Clear 4 1025 87 10000 1.03 10 17:25 09.12.2021
4949 Clear 5 1026 81 10000 2.06 330 16:53 09.12.2021
4950 Clear 5 1026 75 10000 0.51 230 15:32 09.12.2021
4951 Rain 6 1027 70 10000 1.54 160 14:46 09.12.2021
4952 Clear 7 1026 61 10000 3.09 110 13:19 09.12.2021
4953 Clear 7 1027 66 10000 3.09 100 12:35 09.12.2021
4954 Clear 7 1027 61 10000 2.06 100 10:58 09.12.2021
4955 Clear 9 1028 53 10000 3.09 110 08:49 09.12.2021
4956 Clear 10 1029 51 10000 3.09 120 06:19 09.12.2021
4957 Mist 4 1032 81 5000 1.03 270 02:49 09.12.2021
4958 Fog -1 1031 100 3200 1.54 310 23:42 08.12.2021
4959 Fog -1 1031 100 3200 1.54 310 23:20 08.12.2021
4960 Mist -1 1031 93 2500 1.03 310 22:45 08.12.2021
4961 Mist 0 1031 93 3300 1.03 330 21:40 08.12.2021
4962 Mist -1 1031 100 3500 1.54 290 20:59 08.12.2021
4963 Mist 0 1031 93 4500 1.03 340 19:58 08.12.2021
4964 Mist 0 1031 93 4500 1.03 340 19:33 08.12.2021
4965 Mist 1 1031 93 5000 1.03 340 18:31 08.12.2021
4966 Mist 1 1031 93 5000 1.54 340 17:26 08.12.2021
4967 Clouds 3 1032 81 8000 0.51 20 15:46 08.12.2021
4968 Clouds 3 1032 81 8000 0.51 20 15:23 08.12.2021
4969 Clouds 2 1032 80 9000 2.06 50 14:26 08.12.2021
4970 Clear 5 1032 56 10000 1.54 310 10:53 08.12.2021
4971 Clear 5 1032 56 10000 1.54 310 10:28 08.12.2021
4972 Clear 11 1032 37 10000 1.54 330 08:54 08.12.2021
4973 Clear 10 1032 46 10000 0.69 325 07:21 08.12.2021
4974 Clear 1 1033 74 10000 0.53 38 01:21 08.12.2021
4975 Fog -1 1032 93 2500 1.03 280 23:31 07.12.2021
4976 Mist 0 1032 93 4500 1.54 350 21:26 07.12.2021
4977 Mist 0 1032 100 5000 1.54 350 20:30 07.12.2021
4978 Mist 0 1032 97 5000 2.06 330 19:48 07.12.2021
4979 Mist 1 1031 100 5000 1.54 20 18:37 07.12.2021
4980 Clear 0 1031 93 6000 1.03 320 17:27 07.12.2021
4981 Clear 1 1031 93 7000 0.51 330 16:57 07.12.2021
4982 Clear 1 1031 93 7000 0.51 330 16:27 07.12.2021
4983 Clear 4 1031 81 9000 1.03 360 14:50 07.12.2021
4984 Clear 3 1031 81 9000 2.06 330 13:46 07.12.2021
4985 Clear 6 1030 75 9000 1.03 340 12:41 07.12.2021
4986 Clear 6 1030 70 10000 2.06 330 11:23 07.12.2021
4987 Clear 9 1029 57 10000 2.06 300 09:43 07.12.2021
4988 Clear 12 1029 43 9000 2.57 310 07:52 07.12.2021
4989 Clear 11 1029 50 10000 1.54 310 05:54 07.12.2021
4990 Clear 11 1029 50 10000 1.54 310 05:26 07.12.2021
4991 Clear 11 1029 50 10000 1.54 310 05:26 07.12.2021
4992 Mist 0 1029 90 5000 0.51 310 23:38 06.12.2021
4993 Mist 0 1028 86 4500 0.51 330 22:41 06.12.2021
4994 Mist 0 1028 93 4500 0.51 330 21:59 06.12.2021
4995 Mist 0 1028 93 4500 0.51 330 21:36 06.12.2021
4996 Mist -1 1028 93 5000 2.06 330 20:33 06.12.2021
4997 Mist -1 1028 93 5000 2.06 330 20:33 06.12.2021
4998 Clouds 1 1028 86 6000 1.54 10 19:25 06.12.2021
4999 Clouds 1 1028 80 6000 2.06 330 18:55 06.12.2021
5000 Clouds 1 1028 87 7000 1.03 340 17:55 06.12.2021
5001 Clouds 2 1028 87 7000 1.03 340 17:34 06.12.2021
5002 Clouds 3 1028 75 7000 1.03 300 15:52 06.12.2021
5003 Rain 3 1027 75 9000 2.06 340 14:46 06.12.2021
5004 Clouds 4 1027 65 9000 1.03 340 13:35 06.12.2021
5005 Clouds 4 1027 70 9000 2.06 300 12:38 06.12.2021
5006 Clear 6 1026 63 10000 1.54 320 10:29 06.12.2021
5007 Clear 11 1026 40 10000 1.54 10 07:41 06.12.2021
5008 Clear 7 1028 49 10000 0.51 40 03:52 06.12.2021
5009 Clear -3 1027 93 6000 1.03 350 22:28 05.12.2021
5010 Clear -3 1027 93 6000 1.03 350 22:28 05.12.2021
5011 Clear -2 1027 93 7000 0.51 300 21:26 05.12.2021
5012 Clear -2 1027 93 8000 1.03 330 20:54 05.12.2021
5013 Clear -2 1027 93 8000 1.03 330 20:18 05.12.2021
5014 Clear -2 1027 86 8000 1.03 300 19:26 05.12.2021
5015 Clear -3 1027 93 8000 1.54 330 18:31 05.12.2021
5016 Clear -2 1027 86 9000 0.51 320 17:52 05.12.2021
5017 Clear -2 1027 86 9000 0.51 320 17:34 05.12.2021
5018 Clear -2 1028 93 10000 0.51 310 16:36 05.12.2021
5019 Clear -2 1028 93 10000 0.51 310 16:18 05.12.2021
5020 Clear -1 1028 77 10000 1.03 320 14:48 05.12.2021
5021 Clear 0 1028 80 10000 1.03 320 14:30 05.12.2021
5022 Clear -1 1028 80 10000 1.03 310 13:35 05.12.2021
5023 Clear 1 1028 64 10000 0.51 350 12:45 05.12.2021
5024 Clear 1 1028 64 10000 0.51 350 12:26 05.12.2021
5025 Clear 2 1028 56 10000 1.54 320 11:44 05.12.2021
5026 Clear 4 1028 48 10000 2.06 290 10:25 05.12.2021
5027 Clear 6 1028 35 10000 0.51 340 09:41 05.12.2021
5028 Clear 9 1029 31 10000 1.03 20 06:30 05.12.2021
5029 Clear -1 1031 69 10000 1.54 320 01:29 05.12.2021
5030 Clear -3 1030 74 10000 1.54 360 22:45 04.12.2021
5031 Clear -4 1029 80 10000 2.06 310 21:38 04.12.2021
5032 Clear -4 1029 80 10000 1.54 300 20:47 04.12.2021
5033 Clear -3 1029 77 10000 1.54 330 19:54 04.12.2021
5034 Clear -3 1029 77 10000 1.54 330 19:24 04.12.2021
5035 Clear -3 1029 64 10000 2.06 310 17:52 04.12.2021
5036 Clear -3 1029 64 10000 2.06 310 17:32 04.12.2021
5037 Clear -3 1029 68 10000 1.54 330 16:47 04.12.2021
5038 Clear -3 1029 68 10000 1.54 330 16:27 04.12.2021
5039 Clear 0 1028 47 10000 3.6 320 12:57 04.12.2021
5040 Clear 1 1027 44 10000 2.57 310 11:40 04.12.2021
5041 Clear 1 1027 31 10000 2.94 311 11:18 04.12.2021
5042 Clear 4 1026 38 10000 4.12 320 09:44 04.12.2021
5043 Clear 6 1026 39 10000 3.6 330 08:35 04.12.2021
5044 Clear 6 1026 42 10000 1.54 340 04:43 04.12.2021
5045 Clear 4 1026 42 10000 2.06 170 03:36 04.12.2021
5046 Clear -5 1024 93 10000 0.51 90 23:47 03.12.2021
5047 Clear -5 1024 83 10000 1.03 200 22:53 03.12.2021
5048 Clear -4 1024 74 10000 0.51 60 21:57 03.12.2021
5049 Clear -4 1024 74 10000 0.51 60 21:23 03.12.2021
5050 Clear -4 1024 80 10000 0.51 120 20:42 03.12.2021
5051 Clear -4 1024 80 10000 1.54 220 19:28 03.12.2021
5052 Clear -3 1024 64 10000 0.51 220 18:23 03.12.2021
5053 Clear -3 1024 63 10000 1.54 150 17:31 03.12.2021
5054 Clear 0 1022 55 10000 3.09 330 13:38 03.12.2021
5055 Clear 0 1022 55 10000 3.6 300 12:44 03.12.2021
5056 Clear 0 1022 50 10000 2.57 310 11:23 03.12.2021
5057 Clouds 2 1020 44 10000 4.63 320 09:22 03.12.2021
5058 Clouds 3 1020 38 10000 5.14 330 08:18 03.12.2021
5059 Clear 5 1019 30 10000 6.17 310 06:41 03.12.2021
5060 Clear 3 1018 60 10000 3.09 290 00:49 03.12.2021
5061 Clear 2 1017 60 10000 2.06 270 23:54 02.12.2021
5062 Clear 2 1017 60 10000 2.06 270 23:33 02.12.2021
5063 Clouds 3 1015 72 10000 3.6 320 21:41 02.12.2021
5064 Clouds 4 1014 73 10000 3.09 320 20:46 02.12.2021
5065 Clouds 3 1014 81 10000 3.09 320 20:23 02.12.2021
5066 Rain 4 1014 87 8000 3.6 290 19:22 02.12.2021
5067 Clear 6 1013 65 10000 3.09 250 16:53 02.12.2021
5068 Clear 4 1014 81 10000 2.06 150 15:41 02.12.2021
5069 Clear 4 1015 84 10000 1.54 170 14:53 02.12.2021
5070 Clouds 4 1015 87 10000 3.6 170 13:39 02.12.2021
5071 Rain 5 1015 81 10000 4.12 200 12:46 02.12.2021
5072 Clouds 5 1015 70 10000 4.63 180 11:45 02.12.2021
5073 Clear 5 1015 70 10000 4.12 170 09:27 02.12.2021
5074 Clouds 5 1017 65 10000 3.78 223 07:20 02.12.2021
5075 Clear -1 1022 61 10000 2.57 160 01:38 02.12.2021
5076 Clear -6 1022 74 10000 2.06 150 00:50 02.12.2021
5077 Clear -7 1023 76 10000 1.54 170 22:32 01.12.2021
5078 Clear -5 1023 77 10000 1.54 190 21:44 01.12.2021
5079 Clear -6 1023 86 10000 0.51 300 20:24 01.12.2021
5080 Clear -4 1024 70 10000 1.54 40 19:46 01.12.2021
5081 Clear -5 1024 79 10000 0.51 320 18:55 01.12.2021
5082 Clear -4 1025 68 10000 0.51 130 17:31 01.12.2021
5083 Clear -4 1025 61 10000 0.51 300 16:34 01.12.2021
5084 Clear -2 1025 53 10000 1.54 240 14:35 01.12.2021
5085 Clear -2 1025 54 10000 3.09 310 13:37 01.12.2021
5086 Clouds 0 1024 44 10000 4.12 300 10:45 01.12.2021
5087 Clouds 0 1024 44 10000 4.12 300 10:27 01.12.2021
5088 Clouds 1 1023 39 10000 7.72 300 08:52 01.12.2021
5089 Clouds 1 1022 36 10000 8.23 330 07:59 01.12.2021
5090 Clouds 1 1022 36 10000 8.23 330 07:31 01.12.2021
5091 Clouds 0 1023 43 10000 8.23 320 03:57 01.12.2021
5092 Clouds 0 1023 43 10000 8.23 320 03:27 01.12.2021
5093 Clouds -2 1021 50 10000 6.17 310 00:34 01.12.2021
5094 Clouds -2 1020 48 10000 7.72 310 23:29 30.11.2021
5095 Clouds -2 1019 49 10000 7.2 310 22:32 30.11.2021
5096 Clouds -1 1018 59 10000 5.66 310 20:47 30.11.2021
5097 Clouds -1 1018 59 10000 5.66 310 20:25 30.11.2021
5098 Clouds 0 1018 59 10000 6.17 320 19:39 30.11.2021
5099 Clouds 0 1017 53 10000 7.2 310 18:54 30.11.2021
5100 Clouds 1 1016 55 10000 8.75 310 17:46 30.11.2021
5101 Clouds 1 1016 56 10000 8.23 310 16:19 30.11.2021
5102 Clouds 2 1014 62 10000 8.75 300 14:34 30.11.2021
5103 Clouds 2 1013 64 10000 10.8 290 13:41 30.11.2021
5104 Clouds 3 1012 75 10000 8.23 280 12:54 30.11.2021
5105 Clouds 4 1011 65 10000 9.77 290 11:59 30.11.2021
5106 Clouds 4 1011 65 10000 9.77 290 11:25 30.11.2021
5107 Clouds 4 1010 75 10000 9.77 290 10:36 30.11.2021
5108 Mist 7 1007 76 10000 6.17 290 08:57 30.11.2021
5109 Mist 7 1007 76 10000 6.17 290 08:32 30.11.2021
5110 Clouds 8 1006 76 10000 9.26 280 07:56 30.11.2021
5111 Clouds 8 1006 81 10000 8.23 290 06:37 30.11.2021
5112 Rain 7 1010 96 3300 2.06 100 01:50 30.11.2021
5113 Rain 7 1010 96 2200 2.06 340 01:27 30.11.2021
5114 Rain 6 1012 97 4000 1.54 110 23:36 29.11.2021
5115 Rain 5 1011 76 5446 2.53 131 23:18 29.11.2021
5116 Rain 5 1011 76 5430 2.52 131 23:18 29.11.2021
5117 Rain 6 1013 90 5000 2.57 160 22:38 29.11.2021
5118 Rain 6 1014 84 6000 3.6 140 21:54 29.11.2021
5119 Clouds 6 1014 87 6000 3.6 140 21:20 29.11.2021
5120 Rain 8 1015 59 10000 4.63 120 20:46 29.11.2021
5121 Rain 6 1017 71 9000 3.6 120 19:58 29.11.2021
5122 Clouds 6 1017 71 9000 3.6 120 19:40 29.11.2021
5123 Clouds 5 1018 75 8000 1.54 160 18:59 29.11.2021
5124 Clouds 8 1018 67 10000 1.82 114 18:40 29.11.2021
5125 Clouds 8 1020 66 10000 1.64 108 17:21 29.11.2021
5126 Clouds 8 1020 66 10000 1.64 108 16:44 29.11.2021
5127 Rain 8 1021 65 10000 1.86 107 16:22 29.11.2021
5128 Clouds 8 1022 64 10000 1.37 104 14:45 29.11.2021
5129 Clouds 9 1023 61 10000 1.88 111 13:52 29.11.2021
5130 Clouds 9 1024 60 10000 0.75 106 12:57 29.11.2021
5131 Clouds 9 1024 57 10000 1.79 99 11:54 29.11.2021
5132 Clouds 10 1025 55 10000 1.06 121 10:59 29.11.2021
5133 Clouds 11 1025 56 8000 0.51 240 09:57 29.11.2021
5134 Clear 13 1025 47 10000 1.03 230 06:44 29.11.2021
5135 Clear 11 1027 45 10000 4.12 110 04:53 29.11.2021
5136 Clouds 2 1029 75 6000 2.06 330 00:44 29.11.2021
5137 Mist 0 1029 80 4500 1.54 330 23:47 28.11.2021
5138 Mist 0 1029 80 4500 1.54 330 23:28 28.11.2021
5139 Mist -1 1030 84 3500 1.03 310 21:53 28.11.2021
5140 Mist -1 1030 84 3500 1.03 310 21:28 28.11.2021
5141 Mist -1 1030 87 3500 0.51 280 20:35 28.11.2021
5142 Mist 0 1030 86 4500 1.03 350 19:29 28.11.2021
5143 Clouds 1 1030 81 6000 1.03 330 18:38 28.11.2021
5144 Clouds 1 1031 75 7000 0.51 330 17:56 28.11.2021
5145 Clouds 1 1031 75 7000 0.51 330 17:32 28.11.2021
5146 Clouds 1 1031 80 8000 1.54 320 16:44 28.11.2021
5147 Clouds 1 1031 80 8000 1.54 320 16:22 28.11.2021
5148 Clouds 2 1031 68 8000 1.54 330 15:33 28.11.2021
5149 Clouds 2 1032 68 8000 0.51 360 14:49 28.11.2021
5150 Clouds 3 1032 63 9000 1.03 330 13:49 28.11.2021
5151 Clear 2 1032 75 10000 1.03 290 12:52 28.11.2021
5152 Clear 4 1032 56 10000 1.03 340 11:18 28.11.2021
5153 Clear 7 1032 42 10000 1.03 360 10:22 28.11.2021
5154 Clear 9 1032 29 10000 2.57 300 09:40 28.11.2021
5155 Clear 12 1032 19 10000 1.54 210 07:59 28.11.2021
5156 Clear -3 1035 90 9000 1.03 350 00:39 28.11.2021
5157 Mist -3 1035 87 5000 1.54 320 21:40 27.11.2021
5158 Clear -3 1036 93 6000 1.03 350 19:49 27.11.2021
5159 Clear -2 1036 84 9000 1.03 300 17:57 27.11.2021
5160 Clear -1 1036 78 10000 1.03 40 15:59 27.11.2021
5161 Clear -1 1036 74 10000 1.54 330 14:26 27.11.2021
5162 Clear 0 1035 64 10000 1.03 330 12:58 27.11.2021
5163 Clear 3 1035 46 10000 1.54 330 10:52 27.11.2021
5164 Clear 6 1034 34 10000 2.06 360 09:53 27.11.2021
5165 Clear 8 1034 29 10000 1.54 330 08:44 27.11.2021
5166 Clear 8 1034 31 10000 1.54 250 06:34 27.11.2021
5167 Clear 0 1035 69 10000 1.03 360 01:59 27.11.2021
5168 Clear -4 1034 90 10000 1.03 310 23:39 26.11.2021
5169 Clear -3 1033 86 10000 1.03 340 22:25 26.11.2021
5170 Clear -3 1033 80 10000 1.03 360 21:38 26.11.2021
5171 Clear -3 1033 80 10000 1.03 360 21:18 26.11.2021
5172 Clear -3 1032 75 10000 0.51 330 20:30 26.11.2021
5173 Clear -2 1032 72 10000 1.54 70 19:54 26.11.2021
5174 Clear -2 1031 75 10000 0.51 170 18:43 26.11.2021
5175 Clear 0 1031 65 10000 1.03 310 17:24 26.11.2021
5176 Clear 0 1031 65 10000 1.03 310 17:24 26.11.2021
5177 Clear 0 1031 67 10000 2.06 340 16:29 26.11.2021
5178 Clear 1 1030 64 10000 2.06 350 13:37 26.11.2021
5179 Clear 2 1029 69 10000 2.57 300 12:55 26.11.2021
5180 Clouds 5 1028 63 10000 1.03 220 10:42 26.11.2021
5181 Clouds 5 1027 65 10000 1.03 250 09:29 26.11.2021
5182 Clouds 6 1027 61 10000 2.06 300 08:47 26.11.2021
5183 Clouds 6 1027 61 10000 2.06 300 08:19 26.11.2021
5184 Clouds 7 1026 53 10000 6.69 360 06:29 26.11.2021
5185 Clouds 8 1026 31 10000 3.09 300 04:52 26.11.2021
5186 Clear 6 1027 39 10000 1.54 330 03:28 26.11.2021
5187 Clear -3 1026 84 10000 1.54 300 23:28 25.11.2021
5188 Clear -3 1025 75 10000 0.51 360 21:51 25.11.2021
5189 Clear -2 1024 70 10000 0.51 60 20:40 25.11.2021
5190 Clear -1 1024 69 10000 1.54 300 18:49 25.11.2021
5191 Clear 1 1023 53 10000 1.54 330 17:58 25.11.2021
5192 Clear 1 1023 53 10000 1.54 330 17:26 25.11.2021
5193 Clear 2 1023 54 10000 4.12 360 16:38 25.11.2021
5194 Clear 2 1023 64 10000 2.57 330 15:58 25.11.2021
5195 Clear 1 1022 64 10000 2.06 320 14:19 25.11.2021
5196 Clear 5 1021 48 10000 2.06 320 12:47 25.11.2021
5197 Clear 5 1021 46 10000 1.54 330 11:52 25.11.2021
5198 Clear 8 1019 38 10000 3.6 280 09:56 25.11.2021
5199 Clear 11 1018 30 10000 3.6 330 06:22 25.11.2021
5200 Clear 7 1018 57 10000 3.6 330 02:53 25.11.2021
5201 Clear 1 1016 89 10000 0.51 280 23:39 24.11.2021
5202 Clear 1 1016 86 10000 0.51 70 22:28 24.11.2021
5203 Clear 1 1015 93 10000 0.51 320 21:44 24.11.2021
5204 Clear 3 1015 90 10000 3.09 340 20:56 24.11.2021
5205 Clear 3 1015 90 10000 3.09 340 20:26 24.11.2021
5206 Clouds 4 1015 81 10000 1.54 330 18:31 24.11.2021
5207 Clear 3 1015 81 10000 2.57 120 17:59 24.11.2021
5208 Clear 2 1015 81 10000 1.54 160 15:47 24.11.2021
5209 Clear 4 1016 67 10000 2.06 240 14:54 24.11.2021
5210 Clear 4 1016 67 10000 2.06 240 14:54 24.11.2021
5211 Clear 5 1016 53 10000 2.06 240 14:20 24.11.2021
5212 Clear 5 1016 53 10000 2.06 240 14:20 24.11.2021
5213 Clear 7 1016 46 10000 3.6 260 12:50 24.11.2021
5214 Clear 8 1016 53 10000 4.12 260 11:22 24.11.2021
5215 Clear 8 1015 66 10000 3.09 260 10:49 24.11.2021
5216 Clear 8 1015 66 10000 3.09 260 10:27 24.11.2021
5217 Clouds 9 1016 62 10000 6.17 280 07:56 24.11.2021
5218 Clouds 8 1016 61 10000 6.17 270 06:56 24.11.2021
5219 Clouds 6 1018 57 10000 4.12 200 03:57 24.11.2021
5220 Clear -1 1018 69 10000 1.54 140 00:58 24.11.2021
5221 Clear -1 1018 65 10000 1.03 160 22:58 23.11.2021
5222 Clear -1 1018 65 10000 1.03 160 22:34 23.11.2021
5223 Clear -1 1018 65 10000 1.03 160 22:34 23.11.2021
5224 Clear 0 1018 57 10000 0.51 110 21:44 23.11.2021
5225 Clear -1 1019 74 10000 1.54 210 20:19 23.11.2021
5226 Clear -3 1019 68 10000 1.03 300 18:44 23.11.2021
5227 Clouds -1 1019 55 10000 0.51 20 18:24 23.11.2021
5228 Clear -1 1019 67 10000 1.54 220 17:23 23.11.2021
5229 Clouds -1 1020 64 10000 2.57 310 16:34 23.11.2021
5230 Clouds -1 1019 74 10000 3.09 300 15:23 23.11.2021
5231 Clouds -1 1019 74 10000 1.03 310 14:26 23.11.2021
5232 Clouds 1 1018 60 10000 3.6 300 11:48 23.11.2021
5233 Clouds 2 1017 45 10000 5.92 302 10:22 23.11.2021
5234 Clouds 2 1017 55 10000 4.63 310 09:22 23.11.2021
5235 Clouds 2 1018 48 10000 5.14 290 06:46 23.11.2021
5236 Clouds 1 1019 47 10000 4.12 310 03:54 23.11.2021
5237 Clear 0 1020 48 10000 3.09 310 02:57 23.11.2021
5238 Clear -3 1019 59 10000 1.54 360 23:21 22.11.2021
5239 Clear -2 1019 55 10000 3.09 340 22:52 22.11.2021
5240 Clear -2 1019 55 10000 3.09 340 22:25 22.11.2021
5241 Clear -2 1020 59 10000 3.6 340 21:41 22.11.2021
5242 Clear -2 1020 59 10000 2.57 330 20:52 22.11.2021
5243 Clear -1 1020 60 10000 4.12 340 19:56 22.11.2021
5244 Clear -1 1020 60 10000 4.12 340 19:19 22.11.2021
5245 Clear -1 1019 55 10000 5.66 320 18:39 22.11.2021
5246 Clear 0 1019 60 10000 5.14 310 17:38 22.11.2021
5247 Clear 0 1019 64 10000 5.66 310 16:19 22.11.2021
5248 Clear 0 1019 74 10000 4.12 320 14:18 22.11.2021
5249 Clear 1 1019 69 10000 3.09 330 12:18 22.11.2021
5250 Clouds 2 1018 50 10000 4.63 300 10:43 22.11.2021
5251 Clouds 2 1017 52 10000 4.63 310 09:43 22.11.2021
5252 Clouds 3 1017 52 10000 7.72 320 08:40 22.11.2021
5253 Clouds 4 1016 60 10000 8.75 330 06:22 22.11.2021
5254 Clouds 3 1014 50 10000 3.6 310 23:28 21.11.2021
5255 Clouds 4 1014 50 10000 5.66 320 22:49 21.11.2021
5256 Clouds 5 1014 65 9000 5.66 320 21:53 21.11.2021
5257 Clouds 6 1014 70 9000 5.66 320 20:42 21.11.2021
5258 Rain 7 1014 76 9000 5.66 330 19:48 21.11.2021
5259 Clouds 7 1013 81 8000 3.09 270 18:24 21.11.2021
5260 Rain 7 1013 81 5000 5.14 310 17:38 21.11.2021
5261 Rain 10 1012 85 8000 8.75 290 15:49 21.11.2021
5262 Rain 11 1012 82 4000 7.2 270 14:45 21.11.2021
5263 Rain 11 1012 77 2400 3.6 240 13:46 21.11.2021
5264 Haze 11 1013 71 2800 3.09 190 12:35 21.11.2021
5265 Haze 10 1013 73 3000 2.06 170 11:42 21.11.2021
5266 Haze 10 1013 73 3000 2.06 170 11:23 21.11.2021
5267 Haze 10 1013 76 3000 2.57 160 10:18 21.11.2021
5268 Haze 13 1015 62 3000 1.03 80 08:42 21.11.2021
5269 Haze 13 1015 62 3000 1.03 80 08:22 21.11.2021
5270 Haze 13 1015 56 3000 1.54 40 07:43 21.11.2021
5271 Haze 14 1016 54 3300 1.54 310 05:53 21.11.2021
5272 Haze 13 1016 54 3300 1.54 310 05:25 21.11.2021
5273 Haze 11 1018 66 2800 2.06 190 03:18 21.11.2021
5274 Mist 10 1019 79 2400 1.03 170 02:50 21.11.2021
5275 Mist 8 1019 93 1800 1.54 230 00:56 21.11.2021
5276 Fog 7 1019 90 700 1.03 180 23:43 20.11.2021
5277 Fog 6 1020 91 600 0 0 21:40 20.11.2021
5278 Fog 7 1021 91 900 1.03 330 20:54 20.11.2021
5279 Fog 7 1020 87 1100 1.03 340 18:46 20.11.2021
5280 Fog 7 1020 87 1100 1.03 340 18:46 20.11.2021
5281 Fog 7 1020 87 1100 1.03 340 18:26 20.11.2021
5282 Mist 7 1020 93 1600 1.03 20 17:26 20.11.2021
5283 Mist 7 1020 87 1600 1.54 350 16:42 20.11.2021
5284 Mist 6 1021 87 1600 0.51 230 14:43 20.11.2021
5285 Mist 6 1021 87 1600 0.51 230 14:23 20.11.2021
5286 Mist 8 1022 77 2700 2.06 290 11:57 20.11.2021
5287 Haze 10 1021 63 5000 1.54 280 10:35 20.11.2021
5288 Haze 13 1021 49 6000 2.57 290 09:29 20.11.2021
5289 Haze 15 1020 58 2500 1.03 280 07:22 20.11.2021
5290 Mist 14 1021 67 1600 2.06 220 05:26 20.11.2021
5291 Mist 13 1021 75 1300 1.03 190 04:50 20.11.2021
5292 Fog 8 1022 97 1200 1.03 10 01:48 20.11.2021
5293 Fog 6 1021 100 50 1.03 210 00:40 20.11.2021
5294 Fog 7 1020 97 50 1.03 20 22:55 19.11.2021
5295 Fog 6 1020 93 100 1.03 350 21:58 19.11.2021
5296 Fog 6 1020 96 100 1.03 340 20:57 19.11.2021
5297 Fog 6 1020 96 100 1.03 340 20:36 19.11.2021
5298 Fog 6 1020 93 100 0.51 60 19:50 19.11.2021
5299 Fog 5 1020 100 150 1.54 320 18:53 19.11.2021
5300 Fog 5 1020 100 150 1.54 320 18:22 19.11.2021
5301 Fog 7 1020 93 100 1.03 320 16:47 19.11.2021
5302 Fog 8 1020 93 500 0.51 80 15:32 19.11.2021
5303 Fog 10 1018 93 1200 1.54 350 13:25 19.11.2021
5304 Mist 13 1018 80 2200 2.57 290 10:27 19.11.2021
5305 Mist 14 1017 77 3000 2.57 270 09:33 19.11.2021
5306 Haze 17 1016 59 4500 4.63 230 07:34 19.11.2021
5307 Haze 16 1017 67 5000 3.09 250 04:28 19.11.2021
5308 Mist 13 1018 91 2500 1.54 190 01:32 19.11.2021
5309 Mist 11 1017 93 2200 3.09 210 23:51 18.11.2021
5310 Mist 11 1017 93 2500 2.06 180 21:48 18.11.2021
5311 Mist 11 1017 93 2700 4.12 170 20:48 18.11.2021
5312 Mist 11 1017 93 2700 4.12 170 20:29 18.11.2021
5313 Mist 10 1017 93 3000 3.09 150 19:43 18.11.2021
5314 Mist 11 1017 93 3800 2.06 130 18:41 18.11.2021
5315 Mist 11 1017 93 3800 2.06 130 18:20 18.11.2021
5316 Mist 12 1017 87 6000 2.06 190 17:44 18.11.2021
5317 Mist 12 1017 87 6000 1.54 190 16:44 18.11.2021
5318 Mist 13 1017 84 6000 2.57 200 15:25 18.11.2021
5319 Mist 13 1017 77 5000 3.09 200 13:29 18.11.2021
5320 Mist 14 1017 82 5000 2.06 190 12:33 18.11.2021
5321 Mist 14 1016 80 5000 2.57 210 11:41 18.11.2021
5322 Mist 13 1016 82 5000 2.57 210 11:23 18.11.2021
5323 Haze 14 1016 70 5000 3.6 260 09:33 18.11.2021
5324 Haze 15 1016 65 5000 6.17 250 07:34 18.11.2021
5325 Clouds 15 1017 63 7000 3.6 200 05:47 18.11.2021
5326 Clouds 14 1017 65 8000 3.6 200 04:54 18.11.2021
5327 Clouds 9 1019 76 10000 3.6 180 01:22 18.11.2021
5328 Clouds 6 1019 73 10000 3.09 150 22:49 17.11.2021
5329 Clouds 6 1019 81 10000 3.09 150 22:20 17.11.2021
5330 Clouds 7 1019 69 10000 3.09 170 21:38 17.11.2021
5331 Clouds 7 1019 64 7000 3.09 150 20:50 17.11.2021
5332 Clouds 6 1020 65 10000 2.06 180 17:53 17.11.2021
5333 Clouds 6 1020 65 10000 2.06 180 17:25 17.11.2021
5334 Clouds 6 1022 68 10000 3.6 150 14:47 17.11.2021
5335 Clear 6 1022 61 10000 1.54 130 12:40 17.11.2021
5336 Clear 8 1023 53 10000 0.51 60 11:42 17.11.2021
5337 Clear 9 1023 45 10000 1.03 240 10:28 17.11.2021
5338 Clear 10 1023 46 10000 3.09 270 09:24 17.11.2021
5339 Clear 12 1023 30 10000 4.12 270 07:43 17.11.2021
5340 Clear 10 1025 53 10000 1.03 140 03:43 17.11.2021
5341 Clear 4 1026 81 6000 1.03 300 01:18 17.11.2021
5342 Mist 1 1025 93 4000 1.54 330 22:54 16.11.2021
5343 Clear 0 1025 93 7000 1.54 320 20:37 16.11.2021
5344 Clear 0 1025 93 7000 1.54 320 20:18 16.11.2021
5345 Clear 0 1025 93 7000 1.54 320 20:18 16.11.2021
5346 Clear 2 1026 90 10000 1.03 360 18:53 16.11.2021
5347 Clear 2 1026 90 10000 1.03 360 18:30 16.11.2021
5348 Clear 3 1025 90 10000 0.51 150 17:38 16.11.2021
5349 Clear 3 1025 87 10000 1.03 40 16:35 16.11.2021
5350 Clear 4 1025 78 10000 0.51 270 15:49 16.11.2021
5351 Clear 5 1025 75 10000 2.06 250 14:39 16.11.2021
5352 Clear 8 1024 60 10000 2.06 250 11:28 16.11.2021
5353 Clear 11 1024 44 10000 4.12 260 09:46 16.11.2021
5354 Clear 13 1023 38 10000 4.63 270 08:27 16.11.2021
5355 Clear 14 1024 34 10000 4.12 290 07:32 16.11.2021
5356 Clear 6 1025 84 8000 0.51 350 01:44 16.11.2021
5357 Clouds 3 1024 81 8000 1.54 330 23:20 15.11.2021
5358 Clear 3 1024 90 8000 1.03 330 22:30 15.11.2021
5359 Mist 3 1023 93 6000 1.03 330 21:53 15.11.2021
5360 Clouds 3 1023 87 6000 1.03 330 21:28 15.11.2021
5361 Mist 4 1024 97 5000 1.03 320 19:41 15.11.2021
5362 Clouds 5 1023 90 6000 0.51 310 18:33 15.11.2021
5363 Clear 5 1023 93 10000 1.03 160 16:20 15.11.2021
5364 Clear 6 1022 87 10000 1.03 350 15:41 15.11.2021
5365 Clear 6 1022 87 10000 1.03 350 15:23 15.11.2021
5366 Clear 7 1022 85 10000 0 0 13:29 15.11.2021
5367 Clouds 11 1021 58 10000 2.06 320 10:57 15.11.2021
5368 Clouds 13 1021 54 10000 3.09 280 09:27 15.11.2021
5369 Clear 15 1021 36 10000 2.57 300 07:52 15.11.2021
5370 Clouds 14 1021 41 10000 2.57 350 05:19 15.11.2021
5371 Fog 3 1022 93 300 1.03 310 23:37 14.11.2021
5372 Fog 3 1021 93 800 1.03 320 22:35 14.11.2021
5373 Fog 4 1020 97 3200 0.51 320 19:53 14.11.2021
5374 Fog 3 1020 100 3200 0.51 320 19:18 14.11.2021
5375 Mist 4 1020 97 4000 1.03 10 18:54 14.11.2021
5376 Mist 4 1020 97 4000 1.03 10 18:36 14.11.2021
5377 Mist 4 1020 100 4000 1.03 10 18:18 14.11.2021
5378 Mist 5 1019 97 4500 1.54 320 17:55 14.11.2021
5379 Mist 5 1019 97 4500 1.54 320 17:37 14.11.2021
5380 Mist 5 1019 100 4500 1.54 320 17:19 14.11.2021
5381 Mist 6 1019 93 7000 1.03 30 16:46 14.11.2021
5382 Clear 6 1019 93 7000 1.03 30 16:20 14.11.2021
5383 Mist 6 1019 90 7000 1.03 10 15:23 14.11.2021
5384 Mist 7 1019 87 8000 1.03 250 14:49 14.11.2021
5385 Mist 7 1019 87 8000 1.03 250 14:28 14.11.2021
5386 Mist 8 1018 82 7000 0.51 250 13:54 14.11.2021
5387 Mist 8 1018 82 7000 0.51 250 13:35 14.11.2021
5388 Mist 9 1018 79 6000 1.03 230 12:27 14.11.2021
5389 Haze 10 1018 76 6000 2.57 330 11:41 14.11.2021
5390 Clouds 13 1017 61 7000 2.06 280 10:41 14.11.2021
5391 Clouds 14 1017 53 8000 3.6 250 09:47 14.11.2021
5392 Clouds 15 1017 44 9000 4.63 240 08:53 14.11.2021
5393 Clouds 16 1017 38 9000 5.66 230 06:54 14.11.2021
5394 Clouds 7 1017 81 10000 2.06 150 23:34 13.11.2021
5395 Clouds 8 1017 79 10000 1.54 150 22:25 13.11.2021
5396 Clouds 7 1017 79 10000 3.09 160 21:50 13.11.2021
5397 Clouds 7 1017 81 10000 3.09 160 21:20 13.11.2021
5398 Clear 8 1017 76 10000 1.54 160 19:38 13.11.2021
5399 Clear 8 1017 73 10000 2.57 210 18:33 13.11.2021
5400 Clear 8 1017 76 10000 2.06 190 17:50 13.11.2021
5401 Clear 8 1017 73 10000 1.03 160 16:35 13.11.2021
5402 Clear 7 1018 84 10000 3.09 140 14:57 13.11.2021
5403 Clear 7 1018 81 10000 3.09 140 14:19 13.11.2021
5404 Clouds 7 1018 71 10000 1.54 140 12:52 13.11.2021
5405 Clouds 7 1018 71 10000 1.54 140 12:20 13.11.2021
5406 Clouds 9 1018 66 10000 1.03 220 11:28 13.11.2021
5407 Clouds 11 1017 60 10000 1.54 230 10:44 13.11.2021
5408 Clouds 12 1017 52 10000 3.6 240 09:53 13.11.2021
5409 Clouds 12 1017 52 10000 3.6 240 09:33 13.11.2021
5410 Clouds 13 1017 48 10000 2.57 270 08:56 13.11.2021
5411 Clouds 13 1017 47 10000 2.57 270 08:20 13.11.2021
5412 Clouds 11 1018 47 10000 3.09 140 04:43 13.11.2021
5413 Clouds 11 1018 47 10000 3.09 140 04:23 13.11.2021
5414 Clouds 0 1020 86 10000 0.51 200 00:28 13.11.2021
5415 Clear -2 1019 90 10000 1.03 280 22:43 12.11.2021
5416 Clear -1 1020 87 10000 1.03 340 21:29 12.11.2021
5417 Clear -1 1019 93 10000 0.51 350 19:43 12.11.2021
5418 Clear -1 1019 93 10000 0.51 350 19:23 12.11.2021
5419 Clear -1 1019 93 10000 0.51 260 18:20 12.11.2021
5420 Clear 0 1019 86 10000 0.51 90 16:19 12.11.2021
5421 Clear 1 1019 75 10000 1.03 330 14:53 12.11.2021
5422 Clear 5 1018 54 10000 1.03 260 11:31 12.11.2021
5423 Clear 6 1018 47 10000 2.57 310 10:48 12.11.2021
5424 Clear 7 1017 42 10000 5.66 290 09:27 12.11.2021
5425 Clear 8 1016 40 10000 5.14 280 08:35 12.11.2021
5426 Clear 7 1018 42 10000 1.54 320 02:19 12.11.2021
5427 Clear 1 1017 72 10000 1.03 240 23:31 11.11.2021
5428 Clear 1 1017 75 10000 1.54 260 22:28 11.11.2021
5429 Clear 2 1016 68 10000 3.09 300 21:26 11.11.2021
5430 Clouds 3 1016 70 10000 1.54 300 20:26 11.11.2021
5431 Clear 3 1015 68 10000 1.54 340 18:54 11.11.2021
5432 Clear 3 1014 68 10000 2.06 270 17:42 11.11.2021
5433 Clear 4 1014 75 10000 3.09 290 16:24 11.11.2021
5434 Clear 5 1013 66 10000 2.57 290 14:44 11.11.2021
5435 Clear 4 1013 66 10000 2.57 290 14:25 11.11.2021
5436 Clear 5 1013 61 10000 2.06 300 13:36 11.11.2021
5437 Clear 5 1013 63 10000 1.54 310 12:30 11.11.2021
5438 Clear 7 1011 55 10000 4.12 310 10:24 11.11.2021
5439 Clear 8 1011 50 10000 7.2 300 09:33 11.11.2021
5440 Clouds 9 1010 49 10000 7.2 300 07:35 11.11.2021
5441 Clear 4 1011 65 10000 1.03 140 00:43 11.11.2021
5442 Clear 2 1011 72 10000 1.03 120 22:46 10.11.2021
5443 Clear 3 1011 58 10000 0.51 20 21:56 10.11.2021
5444 Clear 3 1011 64 10000 0.51 20 21:18 10.11.2021
5445 Clear 4 1011 54 10000 2.06 280 20:33 10.11.2021
5446 Clear 4 1011 63 10000 4.63 310 19:45 10.11.2021
5447 Clear 5 1010 70 10000 2.06 280 17:39 10.11.2021
5448 Clouds 4 1010 87 10000 1.03 240 16:21 10.11.2021
5449 Clouds 6 1010 70 10000 2.06 260 14:25 10.11.2021
5450 Clouds 6 1009 70 10000 3.6 310 13:40 10.11.2021
5451 Clouds 6 1009 75 10000 3.6 290 12:39 10.11.2021
5452 Clouds 7 1008 61 10000 4.63 290 09:41 10.11.2021
5453 Clouds 7 1007 57 10000 4.12 300 08:44 10.11.2021
5454 Clouds 7 1007 59 10000 5.14 330 06:59 10.11.2021
5455 Clouds 7 1007 59 10000 6.17 310 05:58 10.11.2021
5456 Clouds 7 1007 59 10000 3.6 310 04:58 10.11.2021
5457 Snow 1 1008 89 10000 0.51 190 22:41 09.11.2021
5458 Snow 1 1009 78 10000 1.03 240 20:51 09.11.2021
5459 Clouds 2 1009 78 10000 0.51 270 19:51 09.11.2021
5460 Clouds 3 1009 65 10000 2.57 310 18:58 09.11.2021
5461 Clouds 3 1009 70 10000 4.12 340 17:22 09.11.2021
5462 Clouds 5 1009 75 10000 6.69 340 15:37 09.11.2021
5463 Mist 6 1008 75 10000 2.57 320 13:53 09.11.2021
5464 Clouds 6 1008 75 10000 3.09 330 12:49 09.11.2021
5465 Mist 6 1008 75 10000 2.06 290 11:33 09.11.2021
5466 Rain 6 1008 78 10000 3.09 270 10:30 09.11.2021
5467 Rain 7 1008 81 10000 2.57 260 09:21 09.11.2021
5468 Rain 6 1008 81 10000 4.12 270 07:54 09.11.2021
5469 Mist 5 1011 90 10000 2.06 190 03:45 09.11.2021
5470 Clouds 4 1012 90 10000 3.09 160 01:58 09.11.2021
5471 Clouds 4 1012 90 10000 3.09 160 01:36 09.11.2021
5472 Rain 4 1012 90 8000 4.12 160 23:32 08.11.2021
5473 Rain 3 1012 84 10000 1.03 190 22:47 08.11.2021
5474 Clouds 4 1012 84 10000 1.54 180 21:45 08.11.2021
5475 Clouds 3 1013 87 10000 0.51 300 20:36 08.11.2021
5476 Clouds 3 1013 84 10000 0.51 30 19:40 08.11.2021
5477 Clouds 5 1014 78 10000 3.6 300 17:44 08.11.2021
5478 Clouds 5 1014 78 10000 0.51 120 15:56 08.11.2021
5479 Rain 5 1014 81 10000 1.54 270 14:56 08.11.2021
5480 Clouds 5 1014 81 10000 1.54 270 14:25 08.11.2021
5481 Clouds 6 1014 78 10000 2.06 260 12:59 08.11.2021
5482 Clouds 5 1013 87 10000 1.54 260 11:55 08.11.2021
5483 Clouds 6 1013 84 10000 4.12 280 10:49 08.11.2021
5484 Mist 7 1012 84 5000 4.12 300 08:58 08.11.2021
5485 Rain 7 1012 87 5000 4.12 300 08:18 08.11.2021
5486 Clouds 7 1012 78 7000 2.57 250 06:56 08.11.2021
5487 Rain 7 1013 87 10000 2.06 340 03:35 08.11.2021
5488 Rain 11 1007 93 8000 5.66 280 00:20 08.11.2021
5489 Rain 14 1007 75 7000 6.69 150 22:58 07.11.2021
5490 Rain 15 1008 65 10000 6.69 130 21:25 07.11.2021
5491 Rain 14 1009 63 10000 3.6 130 20:18 07.11.2021
5492 Rain 14 1013 58 10000 5.14 130 18:35 07.11.2021
5493 Clear 16 1014 53 10000 5.14 130 17:42 07.11.2021
5494 Clear 16 1014 48 10000 6.69 140 16:22 07.11.2021
5495 Clear 17 1016 44 10000 7.2 130 14:54 07.11.2021
5496 Clear 17 1016 44 10000 7.2 130 14:27 07.11.2021
5497 Clear 15 1017 63 10000 4.12 140 12:48 07.11.2021
5498 Clear 15 1017 63 10000 1.03 180 11:31 07.11.2021
5499 Clear 20 1018 41 10000 3.6 110 08:59 07.11.2021
5500 Clouds 15 1023 55 6000 6.17 110 02:55 07.11.2021
5501 Clear 15 1022 48 6000 6.17 110 02:18 07.11.2021
5502 Mist 6 1022 97 5000 1.03 360 22:55 06.11.2021
5503 Clear 6 1022 94 6000 1.54 290 21:53 06.11.2021
5504 Clear 7 1022 90 7000 0.51 10 20:56 06.11.2021
5505 Clear 7 1022 90 6000 0.51 300 19:42 06.11.2021
5506 Clear 8 1022 84 6000 1.03 260 17:31 06.11.2021
5507 Clear 9 1022 87 6000 1.03 170 16:21 06.11.2021
5508 Clouds 11 1021 74 8000 1.03 310 13:39 06.11.2021
5509 Clear 11 1021 82 9000 2.06 320 12:55 06.11.2021
5510 Clear 14 1020 57 10000 2.06 320 10:35 06.11.2021
5511 Clear 20 1020 37 10000 3.09 330 08:36 06.11.2021
5512 Clouds 18 1021 45 9000 2.57 60 04:50 06.11.2021
5513 Mist 6 1021 97 2000 1.03 300 23:41 05.11.2021
5514 Mist 7 1021 100 2000 1.03 300 23:19 05.11.2021
5515 Fog 5 1021 93 1200 1.03 330 22:32 05.11.2021
5516 Mist 6 1020 93 2800 1.54 300 20:26 05.11.2021
5517 Mist 6 1021 93 2800 1.54 330 19:51 05.11.2021
5518 Mist 7 1021 94 3000 1.54 340 18:43 05.11.2021
5519 Mist 7 1021 87 5000 1.54 320 17:45 05.11.2021
5520 Mist 8 1021 90 5000 1.54 320 16:37 05.11.2021
5521 Mist 9 1021 87 5000 0.51 220 14:18 05.11.2021
5522 Clear 11 1020 69 7000 1.54 320 11:45 05.11.2021
5523 Clear 16 1020 45 10000 2.06 350 09:22 05.11.2021
5524 Haze 20 1019 32 9000 1.03 360 07:48 05.11.2021
5525 Haze 18 1021 48 7000 1.03 190 05:36 05.11.2021
5526 Mist 12 1023 79 2500 1.54 310 02:27 05.11.2021
5527 Mist 9 1023 93 1800 1.03 320 01:59 05.11.2021
5528 Fog 6 1022 100 2000 0.51 350 23:45 04.11.2021
5529 Fog 6 1022 93 200 1.54 300 22:21 04.11.2021
5530 Fog 6 1021 93 200 1.03 280 21:52 04.11.2021
5531 Fog 6 1021 93 200 1.03 280 21:22 04.11.2021
5532 Fog 6 1021 93 200 1.54 330 20:25 04.11.2021
5533 Fog 6 1022 97 600 0.51 300 19:49 04.11.2021
5534 Fog 6 1022 100 600 0.51 300 19:22 04.11.2021
5535 Fog 6 1022 100 600 1.03 350 18:22 04.11.2021
5536 Fog 7 1022 93 700 1.54 60 17:26 04.11.2021
5537 Fog 7 1022 93 700 1.54 60 17:26 04.11.2021
5538 Fog 7 1022 93 700 1.54 60 17:26 04.11.2021
5539 Mist 8 1022 93 2500 0.51 330 15:35 04.11.2021
5540 Mist 9 1021 93 2500 1.03 160 13:45 04.11.2021
5541 Haze 15 1019 65 7000 2.06 210 09:50 04.11.2021
5542 Haze 16 1019 65 5000 2.06 170 08:31 04.11.2021
5543 Haze 16 1019 65 5000 1.54 170 07:35 04.11.2021
5544 Haze 16 1019 72 5000 1.54 210 06:22 04.11.2021
5545 Fog 7 1019 97 2500 1.03 120 22:54 03.11.2021
5546 Fog 7 1019 97 2500 0.51 320 21:51 03.11.2021
5547 Fog 7 1019 97 2500 0.51 320 21:33 03.11.2021
5548 Mist 8 1019 97 3500 1.03 170 20:38 03.11.2021
5549 Mist 8 1019 100 3500 1.03 170 20:19 03.11.2021
5550 Mist 8 1019 87 5000 2.06 160 19:19 03.11.2021
5551 Mist 9 1019 90 5000 3.6 130 18:25 03.11.2021
5552 Mist 10 1019 85 7000 2.57 190 17:41 03.11.2021
5553 Mist 10 1019 82 5000 1.03 140 16:27 03.11.2021
5554 Mist 10 1019 85 6000 1.54 240 15:47 03.11.2021
5555 Mist 10 1019 85 6000 1.54 240 15:28 03.11.2021
5556 Mist 10 1019 85 6000 1.54 240 15:28 03.11.2021
5557 Mist 11 1018 79 6000 1.03 350 12:33 03.11.2021
5558 Clouds 12 1018 74 7000 1.03 310 11:27 03.11.2021
5559 Clouds 13 1018 63 7000 2.06 270 10:49 03.11.2021
5560 Clouds 13 1018 63 7000 2.06 270 10:49 03.11.2021
5561 Clear 15 1018 53 10000 2.57 280 09:31 03.11.2021
5562 Clear 15 1018 53 10000 2.57 280 09:31 03.11.2021
5563 Clear 16 1018 50 10000 2.57 290 08:24 03.11.2021
5564 Clouds 17 1018 41 10000 4.12 270 07:39 03.11.2021
5565 Clear 17 1019 32 10000 3.09 350 05:35 03.11.2021
5566 Mist 12 1021 73 6000 1.03 30 02:50 03.11.2021
5567 Fog 5 1021 97 3000 0.51 300 23:56 02.11.2021
5568 Fog 6 1021 93 1700 0 0 22:47 02.11.2021
5569 Mist 6 1021 94 3000 0.51 300 21:39 02.11.2021
5570 Mist 7 1021 93 4000 1.54 360 20:33 02.11.2021
5571 Mist 7 1021 93 6000 1.03 340 19:53 02.11.2021
5572 Clouds 7 1021 93 6000 1.03 340 19:18 02.11.2021
5573 Mist 7 1021 90 6000 1.54 330 18:26 02.11.2021
5574 Mist 7 1021 90 6000 1.54 330 18:26 02.11.2021
5575 Clouds 7 1021 97 6000 1.03 310 17:42 02.11.2021
5576 Clouds 8 1021 90 6000 1.54 320 16:31 02.11.2021
5577 Clouds 8 1021 84 8000 1.03 300 15:32 02.11.2021
5578 Clear 9 1022 81 10000 1.03 20 14:28 02.11.2021
5579 Clear 10 1021 81 10000 1.03 40 13:27 02.11.2021
5580 Clear 11 1022 76 10000 1.54 300 12:41 02.11.2021
5581 Clear 11 1021 74 10000 2.06 280 11:34 02.11.2021
5582 Clouds 13 1021 63 10000 3.09 300 10:53 02.11.2021
5583 Clouds 13 1021 63 10000 3.09 300 10:27 02.11.2021
5584 Clouds 15 1021 51 10000 4.63 290 08:43 02.11.2021
5585 Clouds 16 1021 46 10000 2.06 30 06:53 02.11.2021
5586 Mist 13 1023 66 9000 2.06 350 03:49 02.11.2021
5587 Clouds 11 1024 76 7000 2.57 340 02:21 02.11.2021
5588 Mist 7 1023 94 3500 0.51 350 22:47 01.11.2021
5589 Mist 7 1023 97 3500 1.03 300 20:52 01.11.2021
5590 Mist 7 1023 97 3500 1.03 300 20:33 01.11.2021
5591 Mist 7 1023 97 4000 1.54 280 19:55 01.11.2021
5592 Mist 7 1023 97 4000 1.54 280 19:25 01.11.2021
5593 Mist 7 1023 93 4500 1.03 300 18:21 01.11.2021
5594 Mist 8 1023 93 4500 2.06 310 17:20 01.11.2021
5595 Mist 8 1023 93 4500 1.54 320 16:45 01.11.2021
5596 Clear 9 1024 87 6000 2.06 290 15:47 01.11.2021
5597 Clouds 10 1024 87 6000 2.06 290 15:20 01.11.2021
5598 Clear 9 1024 87 7000 1.54 290 14:42 01.11.2021
5599 Clouds 9 1024 87 7000 1.54 290 14:20 01.11.2021
5600 Clouds 10 1024 93 8000 1.03 320 13:19 01.11.2021
5601 Clear 11 1023 79 10000 1.54 290 12:24 01.11.2021
5602 Clear 14 1023 67 10000 3.09 280 10:23 01.11.2021
5603 Clouds 16 1023 55 10000 3.6 250 08:53 01.11.2021
5604 Clouds 16 1022 50 10000 4.12 280 07:47 01.11.2021
5605 Clouds 16 1023 53 10000 4.63 240 05:53 01.11.2021
5606 Haze 14 1024 70 7000 2.06 330 03:40 01.11.2021
5607 Fog 9 1025 100 200 1.03 330 00:23 01.11.2021
5608 Fog 8 1024 96 1200 1.03 320 21:37 31.10.2021
5609 Fog 9 1023 93 2500 0.51 310 20:25 31.10.2021
5610 Fog 9 1023 93 2500 0.51 310 20:25 31.10.2021
5611 Fog 10 1024 93 3000 1.03 340 18:51 31.10.2021
5612 Fog 10 1024 93 3000 1.03 340 18:25 31.10.2021
5613 Mist 11 1023 93 5000 0.51 330 16:48 31.10.2021
5614 Clouds 11 1023 93 7000 1.03 220 15:18 31.10.2021
5615 Rain 13 1024 87 10000 0.51 330 13:27 31.10.2021
5616 Clouds 13 1023 79 10000 4.12 280 12:30 31.10.2021
5617 Clouds 16 1022 61 10000 1.54 270 10:51 31.10.2021
5618 Clouds 17 1022 54 10000 2.57 270 09:43 31.10.2021
5619 Clouds 18 1022 46 10000 3.09 270 08:47 31.10.2021
5620 Clouds 18 1024 57 10000 1.03 270 04:55 31.10.2021
5621 Fog 7 1024 93 5000 0.51 60 00:47 31.10.2021
5622 Fog 7 1024 93 3000 0.51 310 22:28 30.10.2021
5623 Fog 7 1024 93 4500 1.03 300 21:30 30.10.2021
5624 Clear 8 1024 90 10000 1.03 110 19:57 30.10.2021
5625 Clear 9 1024 90 10000 0.51 210 17:51 30.10.2021
5626 Clouds 10 1024 78 10000 0.51 60 15:58 30.10.2021
5627 Clouds 11 1024 79 10000 1.03 190 14:23 30.10.2021
5628 Clouds 12 1023 76 10000 2.06 150 13:38 30.10.2021
5629 Clouds 12 1023 71 10000 2.06 150 13:20 30.10.2021
5630 Clouds 15 1023 57 10000 1.54 220 11:50 30.10.2021
5631 Clouds 17 1023 48 10000 2.06 190 10:57 30.10.2021
5632 Clear 18 1023 45 10000 2.57 140 08:59 30.10.2021
5633 Clear 18 1023 45 10000 2.57 120 07:57 30.10.2021
5634 Clear 18 1023 45 10000 2.57 120 07:57 30.10.2021
5635 Clear 17 1024 48 10000 1.54 130 05:48 30.10.2021
5636 Rain 14 1025 56 10000 4.12 110 03:28 30.10.2021
5637 Clear 10 1023 66 10000 3.6 120 23:21 29.10.2021
5638 Rain 10 1023 71 10000 3.6 130 22:35 29.10.2021
5639 Rain 11 1023 62 10000 4.12 120 21:19 29.10.2021
5640 Clear 10 1024 76 10000 2.57 100 20:33 29.10.2021
5641 Rain 10 1024 81 10000 0.51 210 19:30 29.10.2021
5642 Clear 10 1024 82 10000 1.54 130 17:48 29.10.2021
5643 Clear 10 1023 76 10000 0.51 350 15:50 29.10.2021
5644 Clear 12 1024 62 10000 0.51 150 13:19 29.10.2021
5645 Clear 17 1023 43 10000 1.03 200 10:49 29.10.2021
5646 Clear 18 1023 43 10000 1.03 200 10:30 29.10.2021
5647 Clear 12 1027 62 10000 4.12 120 02:46 29.10.2021
5648 Clear 7 1026 93 10000 1.54 320 00:32 29.10.2021
5649 Clear 7 1025 90 10000 1.54 340 22:32 28.10.2021
5650 Clear 7 1026 90 10000 0.51 130 20:59 28.10.2021
5651 Clear 8 1026 87 10000 1.03 160 19:56 28.10.2021
5652 Clear 7 1025 87 10000 0.51 310 18:46 28.10.2021
5653 Clear 8 1025 84 10000 1.03 290 17:42 28.10.2021
5654 Clear 9 1025 79 10000 2.06 330 16:38 28.10.2021
5655 Clear 9 1025 76 10000 1.54 240 14:42 28.10.2021
5656 Clear 10 1024 71 10000 1.54 30 13:33 28.10.2021
5657 Clear 12 1023 60 10000 1.54 320 12:50 28.10.2021
5658 Clear 14 1023 53 10000 1.54 310 11:49 28.10.2021
5659 Clear 17 1022 34 10000 1.03 320 10:23 28.10.2021
5660 Clear 19 1022 30 10000 0.51 150 09:37 28.10.2021
5661 Clear 19 1022 29 10000 1.03 100 08:36 28.10.2021
5662 Clear 19 1022 31 10000 1.03 220 07:41 28.10.2021
5663 Clear 6 1024 90 10000 1.03 300 01:48 28.10.2021
5664 Clear 4 1022 87 10000 1.03 350 22:49 27.10.2021
5665 Clear 5 1022 84 10000 1.03 10 21:53 27.10.2021
5666 Clear 5 1022 87 10000 1.03 10 21:20 27.10.2021
5667 Clear 5 1022 81 10000 0.51 330 20:43 27.10.2021
5668 Clear 6 1022 79 10000 0.51 320 19:46 27.10.2021
5669 Clear 6 1022 73 10000 0 0 18:56 27.10.2021
5670 Clear 8 1022 62 10000 1.03 340 17:39 27.10.2021
5671 Clear 9 1021 56 10000 1.03 320 16:25 27.10.2021
5672 Clear 10 1021 56 10000 2.57 330 15:24 27.10.2021
5673 Clear 10 1021 58 10000 2.06 300 14:20 27.10.2021
5674 Clear 14 1019 44 10000 3.09 280 11:18 27.10.2021
5675 Clear 16 1019 33 10000 4.12 300 10:37 27.10.2021
5676 Clear 18 1019 28 10000 4.63 320 09:23 27.10.2021
5677 Clear 18 1019 31 10000 4.63 330 07:44 27.10.2021
5678 Haze 17 1020 45 10000 6.17 340 05:49 27.10.2021
5679 Mist 11 1020 90 2000 2.06 340 01:24 27.10.2021
5680 Mist 10 1019 93 1500 3.09 340 00:54 27.10.2021
5681 Mist 10 1019 97 1500 1.54 330 23:54 26.10.2021
5682 Mist 10 1018 97 1400 2.06 310 22:44 26.10.2021
5683 Mist 10 1018 93 2000 1.03 150 22:21 26.10.2021
5684 Mist 12 1017 84 3500 1.54 110 21:32 26.10.2021
5685 Mist 9 1018 93 3500 2.57 160 19:48 26.10.2021
5686 Mist 9 1018 93 3500 2.57 160 19:18 26.10.2021
5687 Mist 9 1018 93 3500 0.51 60 17:58 26.10.2021
5688 Mist 9 1019 90 4000 1.54 150 15:49 26.10.2021
5689 Clouds 14 1019 70 8000 2.06 250 12:55 26.10.2021
5690 Clouds 16 1019 61 7000 2.57 270 10:54 26.10.2021
5691 Clouds 18 1019 49 8000 2.57 290 08:24 26.10.2021
5692 Clouds 18 1020 52 8000 2.57 260 07:22 26.10.2021
5693 Mist 6 1022 100 4000 0.51 270 00:19 26.10.2021
5694 Mist 6 1021 93 3500 1.03 340 23:36 25.10.2021
5695 Mist 6 1021 93 5000 1.03 340 22:29 25.10.2021
5696 Mist 6 1021 93 3000 1.03 300 21:42 25.10.2021
5697 Fog 6 1021 93 5000 1.03 340 20:28 25.10.2021
5698 Clear 6 1021 90 6000 1.03 320 19:43 25.10.2021
5699 Clouds 7 1021 93 6000 1.03 320 19:22 25.10.2021
5700 Clear 6 1021 90 8000 1.03 10 18:35 25.10.2021
5701 Clear 7 1022 84 10000 0.51 320 16:43 25.10.2021
5702 Clear 8 1022 82 10000 2.06 10 14:47 25.10.2021
5703 Clear 11 1022 69 10000 1.54 240 12:31 25.10.2021
5704 Clear 15 1021 42 10000 2.57 280 10:46 25.10.2021
5705 Clear 15 1021 42 10000 2.57 280 10:46 25.10.2021
5706 Clear 18 1022 38 10000 2.57 310 08:57 25.10.2021
5707 Clear 17 1023 44 10000 2.57 330 06:27 25.10.2021
5708 Clear 9 1025 42 10000 0.86 26 03:18 25.10.2021
5709 Clouds 5 1024 93 7000 1.03 330 00:49 25.10.2021
5710 Clouds 5 1024 93 7000 1.03 330 00:31 25.10.2021
5711 Fog 5 1024 97 4000 1.54 310 23:33 24.10.2021
5712 Clouds 5 1024 97 6000 1.54 330 22:37 24.10.2021
5713 Clouds 5 1024 100 6000 1.54 330 22:19 24.10.2021
5714 Mist 5 1025 97 4000 1.54 320 20:54 24.10.2021
5715 Mist 5 1025 97 4000 1.54 320 20:28 24.10.2021
5716 Clear 5 1025 94 10000 0.51 310 19:29 24.10.2021
5717 Clear 6 1025 93 10000 0.51 360 18:28 24.10.2021
5718 Clear 6 1025 90 10000 0.51 310 17:35 24.10.2021
5719 Clear 8 1025 84 10000 0.51 280 15:55 24.10.2021
5720 Clear 9 1025 78 10000 1.03 360 14:25 24.10.2021
5721 Clear 11 1025 71 10000 1.03 270 12:57 24.10.2021
5722 Clear 13 1025 60 10000 2.06 270 11:44 24.10.2021
5723 Clear 15 1024 48 10000 4.12 270 10:55 24.10.2021
5724 Clear 16 1024 41 10000 4.12 290 09:59 24.10.2021
5725 Clear 16 1027 45 10000 1.54 250 05:35 24.10.2021
5726 Clouds 4 1028 97 8000 0.51 290 00:57 24.10.2021
5727 Clouds 4 1027 94 8000 1.03 320 23:34 23.10.2021
5728 Clouds 4 1027 91 9000 1.03 10 21:58 23.10.2021
5729 Clear 5 1028 90 10000 1.54 340 19:54 23.10.2021
5730 Clear 6 1028 90 10000 1.03 30 18:59 23.10.2021
5731 Clear 6 1028 90 10000 1.03 30 18:26 23.10.2021
5732 Clear 6 1028 90 10000 0.51 10 17:43 23.10.2021
5733 Clear 6 1028 93 10000 0.51 280 16:22 23.10.2021
5734 Clear 8 1028 76 10000 1.03 10 14:22 23.10.2021
5735 Clear 12 1029 58 10000 2.06 140 03:33 23.10.2021
5736 Clear 4 1028 90 7000 1.03 320 23:59 22.10.2021
5737 Clear 4 1027 93 8000 1.03 10 22:49 22.10.2021
5738 Clear 5 1027 84 10000 1.03 310 19:51 22.10.2021
5739 Clear 5 1026 87 10000 2.06 320 18:41 22.10.2021
5740 Clear 6 1026 79 10000 0.51 90 17:40 22.10.2021
5741 Clear 8 1025 66 10000 2.57 360 15:25 22.10.2021
5742 Clear 10 1024 58 10000 1.54 310 13:35 22.10.2021
5743 Clear 13 1023 41 10000 2.06 260 11:18 22.10.2021
5744 Clear 16 1022 34 10000 4.12 310 10:38 22.10.2021
5745 Clear 17 1022 35 10000 5.14 310 09:44 22.10.2021
5746 Clouds 17 1022 35 10000 4.63 330 08:30 22.10.2021
5747 Clouds 17 1022 36 10000 5.14 320 07:21 22.10.2021
5748 Clouds 17 1022 36 10000 5.14 320 07:21 22.10.2021
5749 Clear 9 1023 76 10000 2.06 330 02:56 22.10.2021
5750 Clear 4 1021 93 10000 1.03 20 23:54 21.10.2021
5751 Clear 4 1021 93 10000 1.03 20 23:21 21.10.2021
5752 Clear 4 1020 93 10000 2.06 350 21:39 21.10.2021
5753 Clear 5 1020 87 10000 1.54 350 20:27 21.10.2021
5754 Clear 5 1020 90 10000 1.54 320 19:57 21.10.2021
5755 Clear 5 1020 90 10000 1.54 320 19:26 21.10.2021
5756 Clear 5 1020 84 10000 1.03 350 18:38 21.10.2021
5757 Clear 6 1020 81 10000 1.54 320 17:53 21.10.2021
5758 Clear 6 1020 81 10000 1.54 320 17:32 21.10.2021
5759 Clear 7 1020 76 10000 1.03 320 15:34 21.10.2021
5760 Clear 8 1020 66 10000 1.54 290 14:57 21.10.2021
5761 Clear 8 1020 66 10000 1.54 290 14:37 21.10.2021
5762 Clear 10 1019 61 10000 1.54 300 12:37 21.10.2021
5763 Clear 15 1019 39 10000 2.06 340 09:55 21.10.2021
5764 Clear 15 1019 38 10000 2.06 360 08:20 21.10.2021
5765 Clear 15 1019 41 10000 2.57 340 07:23 21.10.2021
5766 Clear 3 1021 90 10000 1.54 330 00:51 21.10.2021
5767 Clear 4 1020 93 10000 1.03 320 22:41 20.10.2021
5768 Clear 4 1020 90 10000 1.54 340 21:50 20.10.2021
5769 Clear 4 1020 48 10000 0.52 20 21:18 20.10.2021
5770 Clear 4 1021 90 10000 1.54 330 20:39 20.10.2021
5771 Clear 4 1021 93 10000 1.54 330 20:21 20.10.2021
5772 Clear 4 1021 93 10000 2.06 310 19:26 20.10.2021
5773 Clear 4 1021 90 10000 1.54 300 18:45 20.10.2021
5774 Clear 5 1021 90 10000 1.03 300 17:36 20.10.2021
5775 Clear 7 1021 79 10000 0.51 360 14:56 20.10.2021
5776 Clear 15 1020 44 10000 3.6 270 09:57 20.10.2021
5777 Clear 14 1021 41 10000 1.54 50 06:57 20.10.2021
5778 Clear 8 1024 68 10000 1.54 350 02:37 20.10.2021
5779 Clear 4 1023 90 10000 2.06 20 00:34 20.10.2021
5780 Clear 4 1023 90 10000 2.06 20 00:34 20.10.2021
5781 Clear 4 1022 84 10000 0.51 180 22:53 19.10.2021
5782 Clear 4 1022 87 10000 2.06 350 21:37 19.10.2021
5783 Clear 5 1023 78 10000 2.06 330 20:27 19.10.2021
5784 Clear 5 1023 81 10000 2.57 330 19:59 19.10.2021
5785 Clear 5 1023 81 10000 2.57 330 19:36 19.10.2021
5786 Clear 5 1023 72 10000 1.54 340 18:45 19.10.2021
5787 Clear 6 1022 67 10000 2.57 310 17:52 19.10.2021
5788 Clear 8 1021 61 10000 3.6 330 15:30 19.10.2021
5789 Clear 8 1020 57 10000 4.63 340 14:40 19.10.2021
5790 Clear 9 1021 54 10000 4.12 310 13:55 19.10.2021
5791 Clear 10 1020 57 10000 4.12 320 12:23 19.10.2021
5792 Clear 11 1019 57 10000 4.12 330 11:24 19.10.2021
5793 Clear 14 1018 44 10000 6.17 320 09:55 19.10.2021
5794 Clouds 15 1018 47 10000 6.17 330 08:56 19.10.2021
5795 Mist 11 1020 93 4000 4.12 340 02:18 19.10.2021
5796 Mist 10 1019 93 2500 0.51 70 23:58 18.10.2021
5797 Mist 10 1019 93 2500 0.51 70 23:39 18.10.2021
5798 Mist 10 1019 93 6000 2.06 140 22:56 18.10.2021
5799 Clouds 10 1019 93 6000 2.06 140 22:18 18.10.2021
5800 Mist 11 1020 93 4500 2.57 150 20:48 18.10.2021
5801 Mist 10 1020 93 4500 2.57 150 20:24 18.10.2021
5802 Rain 10 1020 96 3500 3.09 160 19:32 18.10.2021
5803 Mist 10 1021 93 3500 1.03 170 18:59 18.10.2021
5804 Mist 11 1021 90 3500 2.57 300 16:38 18.10.2021
5805 Rain 11 1021 85 7000 2.06 100 14:44 18.10.2021
5806 Rain 10 1021 87 9000 2.57 330 12:19 18.10.2021
5807 Clear 14 1021 58 10000 2.57 180 10:22 18.10.2021
5808 Clear 15 1022 54 10000 2.06 210 08:21 18.10.2021
5809 Clear 2 1025 67 10000 2.06 170 00:30 18.10.2021
5810 Clear 1 1025 78 10000 0.51 310 22:48 17.10.2021
5811 Clear 2 1025 70 10000 0.51 50 21:44 17.10.2021
5812 Clear 2 1026 72 10000 0 0 20:57 17.10.2021
5813 Clear 1 1026 80 10000 0 0 20:21 17.10.2021
5814 Clear 2 1026 73 10000 0.51 310 19:38 17.10.2021
5815 Clear 7 1027 29 10000 0.83 46 18:34 17.10.2021
5816 Clear 5 1028 41 10000 1.03 10 16:47 17.10.2021
5817 Clear 5 1027 50 10000 3.09 280 14:40 17.10.2021
5818 Clear 5 1027 49 10000 3.09 280 14:21 17.10.2021
5819 Clear 6 1027 44 10000 2.57 280 13:33 17.10.2021
5820 Clear 8 1026 30 10000 3.6 320 11:31 17.10.2021
5821 Clear 10 1026 23 10000 4.63 320 10:19 17.10.2021
5822 Clear 11 1026 24 10000 4.63 330 09:21 17.10.2021
5823 Clear 9 1028 25 10000 3.6 340 06:52 17.10.2021
5824 Clear 1 1030 46 10000 4.63 340 00:35 17.10.2021
5825 Clear 1 1030 51 10000 5.66 330 23:22 16.10.2021
5826 Clear 3 1029 43 10000 6.69 330 20:55 16.10.2021
5827 Clear 4 1029 43 10000 6.69 330 20:29 16.10.2021
5828 Clear 4 1029 43 10000 6.17 330 19:41 16.10.2021
5829 Clear 4 1029 33 10000 5.92 325 19:20 16.10.2021
5830 Clear 4 1029 41 10000 6.69 330 18:45 16.10.2021
5831 Clear 5 1029 41 10000 6.69 330 18:24 16.10.2021
5832 Clear 5 1029 40 10000 5.66 330 17:35 16.10.2021
5833 Clear 5 1029 42 10000 5.66 330 16:28 16.10.2021
5834 Clear 7 1027 41 10000 6.69 330 13:26 16.10.2021
5835 Clear 9 1025 32 10000 9.26 320 11:25 16.10.2021
5836 Clear 10 1023 30 10000 8.75 320 09:35 16.10.2021
5837 Clear 14 1022 40 10000 8.23 310 04:47 16.10.2021
5838 Clear 13 1022 58 10000 5.66 330 01:23 16.10.2021
5839 Clear 14 1021 55 10000 6.69 320 23:27 15.10.2021
5840 Clear 15 1020 55 10000 6.17 310 22:21 15.10.2021
5841 Clear 16 1020 54 10000 4.12 330 21:45 15.10.2021
5842 Clear 16 1019 55 10000 4.63 330 20:54 15.10.2021
5843 Clear 16 1019 55 10000 4.63 330 20:35 15.10.2021
5844 Rain 16 1020 59 10000 3.6 320 19:20 15.10.2021
5845 Rain 17 1020 55 10000 4.12 310 18:22 15.10.2021
5846 Clear 18 1019 55 10000 3.09 360 16:19 15.10.2021
5847 Clear 19 1019 65 10000 4.63 330 14:26 15.10.2021
5848 Clouds 20 1019 71 10000 1.03 280 12:26 15.10.2021
5849 Clouds 20 1018 73 10000 2.06 330 11:19 15.10.2021
5850 Clouds 21 1018 66 10000 3.09 350 10:31 15.10.2021
5851 Clouds 22 1017 62 10000 2.57 30 07:37 15.10.2021
5852 Clouds 19 1019 82 10000 2.06 20 04:46 15.10.2021
5853 Clouds 16 1018 88 10000 2.57 330 00:23 15.10.2021
5854 Clouds 17 1018 85 10000 3.09 320 23:25 14.10.2021
5855 Clouds 16 1018 82 10000 3.6 330 22:22 14.10.2021
5856 Clouds 17 1017 79 10000 3.09 330 21:37 14.10.2021
5857 Clouds 17 1017 82 10000 2.06 330 20:21 14.10.2021
5858 Clouds 17 1018 82 10000 2.06 330 19:46 14.10.2021
5859 Clouds 17 1018 82 10000 0.51 140 18:40 14.10.2021
5860 Clouds 17 1018 82 10000 0.51 140 18:40 14.10.2021
5861 Clouds 17 1018 85 10000 1.54 310 16:59 14.10.2021
5862 Clouds 17 1018 85 10000 1.54 310 16:32 14.10.2021
5863 Clear 18 1018 77 10000 1.03 150 14:55 14.10.2021
5864 Clear 18 1018 77 10000 1.03 150 14:27 14.10.2021
5865 Clear 19 1018 72 10000 1.03 240 13:33 14.10.2021
5866 Clear 20 1018 64 10000 2.06 280 11:34 14.10.2021
5867 Clouds 23 1018 54 10000 4.63 280 09:24 14.10.2021
5868 Clouds 23 1019 48 10000 2.94 281 06:19 14.10.2021
5869 Clouds 19 1021 75 10000 1.03 152 00:41 14.10.2021
5870 Clouds 16 1021 91 10000 2.57 160 22:40 13.10.2021
5871 Clouds 16 1021 91 10000 2.57 130 21:36 13.10.2021
5872 Clouds 16 1021 88 10000 1.54 140 20:45 13.10.2021
5873 Clouds 16 1021 91 10000 0.51 330 19:24 13.10.2021
5874 Clouds 16 1021 91 10000 1.03 160 18:38 13.10.2021
5875 Clear 17 1022 85 10000 0.51 90 16:37 13.10.2021
5876 Clear 19 1022 77 10000 1.03 270 14:47 13.10.2021
5877 Clear 19 1022 77 10000 1.03 270 14:23 13.10.2021
5878 Clear 20 1021 70 10000 1.54 170 12:42 13.10.2021
5879 Clear 21 1021 66 10000 2.57 140 11:36 13.10.2021
5880 Clear 25 1021 51 10000 3.6 170 09:37 13.10.2021
5881 Clear 24 1022 47 10000 2.57 100 07:53 13.10.2021
5882 Clear 20 1025 58 10000 4.12 100 03:37 13.10.2021
5883 Clear 18 1026 63 10000 2.06 20 02:21 13.10.2021
5884 Clear 13 1026 91 10000 1.03 330 23:33 12.10.2021
5885 Clear 12 1026 94 10000 1.54 320 22:50 12.10.2021
5886 Clear 13 1026 94 10000 1.54 320 22:26 12.10.2021
5887 Clear 13 1025 88 10000 1.54 340 20:54 12.10.2021
5888 Clear 13 1025 88 10000 1.54 340 20:30 12.10.2021
5889 Clear 14 1026 88 10000 2.57 360 19:31 12.10.2021
5890 Clear 14 1026 85 10000 2.06 350 18:24 12.10.2021
5891 Clear 15 1026 77 10000 2.06 20 17:19 12.10.2021
5892 Clear 16 1026 72 10000 2.57 50 16:19 12.10.2021
5893 Clear 16 1026 72 10000 3.09 60 15:29 12.10.2021
5894 Clear 18 1026 59 10000 2.57 50 13:45 12.10.2021
5895 Clouds 18 1025 59 10000 3.6 90 12:44 12.10.2021
5896 Clouds 20 1025 54 10000 5.66 100 10:45 12.10.2021
5897 Clouds 21 1024 52 10000 5.66 100 09:20 12.10.2021
5898 -273 0 0 0 0 0 08:01 12.10.2021
5899 Clouds 20 1025 52 10000 6.17 100 06:42 12.10.2021
5900 Clouds 19 1025 56 10000 6.17 100 04:35 12.10.2021
5901 Clouds 17 1025 75 10000 2.57 330 01:31 12.10.2021
5902 Clouds 16 1024 80 10000 1.54 360 23:42 11.10.2021
5903 Clouds 16 1024 82 10000 1.54 360 23:19 11.10.2021
5904 Clouds 16 1023 80 10000 2.57 350 22:30 11.10.2021
5905 Clouds 15 1023 88 10000 1.54 350 21:19 11.10.2021
5906 Clouds 16 1022 77 10000 2.57 20 19:46 11.10.2021
5907 Clouds 16 1022 80 10000 1.54 20 18:59 11.10.2021
5908 Clouds 16 1022 82 10000 1.54 20 18:18 11.10.2021
5909 Clouds 16 1022 77 10000 2.06 40 16:39 11.10.2021
5910 Clouds 16 1022 82 10000 2.06 40 16:19 11.10.2021
5911 Clouds 16 1023 77 10000 2.06 30 15:37 11.10.2021
5912 Clouds 16 1022 77 10000 1.54 30 14:53 11.10.2021
5913 Clear 16 1022 77 10000 1.54 20 13:39 11.10.2021
5914 Clear 16 1022 77 10000 2.06 20 12:20 11.10.2021
5915 Clear 17 1021 67 10000 2.06 40 10:48 11.10.2021
5916 Clear 18 1021 65 10000 3.09 20 09:44 11.10.2021
5917 Clear 18 1021 63 10000 1.54 340 07:30 11.10.2021
5918 Clear 14 1022 80 10000 2.57 330 01:42 11.10.2021
5919 Clear 13 1021 82 10000 2.57 310 00:52 11.10.2021
5920 Rain 13 1021 82 10000 2.57 310 00:28 11.10.2021
5921 Rain 14 1021 82 10000 1.54 290 21:57 10.10.2021
5922 Clear 14 1021 82 10000 1.54 290 21:35 10.10.2021
5923 Rain 14 1021 85 10000 3.09 310 20:48 10.10.2021
5924 Clouds 13 1021 88 10000 3.09 310 20:22 10.10.2021
5925 Rain 14 1021 80 10000 3.6 340 19:59 10.10.2021
5926 Rain 14 1021 80 10000 3.6 340 19:37 10.10.2021
5927 Rain 14 1021 80 10000 3.09 330 18:37 10.10.2021
5928 Rain 16 1020 83 10000 1.54 250 16:57 10.10.2021
5929 Rain 17 1020 88 9000 3.09 300 15:47 10.10.2021
5930 Clouds 17 1019 82 10000 3.6 330 14:42 10.10.2021
5931 Rain 18 1018 88 8000 4.12 320 13:34 10.10.2021
5932 Rain 18 1018 88 10000 3.6 310 12:35 10.10.2021
5933 Clouds 20 1016 88 10000 3.6 320 10:44 10.10.2021
5934 Rain 21 1016 91 10000 3.09 280 09:30 10.10.2021
5935 Clouds 21 1016 94 6000 1.54 220 08:53 10.10.2021
5936 Rain 22 1016 91 6000 2.06 270 07:28 10.10.2021
5937 Clouds 23 1018 78 10000 3.6 210 02:45 10.10.2021
5938 Clouds 21 1018 88 10000 2.57 200 00:57 10.10.2021
5939 Clouds 20 1018 84 10000 1.57 157 00:23 10.10.2021
5940 Clouds 21 1018 88 10000 2.57 150 22:52 09.10.2021
5941 Clouds 21 1017 88 10000 2.57 160 21:39 09.10.2021
5942 Clouds 20 1019 83 10000 1.17 158 21:20 09.10.2021
5943 Clouds 20 1019 94 10000 1.54 140 19:44 09.10.2021
5944 Clouds 19 1019 97 10000 0.51 280 18:59 09.10.2021
5945 Clouds 19 1019 97 10000 0.51 280 18:32 09.10.2021
5946 Clear 20 1020 88 10000 1.54 230 16:37 09.10.2021
5947 Clear 20 1020 91 10000 1.03 170 15:32 09.10.2021
5948 Clear 21 1020 86 10000 3.09 130 13:43 09.10.2021
5949 Clear 22 1020 80 10000 2.57 110 12:40 09.10.2021
5950 Clear 23 1020 76 10000 3.6 120 11:47 09.10.2021
5951 Clear 25 1020 67 10000 3.09 90 10:42 09.10.2021
5952 Clear 25 1020 67 10000 3.09 90 09:36 09.10.2021
5953 Clouds 24 1020 69 10000 2.57 70 08:29 09.10.2021
5954 Clouds 24 1021 69 10000 3.09 100 07:46 09.10.2021
5955 Clouds 23 1023 71 10000 2.57 60 05:28 09.10.2021
5956 Clouds 20 1023 83 10000 2.06 120 02:49 09.10.2021
5957 Clouds 20 1023 78 10000 2.06 120 02:21 09.10.2021
5958 Rain 18 1023 94 10000 1.54 30 23:36 08.10.2021
5959 Clear 19 1023 91 10000 1.54 20 22:53 08.10.2021
5960 Clouds 19 1022 94 8000 2.57 110 21:50 08.10.2021
5961 Clouds 18 1023 97 8000 1.54 30 20:36 08.10.2021
5962 Clouds 19 1023 94 6000 1.03 330 18:50 08.10.2021
5963 Clouds 18 1023 94 6000 1.03 340 17:27 08.10.2021
5964 Mist 18 1023 94 6000 1.03 330 16:48 08.10.2021
5965 Clouds 18 1023 94 6000 1.03 330 16:22 08.10.2021
5966 Mist 19 1022 94 8000 1.54 70 13:50 08.10.2021
5967 Mist 20 1022 94 8000 0.51 310 12:47 08.10.2021
5968 Mist 20 1021 91 5000 1.03 50 11:31 08.10.2021
5969 Mist 20 1021 91 5000 2.57 350 10:32 08.10.2021
5970 Rain 21 1021 80 8000 1.03 220 06:53 08.10.2021
5971 Clouds 18 1020 94 10000 1.54 290 23:31 07.10.2021
5972 Clouds 18 1019 94 10000 1.54 310 22:57 07.10.2021
5973 Rain 18 1018 94 10000 0.51 110 21:33 07.10.2021
5974 Clouds 18 1019 91 10000 2.06 20 20:56 07.10.2021
5975 Clouds 18 1019 91 10000 1.03 60 19:40 07.10.2021
5976 Clouds 17 1019 94 10000 1.03 60 19:22 07.10.2021
5977 Clouds 18 1018 88 10000 1.03 10 17:38 07.10.2021
5978 Clouds 18 1018 85 10000 0.51 210 16:42 07.10.2021
5979 Clouds 19 1018 80 10000 0.51 330 14:58 07.10.2021
5980 Clouds 20 1017 80 10000 2.06 280 13:44 07.10.2021
5981 Rain 19 1017 82 10000 2.06 280 13:20 07.10.2021
5982 Clouds 20 1016 77 10000 2.57 290 11:49 07.10.2021
5983 Clouds 21 1016 78 10000 3.09 280 10:48 07.10.2021
5984 Clouds 21 1016 78 10000 3.09 280 10:48 07.10.2021
5985 Clouds 21 1016 83 10000 3.09 280 10:19 07.10.2021
5986 Clouds 22 1016 73 10000 3.6 270 08:55 07.10.2021
5987 Clouds 22 1016 73 10000 3.6 270 08:25 07.10.2021
5988 Clouds 22 1016 75 10000 3.6 270 07:40 07.10.2021
5989 Clouds 22 1016 73 10000 1.54 290 06:47 07.10.2021
5990 Clouds 18 1016 94 7000 1.03 200 00:59 07.10.2021
5991 Clouds 18 1016 94 7000 1.03 50 23:35 06.10.2021
5992 Rain 18 1016 91 5000 2.06 350 22:41 06.10.2021
5993 Rain 18 1016 91 10000 3.6 320 21:41 06.10.2021
5994 Clouds 18 1016 91 10000 2.06 310 20:34 06.10.2021
5995 Clouds 18 1016 91 10000 1.54 320 19:26 06.10.2021
5996 Clouds 20 1017 77 10000 2.06 110 17:56 06.10.2021
5997 Clouds 19 1017 82 10000 3.6 130 16:40 06.10.2021
5998 Clouds 19 1017 82 10000 1.03 100 15:18 06.10.2021
5999 Clouds 19 1018 88 10000 1.54 360 13:31 06.10.2021
6000 Clouds 19 1017 82 10000 3.09 80 12:47 06.10.2021
6001 Clouds 19 1017 82 10000 3.09 80 12:28 06.10.2021
6002 Clear 20 1017 85 10000 3.6 100 11:38 06.10.2021
6003 Clouds 21 1018 80 10000 3.6 90 09:40 06.10.2021
6004 Mist 20 1018 85 10000 2.57 90 08:59 06.10.2021
6005 Mist 20 1018 85 10000 2.57 90 08:31 06.10.2021
6006 Clouds 19 1020 88 7000 4.63 100 06:18 06.10.2021
6007 Clouds 18 1022 94 6000 4.12 110 02:52 06.10.2021
6008 Rain 18 1021 97 8000 1.03 30 00:24 06.10.2021
6009 Clouds 18 1021 97 6000 1.54 340 23:51 05.10.2021
6010 Clouds 18 1021 97 6000 1.54 340 23:30 05.10.2021
6011 Clouds 18 1021 97 10000 3.09 320 22:35 05.10.2021
6012 Clouds 19 1021 91 10000 1.54 350 21:57 05.10.2021
6013 Clouds 19 1021 91 10000 1.54 350 21:57 05.10.2021
6014 Clouds 19 1021 88 10000 1.54 350 21:20 05.10.2021
6015 Clouds 19 1021 89 10000 3.09 310 20:26 05.10.2021
6016 Clouds 20 1020 91 10000 3.09 320 19:50 05.10.2021
6017 Clouds 18 1020 94 10000 3.09 320 19:23 05.10.2021
6018 Clouds 19 1020 88 10000 2.57 330 18:21 05.10.2021
6019 Clouds 22 1020 91 10000 2.06 50 15:33 05.10.2021
6020 Clouds 23 1020 83 10000 1.54 280 13:49 05.10.2021
6021 Clouds 23 1020 83 10000 1.54 280 13:22 05.10.2021
6022 Clouds 23 1020 83 10000 2.57 260 12:33 05.10.2021
6023 Clouds 24 1019 88 10000 4.12 300 11:41 05.10.2021
6024 Clouds 25 1019 73 10000 4.63 230 10:34 05.10.2021
6025 Clouds 27 1019 61 10000 6.69 240 07:38 05.10.2021
6026 Clouds 24 1020 83 10000 4.12 200 01:28 05.10.2021
6027 Clouds 23 1020 88 10000 3.09 190 22:53 04.10.2021
6028 Clouds 23 1019 88 10000 4.12 180 21:23 04.10.2021
6029 Clouds 24 1020 83 10000 3.09 190 18:48 04.10.2021
6030 Clouds 24 1020 83 10000 3.6 200 17:26 04.10.2021
6031 Clouds 24 1020 83 10000 4.63 210 15:32 04.10.2021
6032 Clouds 24 1019 94 7000 4.63 220 14:45 04.10.2021
6033 Clouds 24 1019 88 10000 4.63 210 13:59 04.10.2021
6034 Clouds 24 1019 88 10000 4.63 210 13:31 04.10.2021
6035 Clouds 24 1019 88 9000 3.09 220 12:38 04.10.2021
6036 Rain 24 1018 88 9000 2.57 200 11:33 04.10.2021
6037 Rain 25 1018 81 5000 5.14 200 10:44 04.10.2021
6038 Clouds 26 1018 73 10000 6.17 220 09:33 04.10.2021
6039 Rain 26 1018 73 10000 7.2 210 07:53 04.10.2021
6040 Rain 23 1020 73 10000 4.63 170 03:44 04.10.2021
6041 Clouds 20 1019 73 10000 3.6 130 22:48 03.10.2021
6042 Clouds 19 1018 77 10000 1.03 110 21:52 03.10.2021
6043 Clouds 19 1018 77 10000 1.03 110 21:52 03.10.2021
6044 Clouds 19 1018 77 10000 1.03 110 21:29 03.10.2021
6045 Clouds 19 1018 77 10000 3.6 140 20:43 03.10.2021
6046 Clear 18 1018 82 10000 1.54 170 19:42 03.10.2021
6047 Clear 18 1018 88 10000 2.06 140 18:29 03.10.2021
6048 Clear 18 1018 88 10000 2.06 140 18:29 03.10.2021
6049 Clear 18 1018 88 10000 1.03 190 17:31 03.10.2021
6050 Clear 20 1019 68 10000 1.54 150 14:50 03.10.2021
6051 Clear 20 1019 68 10000 1.54 150 14:28 03.10.2021
6052 Clear 21 1019 68 10000 3.6 140 13:35 03.10.2021
6053 Clear 23 1018 57 10000 1.54 180 12:43 03.10.2021
6054 Clear 26 1018 57 10000 2.57 220 10:57 03.10.2021
6055 Clear 27 1018 54 10000 2.57 200 09:34 03.10.2021
6056 Clouds 23 1019 64 8000 2.06 150 03:36 03.10.2021
6057 Mist 17 1016 94 3500 2.06 170 22:46 02.10.2021
6058 Mist 17 1017 94 3500 3.6 130 21:30 02.10.2021
6059 Mist 18 1017 94 5000 2.57 170 19:54 02.10.2021
6060 Clear 18 1017 88 6000 3.09 140 18:56 02.10.2021
6061 Clear 18 1017 88 6000 3.09 140 18:18 02.10.2021
6062 Clear 18 1017 94 10000 2.57 140 17:36 02.10.2021
6063 Clear 18 1016 88 10000 2.57 160 15:53 02.10.2021
6064 Clear 28 1008 42 10000 1.03 210 06:59 01.10.2021
6065 Clear 18 1009 94 10000 0.51 130 15:37 30.09.2021
6066 Clear 19 1009 88 10000 1.03 320 13:45 30.09.2021
6067 Clear 22 1008 64 10000 2.06 330 11:38 30.09.2021
6068 Clear 25 1008 53 10000 2.06 340 10:44 30.09.2021
6069 Clear 26 1008 53 10000 2.06 330 09:41 30.09.2021
6070 Clear 25 1008 53 10000 2.57 330 08:29 30.09.2021
6071 Clouds 25 1009 53 10000 5.66 330 07:33 30.09.2021
6072 Clouds 22 1010 68 10000 1.54 300 04:58 30.09.2021
6073 Mist 17 1010 100 1200 0.51 30 01:20 30.09.2021
6074 Fog 17 1009 94 300 2.57 360 23:55 29.09.2021
6075 Fog 16 1009 100 700 1.54 340 22:28 29.09.2021
6076 Fog 16 1009 100 2500 1.03 20 21:24 29.09.2021
6077 Fog 17 1009 94 2500 2.06 320 20:24 29.09.2021
6078 Fog 16 1009 100 3000 1.03 340 19:43 29.09.2021
6079 Clouds 17 1009 94 6000 1.03 350 18:28 29.09.2021
6080 Clouds 18 1009 94 7000 1.54 350 17:33 29.09.2021
6081 Clouds 17 1009 100 8000 1.54 310 16:46 29.09.2021
6082 Clear 18 1009 94 10000 2.06 310 15:48 29.09.2021
6083 Clear 19 1009 94 10000 2.06 340 14:38 29.09.2021
6084 Clouds 20 1009 88 10000 2.06 340 13:41 29.09.2021
6085 Clouds 20 1008 88 10000 2.06 320 12:47 29.09.2021
6086 Clouds 20 1008 88 10000 2.57 340 11:39 29.09.2021
6087 Rain 20 1007 88 10000 1.03 330 10:39 29.09.2021
6088 Rain 21 1007 83 10000 3.09 320 09:48 29.09.2021
6089 Rain 22 1007 83 10000 2.06 230 08:45 29.09.2021
6090 Clouds 21 1007 88 10000 3.09 300 06:55 29.09.2021
6091 Rain 21 1007 94 5000 3.09 230 02:40 29.09.2021
6092 Rain 21 1007 94 8000 3.09 150 23:21 28.09.2021
6093 Rain 20 1007 88 10000 2.06 150 22:22 28.09.2021
6094 Clouds 20 1008 88 10000 1.54 170 21:25 28.09.2021
6095 Clouds 20 1008 88 10000 1.54 170 20:26 28.09.2021
6096 Clouds 20 1009 88 10000 1.54 160 19:41 28.09.2021
6097 Clouds 20 1009 94 10000 2.06 160 18:44 28.09.2021
6098 Clouds 20 1010 94 8000 2.57 140 17:30 28.09.2021
6099 Mist 20 1011 94 2500 1.03 60 15:21 28.09.2021
6100 Clouds 19 1012 94 7000 1.03 210 13:28 28.09.2021
6101 Clouds 21 1011 78 10000 2.06 170 12:28 28.09.2021
6102 Clouds 22 1011 73 10000 1.03 250 11:55 28.09.2021
6103 Rain 22 1011 73 10000 1.03 250 11:35 28.09.2021
6104 Clouds 23 1011 64 10000 0.51 320 10:33 28.09.2021
6105 Clouds 24 1011 57 10000 4.12 150 09:33 28.09.2021
6106 Clouds 24 1011 53 10000 3.09 120 08:44 28.09.2021
6107 Clouds 24 1011 53 10000 3.09 120 08:25 28.09.2021
6108 Clear 25 1012 47 10000 5.14 130 06:46 28.09.2021
6109 Clear 23 1014 60 10000 5.66 130 04:39 28.09.2021
6110 Rain 20 1014 73 10000 3.09 110 01:22 28.09.2021
6111 Clear 20 1014 75 10000 4.12 100 23:54 27.09.2021
6112 Clear 20 1014 75 10000 4.12 100 23:28 27.09.2021
6113 Clouds 20 1014 80 10000 2.06 100 22:44 27.09.2021
6114 Clouds 20 1014 78 10000 3.09 110 21:40 27.09.2021
6115 Clouds 20 1014 78 10000 4.12 110 20:38 27.09.2021
6116 Rain 20 1014 80 10000 3.6 80 19:41 27.09.2021
6117 Rain 20 1014 73 10000 3.6 80 19:22 27.09.2021
6118 Clouds 20 1014 80 10000 4.12 110 18:24 27.09.2021
6119 Clouds 20 1014 83 10000 1.03 70 17:22 27.09.2021
6120 Clouds 20 1015 80 10000 2.06 60 16:39 27.09.2021
6121 Clouds 21 1015 80 10000 2.57 50 15:40 27.09.2021
6122 Clear 22 1014 75 10000 1.54 50 13:58 27.09.2021
6123 Clouds 21 1014 78 10000 0.51 70 12:53 27.09.2021
6124 Rain 23 1014 62 10000 1.54 20 10:52 27.09.2021
6125 Clear 23 1015 60 10000 1.03 260 09:50 27.09.2021
6126 Clear 24 1015 55 10000 0.51 230 08:32 27.09.2021
6127 Clear 24 1016 53 10000 4.12 140 05:18 27.09.2021
6128 Clear 19 1017 70 10000 5.14 100 00:39 27.09.2021
6129 Clear 18 1017 73 10000 3.09 110 22:28 26.09.2021
6130 Clear 18 1017 73 10000 2.06 100 21:45 26.09.2021
6131 Clear 19 1018 70 10000 3.6 120 20:45 26.09.2021
6132 Clear 19 1018 64 10000 3.6 120 20:18 26.09.2021
6133 Clear 19 1018 66 10000 4.12 120 19:36 26.09.2021
6134 Clear 20 1018 66 10000 4.63 120 18:45 26.09.2021
6135 Clear 20 1019 64 10000 2.57 100 17:50 26.09.2021
6136 Clear 20 1019 60 10000 2.57 100 17:20 26.09.2021
6137 Clear 21 1019 64 10000 4.12 100 16:28 26.09.2021
6138 Clouds 22 1018 55 10000 4.63 90 15:56 26.09.2021
6139 Clouds 22 1019 66 10000 2.57 70 14:26 26.09.2021
6140 Clear 22 1018 68 10000 1.03 240 13:44 26.09.2021
6141 Clear 22 1018 68 10000 1.54 180 12:31 26.09.2021
6142 Clear 24 1019 57 10000 2.57 140 11:58 26.09.2021
6143 Clear 24 1019 57 10000 2.57 140 11:33 26.09.2021
6144 Clear 26 1019 48 10000 2.57 110 09:52 26.09.2021
6145 Clear 26 1019 47 10000 3.6 100 08:54 26.09.2021
6146 Clear 20 1022 80 10000 1.54 20 01:28 26.09.2021
6147 Clouds 18 1022 75 10000 1.82 69 00:20 26.09.2021
6148 Clear 19 1022 78 10000 3.09 100 22:42 25.09.2021
6149 Clear 19 1022 68 10000 3.09 100 22:23 25.09.2021
6150 Clear 19 1022 81 10000 2.57 100 21:47 25.09.2021
6151 Clear 19 1022 80 10000 2.57 100 20:53 25.09.2021
6152 Clear 20 1022 78 10000 3.09 90 19:53 25.09.2021
6153 Rain 20 1022 82 10000 1.03 80 18:31 25.09.2021
6154 Clear 20 1022 83 10000 2.57 80 17:46 25.09.2021
6155 Clear 21 1023 78 10000 2.57 70 14:46 25.09.2021
6156 Clear 20 1022 80 10000 2.57 60 13:55 25.09.2021
6157 Clear 21 1022 75 10000 1.54 50 12:48 25.09.2021
6158 Clear 23 1022 68 10000 2.06 60 11:29 25.09.2021
6159 Clear 24 1022 60 10000 1.54 50 10:21 25.09.2021
6160 Clear 24 1022 62 10000 3.6 60 09:24 25.09.2021
6161 Clear 24 1022 60 10000 4.12 100 07:49 25.09.2021
6162 Clear 18 1024 83 10000 3.6 340 00:56 25.09.2021
6163 Clear 18 1023 85 10000 1.54 300 23:25 24.09.2021
6164 Clear 18 1023 82 10000 2.57 110 21:34 24.09.2021
6165 Clear 18 1023 82 10000 2.06 90 20:32 24.09.2021
6166 Clear 19 1024 77 10000 3.09 90 19:43 24.09.2021
6167 Clear 20 1024 72 10000 3.6 100 18:29 24.09.2021
6168 Clear 19 1023 78 10000 4.63 90 17:53 24.09.2021
6169 Clear 19 1023 78 10000 4.63 90 17:34 24.09.2021
6170 Clear 22 1023 66 10000 4.12 90 15:59 24.09.2021
6171 Clear 22 1023 63 10000 2.57 50 13:28 24.09.2021
6172 Clear 23 1022 60 10000 3.09 70 12:43 24.09.2021
6173 Clear 23 1022 60 10000 3.09 70 12:25 24.09.2021
6174 Clear 26 1021 47 10000 3.09 110 10:56 24.09.2021
6175 Clouds 27 1021 42 10000 3.6 80 09:55 24.09.2021
6176 Clouds 27 1022 44 10000 3.09 60 08:21 24.09.2021
6177 Clouds 26 1023 48 10000 3.09 120 06:59 24.09.2021
6178 Clouds 25 1023 50 10000 2.57 80 05:57 24.09.2021
6179 Clear 23 1024 64 10000 1.54 170 03:56 24.09.2021
6180 Clear 16 1021 91 10000 1.03 330 22:37 23.09.2021
6181 Clear 16 1021 91 10000 1.03 310 21:59 23.09.2021
6182 Clear 16 1021 91 10000 1.03 310 21:59 23.09.2021
6183 Clear 16 1020 91 10000 0.51 330 20:54 23.09.2021
6184 Clear 16 1020 91 10000 0.51 330 20:31 23.09.2021
6185 Clear 17 1020 88 10000 1.54 340 18:36 23.09.2021
6186 Clear 18 1019 80 10000 0.51 210 16:39 23.09.2021
6187 Clear 19 1019 77 10000 2.06 350 15:19 23.09.2021
6188 Clouds 19 1019 77 10000 1.54 290 14:25 23.09.2021
6189 Clouds 21 1018 62 10000 3.09 290 13:27 23.09.2021
6190 Clouds 22 1017 58 10000 3.09 270 12:55 23.09.2021
6191 Clouds 22 1017 58 10000 3.09 270 12:26 23.09.2021
6192 Clouds 23 1017 51 10000 3.6 260 11:57 23.09.2021
6193 Clouds 24 1016 53 10000 4.12 260 10:30 23.09.2021
6194 Clouds 25 1016 48 10000 4.63 260 09:54 23.09.2021
6195 Clouds 24 1016 50 10000 5.14 290 08:56 23.09.2021
6196 Clouds 23 1017 55 10000 5.14 300 05:32 23.09.2021
6197 Clear 17 1015 88 10000 0.51 300 23:50 22.09.2021
6198 Clear 17 1014 91 10000 1.03 350 22:50 22.09.2021
6199 Clear 17 1014 88 10000 1.03 350 22:18 22.09.2021
6200 Clouds 16 1013 88 10000 1.03 90 21:42 22.09.2021
6201 Clouds 15 1013 91 10000 1.03 170 20:57 22.09.2021
6202 Clear 15 1013 88 10000 1.03 210 19:47 22.09.2021
6203 Clear 16 1013 88 10000 1.03 210 19:26 22.09.2021
6204 Clear 17 1013 74 10000 1.98 249 18:25 22.09.2021
6205 Clear 19 1013 73 10000 1.3 252 16:57 22.09.2021
6206 Clear 22 1013 71 10000 1.36 279 15:38 22.09.2021
6207 Clouds 20 1012 71 10000 4.12 290 14:27 22.09.2021
6208 Clouds 22 1010 69 10000 4.63 260 12:55 22.09.2021
6209 Clouds 23 1008 57 10000 7.2 280 10:59 22.09.2021
6210 Clouds 24 1008 57 10000 7.2 260 09:29 22.09.2021
6211 Clouds 24 1008 57 10000 7.72 270 08:36 22.09.2021
6212 Clouds 25 1008 55 10000 7.72 280 07:30 22.09.2021
6213 Clouds 24 1008 68 10000 5.14 270 06:19 22.09.2021
6214 Clouds 24 1008 60 10000 6.17 270 05:45 22.09.2021
6215 Clouds 23 1008 70 10000 3.6 280 03:58 22.09.2021
6216 Clouds 23 1008 70 10000 3.6 280 03:58 22.09.2021
6217 Clouds 20 1008 94 10000 1.03 220 02:55 22.09.2021
6218 Clouds 18 1006 97 8000 2.57 150 23:31 21.09.2021
6219 Clouds 18 1006 97 10000 2.57 150 21:49 21.09.2021
6220 Clear 20 1005 91 10000 2.73 237 20:28 21.09.2021
6221 Clear 18 1005 89 10000 4.77 232 19:24 21.09.2021
6222 Rain 17 1006 91 10000 3.09 80 18:19 21.09.2021
6223 Thunderstorm 20 1006 89 3000 4.63 10 16:41 21.09.2021
6224 Clouds 20 1006 86 10000 7.2 10 15:56 21.09.2021
6225 Clouds 23 1005 78 10000 3.6 190 14:58 21.09.2021
6226 Clouds 22 1005 80 10000 3.09 180 13:57 21.09.2021
6227 Clouds 22 1005 80 10000 3.09 180 13:39 21.09.2021
6228 Clouds 23 1004 75 10000 2.57 200 12:44 21.09.2021
6229 Clouds 25 1004 61 10000 5.66 240 10:39 21.09.2021
6230 Clouds 26 1004 59 10000 5.14 230 08:45 21.09.2021
6231 Clouds 25 1004 67 10000 5.66 240 07:37 21.09.2021
6232 Rain 21 1005 91 10000 3.6 150 01:53 21.09.2021
6233 Rain 21 1005 91 10000 3.6 150 01:53 21.09.2021
6234 Rain 21 1004 94 4000 4.12 170 22:50 20.09.2021
6235 Rain 20 1004 91 7000 3.6 160 21:42 20.09.2021
6236 Rain 20 1004 91 7000 3.6 160 21:20 20.09.2021
6237 Rain 20 1006 94 5000 3.09 150 19:46 20.09.2021
6238 Thunderstorm 23 1006 76 7000 3.09 160 17:54 20.09.2021
6239 Rain 24 1007 62 10000 7.2 130 16:58 20.09.2021
6240 Clear 24 1007 64 10000 7.2 130 16:23 20.09.2021
6241 Clear 24 1007 58 10000 7.2 130 15:34 20.09.2021
6242 Clear 24 1008 55 10000 7.2 130 14:26 20.09.2021
6243 Clear 24 1008 55 10000 6.69 140 12:44 20.09.2021
6244 Clear 24 1008 57 10000 6.69 140 12:22 20.09.2021
6245 Clouds 27 1008 45 10000 8.23 140 10:49 20.09.2021
6246 Clouds 28 1009 44 10000 5.66 120 09:48 20.09.2021
6247 Clouds 28 1009 44 10000 5.66 120 09:29 20.09.2021
6248 Clouds 28 1009 47 10000 6.17 120 08:34 20.09.2021
6249 Clouds 27 1012 50 10000 4.12 130 06:21 20.09.2021
6250 Clear 19 1013 75 10000 4.63 120 22:57 19.09.2021
6251 Clear 20 1013 70 10000 4.12 110 21:48 19.09.2021
6252 Clear 19 1013 75 10000 4.63 110 20:59 19.09.2021
6253 Clear 18 1014 91 10000 0.51 310 19:54 19.09.2021
6254 Clear 19 1014 82 10000 0.51 270 18:42 19.09.2021
6255 Clear 19 1015 79 10000 1.03 360 17:33 19.09.2021
6256 Clear 20 1015 75 10000 1.54 20 16:33 19.09.2021
6257 Clear 21 1015 78 10000 1.54 30 15:31 19.09.2021
6258 Clear 21 1015 75 10000 1.54 10 14:48 19.09.2021
6259 Clear 22 1015 71 10000 2.57 30 13:49 19.09.2021
6260 Clear 23 1014 62 10000 2.06 40 12:52 19.09.2021
6261 Clear 25 1014 52 10000 3.6 40 11:42 19.09.2021
6262 Clear 25 1014 53 10000 3.6 40 11:21 19.09.2021
6263 Clear 27 1014 55 10000 1.03 10 09:50 19.09.2021
6264 Clear 27 1014 54 10000 1.03 10 09:21 19.09.2021
6265 Clear 26 1016 59 10000 2.57 50 06:43 19.09.2021
6266 Clear 21 1017 81 10000 1.03 200 00:40 19.09.2021
6267 Clear 20 1016 88 10000 0.51 240 22:54 18.09.2021
6268 Clear 20 1016 89 10000 0.51 60 21:40 18.09.2021
6269 Clear 19 1016 88 10000 1.03 10 20:46 18.09.2021
6270 Clear 20 1016 86 10000 2.06 320 19:41 18.09.2021
6271 Clear 20 1016 88 10000 2.06 320 19:21 18.09.2021
6272 Clear 20 1016 86 10000 0.51 50 18:37 18.09.2021
6273 Clear 21 1016 83 10000 1.03 350 17:59 18.09.2021
6274 Clear 20 1016 86 10000 0.51 280 16:34 18.09.2021
6275 Clear 23 1015 74 10000 1.54 330 13:51 18.09.2021
6276 Clear 23 1015 74 10000 1.54 330 13:31 18.09.2021
6277 Clear 24 1014 67 10000 2.57 280 12:51 18.09.2021
6278 Clear 26 1014 53 10000 3.6 280 11:42 18.09.2021
6279 Clear 28 1014 50 10000 4.63 270 10:35 18.09.2021
6280 Clear 28 1013 47 10000 5.66 290 09:52 18.09.2021
6281 Clear 28 1013 54 10000 5.66 290 09:20 18.09.2021
6282 Clear 28 1014 49 10000 1.54 30 06:54 18.09.2021
6283 Clouds 20 1014 68 10000 1.45 77 00:42 18.09.2021
6284 Clouds 19 1014 74 10000 1.2 60 23:52 17.09.2021
6285 Clouds 17 1013 76 10000 1.2 60 22:40 17.09.2021
6286 Clouds 17 1012 75 10000 1.38 46 22:20 17.09.2021
6287 Clear 17 1012 91 10000 1.54 350 21:24 17.09.2021
6288 Clear 18 1012 82 10000 2.06 350 19:26 17.09.2021
6289 Clear 20 1012 71 10000 2.06 10 17:29 17.09.2021
6290 Clear 20 1012 62 10000 3.6 70 16:27 17.09.2021
6291 Clear 22 1011 56 10000 4.12 80 14:23 17.09.2021
6292 Clear 27 1007 49 10000 3.6 60 10:53 17.09.2021
6293 Clear 28 1007 48 10000 5.66 50 08:54 17.09.2021
6294 Clear 28 1007 47 10000 5.66 80 07:33 17.09.2021
6295 Clouds 23 1010 66 10000 2.06 30 03:54 17.09.2021
6296 Clouds 20 1009 73 10000 2.57 350 23:35 16.09.2021
6297 Clouds 20 1009 75 10000 3.09 340 22:28 16.09.2021
6298 Clouds 20 1010 77 10000 2.57 20 21:51 16.09.2021
6299 Clouds 20 1010 77 10000 2.57 20 21:26 16.09.2021
6300 Rain 20 1010 77 10000 2.06 10 20:19 16.09.2021
6301 Clear 20 1011 77 10000 2.06 360 18:21 16.09.2021
6302 Clear 20 1011 77 10000 1.54 30 17:33 16.09.2021
6303 Clear 21 1011 70 10000 1.54 30 14:58 16.09.2021
6304 Clear 21 1011 70 10000 1.54 30 14:24 16.09.2021
6305 Clear 23 1011 60 10000 2.06 40 12:51 16.09.2021
6306 Clear 23 1011 60 10000 2.06 40 12:51 16.09.2021
6307 Clear 23 1011 60 10000 2.06 40 12:29 16.09.2021
6308 Clear 25 1011 53 10000 2.57 50 11:26 16.09.2021
6309 Clear 26 1010 50 10000 3.09 60 10:33 16.09.2021
6310 Clear 27 1010 44 10000 4.12 80 09:57 16.09.2021
6311 Clear 27 1011 44 10000 4.63 100 08:42 16.09.2021
6312 Clear 27 1012 43 10000 3.6 90 07:36 16.09.2021
6313 Clear 27 1012 45 10000 4.63 120 06:46 16.09.2021
6314 Clear 26 1013 47 10000 4.63 100 05:26 16.09.2021
6315 Clear 20 1015 68 10000 2.57 20 01:40 16.09.2021
6316 Clear 16 1015 82 10000 2.06 10 23:45 15.09.2021
6317 Clear 16 1015 82 10000 2.06 30 22:47 15.09.2021
6318 Clear 16 1015 79 10000 2.57 40 21:44 15.09.2021
6319 Clear 16 1015 79 10000 2.57 40 21:25 15.09.2021
6320 Clear 18 1016 72 10000 2.06 70 19:53 15.09.2021
6321 Clear 18 1016 72 10000 2.06 70 19:21 15.09.2021
6322 Clear 19 1016 62 10000 4.12 80 17:57 15.09.2021
6323 Clouds 20 1017 60 10000 3.6 90 16:55 15.09.2021
6324 Clouds 21 1017 55 10000 3.09 80 15:34 15.09.2021
6325 Clouds 22 1017 53 10000 4.63 80 14:44 15.09.2021
6326 Clouds 23 1016 51 10000 5.66 80 13:51 15.09.2021
6327 Clouds 23 1016 51 10000 5.66 80 13:30 15.09.2021
6328 Clouds 24 1016 50 10000 5.66 60 12:44 15.09.2021
6329 Clouds 26 1015 45 10000 6.17 70 11:52 15.09.2021
6330 Clouds 26 1015 44 10000 6.17 70 11:21 15.09.2021
6331 Clouds 27 1014 44 10000 6.17 90 10:55 15.09.2021
6332 Clouds 28 1014 44 10000 6.17 70 09:28 15.09.2021
6333 Clouds 28 1015 42 10000 5.66 70 07:43 15.09.2021
6334 Clear 26 1017 48 10000 7.72 90 04:24 15.09.2021
6335 Clear 17 1016 85 10000 2.06 320 22:59 14.09.2021
6336 Clear 18 1016 79 10000 2.57 350 21:40 14.09.2021
6337 Clear 19 1016 70 10000 1.03 20 20:38 14.09.2021
6338 Clear 20 1016 68 10000 3.6 80 19:41 14.09.2021
6339 Clear 22 1016 58 10000 5.14 90 17:34 14.09.2021
6340 Clear 23 1016 56 10000 4.63 80 16:56 14.09.2021
6341 Clear 24 1015 57 10000 3.6 80 15:28 14.09.2021
6342 Clear 23 1015 65 10000 4.63 90 14:31 14.09.2021
6343 Clear 27 1014 45 10000 2.57 80 11:51 14.09.2021
6344 Clear 28 1014 41 10000 4.12 110 10:53 14.09.2021
6345 Clear 29 1013 42 10000 4.12 90 09:50 14.09.2021
6346 Clear 29 1014 43 10000 3.6 110 08:36 14.09.2021
6347 Clear 29 1015 45 10000 4.12 100 06:22 14.09.2021
6348 Clear 18 1016 94 10000 2.06 350 23:36 13.09.2021
6349 Clouds 19 1016 88 10000 2.06 170 22:30 13.09.2021
6350 Clouds 19 1016 77 10000 1.42 57 21:59 13.09.2021
6351 Clouds 20 1016 77 10000 1.42 57 21:39 13.09.2021
6352 Clear 20 1016 78 10000 1.54 50 19:48 13.09.2021
6353 Clear 21 1017 73 10000 2.57 100 18:45 13.09.2021
6354 Clear 22 1017 66 10000 3.09 100 17:39 13.09.2021
6355 Clear 23 1017 67 10000 3.6 120 16:50 13.09.2021
6356 Clear 24 1016 63 10000 3.6 120 14:47 13.09.2021
6357 Clear 27 1015 54 10000 2.57 80 11:52 13.09.2021
6358 Clouds 29 1015 50 10000 3.09 90 10:58 13.09.2021
6359 Clouds 29 1015 51 10000 3.09 100 08:55 13.09.2021
6360 Clear 20 1016 86 10000 2.06 30 00:48 13.09.2021
6361 Clear 19 1016 94 10000 1.03 310 22:51 12.09.2021
6362 Clear 19 1016 94 10000 1.03 310 22:23 12.09.2021
6363 Clear 19 1016 91 10000 1.03 360 21:21 12.09.2021
6364 Clouds 20 1016 68 10000 1.45 73 20:19 12.09.2021
6365 Clear 19 1015 94 10000 1.03 330 19:37 12.09.2021
6366 Clouds 20 1015 65 10000 1.8 66 19:18 12.09.2021
6367 Clear 20 1015 94 10000 0.51 100 18:18 12.09.2021
6368 Clear 22 1014 78 10000 1.54 20 15:56 12.09.2021
6369 Clear 22 1014 81 10000 1.54 340 14:47 12.09.2021
6370 Clear 24 1013 67 10000 2.57 330 12:43 12.09.2021
6371 Clear 29 1012 47 10000 3.6 330 10:32 12.09.2021
6372 Clear 29 1012 47 10000 3.6 310 08:39 12.09.2021
6373 Clouds 29 1012 47 10000 3.6 320 07:30 12.09.2021
6374 Clear 19 1013 88 10000 1.54 350 00:47 12.09.2021
6375 Clear 18 1012 88 10000 0 0 22:58 11.09.2021
6376 Clear 19 1012 88 10000 1.03 320 21:39 11.09.2021
6377 Clear 19 1012 91 10000 3.09 320 19:39 11.09.2021
6378 Clear 20 1011 86 10000 1.03 220 17:57 11.09.2021
6379 Clear 20 1011 86 10000 1.03 220 17:27 11.09.2021
6380 Clear 22 1011 80 10000 1.03 270 15:36 11.09.2021
6381 Clouds 23 1012 76 10000 1.03 10 13:23 11.09.2021
6382 Clouds 26 1012 61 10000 3.6 310 11:42 11.09.2021
6383 Clouds 28 1011 55 10000 4.12 310 10:27 11.09.2021
6384 Clouds 29 1011 47 10000 4.63 290 08:42 11.09.2021
6385 Clouds 29 1012 51 10000 2.06 200 07:43 11.09.2021
6386 Mist 23 1014 80 6000 2.57 150 02:52 11.09.2021
6387 Mist 19 1014 97 3300 0.51 270 22:28 10.09.2021
6388 Mist 19 1014 97 3500 1.03 310 21:57 10.09.2021
6389 Mist 19 1014 97 3500 1.03 310 21:36 10.09.2021
6390 Mist 19 1013 97 3000 0.51 280 19:30 10.09.2021
6391 Mist 19 1013 97 3000 0.51 280 19:30 10.09.2021
6392 Mist 20 1013 91 6000 0.51 330 17:54 10.09.2021
6393 Clouds 22 1013 83 8000 1.03 300 15:51 10.09.2021
6394 Clouds 22 1013 83 10000 1.54 320 13:20 10.09.2021
6395 Clouds 27 1012 60 10000 4.63 270 10:32 10.09.2021
6396 Clouds 28 1012 51 10000 2.57 270 07:52 10.09.2021
6397 Clouds 28 1012 61 10000 3.09 300 06:37 10.09.2021
6398 Mist 19 1013 94 1800 0.51 230 23:59 09.09.2021
6399 Mist 19 1013 94 3800 1.03 180 21:48 09.09.2021
6400 Mist 19 1013 94 5000 0.51 210 20:47 09.09.2021
6401 Mist 19 1013 94 5000 0.51 210 20:24 09.09.2021
6402 Mist 20 1013 91 8000 1.03 350 18:39 09.09.2021
6403 Mist 20 1014 91 9000 0.51 360 17:41 09.09.2021
6404 Mist 21 1013 88 9000 0.51 310 16:27 09.09.2021
6405 Clear 23 1013 78 10000 2.06 320 13:35 09.09.2021
6406 Clear 25 1013 65 10000 3.09 290 11:50 09.09.2021
6407 Clear 27 1012 56 10000 3.6 290 10:54 09.09.2021
6408 Clear 28 1012 48 10000 3.6 280 09:34 09.09.2021
6409 Clouds 27 1013 57 10000 2.06 190 06:55 09.09.2021
6410 Mist 24 1014 69 8000 2.06 210 04:47 09.09.2021
6411 Mist 18 1014 97 3500 1.03 50 22:58 08.09.2021
6412 Mist 18 1014 94 4000 1.03 280 21:47 08.09.2021
6413 Clouds 19 1013 88 10000 0.81 144 20:21 08.09.2021
6414 Clouds 18 1013 94 7000 1.03 120 19:37 08.09.2021
6415 Clouds 18 1013 94 9000 1.54 140 18:33 08.09.2021
6416 Clear 19 1013 94 7000 1.03 160 17:58 08.09.2021
6417 Clear 19 1013 94 7000 1.03 160 17:39 08.09.2021
6418 Clear 21 1012 83 10000 1.03 70 14:50 08.09.2021
6419 Clear 22 1011 78 10000 1.54 260 13:21 08.09.2021
6420 Clear 23 1011 74 10000 2.06 250 12:41 08.09.2021
6421 Clear 22 1011 78 10000 2.06 250 12:19 08.09.2021
6422 Clouds 26 1010 59 10000 4.63 270 10:59 08.09.2021
6423 Clouds 26 1010 59 10000 4.63 270 10:27 08.09.2021
6424 Clouds 27 1010 59 10000 4.63 270 09:25 08.09.2021
6425 Clouds 27 1010 57 10000 2.57 260 07:41 08.09.2021
6426 Clouds 26 1010 61 10000 2.06 270 05:44 08.09.2021
6427 Drizzle 19 1009 94 10000 2.06 310 22:51 07.09.2021
6428 Clouds 19 1009 94 10000 2.06 310 22:18 07.09.2021
6429 Mist 20 1008 94 10000 1.54 350 20:27 07.09.2021
6430 Drizzle 20 1008 97 4500 3.6 320 18:46 07.09.2021
6431 Drizzle 20 1008 94 4500 3.6 320 18:21 07.09.2021
6432 Drizzle 20 1007 100 4500 2.57 320 16:48 07.09.2021
6433 Drizzle 20 1007 97 4500 3.09 320 15:40 07.09.2021
6434 Rain 20 1006 97 3000 3.09 340 14:44 07.09.2021
6435 Mist 21 1005 97 2500 2.57 350 12:44 07.09.2021
6436 Mist 21 1005 94 4000 2.57 350 11:51 07.09.2021
6437 Clouds 22 1005 91 6000 3.6 110 10:41 07.09.2021
6438 Mist 21 1005 91 5000 4.12 120 08:39 07.09.2021
6439 Mist 21 1006 94 8000 3.6 130 07:44 07.09.2021
6440 Rain 20 1007 97 3000 3.6 150 05:41 07.09.2021
6441 Mist 20 1008 94 3000 3.6 160 02:36 07.09.2021
6442 Rain 19 1009 91 10000 4.63 140 00:46 07.09.2021
6443 Rain 19 1010 91 10000 4.12 140 23:34 06.09.2021
6444 Rain 19 1010 88 8000 3.6 140 22:53 06.09.2021
6445 Rain 19 1010 88 8000 3.6 140 22:33 06.09.2021
6446 Rain 18 1012 91 6000 5.66 120 20:56 06.09.2021
6447 Clouds 18 1012 88 6000 5.14 120 19:31 06.09.2021
6448 Rain 18 1013 88 8000 7.2 120 18:48 06.09.2021
6449 Rain 18 1013 88 8000 7.2 120 18:23 06.09.2021
6450 Rain 18 1014 85 7000 6.17 120 17:36 06.09.2021
6451 Rain 18 1015 91 3500 6.17 140 15:52 06.09.2021
6452 Rain 20 1015 85 6000 4.12 130 13:48 06.09.2021
6453 Rain 21 1015 78 6000 3.6 140 12:47 06.09.2021
6454 Rain 24 1015 61 10000 5.14 130 10:45 06.09.2021
6455 Clouds 25 1014 57 10000 6.69 140 08:35 06.09.2021
6456 Clouds 25 1018 52 10000 6.69 100 04:48 06.09.2021
6457 Clear 19 1018 82 10000 1.54 10 23:35 05.09.2021
6458 Clear 19 1018 79 10000 2.57 20 22:48 05.09.2021
6459 Clear 19 1018 82 10000 2.57 10 21:58 05.09.2021
6460 Clear 19 1018 82 10000 2.57 10 21:31 05.09.2021
6461 Clear 19 1018 82 10000 2.57 10 21:30 05.09.2021
6462 Clear 19 1019 75 10000 2.57 20 19:56 05.09.2021
6463 Clear 20 1020 73 10000 1.03 340 18:41 05.09.2021
6464 Clear 21 1020 66 10000 3.09 50 17:30 05.09.2021
6465 Clear 22 1019 64 10000 2.57 60 15:28 05.09.2021
6466 Clear 23 1019 56 10000 4.63 70 14:19 05.09.2021
6467 Clear 25 1018 51 10000 4.63 80 12:29 05.09.2021
6468 Clouds 26 1018 52 10000 4.12 80 10:48 05.09.2021
6469 Clouds 26 1018 52 10000 4.12 80 10:23 05.09.2021
6470 Clouds 27 1017 50 10000 4.12 70 09:21 05.09.2021
6471 Clouds 27 1017 48 10000 3.6 100 07:43 05.09.2021
6472 Clear 18 1018 79 10000 1.54 340 00:48 05.09.2021
6473 Clear 19 1018 77 10000 1.54 340 00:22 05.09.2021
6474 Clear 18 1018 77 10000 1.54 340 00:22 05.09.2021
6475 Clear 17 1018 79 10000 2.06 20 23:32 04.09.2021
6476 Clear 17 1017 82 10000 1.54 360 22:35 04.09.2021
6477 Clear 17 1017 79 10000 1.03 350 21:55 04.09.2021
6478 Clear 18 1017 69 10000 1.03 40 19:41 04.09.2021
6479 Clouds 19 1017 64 10000 1.93 69 18:19 04.09.2021
6480 Clear 22 1017 51 10000 4.12 90 15:53 04.09.2021
6481 Clear 25 1015 48 10000 5.14 90 12:48 04.09.2021
6482 Clear 26 1015 53 10000 3.6 60 11:18 04.09.2021
6483 Clouds 28 1015 41 10000 3.6 130 08:58 04.09.2021
6484 Clouds 22 1016 60 10000 0.51 60 02:32 04.09.2021
6485 Clouds 18 1014 80 10000 2.06 350 00:23 04.09.2021
6486 Clouds 17 1014 82 10000 2.06 10 23:23 03.09.2021
6487 Clear 17 1014 82 10000 1.54 20 21:53 03.09.2021
6488 Clear 17 1014 82 10000 1.54 20 21:30 03.09.2021
6489 Clouds 17 1013 80 10000 2.06 20 20:35 03.09.2021
6490 Clear 18 1013 77 10000 2.57 20 19:45 03.09.2021
6491 Clear 19 1013 75 10000 3.6 30 18:52 03.09.2021
6492 Clear 20 1012 73 10000 2.57 20 17:32 03.09.2021
6493 Clear 20 1012 73 10000 3.09 20 16:22 03.09.2021
6494 Clear 22 1011 64 10000 2.06 40 14:47 03.09.2021
6495 Clear 27 1009 45 10000 2.57 60 11:47 03.09.2021
6496 Clear 28 1008 39 10000 1.54 30 10:21 03.09.2021
6497 Clear 28 1008 42 10000 2.57 70 08:38 03.09.2021
6498 Clear 29 1009 48 10000 2.57 100 07:34 03.09.2021
6499 Clear 21 1009 80 10000 3.6 90 00:24 03.09.2021
6500 Clouds 20 1009 88 10000 2.06 40 22:43 02.09.2021
6501 Clouds 21 1008 78 10000 1.54 120 21:18 02.09.2021
6502 Clouds 22 1009 81 10000 1.54 170 18:57 02.09.2021
6503 Clear 22 1009 78 10000 2.06 160 16:57 02.09.2021
6504 Clouds 22 1009 78 10000 3.09 140 15:43 02.09.2021
6505 Clear 23 1008 75 10000 2.57 160 13:43 02.09.2021
6506 Clouds 25 1008 65 10000 2.06 120 11:46 02.09.2021
6507 Clouds 25 1008 65 10000 2.06 120 11:27 02.09.2021
6508 Clouds 26 1008 65 10000 4.12 150 09:21 02.09.2021
6509 Clouds 26 1009 57 10000 4.12 120 07:40 02.09.2021
6510 Clouds 26 1010 57 10000 1.03 80 06:40 02.09.2021
6511 Clouds 23 1011 66 10000 4.12 110 02:38 02.09.2021
6512 Clouds 22 1011 78 10000 2.06 70 01:50 02.09.2021
6513 Clouds 21 1011 83 10000 1.54 30 00:23 02.09.2021
6514 Clouds 20 1010 88 10000 1.54 30 23:27 01.09.2021
6515 Clouds 20 1010 91 10000 1.03 10 22:30 01.09.2021
6516 Clouds 20 1010 91 10000 1.03 10 22:30 01.09.2021
6517 Clouds 20 1010 88 10000 1.54 10 21:32 01.09.2021
6518 Clear 21 1010 83 10000 1.54 330 19:38 01.09.2021
6519 Clouds 21 1010 81 10000 2.57 20 17:57 01.09.2021
6520 Clouds 22 1011 78 10000 1.54 20 16:59 01.09.2021
6521 Clouds 22 1011 78 10000 1.54 20 16:36 01.09.2021
6522 Clouds 23 1010 78 10000 1.54 20 14:59 01.09.2021
6523 Clouds 23 1009 73 10000 2.06 70 11:47 01.09.2021
6524 Clouds 24 1009 69 10000 3.6 90 10:23 01.09.2021
6525 Clouds 24 1009 69 10000 5.66 80 08:27 01.09.2021
6526 Rain 23 1009 80 10000 2.57 30 06:59 01.09.2021
6527 Mist 19 1008 97 10000 2.06 340 23:32 31.08.2021
6528 Clouds 19 1008 94 10000 2.06 360 22:21 31.08.2021
6529 Clouds 19 1009 94 10000 1.03 20 20:19 31.08.2021
6530 Mist 19 1009 94 10000 1.54 30 19:43 31.08.2021
6531 Mist 19 1010 97 5000 2.57 10 17:52 31.08.2021
6532 Rain 19 1010 97 5000 2.57 10 17:25 31.08.2021
6533 Rain 19 1011 94 5000 3.09 10 16:41 31.08.2021
6534 Rain 19 1011 94 10000 3.6 120 15:25 31.08.2021
6535 Rain 19 1013 88 7000 5.66 110 12:19 31.08.2021
6536 Rain 19 1014 88 4500 5.14 90 11:19 31.08.2021
6537 Rain 18 1015 94 4000 6.17 100 10:43 31.08.2021
6538 Rain 19 1016 94 4000 4.63 80 09:41 31.08.2021
6539 Rain 20 1016 91 3500 1.03 270 07:48 31.08.2021
6540 Rain 23 1015 88 2500 2.06 340 05:56 31.08.2021
6541 Mist 21 1016 91 3500 1.54 40 23:36 30.08.2021
6542 Mist 21 1016 91 3000 1.03 320 22:32 30.08.2021
6543 Mist 21 1015 94 5000 1.03 300 21:35 30.08.2021
6544 Mist 21 1015 94 5000 1.54 50 20:40 30.08.2021
6545 Mist 21 1016 94 3000 1.03 40 19:33 30.08.2021
6546 Mist 21 1016 94 3500 0.51 270 18:58 30.08.2021
6547 Mist 22 1016 88 5000 1.54 250 17:49 30.08.2021
6548 Mist 22 1016 88 6000 1.03 340 16:26 30.08.2021
6549 Mist 23 1016 85 7000 2.06 310 15:40 30.08.2021
6550 Mist 24 1016 81 8000 1.03 260 13:55 30.08.2021
6551 Rain 25 1016 78 10000 3.09 280 12:54 30.08.2021
6552 Clear 28 1015 57 10000 1.03 330 10:42 30.08.2021
6553 Mist 25 1017 75 9000 1.03 350 03:24 30.08.2021
6554 Mist 21 1015 94 4000 0.51 250 21:33 29.08.2021
6555 Mist 21 1015 94 5000 1.03 10 20:44 29.08.2021
6556 Mist 21 1015 94 6000 0.51 80 19:26 29.08.2021
6557 Mist 22 1015 91 9000 0.51 310 17:58 29.08.2021
6558 Clear 22 1015 89 10000 1.54 310 15:50 29.08.2021
6559 Clear 23 1015 88 10000 1.03 290 14:25 29.08.2021
6560 Clear 23 1014 86 10000 2.06 260 13:44 29.08.2021
6561 Clear 24 1014 76 10000 2.57 290 12:41 29.08.2021
6562 Rain 25 1013 69 10000 2.57 290 11:51 29.08.2021
6563 Clouds 25 1013 69 10000 2.57 290 11:27 29.08.2021
6564 Clouds 26 1013 65 10000 3.09 290 10:46 29.08.2021
6565 Clouds 26 1013 65 10000 3.09 290 10:26 29.08.2021
6566 Clouds 26 1013 71 10000 3.09 280 08:58 29.08.2021
6567 Mist 21 1014 91 5000 2.06 220 00:37 29.08.2021
6568 Mist 22 1013 94 3000 1.54 150 21:54 28.08.2021
6569 Mist 22 1013 94 3500 1.54 130 20:28 28.08.2021
6570 Rain 22 1014 88 10000 1.03 220 18:43 28.08.2021
6571 Rain 22 1014 95 10000 0.52 33 18:19 28.08.2021
6572 Clouds 22 1014 93 10000 0.05 339 17:18 28.08.2021
6573 Clear 23 1014 83 10000 2.06 260 15:39 28.08.2021
6574 Clouds 24 1014 85 10000 1.53 214 14:20 28.08.2021
6575 Clouds 24 1013 74 10000 3.09 270 13:44 28.08.2021
6576 Clear 24 1013 70 10000 2.57 280 12:42 28.08.2021
6577 Clear 25 1013 65 10000 3.09 280 11:54 28.08.2021
6578 Clouds 26 1013 65 10000 3.09 260 10:41 28.08.2021
6579 Clouds 28 1013 57 10000 3.6 270 08:40 28.08.2021
6580 Clouds 28 1014 57 10000 3.6 270 07:24 28.08.2021
6581 Mist 20 1014 94 5000 2.06 160 22:29 27.08.2021
6582 Mist 20 1014 94 6000 1.54 110 20:57 27.08.2021
6583 Clouds 20 1014 95 10000 0.64 220 20:19 27.08.2021
6584 Mist 20 1014 94 6000 0.51 50 18:57 27.08.2021
6585 Mist 20 1014 94 6000 0.51 50 18:37 27.08.2021
6586 Mist 20 1014 94 7000 0.51 330 16:55 27.08.2021
6587 Clear 20 1014 94 10000 1.03 30 15:36 27.08.2021
6588 Clear 20 1014 94 10000 1.54 310 14:41 27.08.2021
6589 Clouds 21 1013 88 10000 1.54 200 12:30 27.08.2021
6590 Rain 22 1012 86 10000 1.03 200 11:24 27.08.2021
6591 Rain 22 1013 83 10000 0.51 320 10:42 27.08.2021
6592 Clouds 22 1012 83 10000 0.51 50 09:30 27.08.2021
6593 Clouds 21 1012 85 10000 2.57 150 08:41 27.08.2021
6594 Rain 23 1013 78 10000 1.03 110 05:53 27.08.2021
6595 Rain 22 1013 78 10000 2.57 190 02:48 27.08.2021
6596 Rain 24 1013 83 10000 1.54 250 00:31 27.08.2021
6597 Clouds 24 1013 83 7000 1.54 270 22:29 26.08.2021
6598 Mist 24 1013 88 7000 0.51 320 21:57 26.08.2021
6599 Clouds 24 1012 88 7000 1.03 20 20:18 26.08.2021
6600 Mist 25 1012 85 7000 1.54 210 18:49 26.08.2021
6601 Mist 25 1012 83 7000 1.03 230 17:34 26.08.2021
6602 Mist 25 1013 86 8000 1.03 220 16:32 26.08.2021
6603 Mist 25 1013 86 7000 1.03 230 15:53 26.08.2021
6604 Clouds 26 1012 84 6000 4.12 230 13:29 26.08.2021
6605 Clouds 26 1012 84 6000 4.63 220 12:49 26.08.2021
6606 Mist 27 1012 79 8000 4.12 230 11:51 26.08.2021
6607 Mist 28 1011 74 9000 4.12 210 09:40 26.08.2021
6608 Mist 28 1012 76 9000 4.63 210 08:27 26.08.2021
6609 Mist 23 1011 94 4500 3.09 150 00:46 26.08.2021
6610 Mist 22 1010 94 7000 2.57 160 22:46 25.08.2021
6611 Mist 22 1010 94 7000 2.57 160 22:26 25.08.2021
6612 Clouds 23 1010 91 6000 2.57 140 20:58 25.08.2021
6613 Clouds 23 1010 91 6000 2.57 140 20:31 25.08.2021
6614 Clouds 22 1009 97 6000 0.51 270 19:52 25.08.2021
6615 Clouds 23 1009 94 7000 1.03 200 18:18 25.08.2021
6616 Clouds 23 1008 94 10000 2.06 170 15:59 25.08.2021
6617 Clouds 23 1008 94 10000 2.06 170 15:39 25.08.2021
6618 Clouds 24 1008 88 10000 1.54 180 14:47 25.08.2021
6619 Clouds 25 1007 80 10000 2.57 170 13:54 25.08.2021
6620 Clouds 25 1006 78 10000 3.6 170 12:23 25.08.2021
6621 Clouds 27 1006 74 10000 3.09 160 11:20 25.08.2021
6622 Clouds 27 1005 71 10000 5.14 170 09:59 25.08.2021
6623 Clouds 27 1005 71 10000 5.14 170 09:36 25.08.2021
6624 Clouds 27 1005 71 10000 4.12 170 08:36 25.08.2021
6625 Mist 26 1006 78 10000 3.6 190 07:31 25.08.2021
6626 Clouds 24 1005 94 10000 2.57 170 01:25 25.08.2021
6627 Mist 23 1004 97 9000 1.54 140 23:31 24.08.2021
6628 Clouds 24 1004 94 10000 1.54 170 21:20 24.08.2021
6629 Clouds 24 1004 96 10000 1.24 186 20:18 24.08.2021
6630 Rain 24 1004 91 9000 1.03 220 19:43 24.08.2021
6631 Rain 25 1004 83 10000 4.12 260 17:55 24.08.2021
6632 Clouds 25 1004 83 10000 4.12 260 17:22 24.08.2021
6633 Clouds 25 1004 83 10000 4.12 260 17:22 24.08.2021
6634 Clouds 25 1003 83 10000 4.12 240 16:18 24.08.2021
6635 Clouds 24 1000 88 10000 3.6 230 13:51 24.08.2021
6636 Clouds 24 999 91 8000 6.69 230 12:45 24.08.2021
6637 Clouds 25 998 88 10000 5.66 220 11:21 24.08.2021
6638 Clouds 25 997 88 8000 7.2 230 10:46 24.08.2021
6639 Clouds 26 996 86 7000 5.14 220 09:53 24.08.2021
6640 Mist 25 996 91 10000 4.12 210 07:41 24.08.2021
6641 Rain 25 996 89 4000 4.12 140 05:50 24.08.2021
6642 Rain 25 996 89 4000 4.12 140 05:50 24.08.2021
6643 Clouds 24 997 83 10000 5.66 120 03:37 24.08.2021
6644 Rain 22 1000 91 10000 4.63 120 23:52 23.08.2021
6645 Rain 21 1000 94 10000 4.12 100 22:46 23.08.2021
6646 Rain 21 1000 97 10000 1.54 90 21:36 23.08.2021
6647 Clouds 21 1002 91 10000 2.57 340 19:41 23.08.2021
6648 Rain 22 1003 83 10000 3.09 60 17:49 23.08.2021
6649 Rain 22 1005 85 10000 7.2 130 15:37 23.08.2021
6650 Rain 21 1007 94 10000 4.12 170 13:56 23.08.2021
6651 Rain 21 1007 91 6000 5.66 170 12:32 23.08.2021
6652 Rain 23 1008 88 10000 4.12 150 10:50 23.08.2021
6653 Rain 23 1008 88 10000 4.12 150 10:21 23.08.2021
6654 Rain 24 1009 88 10000 3.09 140 08:35 23.08.2021
6655 Rain 24 1009 83 10000 4.12 130 07:20 23.08.2021
6656 Rain 24 1010 82 10000 2.67 149 06:41 23.08.2021
6657 Mist 23 1011 80 10000 2.06 160 01:37 23.08.2021
6658 Mist 22 1010 85 7000 2.06 60 00:45 23.08.2021
6659 Mist 21 1010 91 5000 1.03 20 22:42 22.08.2021
6660 Mist 21 1010 100 4000 1.03 10 21:18 22.08.2021
6661 Mist 21 1011 94 3500 0.51 210 20:19 22.08.2021
6662 Clouds 21 1011 91 6000 0.51 140 18:32 22.08.2021
6663 Clouds 23 1010 88 7000 0.51 80 15:49 22.08.2021
6664 Clouds 23 1010 88 9000 0.51 300 14:54 22.08.2021
6665 Clear 24 1009 80 10000